<?xml version='1.0' encoding='UTF-8'?><gpx version="1.1" creator="JPX - https://github.com/jenetics/jpx" xmlns="http://www.topografix.com/GPX/1/1"><trk><trkseg><trkpt lat="43.34566963179862" lon="12.920518196022494"><ele>305.0</ele><time>2026-04-18T07:13:00Z</time></trkpt><trkpt lat="43.34571070664086" lon="12.920593677512294"><ele>305.0</ele><time>2026-04-18T07:13:01Z</time></trkpt><trkpt lat="43.345747659448826" lon="12.920671521052121"><ele>305.0</ele><time>2026-04-18T07:13:02Z</time></trkpt><trkpt lat="43.34578631720817" lon="12.920743357148597"><ele>305.0</ele><time>2026-04-18T07:13:03Z</time></trkpt><trkpt lat="43.34582770913198" lon="12.920810684377269"><ele>305.0</ele><time>2026-04-18T07:13:04Z</time></trkpt><trkpt lat="43.345900818349804" lon="12.920917825573621"><ele>305.0</ele><time>2026-04-18T07:13:06Z</time></trkpt><trkpt lat="43.34598299864796" lon="12.920914157542647"><ele>305.1666666666667</ele><time>2026-04-18T07:13:08Z</time></trkpt><trkpt lat="43.34606753787629" lon="12.920976797209121"><ele>305.33333333333337</ele><time>2026-04-18T07:13:14Z</time></trkpt><trkpt lat="43.3461136821687" lon="12.921074156712072"><ele>305.5</ele><time>2026-04-18T07:13:15Z</time></trkpt><trkpt lat="43.34616274357083" lon="12.921164713933436"><ele>305.6666666666667</ele><time>2026-04-18T07:13:16Z</time></trkpt><trkpt lat="43.346214127789175" lon="12.921246795852984"><ele>305.8333333333333</ele><time>2026-04-18T07:13:17Z</time></trkpt><trkpt lat="43.346259362611846" lon="12.921325367130907"><ele>306.0</ele><time>2026-04-18T07:13:18Z</time></trkpt><trkpt lat="43.346294795549916" lon="12.921414084923935"><ele>306.0</ele><time>2026-04-18T07:13:19Z</time></trkpt><trkpt lat="43.34631642362978" lon="12.921516225007752"><ele>306.0</ele><time>2026-04-18T07:13:20Z</time></trkpt><trkpt lat="43.34632765176086" lon="12.921624384530881"><ele>306.0</ele><time>2026-04-18T07:13:21Z</time></trkpt><trkpt lat="43.3463566468633" lon="12.921732633492098"><ele>306.0</ele><time>2026-04-18T07:13:22Z</time></trkpt><trkpt lat="43.34642923607575" lon="12.921797149677472"><ele>306.0</ele><time>2026-04-18T07:13:23Z</time></trkpt><trkpt lat="43.346518088954824" lon="12.921811424614788"><ele>306.0</ele><time>2026-04-18T07:13:24Z</time></trkpt><trkpt lat="43.34659718080262" lon="12.921775336868809"><ele>305.85714285714283</ele><time>2026-04-18T07:13:25Z</time></trkpt><trkpt lat="43.34665201937769" lon="12.921715420928102"><ele>305.7142857142857</ele><time>2026-04-18T07:13:26Z</time></trkpt><trkpt lat="43.3466917553031" lon="12.921620563210308"><ele>305.57142857142856</ele><time>2026-04-18T07:13:27Z</time></trkpt><trkpt lat="43.346711498720474" lon="12.921514823346465"><ele>305.42857142857144</ele><time>2026-04-18T07:13:28Z</time></trkpt><trkpt lat="43.34669275094172" lon="12.92142799455928"><ele>305.2857142857143</ele><time>2026-04-18T07:13:29Z</time></trkpt><trkpt lat="43.34673868631927" lon="12.921350092677539"><ele>305.14285714285717</ele><time>2026-04-18T07:13:30Z</time></trkpt><trkpt lat="43.346782571670914" lon="12.921281965530067"><ele>305.0</ele><time>2026-04-18T07:13:31Z</time></trkpt><trkpt lat="43.34687856683803" lon="12.921177088121064"><ele>305.0</ele><time>2026-04-18T07:13:33Z</time></trkpt><trkpt lat="43.34695548067571" lon="12.921093211367227"><ele>305.0</ele><time>2026-04-18T07:13:35Z</time></trkpt><trkpt lat="43.34706039312052" lon="12.92096991673176"><ele>305.0</ele><time>2026-04-18T07:13:37Z</time></trkpt><trkpt lat="43.34713201471935" lon="12.920891737212287"><ele>305.0</ele><time>2026-04-18T07:13:38Z</time></trkpt><trkpt lat="43.3472177582138" lon="12.92080043628198"><ele>305.0</ele><time>2026-04-18T07:13:39Z</time></trkpt><trkpt lat="43.34730110194505" lon="12.920706294328582"><ele>304.5</ele><time>2026-04-18T07:13:40Z</time></trkpt><trkpt lat="43.34737732561807" lon="12.92060858427248"><ele>304.0</ele><time>2026-04-18T07:13:41Z</time></trkpt><trkpt lat="43.34746779159406" lon="12.920495484233395"><ele>303.5</ele><time>2026-04-18T07:13:42Z</time></trkpt><trkpt lat="43.34755670539211" lon="12.920387967230882"><ele>303.0</ele><time>2026-04-18T07:13:43Z</time></trkpt><trkpt lat="43.34765555164616" lon="12.92027245316331"><ele>303.0</ele><time>2026-04-18T07:13:44Z</time></trkpt><trkpt lat="43.34774956162558" lon="12.920162684954187"><ele>303.0</ele><time>2026-04-18T07:13:45Z</time></trkpt><trkpt lat="43.347834913890836" lon="12.92006250512529"><ele>303.0</ele><time>2026-04-18T07:13:46Z</time></trkpt><trkpt lat="43.34791702708703" lon="12.919968352320243"><ele>303.0</ele><time>2026-04-18T07:13:47Z</time></trkpt><trkpt lat="43.3479959398874" lon="12.919878469279295"><ele>303.0</ele><time>2026-04-18T07:13:48Z</time></trkpt><trkpt lat="43.348073592068694" lon="12.919780605232031"><ele>303.0</ele><time>2026-04-18T07:13:49Z</time></trkpt><trkpt lat="43.348146170183504" lon="12.919694649892245"><ele>303.0</ele><time>2026-04-18T07:13:50Z</time></trkpt><trkpt lat="43.34821638052955" lon="12.919613301060918"><ele>303.0</ele><time>2026-04-18T07:13:51Z</time></trkpt><trkpt lat="43.34827717205724" lon="12.91954442055279"><ele>303.0</ele><time>2026-04-18T07:13:52Z</time></trkpt><trkpt lat="43.34834464522842" lon="12.919470965897641"><ele>303.0</ele><time>2026-04-18T07:13:53Z</time></trkpt><trkpt lat="43.3484148684528" lon="12.919425276984407"><ele>303.0</ele><time>2026-04-18T07:13:54Z</time></trkpt><trkpt lat="43.34851096991199" lon="12.919608928096762"><ele>303.0</ele><time>2026-04-18T07:13:55Z</time></trkpt><trkpt lat="43.348595534986394" lon="12.919641225720419"><ele>303.0</ele><time>2026-04-18T07:13:57Z</time></trkpt><trkpt lat="43.348692235898895" lon="12.919490387695124"><ele>303.0</ele><time>2026-04-18T07:13:58Z</time></trkpt><trkpt lat="43.348761118606724" lon="12.919558681946496"><ele>303.0</ele><time>2026-04-18T07:13:59Z</time></trkpt><trkpt lat="43.34883023540205" lon="12.919639378492665"><ele>303.0</ele><time>2026-04-18T07:14:00Z</time></trkpt><trkpt lat="43.34890457188107" lon="12.919736603942052"><ele>302.75</ele><time>2026-04-18T07:14:01Z</time></trkpt><trkpt lat="43.348986593415134" lon="12.919839368579302"><ele>302.5</ele><time>2026-04-18T07:14:02Z</time></trkpt><trkpt lat="43.34907532834735" lon="12.919938445213415"><ele>302.25</ele><time>2026-04-18T07:14:03Z</time></trkpt><trkpt lat="43.34917171927648" lon="12.920039755074493"><ele>302.0</ele><time>2026-04-18T07:14:04Z</time></trkpt><trkpt lat="43.34927813976585" lon="12.920159807083836"><ele>302.0</ele><time>2026-04-18T07:14:05Z</time></trkpt><trkpt lat="43.349375577217785" lon="12.920271959825998"><ele>302.0</ele><time>2026-04-18T07:14:06Z</time></trkpt><trkpt lat="43.34947017355324" lon="12.920387098779345"><ele>302.0</ele><time>2026-04-18T07:14:07Z</time></trkpt><trkpt lat="43.349565926800935" lon="12.920500891503856"><ele>302.0</ele><time>2026-04-18T07:14:08Z</time></trkpt><trkpt lat="43.34966019881022" lon="12.920614816457896"><ele>301.5</ele><time>2026-04-18T07:14:08.999Z</time></trkpt><trkpt lat="43.34975752103472" lon="12.920722982570444"><ele>301.0</ele><time>2026-04-18T07:14:09.999Z</time></trkpt><trkpt lat="43.34984935921933" lon="12.920826335490698"><ele>300.5</ele><time>2026-04-18T07:14:10.999Z</time></trkpt><trkpt lat="43.349926810925034" lon="12.920933921016323"><ele>300.0</ele><time>2026-04-18T07:14:11.999Z</time></trkpt><trkpt lat="43.349995836724354" lon="12.921063476945612"><ele>300.0</ele><time>2026-04-18T07:14:12.999Z</time></trkpt><trkpt lat="43.350054133083034" lon="12.92120241313307"><ele>300.0</ele><time>2026-04-18T07:14:13.999Z</time></trkpt><trkpt lat="43.35010575146179" lon="12.921320040458262"><ele>300.0</ele><time>2026-04-18T07:14:14.999Z</time></trkpt><trkpt lat="43.35016149463531" lon="12.921420662090316"><ele>300.0</ele><time>2026-04-18T07:14:15.999Z</time></trkpt><trkpt lat="43.35022128018286" lon="12.921535962222055"><ele>300.0</ele><time>2026-04-18T07:14:16.999Z</time></trkpt><trkpt lat="43.35027472950188" lon="12.921676346388708"><ele>299.75</ele><time>2026-04-18T07:14:17.999Z</time></trkpt><trkpt lat="43.35033469784086" lon="12.921848103571104"><ele>299.5</ele><time>2026-04-18T07:14:18.999Z</time></trkpt><trkpt lat="43.35042399312216" lon="12.921998242649437"><ele>299.25</ele><time>2026-04-18T07:14:19.999Z</time></trkpt><trkpt lat="43.350513247623304" lon="12.922120669864547"><ele>299.0</ele><time>2026-04-18T07:14:20.999Z</time></trkpt><trkpt lat="43.35059387606668" lon="12.922231164617473"><ele>299.0</ele><time>2026-04-18T07:14:21.999Z</time></trkpt><trkpt lat="43.35066809070913" lon="12.922321215815959"><ele>299.0</ele><time>2026-04-18T07:14:22.999Z</time></trkpt><trkpt lat="43.35073496180131" lon="12.92240331520419"><ele>299.0</ele><time>2026-04-18T07:14:23.999Z</time></trkpt><trkpt lat="43.35079922498134" lon="12.922470132501514"><ele>299.0</ele><time>2026-04-18T07:14:25Z</time></trkpt><trkpt lat="43.350854341904885" lon="12.922524175728675"><ele>299.0</ele><time>2026-04-18T07:14:26Z</time></trkpt><trkpt lat="43.35091781130987" lon="12.92260664291509"><ele>299.0</ele><time>2026-04-18T07:14:28Z</time></trkpt><trkpt lat="43.35100055056592" lon="12.92269184693035"><ele>299.0</ele><time>2026-04-18T07:14:30Z</time></trkpt><trkpt lat="43.351083263996806" lon="12.922593921365614"><ele>299.0</ele><time>2026-04-18T07:14:31Z</time></trkpt><trkpt lat="43.351123572086486" lon="12.922515642709538"><ele>299.0</ele><time>2026-04-18T07:14:32Z</time></trkpt><trkpt lat="43.35117233583347" lon="12.922418314197152"><ele>299.0</ele><time>2026-04-18T07:14:33Z</time></trkpt><trkpt lat="43.351251503018744" lon="12.922335073232137"><ele>299.0</ele><time>2026-04-18T07:14:34Z</time></trkpt><trkpt lat="43.3513405228673" lon="12.92227855226708"><ele>298.75</ele><time>2026-04-18T07:14:35Z</time></trkpt><trkpt lat="43.351427085040136" lon="12.922169068302068"><ele>298.5</ele><time>2026-04-18T07:14:36Z</time></trkpt><trkpt lat="43.35154783741861" lon="12.922047171659111"><ele>298.25</ele><time>2026-04-18T07:14:37Z</time></trkpt><trkpt lat="43.351684757477415" lon="12.92194530400734"><ele>298.0</ele><time>2026-04-18T07:14:38Z</time></trkpt><trkpt lat="43.35179535927465" lon="12.921789675947638"><ele>295.3333333333333</ele><time>2026-04-18T07:14:39Z</time></trkpt><trkpt lat="43.35192657118521" lon="12.921676267012549"><ele>292.6666666666667</ele><time>2026-04-18T07:14:40Z</time></trkpt><trkpt lat="43.35204851644502" lon="12.921531260416012"><ele>290.0</ele><time>2026-04-18T07:14:41Z</time></trkpt><trkpt lat="43.35215302472686" lon="12.92134431474595"><ele>287.6666666666667</ele><time>2026-04-18T07:14:42Z</time></trkpt><trkpt lat="43.35224708615031" lon="12.921146022575334"><ele>285.3333333333333</ele><time>2026-04-18T07:14:43Z</time></trkpt><trkpt lat="43.352335815937764" lon="12.920967248592206"><ele>283.0</ele><time>2026-04-18T07:14:44Z</time></trkpt><trkpt lat="43.35244082990872" lon="12.920832065163635"><ele>283.0</ele><time>2026-04-18T07:14:45Z</time></trkpt><trkpt lat="43.35252176008743" lon="12.92067594301595"><ele>283.0</ele><time>2026-04-18T07:14:46Z</time></trkpt><trkpt lat="43.35260017827024" lon="12.920541658603325"><ele>283.0</ele><time>2026-04-18T07:14:47Z</time></trkpt><trkpt lat="43.3526811822457" lon="12.920434724733306"><ele>283.0</ele><time>2026-04-18T07:14:48Z</time></trkpt><trkpt lat="43.352759266079744" lon="12.92036123497086"><ele>283.0</ele><time>2026-04-18T07:14:49Z</time></trkpt><trkpt lat="43.35280145008371" lon="12.92025625701987"><ele>283.0</ele><time>2026-04-18T07:14:50Z</time></trkpt><trkpt lat="43.3528249447391" lon="12.920168142760197"><ele>283.0</ele><time>2026-04-18T07:14:51Z</time></trkpt><trkpt lat="43.35271138687058" lon="12.920024136595615"><ele>283.0</ele><time>2026-04-18T07:14:52Z</time></trkpt><trkpt lat="43.35261420701145" lon="12.919921034855872"><ele>283.0</ele><time>2026-04-18T07:14:53Z</time></trkpt><trkpt lat="43.35249336413159" lon="12.919841793682089"><ele>283.3333333333333</ele><time>2026-04-18T07:14:54Z</time></trkpt><trkpt lat="43.352374666199225" lon="12.919733698266997"><ele>283.6666666666667</ele><time>2026-04-18T07:14:55Z</time></trkpt><trkpt lat="43.352249894202735" lon="12.919586486402679"><ele>284.0</ele><time>2026-04-18T07:14:56Z</time></trkpt><trkpt lat="43.35212547560124" lon="12.919420171627022"><ele>285.0</ele><time>2026-04-18T07:14:57Z</time></trkpt><trkpt lat="43.35200959812558" lon="12.919230728367832"><ele>286.0</ele><time>2026-04-18T07:14:58Z</time></trkpt><trkpt lat="43.35189700704595" lon="12.919035028340975"><ele>287.0</ele><time>2026-04-18T07:14:59Z</time></trkpt><trkpt lat="43.351782333046856" lon="12.918851004277455"><ele>287.0</ele><time>2026-04-18T07:15:00Z</time></trkpt><trkpt lat="43.35167486729988" lon="12.91868075098984"><ele>287.0</ele><time>2026-04-18T07:15:01Z</time></trkpt><trkpt lat="43.35157498414534" lon="12.918519921555601"><ele>287.0</ele><time>2026-04-18T07:15:02Z</time></trkpt><trkpt lat="43.35148030833841" lon="12.918345546049377"><ele>288.0</ele><time>2026-04-18T07:15:03Z</time></trkpt><trkpt lat="43.35140576493799" lon="12.918136989303447"><ele>289.0</ele><time>2026-04-18T07:15:04Z</time></trkpt><trkpt lat="43.35137074056759" lon="12.91790614671362"><ele>290.0</ele><time>2026-04-18T07:15:05Z</time></trkpt><trkpt lat="43.3513615526878" lon="12.917665549624376"><ele>289.0</ele><time>2026-04-18T07:15:06Z</time></trkpt><trkpt lat="43.35134773898408" lon="12.917436373599287"><ele>288.0</ele><time>2026-04-18T07:15:07Z</time></trkpt><trkpt lat="43.35131117885251" lon="12.917208650193666"><ele>287.0</ele><time>2026-04-18T07:15:08Z</time></trkpt><trkpt lat="43.35123453612577" lon="12.917001594625985"><ele>287.0</ele><time>2026-04-18T07:15:09Z</time></trkpt><trkpt lat="43.3511306219106" lon="12.916821650127899"><ele>287.0</ele><time>2026-04-18T07:15:10Z</time></trkpt><trkpt lat="43.351008089526125" lon="12.916658611286845"><ele>287.0</ele><time>2026-04-18T07:15:11Z</time></trkpt><trkpt lat="43.35088158942147" lon="12.916516188002563"><ele>288.5</ele><time>2026-04-18T07:15:12Z</time></trkpt><trkpt lat="43.350766771258535" lon="12.916394592289066"><ele>290.0</ele><time>2026-04-18T07:15:13Z</time></trkpt><trkpt lat="43.3506582398732" lon="12.916272594277267"><ele>291.5</ele><time>2026-04-18T07:15:14Z</time></trkpt><trkpt lat="43.350559507276515" lon="12.916126437360912"><ele>293.0</ele><time>2026-04-18T07:15:15Z</time></trkpt><trkpt lat="43.35045585855131" lon="12.915962676904456"><ele>295.33333333333337</ele><time>2026-04-18T07:15:16Z</time></trkpt><trkpt lat="43.35033470885533" lon="12.915796874329976"><ele>297.6666666666667</ele><time>2026-04-18T07:15:17Z</time></trkpt><trkpt lat="43.35021740178535" lon="12.915636234597311"><ele>300.0</ele><time>2026-04-18T07:15:18Z</time></trkpt><trkpt lat="43.350098717070864" lon="12.915461978616634"><ele>300.0</ele><time>2026-04-18T07:15:19Z</time></trkpt><trkpt lat="43.3499925514251" lon="12.915287714532779"><ele>300.0</ele><time>2026-04-18T07:15:20Z</time></trkpt><trkpt lat="43.349888993777284" lon="12.915111620622865"><ele>300.0</ele><time>2026-04-18T07:15:21Z</time></trkpt><trkpt lat="43.34967886861968" lon="12.914745118208032"><ele>300.3333333333333</ele><time>2026-04-18T07:15:23Z</time></trkpt><trkpt lat="43.349570873087885" lon="12.91454712745131"><ele>300.66666666666663</ele><time>2026-04-18T07:15:24Z</time></trkpt><trkpt lat="43.34947068567339" lon="12.914334852427762"><ele>301.0</ele><time>2026-04-18T07:15:25Z</time></trkpt><trkpt lat="43.34939043785321" lon="12.914107156398957"><ele>301.0</ele><time>2026-04-18T07:15:26Z</time></trkpt><trkpt lat="43.349321957951155" lon="12.913890133527513"><ele>301.0</ele><time>2026-04-18T07:15:27Z</time></trkpt><trkpt lat="43.34925697184309" lon="12.913676060732008"><ele>301.0</ele><time>2026-04-18T07:15:28Z</time></trkpt><trkpt lat="43.34919663048773" lon="12.913466463991432"><ele>301.66666666666663</ele><time>2026-04-18T07:15:29Z</time></trkpt><trkpt lat="43.34915078828968" lon="12.913254167823025"><ele>302.3333333333333</ele><time>2026-04-18T07:15:30Z</time></trkpt><trkpt lat="43.349123961207134" lon="12.913051052155023"><ele>303.0</ele><time>2026-04-18T07:15:31Z</time></trkpt><trkpt lat="43.34912367400243" lon="12.912858319798628"><ele>303.0</ele><time>2026-04-18T07:15:32Z</time></trkpt><trkpt lat="43.3491427474308" lon="12.912679588899035"><ele>303.0</ele><time>2026-04-18T07:15:33Z</time></trkpt><trkpt lat="43.34916227198162" lon="12.912505366077426"><ele>303.0</ele><time>2026-04-18T07:15:34Z</time></trkpt><trkpt lat="43.34918208514321" lon="12.912346713240629"><ele>303.0</ele><time>2026-04-18T07:15:35Z</time></trkpt><trkpt lat="43.34920216493643" lon="12.912201353457137"><ele>303.0</ele><time>2026-04-18T07:15:36Z</time></trkpt><trkpt lat="43.34921627176017" lon="12.912060533931376"><ele>303.0</ele><time>2026-04-18T07:15:37Z</time></trkpt><trkpt lat="43.34922987015362" lon="12.911936470086646"><ele>303.0</ele><time>2026-04-18T07:15:38Z</time></trkpt><trkpt lat="43.34924008758988" lon="12.911820784981861"><ele>303.0</ele><time>2026-04-18T07:15:39Z</time></trkpt><trkpt lat="43.349250061625185" lon="12.911667454445137"><ele>303.0</ele><time>2026-04-18T07:15:41Z</time></trkpt><trkpt lat="43.34926830264857" lon="12.911471465075838"><ele>303.0</ele><time>2026-04-18T07:15:43Z</time></trkpt><trkpt lat="43.349287530176994" lon="12.911316328592365"><ele>303.0</ele><time>2026-04-18T07:15:44Z</time></trkpt><trkpt lat="43.349320266351874" lon="12.911137699298"><ele>303.0</ele><time>2026-04-18T07:15:45Z</time></trkpt><trkpt lat="43.34937244984902" lon="12.91094813512356"><ele>303.0</ele><time>2026-04-18T07:15:46Z</time></trkpt><trkpt lat="43.349449893002806" lon="12.910740032315598"><ele>303.6666666666667</ele><time>2026-04-18T07:15:47Z</time></trkpt><trkpt lat="43.3495486313448" lon="12.910537461074785"><ele>304.33333333333337</ele><time>2026-04-18T07:15:48Z</time></trkpt><trkpt lat="43.34967339618467" lon="12.910363147757407"><ele>305.0</ele><time>2026-04-18T07:15:49Z</time></trkpt><trkpt lat="43.34982170936725" lon="12.910205985016997"><ele>306.0</ele><time>2026-04-18T07:15:50Z</time></trkpt><trkpt lat="43.34997970519878" lon="12.910045238252252"><ele>307.0</ele><time>2026-04-18T07:15:51Z</time></trkpt><trkpt lat="43.35013073993809" lon="12.909880459692081"><ele>308.0</ele><time>2026-04-18T07:15:52Z</time></trkpt><trkpt lat="43.35027959537802" lon="12.909717813595286"><ele>308.0</ele><time>2026-04-18T07:15:53Z</time></trkpt><trkpt lat="43.35041553236019" lon="12.9095622467557"><ele>308.0</ele><time>2026-04-18T07:15:54Z</time></trkpt><trkpt lat="43.35053648214509" lon="12.909405687884455"><ele>308.0</ele><time>2026-04-18T07:15:55Z</time></trkpt><trkpt lat="43.35066961344619" lon="12.909253883981508"><ele>307.5</ele><time>2026-04-18T07:15:56Z</time></trkpt><trkpt lat="43.35077866253908" lon="12.909119537387964"><ele>307.0</ele><time>2026-04-18T07:15:57Z</time></trkpt><trkpt lat="43.35087567408516" lon="12.90896153254567"><ele>306.5</ele><time>2026-04-18T07:15:58Z</time></trkpt><trkpt lat="43.350955410414414" lon="12.908800801086723"><ele>306.0</ele><time>2026-04-18T07:15:59Z</time></trkpt><trkpt lat="43.3510147455" lon="12.908639840990348"><ele>305.75</ele><time>2026-04-18T07:16:00Z</time></trkpt><trkpt lat="43.351098557974794" lon="12.908358222524095"><ele>305.5</ele><time>2026-04-18T07:16:02Z</time></trkpt><trkpt lat="43.35115079591152" lon="12.908253831622895"><ele>305.25</ele><time>2026-04-18T07:16:02.999Z</time></trkpt><trkpt lat="43.3512246935014" lon="12.908172836579247"><ele>305.0</ele><time>2026-04-18T07:16:03.999Z</time></trkpt><trkpt lat="43.35131732799582" lon="12.90812318051055"><ele>303.75</ele><time>2026-04-18T07:16:04.999Z</time></trkpt><trkpt lat="43.35142866524811" lon="12.908117739814033"><ele>302.5</ele><time>2026-04-18T07:16:05.999Z</time></trkpt><trkpt lat="43.351548160963006" lon="12.908156641141067"><ele>301.25</ele><time>2026-04-18T07:16:06.999Z</time></trkpt><trkpt lat="43.35168235529696" lon="12.908207926471425"><ele>300.0</ele><time>2026-04-18T07:16:07.999Z</time></trkpt><trkpt lat="43.35182160924187" lon="12.908253377119806"><ele>300.0</ele><time>2026-04-18T07:16:08.999Z</time></trkpt><trkpt lat="43.35196839742958" lon="12.908294297637468"><ele>300.0</ele><time>2026-04-18T07:16:09.999Z</time></trkpt><trkpt lat="43.35212714472026" lon="12.908337873174288"><ele>300.0</ele><time>2026-04-18T07:16:10.999Z</time></trkpt><trkpt lat="43.35229202221205" lon="12.908381591650299"><ele>299.0</ele><time>2026-04-18T07:16:11.999Z</time></trkpt><trkpt lat="43.3524617279348" lon="12.908424144054118"><ele>298.0</ele><time>2026-04-18T07:16:12.999Z</time></trkpt><trkpt lat="43.35263669244912" lon="12.908458233664396"><ele>297.0</ele><time>2026-04-18T07:16:13.999Z</time></trkpt><trkpt lat="43.352812827462216" lon="12.908478542883866"><ele>297.0</ele><time>2026-04-18T07:16:14.999Z</time></trkpt><trkpt lat="43.35299365960435" lon="12.908481956784513"><ele>297.0</ele><time>2026-04-18T07:16:15.999Z</time></trkpt><trkpt lat="43.35317498227574" lon="12.908445045728419"><ele>297.0</ele><time>2026-04-18T07:16:16.999Z</time></trkpt><trkpt lat="43.353353077148874" lon="12.90834770020834"><ele>296.3333333333333</ele><time>2026-04-18T07:16:17.999Z</time></trkpt><trkpt lat="43.353527305848914" lon="12.908202120262786"><ele>295.66666666666663</ele><time>2026-04-18T07:16:18.999Z</time></trkpt><trkpt lat="43.353699054331315" lon="12.908045312639763"><ele>295.0</ele><time>2026-04-18T07:16:19.999Z</time></trkpt><trkpt lat="43.35388348095269" lon="12.907897144765702"><ele>296.3333333333333</ele><time>2026-04-18T07:16:20.999Z</time></trkpt><trkpt lat="43.35405997230999" lon="12.907765004438453"><ele>297.6666666666667</ele><time>2026-04-18T07:16:21.999Z</time></trkpt><trkpt lat="43.354245765748246" lon="12.907631135161862"><ele>299.0</ele><time>2026-04-18T07:16:22.999Z</time></trkpt><trkpt lat="43.354443857160696" lon="12.907527600262144"><ele>299.33333333333337</ele><time>2026-04-18T07:16:23.999Z</time></trkpt><trkpt lat="43.35462568689928" lon="12.907397140246507"><ele>299.6666666666667</ele><time>2026-04-18T07:16:24.999Z</time></trkpt><trkpt lat="43.354818327390596" lon="12.90729317231544"><ele>300.0</ele><time>2026-04-18T07:16:25.999Z</time></trkpt><trkpt lat="43.355007585446245" lon="12.907194688333808"><ele>300.3333333333333</ele><time>2026-04-18T07:16:26.999Z</time></trkpt><trkpt lat="43.355198391847395" lon="12.907102353508277"><ele>300.66666666666663</ele><time>2026-04-18T07:16:27.999Z</time></trkpt><trkpt lat="43.355390111952715" lon="12.907037603615226"><ele>301.0</ele><time>2026-04-18T07:16:28.999Z</time></trkpt><trkpt lat="43.355591490130635" lon="12.907013363598448"><ele>301.0</ele><time>2026-04-18T07:16:29.999Z</time></trkpt><trkpt lat="43.35579666097244" lon="12.907013090632216"><ele>301.0</ele><time>2026-04-18T07:16:31Z</time></trkpt><trkpt lat="43.35601020353644" lon="12.907009186309322"><ele>301.0</ele><time>2026-04-18T07:16:32Z</time></trkpt><trkpt lat="43.35622247165805" lon="12.907005405720602"><ele>301.3333333333333</ele><time>2026-04-18T07:16:33Z</time></trkpt><trkpt lat="43.35643259962574" lon="12.907002331353896"><ele>301.6666666666667</ele><time>2026-04-18T07:16:34Z</time></trkpt><trkpt lat="43.3566440064403" lon="12.907012235437072"><ele>302.0</ele><time>2026-04-18T07:16:35Z</time></trkpt><trkpt lat="43.35685694923794" lon="12.907043504978112"><ele>302.0</ele><time>2026-04-18T07:16:36Z</time></trkpt><trkpt lat="43.35707033005667" lon="12.907106665326559"><ele>302.0</ele><time>2026-04-18T07:16:37Z</time></trkpt><trkpt lat="43.35728076696859" lon="12.907210071290677"><ele>302.0</ele><time>2026-04-18T07:16:38Z</time></trkpt><trkpt lat="43.35748926870508" lon="12.907314096678459"><ele>303.5</ele><time>2026-04-18T07:16:39Z</time></trkpt><trkpt lat="43.3576993225781" lon="12.907409313760656"><ele>305.0</ele><time>2026-04-18T07:16:40Z</time></trkpt><trkpt lat="43.35792725798575" lon="12.907480970037287"><ele>305.5</ele><time>2026-04-18T07:16:41Z</time></trkpt><trkpt lat="43.358157977060195" lon="12.907527512010942"><ele>306.0</ele><time>2026-04-18T07:16:42Z</time></trkpt><trkpt lat="43.358385170695506" lon="12.907555119355461"><ele>306.5</ele><time>2026-04-18T07:16:43Z</time></trkpt><trkpt lat="43.35861720988304" lon="12.90758414215824"><ele>307.0</ele><time>2026-04-18T07:16:44Z</time></trkpt><trkpt lat="43.35884243792878" lon="12.907619694346423"><ele>309.3333333333333</ele><time>2026-04-18T07:16:45Z</time></trkpt><trkpt lat="43.35906525727724" lon="12.907657154618779"><ele>311.6666666666667</ele><time>2026-04-18T07:16:46Z</time></trkpt><trkpt lat="43.35927566888239" lon="12.907691204992322"><ele>314.0</ele><time>2026-04-18T07:16:47Z</time></trkpt><trkpt lat="43.35947427903637" lon="12.907718667166188"><ele>314.0</ele><time>2026-04-18T07:16:48Z</time></trkpt><trkpt lat="43.35966227104905" lon="12.907745637965808"><ele>314.0</ele><time>2026-04-18T07:16:49Z</time></trkpt><trkpt lat="43.35984077917093" lon="12.907784458323837"><ele>314.0</ele><time>2026-04-18T07:16:50Z</time></trkpt><trkpt lat="43.36000687833557" lon="12.90787773918887"><ele>314.6666666666667</ele><time>2026-04-18T07:16:51Z</time></trkpt><trkpt lat="43.3601229156021" lon="12.908094112222866"><ele>315.3333333333333</ele><time>2026-04-18T07:16:52Z</time></trkpt><trkpt lat="43.36021730903874" lon="12.90834933710631"><ele>316.0</ele><time>2026-04-18T07:16:53Z</time></trkpt><trkpt lat="43.36032780485967" lon="12.908616835508784"><ele>316.3333333333333</ele><time>2026-04-18T07:16:54Z</time></trkpt><trkpt lat="43.36041392801684" lon="12.908892819769397"><ele>316.6666666666667</ele><time>2026-04-18T07:16:55Z</time></trkpt><trkpt lat="43.36051381141274" lon="12.90912065572299"><ele>317.0</ele><time>2026-04-18T07:16:56Z</time></trkpt><trkpt lat="43.36062820060256" lon="12.909312072292817"><ele>318.6666666666667</ele><time>2026-04-18T07:16:57Z</time></trkpt><trkpt lat="43.36078237348264" lon="12.909476730474243"><ele>320.3333333333333</ele><time>2026-04-18T07:16:58Z</time></trkpt><trkpt lat="43.36095219138028" lon="12.909698290637158"><ele>322.0</ele><time>2026-04-18T07:16:59Z</time></trkpt><trkpt lat="43.36116335566465" lon="12.909944976479832"><ele>323.5</ele><time>2026-04-18T07:17:00Z</time></trkpt><trkpt lat="43.36137925249658" lon="12.910204188393196"><ele>325.0</ele><time>2026-04-18T07:17:01Z</time></trkpt><trkpt lat="43.361600814037324" lon="12.91045989874956"><ele>325.0</ele><time>2026-04-18T07:17:02Z</time></trkpt><trkpt lat="43.361819385921805" lon="12.910691383256465"><ele>325.0</ele><time>2026-04-18T07:17:03Z</time></trkpt><trkpt lat="43.36203347424864" lon="12.910928729031806"><ele>323.5</ele><time>2026-04-18T07:17:04Z</time></trkpt><trkpt lat="43.362244710766824" lon="12.911171184082862"><ele>322.0</ele><time>2026-04-18T07:17:05Z</time></trkpt><trkpt lat="43.36245481349325" lon="12.911411562187544"><ele>322.0</ele><time>2026-04-18T07:17:06Z</time></trkpt><trkpt lat="43.362665918932656" lon="12.911649541862621"><ele>322.0</ele><time>2026-04-18T07:17:07Z</time></trkpt><trkpt lat="43.36287915249091" lon="12.911888251329142"><ele>322.0</ele><time>2026-04-18T07:17:08Z</time></trkpt><trkpt lat="43.36309280542531" lon="12.912128415237543"><ele>322.0</ele><time>2026-04-18T07:17:09Z</time></trkpt><trkpt lat="43.36329951201832" lon="12.912387744765903"><ele>326.5</ele><time>2026-04-18T07:17:10Z</time></trkpt><trkpt lat="43.36351287562692" lon="12.912630698237903"><ele>331.0</ele><time>2026-04-18T07:17:11Z</time></trkpt><trkpt lat="43.36377002131486" lon="12.912805157198992"><ele>331.5</ele><time>2026-04-18T07:17:12Z</time></trkpt><trkpt lat="43.36399843436112" lon="12.91301090250919"><ele>332.0</ele><time>2026-04-18T07:17:13Z</time></trkpt><trkpt lat="43.36423551608803" lon="12.913183657940746"><ele>332.0</ele><time>2026-04-18T07:17:14Z</time></trkpt><trkpt lat="43.36449286932822" lon="12.913303532197446"><ele>332.0</ele><time>2026-04-18T07:17:15Z</time></trkpt><trkpt lat="43.364762445853444" lon="12.913361838055323"><ele>332.5</ele><time>2026-04-18T07:17:16Z</time></trkpt><trkpt lat="43.36503644299861" lon="12.913406699661808"><ele>333.0</ele><time>2026-04-18T07:17:17Z</time></trkpt><trkpt lat="43.36530759174285" lon="12.913462405041335"><ele>337.0</ele><time>2026-04-18T07:17:18Z</time></trkpt><trkpt lat="43.3655683049508" lon="12.913512592735627"><ele>341.0</ele><time>2026-04-18T07:17:19Z</time></trkpt><trkpt lat="43.36580805568116" lon="12.913604320919317"><ele>341.0</ele><time>2026-04-18T07:17:20Z</time></trkpt><trkpt lat="43.36601923360848" lon="12.913767028819183"><ele>341.0</ele><time>2026-04-18T07:17:21Z</time></trkpt><trkpt lat="43.36620885475488" lon="12.914014150522961"><ele>345.5</ele><time>2026-04-18T07:17:22Z</time></trkpt><trkpt lat="43.36640800499128" lon="12.914268502918983"><ele>350.0</ele><time>2026-04-18T07:17:23Z</time></trkpt><trkpt lat="43.36660637789471" lon="12.914506071616353"><ele>350.0</ele><time>2026-04-18T07:17:24Z</time></trkpt><trkpt lat="43.36680781538688" lon="12.914741040920434"><ele>350.0</ele><time>2026-04-18T07:17:25Z</time></trkpt><trkpt lat="43.36700106190633" lon="12.914973449446272"><ele>354.0</ele><time>2026-04-18T07:17:26Z</time></trkpt><trkpt lat="43.36719850143409" lon="12.915191595063904"><ele>358.0</ele><time>2026-04-18T07:17:27Z</time></trkpt><trkpt lat="43.36743047053151" lon="12.915347197514016"><ele>358.0</ele><time>2026-04-18T07:17:28Z</time></trkpt><trkpt lat="43.367669619235656" lon="12.915477799677614"><ele>358.0</ele><time>2026-04-18T07:17:29Z</time></trkpt><trkpt lat="43.367866820669775" lon="12.915661038592903"><ele>358.0</ele><time>2026-04-18T07:17:30Z</time></trkpt><trkpt lat="43.368013992235355" lon="12.915888541979037"><ele>358.0</ele><time>2026-04-18T07:17:31Z</time></trkpt><trkpt lat="43.36810664780222" lon="12.916134045779899"><ele>358.0</ele><time>2026-04-18T07:17:32Z</time></trkpt><trkpt lat="43.3681567931905" lon="12.916378982809949"><ele>358.66666666666663</ele><time>2026-04-18T07:17:33Z</time></trkpt><trkpt lat="43.368211122268846" lon="12.91660706756369"><ele>359.3333333333333</ele><time>2026-04-18T07:17:34Z</time></trkpt><trkpt lat="43.368317239939365" lon="12.916796082532072"><ele>360.0</ele><time>2026-04-18T07:17:35Z</time></trkpt><trkpt lat="43.36843685046186" lon="12.916899656806239"><ele>360.0</ele><time>2026-04-18T07:17:36Z</time></trkpt><trkpt lat="43.368594246198256" lon="12.916919558451758"><ele>360.0</ele><time>2026-04-18T07:17:37Z</time></trkpt><trkpt lat="43.36876509871274" lon="12.916877588482576"><ele>360.0</ele><time>2026-04-18T07:17:38Z</time></trkpt><trkpt lat="43.36895625986664" lon="12.91677233143981"><ele>368.5</ele><time>2026-04-18T07:17:39Z</time></trkpt><trkpt lat="43.36915331918852" lon="12.916629088105468"><ele>377.0</ele><time>2026-04-18T07:17:40Z</time></trkpt><trkpt lat="43.36935831787927" lon="12.916491091119234"><ele>377.0</ele><time>2026-04-18T07:17:41Z</time></trkpt><trkpt lat="43.36958173223289" lon="12.916391589431893"><ele>377.0</ele><time>2026-04-18T07:17:42Z</time></trkpt><trkpt lat="43.36980265158689" lon="12.91637674788383"><ele>379.5</ele><time>2026-04-18T07:17:43Z</time></trkpt><trkpt lat="43.37002717360364" lon="12.916402781737105"><ele>382.0</ele><time>2026-04-18T07:17:44Z</time></trkpt><trkpt lat="43.370248739873944" lon="12.916466414280872"><ele>382.0</ele><time>2026-04-18T07:17:45Z</time></trkpt><trkpt lat="43.37045378081822" lon="12.91654829048687"><ele>382.0</ele><time>2026-04-18T07:17:46Z</time></trkpt><trkpt lat="43.370674628341725" lon="12.916560520939923"><ele>382.0</ele><time>2026-04-18T07:17:47Z</time></trkpt><trkpt lat="43.37089578512414" lon="12.916497995576746"><ele>383.5</ele><time>2026-04-18T07:17:48Z</time></trkpt><trkpt lat="43.37111709274763" lon="12.916377277056487"><ele>385.0</ele><time>2026-04-18T07:17:49Z</time></trkpt><trkpt lat="43.37132460068512" lon="12.916239174994292"><ele>387.6666666666667</ele><time>2026-04-18T07:17:50Z</time></trkpt><trkpt lat="43.371519372496266" lon="12.916081517688228"><ele>390.33333333333337</ele><time>2026-04-18T07:17:51Z</time></trkpt><trkpt lat="43.37171785567348" lon="12.915983289318465"><ele>393.0</ele><time>2026-04-18T07:17:52Z</time></trkpt><trkpt lat="43.3719283964" lon="12.915962022250065"><ele>393.0</ele><time>2026-04-18T07:17:53Z</time></trkpt><trkpt lat="43.37213440964117" lon="12.91602317916491"><ele>393.0</ele><time>2026-04-18T07:17:54Z</time></trkpt><trkpt lat="43.37231936789756" lon="12.916111867188896"><ele>393.0</ele><time>2026-04-18T07:17:55Z</time></trkpt><trkpt lat="43.37247396195342" lon="12.916225301140866"><ele>396.25</ele><time>2026-04-18T07:17:56Z</time></trkpt><trkpt lat="43.37259310318027" lon="12.916359573964808"><ele>399.5</ele><time>2026-04-18T07:17:57Z</time></trkpt><trkpt lat="43.37267116029321" lon="12.916514780449672"><ele>402.75</ele><time>2026-04-18T07:17:58Z</time></trkpt><trkpt lat="43.37271124981588" lon="12.916678579039887"><ele>406.0</ele><time>2026-04-18T07:17:59Z</time></trkpt><trkpt lat="43.37268357162041" lon="12.916833651391881"><ele>407.75</ele><time>2026-04-18T07:18:00Z</time></trkpt><trkpt lat="43.372593159871904" lon="12.91695410576233"><ele>409.5</ele><time>2026-04-18T07:18:01Z</time></trkpt><trkpt lat="43.37247200182855" lon="12.917049731801155"><ele>411.25</ele><time>2026-04-18T07:18:02Z</time></trkpt><trkpt lat="43.372317735768455" lon="12.917111187147423"><ele>413.0</ele><time>2026-04-18T07:18:03Z</time></trkpt><trkpt lat="43.37219092055536" lon="12.917187199851082"><ele>412.5</ele><time>2026-04-18T07:18:04Z</time></trkpt><trkpt lat="43.37211433830613" lon="12.917307376919851"><ele>412.0</ele><time>2026-04-18T07:18:05Z</time></trkpt><trkpt lat="43.37210747629808" lon="12.917456174992099"><ele>411.5</ele><time>2026-04-18T07:18:06Z</time></trkpt><trkpt lat="43.372172427078894" lon="12.91759144259655"><ele>411.0</ele><time>2026-04-18T07:18:07Z</time></trkpt><trkpt lat="43.37228220092001" lon="12.91768301519027"><ele>411.0</ele><time>2026-04-18T07:18:08Z</time></trkpt><trkpt lat="43.372410378161796" lon="12.91775553929014"><ele>411.0</ele><time>2026-04-18T07:18:09Z</time></trkpt><trkpt lat="43.37254278468512" lon="12.917872313956993"><ele>411.0</ele><time>2026-04-18T07:18:10Z</time></trkpt><trkpt lat="43.37262806651992" lon="12.91805168449159"><ele>411.0</ele><time>2026-04-18T07:18:11Z</time></trkpt><trkpt lat="43.372660001900385" lon="12.918264811806827"><ele>411.0</ele><time>2026-04-18T07:18:12Z</time></trkpt><trkpt lat="43.37274416719471" lon="12.918489196851626"><ele>411.0</ele><time>2026-04-18T07:18:13Z</time></trkpt><trkpt lat="43.372866514686976" lon="12.918703465633161"><ele>409.33333333333337</ele><time>2026-04-18T07:18:13.999Z</time></trkpt><trkpt lat="43.37299959790106" lon="12.918918044133516"><ele>407.6666666666667</ele><time>2026-04-18T07:18:14.999Z</time></trkpt><trkpt lat="43.373143046783376" lon="12.919105114450659"><ele>406.0</ele><time>2026-04-18T07:18:15.999Z</time></trkpt><trkpt lat="43.3733013680772" lon="12.919256032253507"><ele>410.33333333333337</ele><time>2026-04-18T07:18:16.999Z</time></trkpt><trkpt lat="43.37347858090435" lon="12.919389559286406"><ele>414.66666666666663</ele><time>2026-04-18T07:18:17.999Z</time></trkpt><trkpt lat="43.373660915660004" lon="12.919509536883307"><ele>419.0</ele><time>2026-04-18T07:18:18.999Z</time></trkpt><trkpt lat="43.37384680553301" lon="12.9196295778203"><ele>421.66666666666663</ele><time>2026-04-18T07:18:19.999Z</time></trkpt><trkpt lat="43.374023529011545" lon="12.919748646971474"><ele>424.33333333333337</ele><time>2026-04-18T07:18:20.999Z</time></trkpt><trkpt lat="43.37418680234444" lon="12.919890356499423"><ele>427.0</ele><time>2026-04-18T07:18:21.999Z</time></trkpt><trkpt lat="43.37433913324498" lon="12.9200408342535"><ele>428.33333333333337</ele><time>2026-04-18T07:18:22.999Z</time></trkpt><trkpt lat="43.37445817700208" lon="12.92021845492241"><ele>429.66666666666663</ele><time>2026-04-18T07:18:23.999Z</time></trkpt><trkpt lat="43.37456527764261" lon="12.920404000211567"><ele>431.0</ele><time>2026-04-18T07:18:24.999Z</time></trkpt><trkpt lat="43.37466341495398" lon="12.92058278585391"><ele>431.75</ele><time>2026-04-18T07:18:25.999Z</time></trkpt><trkpt lat="43.37473571920475" lon="12.920760720901875"><ele>432.5</ele><time>2026-04-18T07:18:26.999Z</time></trkpt><trkpt lat="43.37481234993362" lon="12.920911300658808"><ele>433.25</ele><time>2026-04-18T07:18:27.999Z</time></trkpt><trkpt lat="43.374902292651704" lon="12.921016295489231"><ele>434.0</ele><time>2026-04-18T07:18:28.999Z</time></trkpt><trkpt lat="43.37501043867823" lon="12.92107746187196"><ele>435.66666666666663</ele><time>2026-04-18T07:18:29.999Z</time></trkpt><trkpt lat="43.375155665815115" lon="12.921062781169764"><ele>437.33333333333337</ele><time>2026-04-18T07:18:30.999Z</time></trkpt><trkpt lat="43.375311482217576" lon="12.921006500258933"><ele>439.0</ele><time>2026-04-18T07:18:31.999Z</time></trkpt><trkpt lat="43.37547858563788" lon="12.920948028839033"><ele>434.6666666666667</ele><time>2026-04-18T07:18:32.999Z</time></trkpt><trkpt lat="43.37564727630285" lon="12.920898064297075"><ele>430.33333333333337</ele><time>2026-04-18T07:18:33.999Z</time></trkpt><trkpt lat="43.37582245940255" lon="12.920848559397067"><ele>426.0</ele><time>2026-04-18T07:18:34.999Z</time></trkpt><trkpt lat="43.37600416672145" lon="12.920797854073708"><ele>426.0</ele><time>2026-04-18T07:18:35.999Z</time></trkpt><trkpt lat="43.376186231403054" lon="12.920748329913023"><ele>426.0</ele><time>2026-04-18T07:18:37Z</time></trkpt><trkpt lat="43.37637035581305" lon="12.920699461828821"><ele>426.0</ele><time>2026-04-18T07:18:38Z</time></trkpt><trkpt lat="43.37655066251549" lon="12.920655405923362"><ele>422.0</ele><time>2026-04-18T07:18:39Z</time></trkpt><trkpt lat="43.37673399463544" lon="12.920643315133677"><ele>418.0</ele><time>2026-04-18T07:18:40Z</time></trkpt><trkpt lat="43.376903184163545" lon="12.920733841980223"><ele>414.0</ele><time>2026-04-18T07:18:41Z</time></trkpt><trkpt lat="43.377074382571095" lon="12.920809293864261"><ele>409.33333333333337</ele><time>2026-04-18T07:18:42Z</time></trkpt><trkpt lat="43.37723170322002" lon="12.920911766962861"><ele>404.6666666666667</ele><time>2026-04-18T07:18:43Z</time></trkpt><trkpt lat="43.37739895494606" lon="12.92097306820831"><ele>400.0</ele><time>2026-04-18T07:18:44Z</time></trkpt><trkpt lat="43.37757250014109" lon="12.92097091022436"><ele>400.0</ele><time>2026-04-18T07:18:45Z</time></trkpt><trkpt lat="43.377745926629544" lon="12.920930214722024"><ele>400.0</ele><time>2026-04-18T07:18:46Z</time></trkpt><trkpt lat="43.37790924804991" lon="12.92085967837497"><ele>400.0</ele><time>2026-04-18T07:18:47Z</time></trkpt><trkpt lat="43.378061055916234" lon="12.920759588389922"><ele>398.0</ele><time>2026-04-18T07:18:48Z</time></trkpt><trkpt lat="43.37819938586695" lon="12.920615651279213"><ele>396.0</ele><time>2026-04-18T07:18:49Z</time></trkpt><trkpt lat="43.378319644318296" lon="12.920445566105363"><ele>394.0</ele><time>2026-04-18T07:18:50Z</time></trkpt><trkpt lat="43.3784317636629" lon="12.920268644580673"><ele>394.0</ele><time>2026-04-18T07:18:51Z</time></trkpt><trkpt lat="43.37858252904347" lon="12.920168678719737"><ele>394.0</ele><time>2026-04-18T07:18:52Z</time></trkpt><trkpt lat="43.37874256517251" lon="12.920095164171748"><ele>394.0</ele><time>2026-04-18T07:18:53Z</time></trkpt><trkpt lat="43.37891531341463" lon="12.920093005099913"><ele>391.75</ele><time>2026-04-18T07:18:54Z</time></trkpt><trkpt lat="43.37906957518571" lon="12.92010697205758"><ele>389.5</ele><time>2026-04-18T07:18:55Z</time></trkpt><trkpt lat="43.37921071223324" lon="12.920104324659503"><ele>387.25</ele><time>2026-04-18T07:18:56Z</time></trkpt><trkpt lat="43.37933154249615" lon="12.920076010537656"><ele>385.0</ele><time>2026-04-18T07:18:57Z</time></trkpt><trkpt lat="43.37942193487363" lon="12.92003648674238"><ele>385.0</ele><time>2026-04-18T07:18:58Z</time></trkpt><trkpt lat="43.37948640157715" lon="12.919953557340241"><ele>385.0</ele><time>2026-04-18T07:18:59Z</time></trkpt><trkpt lat="43.37949197647627" lon="12.919820912930263"><ele>385.0</ele><time>2026-04-18T07:19:00Z</time></trkpt><trkpt lat="43.37943677398316" lon="12.919689335568583"><ele>385.0</ele><time>2026-04-18T07:19:01Z</time></trkpt><trkpt lat="43.37938872321129" lon="12.91955686310816"><ele>385.0</ele><time>2026-04-18T07:19:02Z</time></trkpt><trkpt lat="43.37949247956205" lon="12.919509189765392"><ele>385.0</ele><time>2026-04-18T07:19:05Z</time></trkpt><trkpt lat="43.379550099287655" lon="12.919637618760547"><ele>385.0</ele><time>2026-04-18T07:19:06Z</time></trkpt><trkpt lat="43.37963310514646" lon="12.919763072458133"><ele>385.0</ele><time>2026-04-18T07:19:07Z</time></trkpt><trkpt lat="43.37970771165263" lon="12.919884504053844"><ele>385.0</ele><time>2026-04-18T07:19:08Z</time></trkpt><trkpt lat="43.379758835464386" lon="12.920000042792255"><ele>385.0</ele><time>2026-04-18T07:19:09Z</time></trkpt><trkpt lat="43.379753454559015" lon="12.920133477055206"><ele>381.5</ele><time>2026-04-18T07:19:10Z</time></trkpt><trkpt lat="43.37966293549477" lon="12.920228509468457"><ele>378.0</ele><time>2026-04-18T07:19:11Z</time></trkpt><trkpt lat="43.37953208343885" lon="12.920256040207947"><ele>374.5</ele><time>2026-04-18T07:19:12Z</time></trkpt><trkpt lat="43.37938592446883" lon="12.920338333663816"><ele>371.0</ele><time>2026-04-18T07:19:13Z</time></trkpt><trkpt lat="43.379226348653845" lon="12.920428923794827"><ele>371.0</ele><time>2026-04-18T07:19:14Z</time></trkpt><trkpt lat="43.37908588257494" lon="12.920561280853802"><ele>371.0</ele><time>2026-04-18T07:19:15Z</time></trkpt><trkpt lat="43.37896269849465" lon="12.920687935685953"><ele>371.0</ele><time>2026-04-18T07:19:16Z</time></trkpt><trkpt lat="43.37886141284202" lon="12.920841074742574"><ele>373.75</ele><time>2026-04-18T07:19:17Z</time></trkpt><trkpt lat="43.37877374461666" lon="12.920981401743077"><ele>376.5</ele><time>2026-04-18T07:19:18Z</time></trkpt><trkpt lat="43.3787073451253" lon="12.921110909529544"><ele>379.25</ele><time>2026-04-18T07:19:19Z</time></trkpt><trkpt lat="43.37867399993478" lon="12.921262139198596"><ele>382.0</ele><time>2026-04-18T07:19:20Z</time></trkpt><trkpt lat="43.37867807572329" lon="12.921421969743534"><ele>382.0</ele><time>2026-04-18T07:19:21Z</time></trkpt><trkpt lat="43.37871905472952" lon="12.921556496868298"><ele>382.0</ele><time>2026-04-18T07:19:22Z</time></trkpt><trkpt lat="43.37879786550064" lon="12.921639583793093"><ele>382.0</ele><time>2026-04-18T07:19:23Z</time></trkpt><trkpt lat="43.37890656804935" lon="12.921637552739414"><ele>382.0</ele><time>2026-04-18T07:19:24Z</time></trkpt><trkpt lat="43.3790022080752" lon="12.921545229686402"><ele>382.0</ele><time>2026-04-18T07:19:25Z</time></trkpt><trkpt lat="43.37906073716237" lon="12.92138766565773"><ele>379.25</ele><time>2026-04-18T07:19:26Z</time></trkpt><trkpt lat="43.37907606762892" lon="12.921193557733918"><ele>376.5</ele><time>2026-04-18T07:19:27Z</time></trkpt><trkpt lat="43.37912427656631" lon="12.920997956203875"><ele>373.75</ele><time>2026-04-18T07:19:28Z</time></trkpt><trkpt lat="43.37922686074027" lon="12.920844753589398"><ele>371.0</ele><time>2026-04-18T07:19:29Z</time></trkpt><trkpt lat="43.37938552020304" lon="12.92079091661772"><ele>371.0</ele><time>2026-04-18T07:19:30Z</time></trkpt><trkpt lat="43.37956532595889" lon="12.920712039187267"><ele>371.0</ele><time>2026-04-18T07:19:31Z</time></trkpt><trkpt lat="43.37975052789721" lon="12.9206793836668"><ele>371.0</ele><time>2026-04-18T07:19:32Z</time></trkpt><trkpt lat="43.379961938320676" lon="12.92068833760097"><ele>364.0</ele><time>2026-04-18T07:19:33Z</time></trkpt><trkpt lat="43.38015858059115" lon="12.920698039051105"><ele>357.0</ele><time>2026-04-18T07:19:34Z</time></trkpt><trkpt lat="43.38034896877795" lon="12.920725516083216"><ele>350.0</ele><time>2026-04-18T07:19:35Z</time></trkpt><trkpt lat="43.38053349496023" lon="12.920768249305043"><ele>346.33333333333337</ele><time>2026-04-18T07:19:36Z</time></trkpt><trkpt lat="43.38071820074161" lon="12.920792730266413"><ele>342.6666666666667</ele><time>2026-04-18T07:19:37Z</time></trkpt><trkpt lat="43.38089812838276" lon="12.920849754761727"><ele>339.0</ele><time>2026-04-18T07:19:38Z</time></trkpt><trkpt lat="43.38107753492326" lon="12.920902361729793"><ele>337.3333333333333</ele><time>2026-04-18T07:19:39Z</time></trkpt><trkpt lat="43.38125410240833" lon="12.92094205770719"><ele>335.66666666666663</ele><time>2026-04-18T07:19:40Z</time></trkpt><trkpt lat="43.38140903562326" lon="12.921046812030319"><ele>334.0</ele><time>2026-04-18T07:19:41Z</time></trkpt><trkpt lat="43.381526875741365" lon="12.921203065561716"><ele>333.0</ele><time>2026-04-18T07:19:42Z</time></trkpt><trkpt lat="43.38162510243813" lon="12.9214151471414"><ele>332.0</ele><time>2026-04-18T07:19:43Z</time></trkpt><trkpt lat="43.38173605809389" lon="12.921648675984008"><ele>331.0</ele><time>2026-04-18T07:19:44Z</time></trkpt><trkpt lat="43.38186605260063" lon="12.921885531377523"><ele>328.3333333333333</ele><time>2026-04-18T07:19:45Z</time></trkpt><trkpt lat="43.381986022555154" lon="12.922139342829743"><ele>325.6666666666667</ele><time>2026-04-18T07:19:46Z</time></trkpt><trkpt lat="43.382115945871845" lon="12.922370349436177"><ele>323.0</ele><time>2026-04-18T07:19:47Z</time></trkpt><trkpt lat="43.3822404693026" lon="12.922586326613512"><ele>320.0</ele><time>2026-04-18T07:19:48Z</time></trkpt><trkpt lat="43.38236208703326" lon="12.922791685285793"><ele>317.0</ele><time>2026-04-18T07:19:49Z</time></trkpt><trkpt lat="43.38247839484839" lon="12.922983732510033"><ele>314.0</ele><time>2026-04-18T07:19:50Z</time></trkpt><trkpt lat="43.38258552674502" lon="12.923162196615024"><ele>314.0</ele><time>2026-04-18T07:19:51Z</time></trkpt><trkpt lat="43.38271034129669" lon="12.923296894607951"><ele>314.0</ele><time>2026-04-18T07:19:52Z</time></trkpt><trkpt lat="43.38286980507949" lon="12.923375512267606"><ele>314.0</ele><time>2026-04-18T07:19:53Z</time></trkpt><trkpt lat="43.38306427000797" lon="12.923404715933003"><ele>311.33333333333337</ele><time>2026-04-18T07:19:54Z</time></trkpt><trkpt lat="43.383269542022276" lon="12.92342329798832"><ele>308.6666666666667</ele><time>2026-04-18T07:19:55Z</time></trkpt><trkpt lat="43.38347746341109" lon="12.92345768134596"><ele>306.0</ele><time>2026-04-18T07:19:56Z</time></trkpt><trkpt lat="43.38369905046616" lon="12.923506160881617"><ele>304.5</ele><time>2026-04-18T07:19:57Z</time></trkpt><trkpt lat="43.383925476373975" lon="12.92355936103915"><ele>303.0</ele><time>2026-04-18T07:19:58Z</time></trkpt><trkpt lat="43.384153544660215" lon="12.923597063452917"><ele>303.0</ele><time>2026-04-18T07:19:59Z</time></trkpt><trkpt lat="43.38437841030954" lon="12.923613988452"><ele>303.0</ele><time>2026-04-18T07:20:00Z</time></trkpt><trkpt lat="43.38460591091193" lon="12.92360280876406"><ele>299.5</ele><time>2026-04-18T07:20:01Z</time></trkpt><trkpt lat="43.38483993749293" lon="12.923561062448455"><ele>296.0</ele><time>2026-04-18T07:20:02Z</time></trkpt><trkpt lat="43.385074238005174" lon="12.923540252613007"><ele>296.0</ele><time>2026-04-18T07:20:03Z</time></trkpt><trkpt lat="43.38530522791727" lon="12.92360112643374"><ele>296.0</ele><time>2026-04-18T07:20:04Z</time></trkpt><trkpt lat="43.385552057190026" lon="12.923692211449062"><ele>295.0</ele><time>2026-04-18T07:20:05Z</time></trkpt><trkpt lat="43.385802195748695" lon="12.923776619759304"><ele>294.0</ele><time>2026-04-18T07:20:06Z</time></trkpt><trkpt lat="43.386285971385746" lon="12.92396038068309"><ele>295.0</ele><time>2026-04-18T07:20:08Z</time></trkpt><trkpt lat="43.38650096909133" lon="12.924098287161586"><ele>296.0</ele><time>2026-04-18T07:20:08.999Z</time></trkpt><trkpt lat="43.386717569243636" lon="12.924238380287488"><ele>293.0</ele><time>2026-04-18T07:20:09.999Z</time></trkpt><trkpt lat="43.38694090869848" lon="12.924368222799574"><ele>290.0</ele><time>2026-04-18T07:20:10.999Z</time></trkpt><trkpt lat="43.38715724845933" lon="12.924514090920313"><ele>285.5</ele><time>2026-04-18T07:20:11.999Z</time></trkpt><trkpt lat="43.38737025877206" lon="12.924654604456572"><ele>281.0</ele><time>2026-04-18T07:20:12.999Z</time></trkpt><trkpt lat="43.38758417428355" lon="12.92480442801315"><ele>281.0</ele><time>2026-04-18T07:20:13.999Z</time></trkpt><trkpt lat="43.387773893101034" lon="12.924991855394643"><ele>281.0</ele><time>2026-04-18T07:20:14.999Z</time></trkpt><trkpt lat="43.387950179255334" lon="12.92521085532646"><ele>278.0</ele><time>2026-04-18T07:20:15.999Z</time></trkpt><trkpt lat="43.38813734093118" lon="12.925431664126538"><ele>275.0</ele><time>2026-04-18T07:20:16.999Z</time></trkpt><trkpt lat="43.38831561734051" lon="12.925674443475494"><ele>274.0</ele><time>2026-04-18T07:20:17.999Z</time></trkpt><trkpt lat="43.3884990136045" lon="12.925912449380593"><ele>273.0</ele><time>2026-04-18T07:20:18.999Z</time></trkpt><trkpt lat="43.38868485421644" lon="12.926146005374179"><ele>274.0</ele><time>2026-04-18T07:20:19.999Z</time></trkpt><trkpt lat="43.388865349561364" lon="12.926372524446322"><ele>275.0</ele><time>2026-04-18T07:20:20.999Z</time></trkpt><trkpt lat="43.38903611804249" lon="12.926594832691471"><ele>272.5</ele><time>2026-04-18T07:20:21.999Z</time></trkpt><trkpt lat="43.38920145744855" lon="12.926812933254114"><ele>270.0</ele><time>2026-04-18T07:20:22.999Z</time></trkpt><trkpt lat="43.3893613787048" lon="12.927034093453475"><ele>270.0</ele><time>2026-04-18T07:20:23.999Z</time></trkpt><trkpt lat="43.3895089743793" lon="12.927265098186428"><ele>270.0</ele><time>2026-04-18T07:20:24.999Z</time></trkpt><trkpt lat="43.38964737849817" lon="12.92751565148293"><ele>271.0</ele><time>2026-04-18T07:20:25.999Z</time></trkpt><trkpt lat="43.38978518429491" lon="12.927762753160584"><ele>272.0</ele><time>2026-04-18T07:20:26.999Z</time></trkpt><trkpt lat="43.3899226532008" lon="12.928006904020675"><ele>272.0</ele><time>2026-04-18T07:20:27.999Z</time></trkpt><trkpt lat="43.39005775887047" lon="12.92824607752089"><ele>272.0</ele><time>2026-04-18T07:20:28.999Z</time></trkpt><trkpt lat="43.39019357895355" lon="12.928484785489314"><ele>272.0</ele><time>2026-04-18T07:20:29.999Z</time></trkpt><trkpt lat="43.390328369268865" lon="12.92871913220952"><ele>272.6666666666667</ele><time>2026-04-18T07:20:30.999Z</time></trkpt><trkpt lat="43.390461918733166" lon="12.928948033381388"><ele>273.3333333333333</ele><time>2026-04-18T07:20:31.999Z</time></trkpt><trkpt lat="43.39059303469105" lon="12.929174158200459"><ele>274.0</ele><time>2026-04-18T07:20:32.999Z</time></trkpt><trkpt lat="43.39072337973155" lon="12.92939647117309"><ele>274.0</ele><time>2026-04-18T07:20:33.999Z</time></trkpt><trkpt lat="43.39085417109973" lon="12.929590567804528"><ele>274.0</ele><time>2026-04-18T07:20:34.999Z</time></trkpt><trkpt lat="43.39101824234707" lon="12.9297447660921"><ele>274.0</ele><time>2026-04-18T07:20:35.999Z</time></trkpt><trkpt lat="43.39121555099241" lon="12.929880145275126"><ele>274.0</ele><time>2026-04-18T07:20:36.999Z</time></trkpt><trkpt lat="43.39142794143009" lon="12.929999705611584"><ele>274.0</ele><time>2026-04-18T07:20:37.999Z</time></trkpt><trkpt lat="43.391625633588966" lon="12.930135909863845"><ele>270.66666666666663</ele><time>2026-04-18T07:20:38.999Z</time></trkpt><trkpt lat="43.391817837425265" lon="12.930275472883242"><ele>267.3333333333333</ele><time>2026-04-18T07:20:39.999Z</time></trkpt><trkpt lat="43.39201162180759" lon="12.930409770685934"><ele>264.0</ele><time>2026-04-18T07:20:40.999Z</time></trkpt><trkpt lat="43.3922148703064" lon="12.93052795206324"><ele>264.0</ele><time>2026-04-18T07:20:41.999Z</time></trkpt><trkpt lat="43.39242865428751" lon="12.930613833434547"><ele>264.0</ele><time>2026-04-18T07:20:43Z</time></trkpt><trkpt lat="43.39264879913861" lon="12.930695775852282"><ele>264.0</ele><time>2026-04-18T07:20:44Z</time></trkpt><trkpt lat="43.39286460669782" lon="12.930760347877753"><ele>264.0</ele><time>2026-04-18T07:20:45Z</time></trkpt><trkpt lat="43.39307987185832" lon="12.930811372967803"><ele>264.0</ele><time>2026-04-18T07:20:46Z</time></trkpt><trkpt lat="43.39329066132888" lon="12.930842355366286"><ele>264.0</ele><time>2026-04-18T07:20:47Z</time></trkpt><trkpt lat="43.39349490969391" lon="12.930847180041523"><ele>264.0</ele><time>2026-04-18T07:20:48Z</time></trkpt><trkpt lat="43.39369389237101" lon="12.930832195555746"><ele>264.0</ele><time>2026-04-18T07:20:49Z</time></trkpt><trkpt lat="43.393893149394756" lon="12.930842292295193"><ele>260.0</ele><time>2026-04-18T07:20:50Z</time></trkpt><trkpt lat="43.39408771450238" lon="12.930901613102916"><ele>256.0</ele><time>2026-04-18T07:20:51Z</time></trkpt><trkpt lat="43.394269231346776" lon="12.931020705266244"><ele>252.0</ele><time>2026-04-18T07:20:52Z</time></trkpt><trkpt lat="43.394421579873864" lon="12.93119088504203"><ele>252.0</ele><time>2026-04-18T07:20:53Z</time></trkpt><trkpt lat="43.394541680052896" lon="12.931388314927082"><ele>252.0</ele><time>2026-04-18T07:20:54Z</time></trkpt><trkpt lat="43.3946162492842" lon="12.931621078180733"><ele>252.0</ele><time>2026-04-18T07:20:55Z</time></trkpt><trkpt lat="43.39469515360935" lon="12.931860412068987"><ele>253.0</ele><time>2026-04-18T07:20:56Z</time></trkpt><trkpt lat="43.39477496177689" lon="12.932090236853822"><ele>254.0</ele><time>2026-04-18T07:20:57Z</time></trkpt><trkpt lat="43.39487004368445" lon="12.932278182362602"><ele>255.0</ele><time>2026-04-18T07:20:58Z</time></trkpt><trkpt lat="43.39500376042965" lon="12.93243128769409"><ele>255.0</ele><time>2026-04-18T07:20:59Z</time></trkpt><trkpt lat="43.3951819984371" lon="12.932542603259508"><ele>255.0</ele><time>2026-04-18T07:21:00Z</time></trkpt><trkpt lat="43.39537046382553" lon="12.932630670186509"><ele>255.0</ele><time>2026-04-18T07:21:01Z</time></trkpt><trkpt lat="43.39556674565362" lon="12.93271851497677"><ele>256.6666666666667</ele><time>2026-04-18T07:21:02Z</time></trkpt><trkpt lat="43.39575892790145" lon="12.932806094234437"><ele>258.33333333333337</ele><time>2026-04-18T07:21:03Z</time></trkpt><trkpt lat="43.3959467501347" lon="12.932880477104199"><ele>260.0</ele><time>2026-04-18T07:21:04Z</time></trkpt><trkpt lat="43.39613128522021" lon="12.93292994408734"><ele>260.0</ele><time>2026-04-18T07:21:05Z</time></trkpt><trkpt lat="43.39630820171867" lon="12.932959344850309"><ele>260.0</ele><time>2026-04-18T07:21:06Z</time></trkpt><trkpt lat="43.396478849114715" lon="12.932985994044488"><ele>260.0</ele><time>2026-04-18T07:21:07Z</time></trkpt><trkpt lat="43.39662366768165" lon="12.933062890693748"><ele>260.33333333333337</ele><time>2026-04-18T07:21:08Z</time></trkpt><trkpt lat="43.396726434577296" lon="12.93321299259861"><ele>260.6666666666667</ele><time>2026-04-18T07:21:09Z</time></trkpt><trkpt lat="43.39678510511578" lon="12.93343500594369"><ele>261.0</ele><time>2026-04-18T07:21:10Z</time></trkpt><trkpt lat="43.39685454121479" lon="12.933643284331875"><ele>261.0</ele><time>2026-04-18T07:21:11Z</time></trkpt><trkpt lat="43.39697894547231" lon="12.933765205682162"><ele>261.0</ele><time>2026-04-18T07:21:12Z</time></trkpt><trkpt lat="43.39714195358586" lon="12.93380740449676"><ele>261.0</ele><time>2026-04-18T07:21:13Z</time></trkpt><trkpt lat="43.39735397770104" lon="12.933768146607088"><ele>258.5</ele><time>2026-04-18T07:21:14Z</time></trkpt><trkpt lat="43.39758351059196" lon="12.93373932043502"><ele>256.0</ele><time>2026-04-18T07:21:15Z</time></trkpt><trkpt lat="43.39781666309455" lon="12.93374151712148"><ele>254.0</ele><time>2026-04-18T07:21:16Z</time></trkpt><trkpt lat="43.39804417708852" lon="12.933787152476631"><ele>252.0</ele><time>2026-04-18T07:21:17Z</time></trkpt><trkpt lat="43.398257193302676" lon="12.933917719385338"><ele>252.0</ele><time>2026-04-18T07:21:18Z</time></trkpt><trkpt lat="43.3984705432687" lon="12.934127259826534"><ele>252.0</ele><time>2026-04-18T07:21:19Z</time></trkpt><trkpt lat="43.39867196624996" lon="12.934310910028406"><ele>250.0</ele><time>2026-04-18T07:21:20Z</time></trkpt><trkpt lat="43.39888733665381" lon="12.93441080451612"><ele>248.0</ele><time>2026-04-18T07:21:21Z</time></trkpt><trkpt lat="43.399137639983714" lon="12.934435858779489"><ele>248.0</ele><time>2026-04-18T07:21:22Z</time></trkpt><trkpt lat="43.39941965554396" lon="12.934437596839693"><ele>248.0</ele><time>2026-04-18T07:21:23Z</time></trkpt><trkpt lat="43.39971369533651" lon="12.934530334072107"><ele>247.0</ele><time>2026-04-18T07:21:24Z</time></trkpt><trkpt lat="43.40005035319182" lon="12.934749400864659"><ele>246.0</ele><time>2026-04-18T07:21:25Z</time></trkpt><trkpt lat="43.4003810245574" lon="12.934949097875945"><ele>242.5</ele><time>2026-04-18T07:21:26Z</time></trkpt><trkpt lat="43.4006673493166" lon="12.935087558221106"><ele>239.0</ele><time>2026-04-18T07:21:27Z</time></trkpt><trkpt lat="43.4009260910489" lon="12.935190357476019"><ele>239.0</ele><time>2026-04-18T07:21:28Z</time></trkpt><trkpt lat="43.40116198633262" lon="12.935270191947899"><ele>239.0</ele><time>2026-04-18T07:21:29Z</time></trkpt><trkpt lat="43.40138149530215" lon="12.935352373209605"><ele>240.0</ele><time>2026-04-18T07:21:30Z</time></trkpt><trkpt lat="43.401582162701445" lon="12.935436499748233"><ele>241.0</ele><time>2026-04-18T07:21:31Z</time></trkpt><trkpt lat="43.4017675740751" lon="12.935518722215088"><ele>242.0</ele><time>2026-04-18T07:21:32Z</time></trkpt><trkpt lat="43.401950877762374" lon="12.935599961778317"><ele>242.0</ele><time>2026-04-18T07:21:33Z</time></trkpt><trkpt lat="43.402133507173794" lon="12.935678544961084"><ele>242.0</ele><time>2026-04-18T07:21:34Z</time></trkpt><trkpt lat="43.40232145353219" lon="12.935758201376233"><ele>242.0</ele><time>2026-04-18T07:21:35Z</time></trkpt><trkpt lat="43.40250267781743" lon="12.935833670695722"><ele>239.33333333333334</ele><time>2026-04-18T07:21:36Z</time></trkpt><trkpt lat="43.40267676968946" lon="12.935909336766953"><ele>236.66666666666669</ele><time>2026-04-18T07:21:37Z</time></trkpt><trkpt lat="43.402843778295406" lon="12.935953282930251"><ele>234.0</ele><time>2026-04-18T07:21:38Z</time></trkpt><trkpt lat="43.40299843686641" lon="12.935907582720153"><ele>237.66666666666669</ele><time>2026-04-18T07:21:39Z</time></trkpt><trkpt lat="43.4031267917737" lon="12.93576442763491"><ele>241.33333333333334</ele><time>2026-04-18T07:21:40Z</time></trkpt><trkpt lat="43.403249400211976" lon="12.935559108529555"><ele>245.0</ele><time>2026-04-18T07:21:41Z</time></trkpt><trkpt lat="43.40336959315374" lon="12.93535722150771"><ele>245.0</ele><time>2026-04-18T07:21:42Z</time></trkpt><trkpt lat="43.4034995222599" lon="12.93514682057416"><ele>245.0</ele><time>2026-04-18T07:21:43Z</time></trkpt><trkpt lat="43.40363482256141" lon="12.934911172624707"><ele>245.0</ele><time>2026-04-18T07:21:44Z</time></trkpt><trkpt lat="43.40377965989528" lon="12.934672930069699"><ele>247.5</ele><time>2026-04-18T07:21:45Z</time></trkpt><trkpt lat="43.40393807632876" lon="12.93442793303209"><ele>250.0</ele><time>2026-04-18T07:21:46Z</time></trkpt><trkpt lat="43.40410082837879" lon="12.934191516280714"><ele>250.0</ele><time>2026-04-18T07:21:47Z</time></trkpt><trkpt lat="43.40427913967527" lon="12.933977109567765"><ele>250.0</ele><time>2026-04-18T07:21:48Z</time></trkpt><trkpt lat="43.4044650928988" lon="12.933791454739838"><ele>250.0</ele><time>2026-04-18T07:21:49Z</time></trkpt><trkpt lat="43.404650871783446" lon="12.933616734936596"><ele>250.0</ele><time>2026-04-18T07:21:50Z</time></trkpt><trkpt lat="43.404827388159724" lon="12.93344314041007"><ele>250.0</ele><time>2026-04-18T07:21:51Z</time></trkpt><trkpt lat="43.40500231614303" lon="12.933263818876231"><ele>250.66666666666666</ele><time>2026-04-18T07:21:52Z</time></trkpt><trkpt lat="43.40517081656234" lon="12.933084812079198"><ele>251.33333333333331</ele><time>2026-04-18T07:21:53Z</time></trkpt><trkpt lat="43.40534492499173" lon="12.932904606767988"><ele>252.0</ele><time>2026-04-18T07:21:54Z</time></trkpt><trkpt lat="43.40551742319332" lon="12.932720805237766"><ele>253.33333333333331</ele><time>2026-04-18T07:21:55Z</time></trkpt><trkpt lat="43.40568615744758" lon="12.932545482239581"><ele>254.66666666666666</ele><time>2026-04-18T07:21:56Z</time></trkpt><trkpt lat="43.40584711700195" lon="12.932376277815312"><ele>256.0</ele><time>2026-04-18T07:21:57Z</time></trkpt><trkpt lat="43.405999246423754" lon="12.932200763211037"><ele>256.0</ele><time>2026-04-18T07:21:58Z</time></trkpt><trkpt lat="43.4061456009506" lon="12.932032410343904"><ele>256.0</ele><time>2026-04-18T07:21:59Z</time></trkpt><trkpt lat="43.40630376402987" lon="12.931873161260429"><ele>256.0</ele><time>2026-04-18T07:22:00Z</time></trkpt><trkpt lat="43.40648359603437" lon="12.931778190869345"><ele>252.33333333333331</ele><time>2026-04-18T07:22:01Z</time></trkpt><trkpt lat="43.4066682983885" lon="12.93167973788702"><ele>248.66666666666669</ele><time>2026-04-18T07:22:02Z</time></trkpt><trkpt lat="43.4068449164159" lon="12.931563799963246"><ele>245.0</ele><time>2026-04-18T07:22:03Z</time></trkpt><trkpt lat="43.40703077593227" lon="12.931470611871205"><ele>245.0</ele><time>2026-04-18T07:22:03.999Z</time></trkpt><trkpt lat="43.407217820464695" lon="12.931372091034795"><ele>245.0</ele><time>2026-04-18T07:22:04.999Z</time></trkpt><trkpt lat="43.407404393525574" lon="12.931273127993926"><ele>245.0</ele><time>2026-04-18T07:22:05.999Z</time></trkpt><trkpt lat="43.40758782022366" lon="12.931172392649266"><ele>245.0</ele><time>2026-04-18T07:22:06.999Z</time></trkpt><trkpt lat="43.40777401456036" lon="12.931071262709485"><ele>245.0</ele><time>2026-04-18T07:22:07.999Z</time></trkpt><trkpt lat="43.40795495029346" lon="12.930965433199928"><ele>245.0</ele><time>2026-04-18T07:22:08.999Z</time></trkpt><trkpt lat="43.40812551448949" lon="12.930852759502217"><ele>247.33333333333334</ele><time>2026-04-18T07:22:09.999Z</time></trkpt><trkpt lat="43.408294752681904" lon="12.930735305111055"><ele>249.66666666666669</ele><time>2026-04-18T07:22:10.999Z</time></trkpt><trkpt lat="43.408461939217545" lon="12.930618290077089"><ele>252.0</ele><time>2026-04-18T07:22:11.999Z</time></trkpt><trkpt lat="43.408627225020844" lon="12.930505063147407"><ele>245.5</ele><time>2026-04-18T07:22:12.999Z</time></trkpt><trkpt lat="43.40895653210503" lon="12.930281172738967"><ele>239.0</ele><time>2026-04-18T07:22:14.999Z</time></trkpt><trkpt lat="43.409107992133244" lon="12.93016820235849"><ele>239.0</ele><time>2026-04-18T07:22:15.999Z</time></trkpt><trkpt lat="43.40925433643607" lon="12.930058538342402"><ele>239.0</ele><time>2026-04-18T07:22:16.999Z</time></trkpt><trkpt lat="43.40939694740238" lon="12.92995258213585"><ele>239.0</ele><time>2026-04-18T07:22:17.999Z</time></trkpt><trkpt lat="43.40953845165231" lon="12.92985279306912"><ele>238.33333333333334</ele><time>2026-04-18T07:22:18.999Z</time></trkpt><trkpt lat="43.40967861795103" lon="12.929764266443009"><ele>237.66666666666669</ele><time>2026-04-18T07:22:19.999Z</time></trkpt><trkpt lat="43.40981716660628" lon="12.929676908852471"><ele>237.0</ele><time>2026-04-18T07:22:20.999Z</time></trkpt><trkpt lat="43.40995631955996" lon="12.929582679798447"><ele>237.0</ele><time>2026-04-18T07:22:21.999Z</time></trkpt><trkpt lat="43.41009859301285" lon="12.929498852052904"><ele>237.0</ele><time>2026-04-18T07:22:22.999Z</time></trkpt><trkpt lat="43.41024585226965" lon="12.929424266930523"><ele>237.0</ele><time>2026-04-18T07:22:23.999Z</time></trkpt><trkpt lat="43.410392095321605" lon="12.9293657307763"><ele>236.0</ele><time>2026-04-18T07:22:24.999Z</time></trkpt><trkpt lat="43.410526435423336" lon="12.929310472836947"><ele>235.0</ele><time>2026-04-18T07:22:25.999Z</time></trkpt><trkpt lat="43.4106285141943" lon="12.929261283613963"><ele>234.0</ele><time>2026-04-18T07:22:26.999Z</time></trkpt><trkpt lat="43.41071264302563" lon="12.929219632518652"><ele>233.0</ele><time>2026-04-18T07:22:27.999Z</time></trkpt><trkpt lat="43.41079411939819" lon="12.929226353842534"><ele>232.0</ele><time>2026-04-18T07:22:28.999Z</time></trkpt><trkpt lat="43.410889613823265" lon="12.929346638665512"><ele>232.0</ele><time>2026-04-18T07:22:30.999Z</time></trkpt><trkpt lat="43.41099207593243" lon="12.929450570093056"><ele>232.0</ele><time>2026-04-18T07:22:35.999Z</time></trkpt><trkpt lat="43.41114940886058" lon="12.92940027876597"><ele>232.0</ele><time>2026-04-18T07:22:36.999Z</time></trkpt><trkpt lat="43.41134144916821" lon="12.929351363508632"><ele>231.5</ele><time>2026-04-18T07:22:37.999Z</time></trkpt><trkpt lat="43.411562857154095" lon="12.929363281130591"><ele>231.0</ele><time>2026-04-18T07:22:38.999Z</time></trkpt><trkpt lat="43.41179654737471" lon="12.929384945374691"><ele>231.0</ele><time>2026-04-18T07:22:39.999Z</time></trkpt><trkpt lat="43.41209194627111" lon="12.929405873546015"><ele>231.0</ele><time>2026-04-18T07:22:40.999Z</time></trkpt><trkpt lat="43.412448086852734" lon="12.929428377007392"><ele>230.5</ele><time>2026-04-18T07:22:41.999Z</time></trkpt><trkpt lat="43.41274353252622" lon="12.929429075396882"><ele>230.0</ele><time>2026-04-18T07:22:42.999Z</time></trkpt><trkpt lat="43.412985665211195" lon="12.929459068165505"><ele>230.5</ele><time>2026-04-18T07:22:43.999Z</time></trkpt><trkpt lat="43.41324446632142" lon="12.929479888582387"><ele>231.0</ele><time>2026-04-18T07:22:44.999Z</time></trkpt><trkpt lat="43.41349672098575" lon="12.929498011166913"><ele>231.0</ele><time>2026-04-18T07:22:45.999Z</time></trkpt><trkpt lat="43.41374753099124" lon="12.929580044697401"><ele>231.0</ele><time>2026-04-18T07:22:46.999Z</time></trkpt><trkpt lat="43.41400840805248" lon="12.929647727042397"><ele>233.0</ele><time>2026-04-18T07:22:47.999Z</time></trkpt><trkpt lat="43.41426780095321" lon="12.929752622294176"><ele>235.0</ele><time>2026-04-18T07:22:49Z</time></trkpt><trkpt lat="43.41452718171292" lon="12.929841618630553"><ele>237.5</ele><time>2026-04-18T07:22:50Z</time></trkpt><trkpt lat="43.4147895010309" lon="12.929926591659358"><ele>240.0</ele><time>2026-04-18T07:22:51Z</time></trkpt><trkpt lat="43.41505995950255" lon="12.93000007026802"><ele>235.5</ele><time>2026-04-18T07:22:52Z</time></trkpt><trkpt lat="43.415331470088205" lon="12.930078973119741"><ele>231.0</ele><time>2026-04-18T07:22:53Z</time></trkpt><trkpt lat="43.41560114692677" lon="12.9301587375467"><ele>231.0</ele><time>2026-04-18T07:22:54Z</time></trkpt><trkpt lat="43.41587003786895" lon="12.930233321420767"><ele>231.0</ele><time>2026-04-18T07:22:55Z</time></trkpt><trkpt lat="43.41614111584648" lon="12.930304254215088"><ele>231.5</ele><time>2026-04-18T07:22:56Z</time></trkpt><trkpt lat="43.416412798057465" lon="12.930365847767316"><ele>232.0</ele><time>2026-04-18T07:22:57Z</time></trkpt><trkpt lat="43.41669164663437" lon="12.930420073852424"><ele>232.0</ele><time>2026-04-18T07:22:58Z</time></trkpt><trkpt lat="43.416962179110236" lon="12.930474092466277"><ele>232.0</ele><time>2026-04-18T07:22:59Z</time></trkpt><trkpt lat="43.41723038156984" lon="12.930533016985772"><ele>233.0</ele><time>2026-04-18T07:23:00Z</time></trkpt><trkpt lat="43.4175029873452" lon="12.930601305904121"><ele>234.0</ele><time>2026-04-18T07:23:01Z</time></trkpt><trkpt lat="43.41777647102242" lon="12.930657978441074"><ele>236.0</ele><time>2026-04-18T07:23:02Z</time></trkpt><trkpt lat="43.418051978579385" lon="12.930717011652394"><ele>238.0</ele><time>2026-04-18T07:23:03Z</time></trkpt><trkpt lat="43.41832382914677" lon="12.930775625038583"><ele>238.0</ele><time>2026-04-18T07:23:04Z</time></trkpt><trkpt lat="43.41859398511404" lon="12.930823780446474"><ele>238.0</ele><time>2026-04-18T07:23:05Z</time></trkpt><trkpt lat="43.41886739809435" lon="12.930864859924371"><ele>234.5</ele><time>2026-04-18T07:23:06Z</time></trkpt><trkpt lat="43.419140580033854" lon="12.930907322688002"><ele>231.0</ele><time>2026-04-18T07:23:07Z</time></trkpt><trkpt lat="43.419417205676694" lon="12.930951587788867"><ele>231.5</ele><time>2026-04-18T07:23:08Z</time></trkpt><trkpt lat="43.41969505910481" lon="12.930996706010669"><ele>232.0</ele><time>2026-04-18T07:23:09Z</time></trkpt><trkpt lat="43.419973470047694" lon="12.931041332471006"><ele>232.0</ele><time>2026-04-18T07:23:10Z</time></trkpt><trkpt lat="43.420253974911546" lon="12.931082292832802"><ele>232.0</ele><time>2026-04-18T07:23:11Z</time></trkpt><trkpt lat="43.42053566645535" lon="12.931121679299471"><ele>233.0</ele><time>2026-04-18T07:23:12Z</time></trkpt><trkpt lat="43.42081733817107" lon="12.931162619107354"><ele>234.0</ele><time>2026-04-18T07:23:13Z</time></trkpt><trkpt lat="43.42109322089743" lon="12.931206333412637"><ele>236.5</ele><time>2026-04-18T07:23:14Z</time></trkpt><trkpt lat="43.42136410187558" lon="12.931250685394545"><ele>239.0</ele><time>2026-04-18T07:23:15Z</time></trkpt><trkpt lat="43.42163351835428" lon="12.931292857586085"><ele>239.0</ele><time>2026-04-18T07:23:16Z</time></trkpt><trkpt lat="43.42190219484214" lon="12.931332866260703"><ele>239.0</ele><time>2026-04-18T07:23:17Z</time></trkpt><trkpt lat="43.42216522109174" lon="12.931376894318447"><ele>240.5</ele><time>2026-04-18T07:23:18Z</time></trkpt><trkpt lat="43.4224370845959" lon="12.931434171993677"><ele>242.0</ele><time>2026-04-18T07:23:19Z</time></trkpt><trkpt lat="43.4227121724835" lon="12.931549273513735"><ele>238.5</ele><time>2026-04-18T07:23:20Z</time></trkpt><trkpt lat="43.422990523083236" lon="12.931671050164828"><ele>235.0</ele><time>2026-04-18T07:23:21Z</time></trkpt><trkpt lat="43.42322844558371" lon="12.931756162407245"><ele>235.0</ele><time>2026-04-18T07:23:22Z</time></trkpt><trkpt lat="43.423437997626664" lon="12.931945573882551"><ele>235.0</ele><time>2026-04-18T07:23:23Z</time></trkpt><trkpt lat="43.42366908095531" lon="12.932080581340097"><ele>239.5</ele><time>2026-04-18T07:23:24Z</time></trkpt><trkpt lat="43.4239010927391" lon="12.93220756303981"><ele>244.0</ele><time>2026-04-18T07:23:25Z</time></trkpt><trkpt lat="43.42420609408043" lon="12.932288310105971"><ele>244.0</ele><time>2026-04-18T07:23:26Z</time></trkpt><trkpt lat="43.424424500396796" lon="12.932432963249683"><ele>244.0</ele><time>2026-04-18T07:23:27Z</time></trkpt><trkpt lat="43.42464543560497" lon="12.932567552717142"><ele>241.0</ele><time>2026-04-18T07:23:28Z</time></trkpt><trkpt lat="43.42487844867125" lon="12.93267735671268"><ele>238.0</ele><time>2026-04-18T07:23:29Z</time></trkpt><trkpt lat="43.42512132448172" lon="12.932743718164565"><ele>238.0</ele><time>2026-04-18T07:23:30Z</time></trkpt><trkpt lat="43.425367391044325" lon="12.932749161446742"><ele>238.0</ele><time>2026-04-18T07:23:31Z</time></trkpt><trkpt lat="43.42561140469601" lon="12.932700415942799"><ele>238.0</ele><time>2026-04-18T07:23:32Z</time></trkpt><trkpt lat="43.425849162384104" lon="12.932608486490922"><ele>238.0</ele><time>2026-04-18T07:23:33Z</time></trkpt><trkpt lat="43.42608256314063" lon="12.93247514824707"><ele>237.5</ele><time>2026-04-18T07:23:34Z</time></trkpt><trkpt lat="43.42632433213107" lon="12.932392553910413"><ele>237.0</ele><time>2026-04-18T07:23:35Z</time></trkpt><trkpt lat="43.426567927378244" lon="12.932432045806973"><ele>237.0</ele><time>2026-04-18T07:23:36Z</time></trkpt><trkpt lat="43.42681179311555" lon="12.93247720987103"><ele>237.0</ele><time>2026-04-18T07:23:37Z</time></trkpt><trkpt lat="43.427045025551834" lon="12.932510250511703"><ele>237.66666666666669</ele><time>2026-04-18T07:23:38Z</time></trkpt><trkpt lat="43.42726018389104" lon="12.932552330533994"><ele>238.33333333333334</ele><time>2026-04-18T07:23:39Z</time></trkpt><trkpt lat="43.427463872008886" lon="12.932555286586144"><ele>239.0</ele><time>2026-04-18T07:23:40Z</time></trkpt><trkpt lat="43.42764974881355" lon="12.932478848947442"><ele>239.0</ele><time>2026-04-18T07:23:41Z</time></trkpt><trkpt lat="43.42780754016426" lon="12.932314773411647"><ele>239.0</ele><time>2026-04-18T07:23:42Z</time></trkpt><trkpt lat="43.42794539594803" lon="12.932088349250384"><ele>239.0</ele><time>2026-04-18T07:23:43Z</time></trkpt><trkpt lat="43.428041007583055" lon="12.931817290877602"><ele>249.0</ele><time>2026-04-18T07:23:44Z</time></trkpt><trkpt lat="43.42811052945206" lon="12.931502984448063"><ele>259.0</ele><time>2026-04-18T07:23:45Z</time></trkpt><trkpt lat="43.42818212559669" lon="12.93118593355081"><ele>256.0</ele><time>2026-04-18T07:23:46Z</time></trkpt><trkpt lat="43.42826398555055" lon="12.930860874766603"><ele>253.0</ele><time>2026-04-18T07:23:47Z</time></trkpt><trkpt lat="43.42833401362796" lon="12.930515347719806"><ele>253.0</ele><time>2026-04-18T07:23:48Z</time></trkpt><trkpt lat="43.42841559467329" lon="12.930216886846027"><ele>253.0</ele><time>2026-04-18T07:23:49Z</time></trkpt><trkpt lat="43.42849154120213" lon="12.92989708895011"><ele>249.5</ele><time>2026-04-18T07:23:50Z</time></trkpt><trkpt lat="43.42852441094299" lon="12.929572329552862"><ele>246.0</ele><time>2026-04-18T07:23:51Z</time></trkpt><trkpt lat="43.428518644563916" lon="12.929225661399402"><ele>244.5</ele><time>2026-04-18T07:23:52Z</time></trkpt><trkpt lat="43.42849388561616" lon="12.928874059957218"><ele>243.0</ele><time>2026-04-18T07:23:53Z</time></trkpt><trkpt lat="43.428473730010325" lon="12.928523028060633"><ele>243.5</ele><time>2026-04-18T07:23:54Z</time></trkpt><trkpt lat="43.42845294075447" lon="12.92817302940548"><ele>244.0</ele><time>2026-04-18T07:23:55Z</time></trkpt><trkpt lat="43.42843443622326" lon="12.927822377153506"><ele>244.5</ele><time>2026-04-18T07:23:56Z</time></trkpt><trkpt lat="43.428415605971985" lon="12.927458231762234"><ele>245.0</ele><time>2026-04-18T07:23:57Z</time></trkpt><trkpt lat="43.42839879848771" lon="12.927092368351971"><ele>246.0</ele><time>2026-04-18T07:23:58Z</time></trkpt><trkpt lat="43.42838238678841" lon="12.92672468348946"><ele>247.0</ele><time>2026-04-18T07:23:59Z</time></trkpt><trkpt lat="43.42836611196957" lon="12.92636404881123"><ele>247.0</ele><time>2026-04-18T07:24:00Z</time></trkpt><trkpt lat="43.428348686128345" lon="12.926011442247024"><ele>247.0</ele><time>2026-04-18T07:24:00.999Z</time></trkpt><trkpt lat="43.42833142543809" lon="12.925676165791913"><ele>247.0</ele><time>2026-04-18T07:24:01.999Z</time></trkpt><trkpt lat="43.42831385408592" lon="12.925338900814321"><ele>247.0</ele><time>2026-04-18T07:24:02.999Z</time></trkpt><trkpt lat="43.42829491757509" lon="12.92500633157809"><ele>247.0</ele><time>2026-04-18T07:24:03.999Z</time></trkpt><trkpt lat="43.42827213655281" lon="12.924665425075329"><ele>247.0</ele><time>2026-04-18T07:24:04.999Z</time></trkpt><trkpt lat="43.428250430813186" lon="12.924337702782829"><ele>248.0</ele><time>2026-04-18T07:24:05.999Z</time></trkpt><trkpt lat="43.4282294598616" lon="12.923999287502467"><ele>249.0</ele><time>2026-04-18T07:24:06.999Z</time></trkpt><trkpt lat="43.42823160026463" lon="12.923641388440975"><ele>251.5</ele><time>2026-04-18T07:24:07.999Z</time></trkpt><trkpt lat="43.42820966288224" lon="12.923277564357452"><ele>254.0</ele><time>2026-04-18T07:24:08.999Z</time></trkpt><trkpt lat="43.42820269585699" lon="12.922902058269"><ele>257.5</ele><time>2026-04-18T07:24:09.999Z</time></trkpt><trkpt lat="43.42816950992013" lon="12.922530211238298"><ele>261.0</ele><time>2026-04-18T07:24:10.999Z</time></trkpt><trkpt lat="43.42811388108812" lon="12.922164669643704"><ele>261.0</ele><time>2026-04-18T07:24:11.999Z</time></trkpt><trkpt lat="43.42804212710153" lon="12.921801336578985"><ele>261.0</ele><time>2026-04-18T07:24:12.999Z</time></trkpt><trkpt lat="43.427958116973954" lon="12.921445560775174"><ele>255.0</ele><time>2026-04-18T07:24:13.999Z</time></trkpt><trkpt lat="43.427864714526926" lon="12.921097112682357"><ele>249.0</ele><time>2026-04-18T07:24:14.999Z</time></trkpt><trkpt lat="43.427757611757194" lon="12.92075827156198"><ele>249.0</ele><time>2026-04-18T07:24:15.999Z</time></trkpt><trkpt lat="43.4276349004624" lon="12.920427159152437"><ele>249.0</ele><time>2026-04-18T07:24:16.999Z</time></trkpt><trkpt lat="43.4275142361764" lon="12.920104231538764"><ele>251.5</ele><time>2026-04-18T07:24:17.999Z</time></trkpt><trkpt lat="43.427417517178725" lon="12.919775538102202"><ele>254.0</ele><time>2026-04-18T07:24:18.999Z</time></trkpt><trkpt lat="43.42738641929669" lon="12.919416597707773"><ele>255.5</ele><time>2026-04-18T07:24:19.999Z</time></trkpt><trkpt lat="43.427318309911804" lon="12.919089769925558"><ele>257.0</ele><time>2026-04-18T07:24:20.999Z</time></trkpt><trkpt lat="43.427245387896924" lon="12.918759883408638"><ele>261.5</ele><time>2026-04-18T07:24:21.999Z</time></trkpt><trkpt lat="43.427375369897746" lon="12.918325040663648"><ele>266.0</ele><time>2026-04-18T07:24:22.999Z</time></trkpt><trkpt lat="43.42735063183268" lon="12.917964908782016"><ele>266.0</ele><time>2026-04-18T07:24:23.999Z</time></trkpt><trkpt lat="43.427314729026946" lon="12.917605420983769"><ele>266.0</ele><time>2026-04-18T07:24:24.999Z</time></trkpt><trkpt lat="43.42726845739657" lon="12.917245492771976"><ele>271.0</ele><time>2026-04-18T07:24:25.999Z</time></trkpt><trkpt lat="43.42721580309367" lon="12.916881801895896"><ele>276.0</ele><time>2026-04-18T07:24:26.999Z</time></trkpt><trkpt lat="43.42717606017172" lon="12.916511130204881"><ele>277.5</ele><time>2026-04-18T07:24:27.999Z</time></trkpt><trkpt lat="43.42717235878587" lon="12.916138005670845"><ele>279.0</ele><time>2026-04-18T07:24:28.999Z</time></trkpt><trkpt lat="43.42721482596409" lon="12.915770000434504"><ele>276.0</ele><time>2026-04-18T07:24:29.999Z</time></trkpt><trkpt lat="43.427327408361116" lon="12.915425433557445"><ele>273.0</ele><time>2026-04-18T07:24:30.999Z</time></trkpt><trkpt lat="43.42749366694436" lon="12.91511895262056"><ele>265.5</ele><time>2026-04-18T07:24:31.999Z</time></trkpt><trkpt lat="43.42767954415236" lon="12.914847567868426"><ele>258.0</ele><time>2026-04-18T07:24:32.999Z</time></trkpt><trkpt lat="43.427891728860764" lon="12.91460589989106"><ele>259.0</ele><time>2026-04-18T07:24:33.999Z</time></trkpt><trkpt lat="43.42812212324678" lon="12.914393768935625"><ele>260.0</ele><time>2026-04-18T07:24:34.999Z</time></trkpt><trkpt lat="43.42837212376423" lon="12.914227220558399"><ele>260.0</ele><time>2026-04-18T07:24:35.999Z</time></trkpt><trkpt lat="43.428628677825195" lon="12.914083490801467"><ele>260.0</ele><time>2026-04-18T07:24:36.999Z</time></trkpt><trkpt lat="43.428881471393964" lon="12.913927794791642"><ele>265.5</ele><time>2026-04-18T07:24:37.999Z</time></trkpt><trkpt lat="43.42912835519041" lon="12.91375928116825"><ele>271.0</ele><time>2026-04-18T07:24:38.999Z</time></trkpt><trkpt lat="43.429374692568636" lon="12.91358614820762"><ele>271.0</ele><time>2026-04-18T07:24:39.999Z</time></trkpt><trkpt lat="43.42962534603189" lon="12.913413216895457"><ele>271.0</ele><time>2026-04-18T07:24:40.999Z</time></trkpt><trkpt lat="43.42986744064446" lon="12.913232337166457"><ele>269.0</ele><time>2026-04-18T07:24:41.999Z</time></trkpt><trkpt lat="43.43009643101602" lon="12.913017363656582"><ele>267.0</ele><time>2026-04-18T07:24:42.999Z</time></trkpt><trkpt lat="43.43030189571031" lon="12.912770057795061"><ele>270.0</ele><time>2026-04-18T07:24:43.999Z</time></trkpt><trkpt lat="43.43048734042419" lon="12.912485558688081"><ele>273.0</ele><time>2026-04-18T07:24:44.999Z</time></trkpt><trkpt lat="43.43065679864019" lon="12.912177649872659"><ele>273.0</ele><time>2026-04-18T07:24:45.999Z</time></trkpt><trkpt lat="43.43080572141325" lon="12.91185339668308"><ele>273.0</ele><time>2026-04-18T07:24:46.999Z</time></trkpt><trkpt lat="43.43094782623943" lon="12.9115281986882"><ele>266.5</ele><time>2026-04-18T07:24:47.999Z</time></trkpt><trkpt lat="43.43109625713365" lon="12.911203946354206"><ele>260.0</ele><time>2026-04-18T07:24:48.999Z</time></trkpt><trkpt lat="43.43124048736541" lon="12.91088580206996"><ele>266.0</ele><time>2026-04-18T07:24:49.999Z</time></trkpt><trkpt lat="43.43138084700616" lon="12.910580437586523"><ele>272.0</ele><time>2026-04-18T07:24:50.999Z</time></trkpt><trkpt lat="43.43151377667329" lon="12.91028922841789"><ele>267.0</ele><time>2026-04-18T07:24:51.999Z</time></trkpt><trkpt lat="43.4316458923565" lon="12.91000846208451"><ele>262.0</ele><time>2026-04-18T07:24:52.999Z</time></trkpt><trkpt lat="43.43179429776403" lon="12.909755288778134"><ele>262.0</ele><time>2026-04-18T07:24:54Z</time></trkpt><trkpt lat="43.4319668186497" lon="12.909547522580104"><ele>262.0</ele><time>2026-04-18T07:24:55Z</time></trkpt><trkpt lat="43.432160048204025" lon="12.909364622606232"><ele>262.0</ele><time>2026-04-18T07:24:56Z</time></trkpt><trkpt lat="43.4323662409878" lon="12.909208409633262"><ele>262.0</ele><time>2026-04-18T07:24:57Z</time></trkpt><trkpt lat="43.43256239471213" lon="12.909051448093726"><ele>262.0</ele><time>2026-04-18T07:24:58Z</time></trkpt><trkpt lat="43.43275147280528" lon="12.908888550255854"><ele>262.0</ele><time>2026-04-18T07:24:59Z</time></trkpt><trkpt lat="43.4329349532332" lon="12.908726455802038"><ele>262.0</ele><time>2026-04-18T07:25:00Z</time></trkpt><trkpt lat="43.43312148126101" lon="12.908566920875856"><ele>261.66666666666663</ele><time>2026-04-18T07:25:01Z</time></trkpt><trkpt lat="43.43330724280977" lon="12.908400024924248"><ele>261.3333333333333</ele><time>2026-04-18T07:25:02Z</time></trkpt><trkpt lat="43.433494897457344" lon="12.908232900555737"><ele>261.0</ele><time>2026-04-18T07:25:03Z</time></trkpt><trkpt lat="43.433681928040066" lon="12.908066847362313"><ele>262.0</ele><time>2026-04-18T07:25:04Z</time></trkpt><trkpt lat="43.43386830822396" lon="12.907901307731763"><ele>263.0</ele><time>2026-04-18T07:25:05Z</time></trkpt><trkpt lat="43.4340478582736" lon="12.907745401329132"><ele>264.0</ele><time>2026-04-18T07:25:06Z</time></trkpt><trkpt lat="43.43421856666486" lon="12.9075952429366"><ele>264.0</ele><time>2026-04-18T07:25:07Z</time></trkpt><trkpt lat="43.43438229226449" lon="12.907448661318377"><ele>264.0</ele><time>2026-04-18T07:25:08Z</time></trkpt><trkpt lat="43.4345466118801" lon="12.907288350714422"><ele>264.0</ele><time>2026-04-18T07:25:09Z</time></trkpt><trkpt lat="43.434709518648226" lon="12.907126575102835"><ele>264.0</ele><time>2026-04-18T07:25:10Z</time></trkpt><trkpt lat="43.43487616773532" lon="12.906971224366151"><ele>264.0</ele><time>2026-04-18T07:25:11Z</time></trkpt><trkpt lat="43.43504179183845" lon="12.906815934466154"><ele>264.0</ele><time>2026-04-18T07:25:12Z</time></trkpt><trkpt lat="43.435209857657725" lon="12.906657718183485"><ele>264.3333333333333</ele><time>2026-04-18T07:25:13Z</time></trkpt><trkpt lat="43.435378479856865" lon="12.906494412418134"><ele>264.66666666666663</ele><time>2026-04-18T07:25:14Z</time></trkpt><trkpt lat="43.43554228195687" lon="12.906327804832003"><ele>265.0</ele><time>2026-04-18T07:25:15Z</time></trkpt><trkpt lat="43.43569913521956" lon="12.906164869804314"><ele>265.0</ele><time>2026-04-18T07:25:16Z</time></trkpt><trkpt lat="43.43585974832616" lon="12.905995467980528"><ele>265.0</ele><time>2026-04-18T07:25:17Z</time></trkpt><trkpt lat="43.43601012156624" lon="12.905818623379613"><ele>265.0</ele><time>2026-04-18T07:25:18Z</time></trkpt><trkpt lat="43.43616383998659" lon="12.905648203763612"><ele>265.0</ele><time>2026-04-18T07:25:19Z</time></trkpt><trkpt lat="43.43631544237678" lon="12.905474227740296"><ele>265.0</ele><time>2026-04-18T07:25:20Z</time></trkpt><trkpt lat="43.436468283510756" lon="12.905298189094363"><ele>265.0</ele><time>2026-04-18T07:25:21Z</time></trkpt><trkpt lat="43.436615303862894" lon="12.905124583041628"><ele>264.3333333333333</ele><time>2026-04-18T07:25:22Z</time></trkpt><trkpt lat="43.436769668290914" lon="12.904949540586315"><ele>263.6666666666667</ele><time>2026-04-18T07:25:23Z</time></trkpt><trkpt lat="43.436920100767836" lon="12.904776231118355"><ele>263.0</ele><time>2026-04-18T07:25:24Z</time></trkpt><trkpt lat="43.437072007744916" lon="12.904599112239103"><ele>263.0</ele><time>2026-04-18T07:25:25Z</time></trkpt><trkpt lat="43.4372189242311" lon="12.904419471689662"><ele>263.0</ele><time>2026-04-18T07:25:26Z</time></trkpt><trkpt lat="43.43737174369998" lon="12.904239182509027"><ele>263.0</ele><time>2026-04-18T07:25:27Z</time></trkpt><trkpt lat="43.43752624344347" lon="12.904057914851775"><ele>263.0</ele><time>2026-04-18T07:25:28Z</time></trkpt><trkpt lat="43.437677462369386" lon="12.903875396363537"><ele>263.0</ele><time>2026-04-18T07:25:29Z</time></trkpt><trkpt lat="43.437834999914315" lon="12.90369348129059"><ele>263.0</ele><time>2026-04-18T07:25:30Z</time></trkpt><trkpt lat="43.43799204550921" lon="12.90350982886778"><ele>263.33333333333337</ele><time>2026-04-18T07:25:31Z</time></trkpt><trkpt lat="43.43814790238286" lon="12.903327466851957"><ele>263.6666666666667</ele><time>2026-04-18T07:25:32Z</time></trkpt><trkpt lat="43.43830279653415" lon="12.903141634386007"><ele>264.0</ele><time>2026-04-18T07:25:33Z</time></trkpt><trkpt lat="43.43846086573478" lon="12.902957344106682"><ele>264.0</ele><time>2026-04-18T07:25:34Z</time></trkpt><trkpt lat="43.43861902633756" lon="12.902775602997654"><ele>264.0</ele><time>2026-04-18T07:25:35Z</time></trkpt><trkpt lat="43.43878011462118" lon="12.902594530771838"><ele>264.0</ele><time>2026-04-18T07:25:36Z</time></trkpt><trkpt lat="43.43893977277193" lon="12.902419588834437"><ele>263.0</ele><time>2026-04-18T07:25:37Z</time></trkpt><trkpt lat="43.439100728805386" lon="12.902240619564084"><ele>262.0</ele><time>2026-04-18T07:25:38Z</time></trkpt><trkpt lat="43.4392600968151" lon="12.902061815535985"><ele>261.0</ele><time>2026-04-18T07:25:39Z</time></trkpt><trkpt lat="43.4394177569974" lon="12.901882388806921"><ele>260.6666666666667</ele><time>2026-04-18T07:25:40Z</time></trkpt><trkpt lat="43.439566247014575" lon="12.901707594268325"><ele>260.33333333333337</ele><time>2026-04-18T07:25:41Z</time></trkpt><trkpt lat="43.43969917952212" lon="12.90153754885942"><ele>260.0</ele><time>2026-04-18T07:25:42Z</time></trkpt><trkpt lat="43.43981291012435" lon="12.901359163275671"><ele>260.0</ele><time>2026-04-18T07:25:43Z</time></trkpt><trkpt lat="43.43989645186639" lon="12.90117219794709"><ele>260.0</ele><time>2026-04-18T07:25:44Z</time></trkpt><trkpt lat="43.43997430663302" lon="12.90098020882412"><ele>260.0</ele><time>2026-04-18T07:25:45Z</time></trkpt><trkpt lat="43.440054555333546" lon="12.900791155042025"><ele>259.33333333333337</ele><time>2026-04-18T07:25:46Z</time></trkpt><trkpt lat="43.44014391963628" lon="12.900597899439129"><ele>258.6666666666667</ele><time>2026-04-18T07:25:47Z</time></trkpt><trkpt lat="43.44023656524127" lon="12.90039611716196"><ele>258.0</ele><time>2026-04-18T07:25:48Z</time></trkpt><trkpt lat="43.44033225637123" lon="12.900183334533013"><ele>257.6666666666667</ele><time>2026-04-18T07:25:49Z</time></trkpt><trkpt lat="43.44042856726394" lon="12.899964341254478"><ele>257.33333333333337</ele><time>2026-04-18T07:25:50Z</time></trkpt><trkpt lat="43.440530345612785" lon="12.899738293845271"><ele>257.0</ele><time>2026-04-18T07:25:51Z</time></trkpt><trkpt lat="43.44064359076445" lon="12.899506570554971"><ele>258.33333333333337</ele><time>2026-04-18T07:25:52Z</time></trkpt><trkpt lat="43.44076521906621" lon="12.899273020875828"><ele>259.6666666666667</ele><time>2026-04-18T07:25:53Z</time></trkpt><trkpt lat="43.44090325309415" lon="12.89904839147583"><ele>261.0</ele><time>2026-04-18T07:25:54Z</time></trkpt><trkpt lat="43.44105144150708" lon="12.898841670574699"><ele>261.0</ele><time>2026-04-18T07:25:55Z</time></trkpt><trkpt lat="43.441172867675995" lon="12.898606561357122"><ele>261.0</ele><time>2026-04-18T07:25:56Z</time></trkpt><trkpt lat="43.4413607603353" lon="12.898432230847597"><ele>261.0</ele><time>2026-04-18T07:25:57Z</time></trkpt><trkpt lat="43.44151274053916" lon="12.898227091525797"><ele>263.0</ele><time>2026-04-18T07:25:58Z</time></trkpt><trkpt lat="43.44167395400246" lon="12.898025568679383"><ele>265.0</ele><time>2026-04-18T07:25:59Z</time></trkpt><trkpt lat="43.44186165398331" lon="12.897829949301906"><ele>265.0</ele><time>2026-04-18T07:26:00Z</time></trkpt><trkpt lat="43.442018201112695" lon="12.897635532157173"><ele>265.0</ele><time>2026-04-18T07:26:01Z</time></trkpt><trkpt lat="43.44219623272001" lon="12.897444927321141"><ele>265.0</ele><time>2026-04-18T07:26:02Z</time></trkpt><trkpt lat="43.44237450708124" lon="12.897255303524977"><ele>266.5</ele><time>2026-04-18T07:26:03Z</time></trkpt><trkpt lat="43.442547492830656" lon="12.897069789075514"><ele>268.0</ele><time>2026-04-18T07:26:04Z</time></trkpt><trkpt lat="43.44288321043029" lon="12.896698304039344"><ele>271.66666666666663</ele><time>2026-04-18T07:26:05.999Z</time></trkpt><trkpt lat="43.443032312124004" lon="12.89651845781025"><ele>275.3333333333333</ele><time>2026-04-18T07:26:06.999Z</time></trkpt><trkpt lat="43.443160716456426" lon="12.896316494223894"><ele>279.0</ele><time>2026-04-18T07:26:07.999Z</time></trkpt><trkpt lat="43.44325049898981" lon="12.896073457155058"><ele>276.6666666666667</ele><time>2026-04-18T07:26:08.999Z</time></trkpt><trkpt lat="43.443316286139954" lon="12.895811833660495"><ele>274.33333333333337</ele><time>2026-04-18T07:26:09.999Z</time></trkpt><trkpt lat="43.44334397213752" lon="12.895552168013245"><ele>272.0</ele><time>2026-04-18T07:26:10.999Z</time></trkpt><trkpt lat="43.443365207366064" lon="12.895302640974815"><ele>271.25</ele><time>2026-04-18T07:26:11.999Z</time></trkpt><trkpt lat="43.44338045987292" lon="12.895073697388845"><ele>270.5</ele><time>2026-04-18T07:26:12.999Z</time></trkpt><trkpt lat="43.44339555802112" lon="12.894861876643187"><ele>269.75</ele><time>2026-04-18T07:26:13.999Z</time></trkpt><trkpt lat="43.44341179692573" lon="12.894689882238257"><ele>269.0</ele><time>2026-04-18T07:26:14.999Z</time></trkpt><trkpt lat="43.443426599258565" lon="12.89455000735078"><ele>269.0</ele><time>2026-04-18T07:26:15.999Z</time></trkpt><trkpt lat="43.443436790625775" lon="12.894463462334977"><ele>269.0</ele><time>2026-04-18T07:26:16.999Z</time></trkpt><trkpt lat="43.443440942464036" lon="12.894348316882141"><ele>269.0</ele><time>2026-04-18T07:26:18.999Z</time></trkpt><trkpt lat="43.443440013759805" lon="12.894255181598831"><ele>269.0</ele><time>2026-04-18T07:26:51.999Z</time></trkpt><trkpt lat="43.44337263903141" lon="12.89418496411571"><ele>269.0</ele><time>2026-04-18T07:27:21Z</time></trkpt><trkpt lat="43.4432728105072" lon="12.89416851830365"><ele>269.0</ele><time>2026-04-18T07:27:23Z</time></trkpt><trkpt lat="43.44315653999857" lon="12.894134016534055"><ele>269.0</ele><time>2026-04-18T07:27:25Z</time></trkpt><trkpt lat="43.44308188133685" lon="12.894113641218626"><ele>269.0</ele><time>2026-04-18T07:27:26Z</time></trkpt><trkpt lat="43.44300482761295" lon="12.89409179746255"><ele>269.0</ele><time>2026-04-18T07:27:27Z</time></trkpt><trkpt lat="43.442926497836034" lon="12.894068993036496"><ele>269.0</ele><time>2026-04-18T07:27:28Z</time></trkpt><trkpt lat="43.442845052924525" lon="12.894042441412841"><ele>269.0</ele><time>2026-04-18T07:27:29Z</time></trkpt><trkpt lat="43.442755167670775" lon="12.89401389617246"><ele>269.0</ele><time>2026-04-18T07:27:30Z</time></trkpt><trkpt lat="43.4426533596202" lon="12.8939829123804"><ele>269.0</ele><time>2026-04-18T07:27:31Z</time></trkpt><trkpt lat="43.442543766231246" lon="12.893948516591937"><ele>269.0</ele><time>2026-04-18T07:27:32Z</time></trkpt><trkpt lat="43.44243664449945" lon="12.89391714228106"><ele>269.0</ele><time>2026-04-18T07:27:33Z</time></trkpt><trkpt lat="43.44231944388084" lon="12.893884802757201"><ele>269.0</ele><time>2026-04-18T07:27:34Z</time></trkpt><trkpt lat="43.4421897851103" lon="12.89384839407946"><ele>269.5</ele><time>2026-04-18T07:27:35Z</time></trkpt><trkpt lat="43.44207079567084" lon="12.893811986003321"><ele>270.0</ele><time>2026-04-18T07:27:36Z</time></trkpt><trkpt lat="43.44195732868356" lon="12.893775064977836"><ele>270.5</ele><time>2026-04-18T07:27:37Z</time></trkpt><trkpt lat="43.44184264699331" lon="12.893729897577584"><ele>271.0</ele><time>2026-04-18T07:27:38Z</time></trkpt><trkpt lat="43.44173406080616" lon="12.893668827895118"><ele>271.0</ele><time>2026-04-18T07:27:39Z</time></trkpt><trkpt lat="43.44162934510025" lon="12.893586759637794"><ele>271.0</ele><time>2026-04-18T07:27:40Z</time></trkpt><trkpt lat="43.44153147391779" lon="12.893483805140882"><ele>271.0</ele><time>2026-04-18T07:27:41Z</time></trkpt><trkpt lat="43.44144585258401" lon="12.893373548139529"><ele>271.0</ele><time>2026-04-18T07:27:42Z</time></trkpt><trkpt lat="43.441368007796775" lon="12.893241453112358"><ele>272.5</ele><time>2026-04-18T07:27:43Z</time></trkpt><trkpt lat="43.441294370124304" lon="12.893095359980226"><ele>274.0</ele><time>2026-04-18T07:27:44Z</time></trkpt><trkpt lat="43.441227791225955" lon="12.892929649935011"><ele>275.5</ele><time>2026-04-18T07:27:45Z</time></trkpt><trkpt lat="43.44117131148848" lon="12.892755014438237"><ele>277.0</ele><time>2026-04-18T07:27:46Z</time></trkpt><trkpt lat="43.44111356388976" lon="12.892564396295427"><ele>277.0</ele><time>2026-04-18T07:27:47Z</time></trkpt><trkpt lat="43.44104899723613" lon="12.892367439493006"><ele>277.0</ele><time>2026-04-18T07:27:48Z</time></trkpt><trkpt lat="43.44099070220944" lon="12.89219525017607"><ele>277.0</ele><time>2026-04-18T07:27:49Z</time></trkpt><trkpt lat="43.44093773543235" lon="12.892035866790545"><ele>277.0</ele><time>2026-04-18T07:27:50Z</time></trkpt><trkpt lat="43.44088049081743" lon="12.89186796975616"><ele>276.3333333333333</ele><time>2026-04-18T07:27:51Z</time></trkpt><trkpt lat="43.44081721500889" lon="12.891685880669932"><ele>275.6666666666667</ele><time>2026-04-18T07:27:52Z</time></trkpt><trkpt lat="43.440749944564416" lon="12.891493043163587"><ele>275.0</ele><time>2026-04-18T07:27:53Z</time></trkpt><trkpt lat="43.44067730790813" lon="12.891296436886313"><ele>275.0</ele><time>2026-04-18T07:27:54Z</time></trkpt><trkpt lat="43.44059573465055" lon="12.891090629495116"><ele>275.0</ele><time>2026-04-18T07:27:55Z</time></trkpt><trkpt lat="43.44050402529785" lon="12.890855533495603"><ele>275.0</ele><time>2026-04-18T07:27:56Z</time></trkpt><trkpt lat="43.44041645802479" lon="12.890594230405211"><ele>274.0</ele><time>2026-04-18T07:27:57Z</time></trkpt><trkpt lat="43.44033386406784" lon="12.890312700239914"><ele>273.0</ele><time>2026-04-18T07:27:58Z</time></trkpt><trkpt lat="43.440244088551864" lon="12.890005351375558"><ele>273.0</ele><time>2026-04-18T07:27:59Z</time></trkpt><trkpt lat="43.440144350366275" lon="12.889694662939304"><ele>273.0</ele><time>2026-04-18T07:28:00Z</time></trkpt><trkpt lat="43.440038324642" lon="12.889377020525664"><ele>271.0</ele><time>2026-04-18T07:28:00.999Z</time></trkpt><trkpt lat="43.439931727796825" lon="12.889060752872258"><ele>269.0</ele><time>2026-04-18T07:28:01.999Z</time></trkpt><trkpt lat="43.439826620281295" lon="12.888735372580646"><ele>269.5</ele><time>2026-04-18T07:28:02.999Z</time></trkpt><trkpt lat="43.439716374109075" lon="12.888412165332513"><ele>270.0</ele><time>2026-04-18T07:28:03.999Z</time></trkpt><trkpt lat="43.439603590511354" lon="12.888078649133538"><ele>267.5</ele><time>2026-04-18T07:28:04.999Z</time></trkpt><trkpt lat="43.43949157410656" lon="12.887746103689494"><ele>265.0</ele><time>2026-04-18T07:28:05.999Z</time></trkpt><trkpt lat="43.43937975814699" lon="12.887414948172827"><ele>264.5</ele><time>2026-04-18T07:28:06.999Z</time></trkpt><trkpt lat="43.439267489044866" lon="12.887078595767052"><ele>264.0</ele><time>2026-04-18T07:28:07.999Z</time></trkpt><trkpt lat="43.43915183193054" lon="12.886747899402124"><ele>265.0</ele><time>2026-04-18T07:28:08.999Z</time></trkpt><trkpt lat="43.43903949909518" lon="12.886419261858444"><ele>266.0</ele><time>2026-04-18T07:28:09.999Z</time></trkpt><trkpt lat="43.43892986796853" lon="12.886097046763712"><ele>266.0</ele><time>2026-04-18T07:28:10.999Z</time></trkpt><trkpt lat="43.43882106166436" lon="12.885772729409402"><ele>266.0</ele><time>2026-04-18T07:28:11.999Z</time></trkpt><trkpt lat="43.43871149487417" lon="12.885448486773361"><ele>264.5</ele><time>2026-04-18T07:28:12.999Z</time></trkpt><trkpt lat="43.43860312262298" lon="12.885133020829894"><ele>263.0</ele><time>2026-04-18T07:28:13.999Z</time></trkpt><trkpt lat="43.43849439434288" lon="12.884815890438668"><ele>263.0</ele><time>2026-04-18T07:28:14.999Z</time></trkpt><trkpt lat="43.438383947977925" lon="12.88449188755716"><ele>263.0</ele><time>2026-04-18T07:28:15.999Z</time></trkpt><trkpt lat="43.438273233386084" lon="12.884170198640323"><ele>264.0</ele><time>2026-04-18T07:28:16.999Z</time></trkpt><trkpt lat="43.43816435863584" lon="12.883851718124845"><ele>265.0</ele><time>2026-04-18T07:28:17.999Z</time></trkpt><trkpt lat="43.43805614874692" lon="12.883533295429258"><ele>264.5</ele><time>2026-04-18T07:28:18.999Z</time></trkpt><trkpt lat="43.43794680534926" lon="12.883216619501434"><ele>264.0</ele><time>2026-04-18T07:28:19.999Z</time></trkpt><trkpt lat="43.43783684779237" lon="12.88290641362488"><ele>264.0</ele><time>2026-04-18T07:28:20.999Z</time></trkpt><trkpt lat="43.43772836520213" lon="12.882602320707948"><ele>264.0</ele><time>2026-04-18T07:28:21.999Z</time></trkpt><trkpt lat="43.43764032501461" lon="12.882290759301512"><ele>267.0</ele><time>2026-04-18T07:28:22.999Z</time></trkpt><trkpt lat="43.437537500285295" lon="12.881988027121258"><ele>270.0</ele><time>2026-04-18T07:28:23.999Z</time></trkpt><trkpt lat="43.43741827250392" lon="12.881679598837902"><ele>271.0</ele><time>2026-04-18T07:28:24.999Z</time></trkpt><trkpt lat="43.43731608334656" lon="12.881348812958054"><ele>272.0</ele><time>2026-04-18T07:28:25.999Z</time></trkpt><trkpt lat="43.43720839239777" lon="12.881016786638694"><ele>272.5</ele><time>2026-04-18T07:28:26.999Z</time></trkpt><trkpt lat="43.43709771032236" lon="12.880694797162882"><ele>273.0</ele><time>2026-04-18T07:28:27.999Z</time></trkpt><trkpt lat="43.43698881617742" lon="12.88038002766699"><ele>274.0</ele><time>2026-04-18T07:28:28.999Z</time></trkpt><trkpt lat="43.43688087208235" lon="12.880065164374432"><ele>275.0</ele><time>2026-04-18T07:28:29.999Z</time></trkpt><trkpt lat="43.436780198517795" lon="12.87977022988304"><ele>275.0</ele><time>2026-04-18T07:28:30.999Z</time></trkpt><trkpt lat="43.43667747297452" lon="12.879471261395452"><ele>275.0</ele><time>2026-04-18T07:28:31.999Z</time></trkpt><trkpt lat="43.43657931861749" lon="12.87918506430926"><ele>278.0</ele><time>2026-04-18T07:28:32.999Z</time></trkpt><trkpt lat="43.43648565721864" lon="12.87889717617212"><ele>281.0</ele><time>2026-04-18T07:28:33.999Z</time></trkpt><trkpt lat="43.436408443295626" lon="12.87859933045053"><ele>282.5</ele><time>2026-04-18T07:28:34.999Z</time></trkpt><trkpt lat="43.43636071306338" lon="12.878283004427182"><ele>284.0</ele><time>2026-04-18T07:28:35.999Z</time></trkpt><trkpt lat="43.436335446008016" lon="12.87796697760727"><ele>284.0</ele><time>2026-04-18T07:28:36.999Z</time></trkpt><trkpt lat="43.43632576189006" lon="12.877641398086768"><ele>284.0</ele><time>2026-04-18T07:28:37.999Z</time></trkpt><trkpt lat="43.43632289092293" lon="12.87730440637759"><ele>286.0</ele><time>2026-04-18T07:28:38.999Z</time></trkpt><trkpt lat="43.43631530416537" lon="12.876979662743603"><ele>288.0</ele><time>2026-04-18T07:28:39.999Z</time></trkpt><trkpt lat="43.43630589383686" lon="12.876646307912107"><ele>281.0</ele><time>2026-04-18T07:28:40.999Z</time></trkpt><trkpt lat="43.43629243427197" lon="12.876314840489208"><ele>274.0</ele><time>2026-04-18T07:28:41.999Z</time></trkpt><trkpt lat="43.43628115661697" lon="12.875998135019033"><ele>276.0</ele><time>2026-04-18T07:28:42.999Z</time></trkpt><trkpt lat="43.43626823224416" lon="12.875683278128635"><ele>278.0</ele><time>2026-04-18T07:28:43.999Z</time></trkpt><trkpt lat="43.43624805369716" lon="12.875357338329435"><ele>278.0</ele><time>2026-04-18T07:28:44.999Z</time></trkpt><trkpt lat="43.43622695737159" lon="12.87504345321702"><ele>278.0</ele><time>2026-04-18T07:28:45.999Z</time></trkpt><trkpt lat="43.43620098979625" lon="12.87475651692962"><ele>278.0</ele><time>2026-04-18T07:28:46.999Z</time></trkpt><trkpt lat="43.4361598958759" lon="12.874485651305868"><ele>279.33333333333337</ele><time>2026-04-18T07:28:47.999Z</time></trkpt><trkpt lat="43.43610351172837" lon="12.874241802101631"><ele>280.6666666666667</ele><time>2026-04-18T07:28:48.999Z</time></trkpt><trkpt lat="43.43603584270853" lon="12.87404226857595"><ele>282.0</ele><time>2026-04-18T07:28:49.999Z</time></trkpt><trkpt lat="43.435981446798905" lon="12.873853145571795"><ele>282.0</ele><time>2026-04-18T07:28:50.999Z</time></trkpt><trkpt lat="43.43595764079583" lon="12.873688545523292"><ele>282.0</ele><time>2026-04-18T07:28:51.999Z</time></trkpt><trkpt lat="43.43594961708207" lon="12.87354178436462"><ele>282.0</ele><time>2026-04-18T07:28:52.999Z</time></trkpt><trkpt lat="43.4359604404537" lon="12.873421773064981"><ele>282.0</ele><time>2026-04-18T07:28:53.999Z</time></trkpt><trkpt lat="43.43599708767355" lon="12.873329857252324"><ele>282.0</ele><time>2026-04-18T07:28:54.999Z</time></trkpt><trkpt lat="43.43605075881377" lon="12.873272008324607"><ele>282.0</ele><time>2026-04-18T07:28:55.999Z</time></trkpt><trkpt lat="43.43615884056891" lon="12.873225784977015"><ele>282.0</ele><time>2026-04-18T07:28:57.999Z</time></trkpt><trkpt lat="43.43617304002637" lon="12.873111578569977"><ele>282.0</ele><time>2026-04-18T07:28:59.999Z</time></trkpt><trkpt lat="43.436162226715005" lon="12.873004089368715"><ele>282.0</ele><time>2026-04-18T07:29:01.999Z</time></trkpt><trkpt lat="43.43615836682037" lon="12.872916838201604"><ele>282.0</ele><time>2026-04-18T07:29:03.999Z</time></trkpt><trkpt lat="43.43612049311635" lon="12.872837561926795"><ele>282.0</ele><time>2026-04-18T07:31:39Z</time></trkpt><trkpt lat="43.436051796731775" lon="12.872801418591266"><ele>282.0</ele><time>2026-04-18T07:31:41Z</time></trkpt><trkpt lat="43.43596667172758" lon="12.872796177122204"><ele>282.0</ele><time>2026-04-18T07:31:43Z</time></trkpt><trkpt lat="43.43589723831107" lon="12.872653869405998"><ele>282.0</ele><time>2026-04-18T07:31:46Z</time></trkpt><trkpt lat="43.435898807307055" lon="12.872514492771812"><ele>282.0</ele><time>2026-04-18T07:31:47Z</time></trkpt><trkpt lat="43.43588627407378" lon="12.872365300378627"><ele>282.0</ele><time>2026-04-18T07:31:48Z</time></trkpt><trkpt lat="43.43587304842447" lon="12.872227499198962"><ele>282.5</ele><time>2026-04-18T07:31:49Z</time></trkpt><trkpt lat="43.43585780424584" lon="12.872074439186"><ele>283.0</ele><time>2026-04-18T07:31:50Z</time></trkpt><trkpt lat="43.43584593808264" lon="12.871904652588244"><ele>283.5</ele><time>2026-04-18T07:31:51Z</time></trkpt><trkpt lat="43.4358385215938" lon="12.871737093294229"><ele>284.0</ele><time>2026-04-18T07:31:52Z</time></trkpt><trkpt lat="43.43582924675999" lon="12.87156373370989"><ele>284.0</ele><time>2026-04-18T07:31:53Z</time></trkpt><trkpt lat="43.43581547789839" lon="12.871394188971216"><ele>284.0</ele><time>2026-04-18T07:31:54Z</time></trkpt><trkpt lat="43.43580104023058" lon="12.87121580730635"><ele>284.0</ele><time>2026-04-18T07:31:55Z</time></trkpt><trkpt lat="43.435777714830195" lon="12.87103830101391"><ele>284.0</ele><time>2026-04-18T07:31:56Z</time></trkpt><trkpt lat="43.43574267847142" lon="12.870860344766692"><ele>284.5</ele><time>2026-04-18T07:31:57Z</time></trkpt><trkpt lat="43.435699248740555" lon="12.870678160030854"><ele>285.0</ele><time>2026-04-18T07:31:58Z</time></trkpt><trkpt lat="43.43564728028826" lon="12.870501753325954"><ele>285.5</ele><time>2026-04-18T07:31:59Z</time></trkpt><trkpt lat="43.43558434120281" lon="12.870331628597784"><ele>286.0</ele><time>2026-04-18T07:32:00Z</time></trkpt><trkpt lat="43.43550394089505" lon="12.870178667889121"><ele>285.0</ele><time>2026-04-18T07:32:01Z</time></trkpt><trkpt lat="43.43540088160035" lon="12.870043518147027"><ele>284.0</ele><time>2026-04-18T07:32:02Z</time></trkpt><trkpt lat="43.43528776808679" lon="12.86992195655825"><ele>283.0</ele><time>2026-04-18T07:32:03Z</time></trkpt><trkpt lat="43.43517264497958" lon="12.869797930429426"><ele>282.0</ele><time>2026-04-18T07:32:04Z</time></trkpt><trkpt lat="43.435052384644266" lon="12.869665555421998"><ele>282.0</ele><time>2026-04-18T07:32:05Z</time></trkpt><trkpt lat="43.43493520787687" lon="12.869525999876636"><ele>282.0</ele><time>2026-04-18T07:32:06Z</time></trkpt><trkpt lat="43.43482389775162" lon="12.86938618178846"><ele>282.0</ele><time>2026-04-18T07:32:07Z</time></trkpt><trkpt lat="43.43472289507418" lon="12.869252366297921"><ele>282.0</ele><time>2026-04-18T07:32:08Z</time></trkpt><trkpt lat="43.43462278504105" lon="12.869119749835248"><ele>280.75</ele><time>2026-04-18T07:32:09Z</time></trkpt><trkpt lat="43.43452997657089" lon="12.868987113119344"><ele>279.5</ele><time>2026-04-18T07:32:10Z</time></trkpt><trkpt lat="43.43444108370918" lon="12.868843694240079"><ele>278.25</ele><time>2026-04-18T07:32:11Z</time></trkpt><trkpt lat="43.434356918339816" lon="12.868681176883083"><ele>277.0</ele><time>2026-04-18T07:32:12Z</time></trkpt><trkpt lat="43.43427251363089" lon="12.868511114915872"><ele>279.0</ele><time>2026-04-18T07:32:13Z</time></trkpt><trkpt lat="43.43419108997282" lon="12.868346880781354"><ele>281.0</ele><time>2026-04-18T07:32:14Z</time></trkpt><trkpt lat="43.43411230835945" lon="12.868178055092752"><ele>283.0</ele><time>2026-04-18T07:32:15Z</time></trkpt><trkpt lat="43.43403955738383" lon="12.868002462235259"><ele>285.0</ele><time>2026-04-18T07:32:15.999Z</time></trkpt><trkpt lat="43.43397310635783" lon="12.86781056234724"><ele>285.0</ele><time>2026-04-18T07:32:16.999Z</time></trkpt><trkpt lat="43.43392490759245" lon="12.867611773299018"><ele>285.0</ele><time>2026-04-18T07:32:17.999Z</time></trkpt><trkpt lat="43.433896322607175" lon="12.867402768018573"><ele>285.0</ele><time>2026-04-18T07:32:18.999Z</time></trkpt><trkpt lat="43.433877480324185" lon="12.867188302934784"><ele>286.6666666666667</ele><time>2026-04-18T07:32:19.999Z</time></trkpt><trkpt lat="43.43387232354982" lon="12.866966768247613"><ele>288.33333333333337</ele><time>2026-04-18T07:32:20.999Z</time></trkpt><trkpt lat="43.43387057838478" lon="12.866757892469678"><ele>290.0</ele><time>2026-04-18T07:32:21.999Z</time></trkpt><trkpt lat="43.43386601290952" lon="12.866546698372932"><ele>291.33333333333337</ele><time>2026-04-18T07:32:22.999Z</time></trkpt><trkpt lat="43.43385902747303" lon="12.866336312041064"><ele>292.6666666666667</ele><time>2026-04-18T07:32:23.999Z</time></trkpt><trkpt lat="43.433853034979236" lon="12.866127543501017"><ele>294.0</ele><time>2026-04-18T07:32:24.999Z</time></trkpt><trkpt lat="43.43384610719801" lon="12.86591399658339"><ele>296.3333333333333</ele><time>2026-04-18T07:32:25.999Z</time></trkpt><trkpt lat="43.43384024259424" lon="12.865703662839836"><ele>298.66666666666663</ele><time>2026-04-18T07:32:26.999Z</time></trkpt><trkpt lat="43.4338361238913" lon="12.865497023557113"><ele>301.0</ele><time>2026-04-18T07:32:27.999Z</time></trkpt><trkpt lat="43.43383021692521" lon="12.865285171526276"><ele>300.75</ele><time>2026-04-18T07:32:28.999Z</time></trkpt><trkpt lat="43.433827515410684" lon="12.865079578400223"><ele>300.5</ele><time>2026-04-18T07:32:29.999Z</time></trkpt><trkpt lat="43.433823646683955" lon="12.86487328778727"><ele>300.25</ele><time>2026-04-18T07:32:30.999Z</time></trkpt><trkpt lat="43.433816151528134" lon="12.864671774575324"><ele>300.0</ele><time>2026-04-18T07:32:31.999Z</time></trkpt><trkpt lat="43.43380804227362" lon="12.86447317528047"><ele>295.5</ele><time>2026-04-18T07:32:32.999Z</time></trkpt><trkpt lat="43.433800890945335" lon="12.864274838566807"><ele>291.0</ele><time>2026-04-18T07:32:33.999Z</time></trkpt><trkpt lat="43.43379412243925" lon="12.864078630370326"><ele>286.5</ele><time>2026-04-18T07:32:34.999Z</time></trkpt><trkpt lat="43.43379118281428" lon="12.863888863239444"><ele>282.0</ele><time>2026-04-18T07:32:35.999Z</time></trkpt><trkpt lat="43.43378490184417" lon="12.863698631957412"><ele>282.0</ele><time>2026-04-18T07:32:36.999Z</time></trkpt><trkpt lat="43.43377728997334" lon="12.863507026444706"><ele>282.0</ele><time>2026-04-18T07:32:37.999Z</time></trkpt><trkpt lat="43.433769449857884" lon="12.863321396900448"><ele>282.0</ele><time>2026-04-18T07:32:38.999Z</time></trkpt><trkpt lat="43.433763275087216" lon="12.863140415064612"><ele>282.0</ele><time>2026-04-18T07:32:39.999Z</time></trkpt><trkpt lat="43.43375760449335" lon="12.862959684683455"><ele>282.0</ele><time>2026-04-18T07:32:40.999Z</time></trkpt><trkpt lat="43.43375266669667" lon="12.862781036942755"><ele>282.0</ele><time>2026-04-18T07:32:41.999Z</time></trkpt><trkpt lat="43.43374436439872" lon="12.862601003954136"><ele>282.0</ele><time>2026-04-18T07:32:42.999Z</time></trkpt><trkpt lat="43.43373776844754" lon="12.862423269623434"><ele>282.0</ele><time>2026-04-18T07:32:43.999Z</time></trkpt><trkpt lat="43.43372821161766" lon="12.862073269260062"><ele>282.75</ele><time>2026-04-18T07:32:45.999Z</time></trkpt><trkpt lat="43.433717457529454" lon="12.861904031311372"><ele>283.5</ele><time>2026-04-18T07:32:46.999Z</time></trkpt><trkpt lat="43.433710061918376" lon="12.861733578775873"><ele>284.25</ele><time>2026-04-18T07:32:47.999Z</time></trkpt><trkpt lat="43.43370152835016" lon="12.861567758171244"><ele>285.0</ele><time>2026-04-18T07:32:48.999Z</time></trkpt><trkpt lat="43.43367960396629" lon="12.861398355405788"><ele>285.25</ele><time>2026-04-18T07:32:49.999Z</time></trkpt><trkpt lat="43.43364074831553" lon="12.861230498602904"><ele>285.5</ele><time>2026-04-18T07:32:50.999Z</time></trkpt><trkpt lat="43.43359156248627" lon="12.86106683576326"><ele>285.75</ele><time>2026-04-18T07:32:51.999Z</time></trkpt><trkpt lat="43.433531033908935" lon="12.860908762736466"><ele>286.0</ele><time>2026-04-18T07:32:52.999Z</time></trkpt><trkpt lat="43.43346918400723" lon="12.860748804923029"><ele>286.75</ele><time>2026-04-18T07:32:53.999Z</time></trkpt><trkpt lat="43.43341195758958" lon="12.860580698672798"><ele>287.5</ele><time>2026-04-18T07:32:54.999Z</time></trkpt><trkpt lat="43.43335573463077" lon="12.86041188233973"><ele>288.25</ele><time>2026-04-18T07:32:55.999Z</time></trkpt><trkpt lat="43.433291210087404" lon="12.860247348648988"><ele>289.0</ele><time>2026-04-18T07:32:56.999Z</time></trkpt><trkpt lat="43.43321672882356" lon="12.860095641158273"><ele>288.25</ele><time>2026-04-18T07:32:57.999Z</time></trkpt><trkpt lat="43.43312854701882" lon="12.859953878981461"><ele>287.5</ele><time>2026-04-18T07:32:58.999Z</time></trkpt><trkpt lat="43.43303078771423" lon="12.859823714546163"><ele>286.75</ele><time>2026-04-18T07:32:59.999Z</time></trkpt><trkpt lat="43.432934971868406" lon="12.859697690922165"><ele>286.0</ele><time>2026-04-18T07:33:00.999Z</time></trkpt><trkpt lat="43.432836400935635" lon="12.859583413217317"><ele>286.0</ele><time>2026-04-18T07:33:01.999Z</time></trkpt><trkpt lat="43.43273554329946" lon="12.859479084416622"><ele>286.0</ele><time>2026-04-18T07:33:02.999Z</time></trkpt><trkpt lat="43.43263181644504" lon="12.85937900268631"><ele>286.0</ele><time>2026-04-18T07:33:03.999Z</time></trkpt><trkpt lat="43.43253094139033" lon="12.85928469071327"><ele>286.0</ele><time>2026-04-18T07:33:04.999Z</time></trkpt><trkpt lat="43.4324380286618" lon="12.859194619173472"><ele>287.0</ele><time>2026-04-18T07:33:05.999Z</time></trkpt><trkpt lat="43.43234747399326" lon="12.859105146999752"><ele>288.0</ele><time>2026-04-18T07:33:06.999Z</time></trkpt><trkpt lat="43.43225958351788" lon="12.859013382445843"><ele>289.0</ele><time>2026-04-18T07:33:07.999Z</time></trkpt><trkpt lat="43.432176230904425" lon="12.858924282081407"><ele>290.0</ele><time>2026-04-18T07:33:08.999Z</time></trkpt><trkpt lat="43.432100300686585" lon="12.858843046232174"><ele>291.0</ele><time>2026-04-18T07:33:09.999Z</time></trkpt><trkpt lat="43.43202777668407" lon="12.858768891531877"><ele>291.0</ele><time>2026-04-18T07:33:10.999Z</time></trkpt><trkpt lat="43.43196013092084" lon="12.858705631476347"><ele>291.0</ele><time>2026-04-18T07:33:11.999Z</time></trkpt><trkpt lat="43.43183257919552" lon="12.858570727475593"><ele>291.0</ele><time>2026-04-18T07:33:13.999Z</time></trkpt><trkpt lat="43.43179106937046" lon="12.858488620247439"><ele>291.0</ele><time>2026-04-18T07:33:14.999Z</time></trkpt><trkpt lat="43.43178184336177" lon="12.858393260670956"><ele>291.0</ele><time>2026-04-18T07:33:15.999Z</time></trkpt><trkpt lat="43.43179013878145" lon="12.85828602761737"><ele>291.6666666666667</ele><time>2026-04-18T07:33:16.999Z</time></trkpt><trkpt lat="43.43180466402163" lon="12.85816581658451"><ele>292.3333333333333</ele><time>2026-04-18T07:33:18Z</time></trkpt><trkpt lat="43.43181947433727" lon="12.858040642159114"><ele>293.0</ele><time>2026-04-18T07:33:19Z</time></trkpt><trkpt lat="43.43183393036586" lon="12.857918638838306"><ele>293.66666666666663</ele><time>2026-04-18T07:33:20Z</time></trkpt><trkpt lat="43.43184543582368" lon="12.857799895523057"><ele>294.3333333333333</ele><time>2026-04-18T07:33:21Z</time></trkpt><trkpt lat="43.43185632433953" lon="12.85768309130008"><ele>295.0</ele><time>2026-04-18T07:33:22Z</time></trkpt><trkpt lat="43.43186472619221" lon="12.857581591810517"><ele>295.5</ele><time>2026-04-18T07:33:23Z</time></trkpt><trkpt lat="43.431869433940285" lon="12.857477346108475"><ele>296.0</ele><time>2026-04-18T07:33:24Z</time></trkpt><trkpt lat="43.43187448368293" lon="12.857369737592572"><ele>296.5</ele><time>2026-04-18T07:33:25Z</time></trkpt><trkpt lat="43.43187114331427" lon="12.857266856099924"><ele>297.0</ele><time>2026-04-18T07:33:26Z</time></trkpt><trkpt lat="43.43185752776404" lon="12.857175732787626"><ele>297.5</ele><time>2026-04-18T07:33:27Z</time></trkpt><trkpt lat="43.43184304138567" lon="12.85708902457146"><ele>298.0</ele><time>2026-04-18T07:33:28Z</time></trkpt><trkpt lat="43.431856756899585" lon="12.856927220884552"><ele>298.0</ele><time>2026-04-18T07:33:30Z</time></trkpt><trkpt lat="43.431925587494746" lon="12.856827564277435"><ele>298.0</ele><time>2026-04-18T07:33:32Z</time></trkpt><trkpt lat="43.43198926989346" lon="12.856774050958354"><ele>298.0</ele><time>2026-04-18T07:33:34Z</time></trkpt><trkpt lat="43.432066509938565" lon="12.856684069460403"><ele>298.0</ele><time>2026-04-18T07:33:36Z</time></trkpt><trkpt lat="43.43214695105644" lon="12.856636452600368"><ele>298.0</ele><time>2026-04-18T07:33:38Z</time></trkpt><trkpt lat="43.43221543466096" lon="12.856571869938033"><ele>298.0</ele><time>2026-04-18T07:33:40Z</time></trkpt><trkpt lat="43.43227793024183" lon="12.85651426255201"><ele>299.0</ele><time>2026-04-18T07:33:42Z</time></trkpt><trkpt lat="43.43235132159958" lon="12.856442909654929"><ele>300.0</ele><time>2026-04-18T07:33:45Z</time></trkpt><trkpt lat="43.432439023449845" lon="12.85635684503888"><ele>301.0</ele><time>2026-04-18T07:33:47Z</time></trkpt><trkpt lat="43.432535028607006" lon="12.856265364777517"><ele>302.0</ele><time>2026-04-18T07:33:49Z</time></trkpt><trkpt lat="43.43262633404358" lon="12.856181454951836"><ele>303.0</ele><time>2026-04-18T07:33:51Z</time></trkpt><trkpt lat="43.43270222105871" lon="12.856109895244144"><ele>303.0</ele><time>2026-04-18T07:33:53Z</time></trkpt><trkpt lat="43.432758075409765" lon="12.856054991136062"><ele>303.0</ele><time>2026-04-18T07:33:55Z</time></trkpt><trkpt lat="43.4328134521646" lon="12.85598408642195"><ele>303.0</ele><time>2026-04-18T07:33:57Z</time></trkpt><trkpt lat="43.43291056845133" lon="12.855869071911002"><ele>303.0</ele><time>2026-04-18T07:33:59Z</time></trkpt><trkpt lat="43.432959430502876" lon="12.855805905579047"><ele>303.0</ele><time>2026-04-18T07:34:00Z</time></trkpt><trkpt lat="43.433039482651765" lon="12.855707974255678"><ele>303.0</ele><time>2026-04-18T07:34:02Z</time></trkpt><trkpt lat="43.433101170006" lon="12.855647762389289"><ele>303.0</ele><time>2026-04-18T07:34:04Z</time></trkpt><trkpt lat="43.43315779196031" lon="12.85559777194564"><ele>303.0</ele><time>2026-04-18T07:34:08Z</time></trkpt><trkpt lat="43.43323063472027" lon="12.855519997779803"><ele>303.0</ele><time>2026-04-18T07:34:17Z</time></trkpt><trkpt lat="43.43330235767766" lon="12.85545310458346"><ele>303.0</ele><time>2026-04-18T07:34:19Z</time></trkpt><trkpt lat="43.433378095914" lon="12.855383400489957"><ele>303.0</ele><time>2026-04-18T07:34:21Z</time></trkpt><trkpt lat="43.433471771818006" lon="12.855285854224897"><ele>303.0</ele><time>2026-04-18T07:34:23Z</time></trkpt><trkpt lat="43.43352539702574" lon="12.855235591481213"><ele>303.0</ele><time>2026-04-18T07:34:24Z</time></trkpt><trkpt lat="43.43361859942416" lon="12.855146895419137"><ele>303.0</ele><time>2026-04-18T07:34:26Z</time></trkpt><trkpt lat="43.4336716968157" lon="12.855089148878932"><ele>303.0</ele><time>2026-04-18T07:34:27Z</time></trkpt><trkpt lat="43.433761281717864" lon="12.855024226932262"><ele>303.0</ele><time>2026-04-18T07:34:28Z</time></trkpt><trkpt lat="43.43385253183796" lon="12.854945411748174"><ele>301.5</ele><time>2026-04-18T07:34:29Z</time></trkpt><trkpt lat="43.43393068976443" lon="12.85485001938382"><ele>300.0</ele><time>2026-04-18T07:34:30Z</time></trkpt><trkpt lat="43.43403735962032" lon="12.854719716742702"><ele>298.5</ele><time>2026-04-18T07:34:31Z</time></trkpt><trkpt lat="43.43414306393913" lon="12.854588514556555"><ele>297.0</ele><time>2026-04-18T07:34:32Z</time></trkpt><trkpt lat="43.434251727988006" lon="12.85444560666354"><ele>297.0</ele><time>2026-04-18T07:34:32.999Z</time></trkpt><trkpt lat="43.43435811440343" lon="12.854304983557284"><ele>297.0</ele><time>2026-04-18T07:34:33.999Z</time></trkpt><trkpt lat="43.43445799549696" lon="12.854168781342363"><ele>297.0</ele><time>2026-04-18T07:34:34.999Z</time></trkpt><trkpt lat="43.43455961345204" lon="12.854040756238735"><ele>297.0</ele><time>2026-04-18T07:34:35.999Z</time></trkpt><trkpt lat="43.4346598093412" lon="12.8539135271262"><ele>296.25</ele><time>2026-04-18T07:34:36.999Z</time></trkpt><trkpt lat="43.434752057335906" lon="12.853784330700531"><ele>295.5</ele><time>2026-04-18T07:34:37.999Z</time></trkpt><trkpt lat="43.434845714598396" lon="12.85366357483557"><ele>294.75</ele><time>2026-04-18T07:34:38.999Z</time></trkpt><trkpt lat="43.434936062440585" lon="12.85354550442153"><ele>294.0</ele><time>2026-04-18T07:34:39.999Z</time></trkpt><trkpt lat="43.43502187510193" lon="12.853432664893079"><ele>293.25</ele><time>2026-04-18T07:34:40.999Z</time></trkpt><trkpt lat="43.43511127229605" lon="12.853321870460446"><ele>292.5</ele><time>2026-04-18T07:34:41.999Z</time></trkpt><trkpt lat="43.43519896912678" lon="12.85320874105146"><ele>291.75</ele><time>2026-04-18T07:34:42.999Z</time></trkpt><trkpt lat="43.435288942439456" lon="12.85309482339104"><ele>291.0</ele><time>2026-04-18T07:34:43.999Z</time></trkpt><trkpt lat="43.43538270544931" lon="12.85297632013816"><ele>290.75</ele><time>2026-04-18T07:34:44.999Z</time></trkpt><trkpt lat="43.435487152957286" lon="12.852846092755938"><ele>290.5</ele><time>2026-04-18T07:34:45.999Z</time></trkpt><trkpt lat="43.43558597025773" lon="12.852718199354383"><ele>290.25</ele><time>2026-04-18T07:34:46.999Z</time></trkpt><trkpt lat="43.435696782427804" lon="12.852602719881611"><ele>290.0</ele><time>2026-04-18T07:34:47.999Z</time></trkpt><trkpt lat="43.43581908302778" lon="12.85247293209263"><ele>292.33333333333337</ele><time>2026-04-18T07:34:48.999Z</time></trkpt><trkpt lat="43.43595669883392" lon="12.85231983278251"><ele>294.6666666666667</ele><time>2026-04-18T07:34:49.999Z</time></trkpt><trkpt lat="43.436101587164586" lon="12.852155789437685"><ele>297.0</ele><time>2026-04-18T07:34:50.999Z</time></trkpt><trkpt lat="43.436269931851804" lon="12.85201448815776"><ele>298.6666666666667</ele><time>2026-04-18T07:34:51.999Z</time></trkpt><trkpt lat="43.43643705170755" lon="12.851874519924007"><ele>300.33333333333337</ele><time>2026-04-18T07:34:52.999Z</time></trkpt><trkpt lat="43.43662269333267" lon="12.851774283109366"><ele>302.0</ele><time>2026-04-18T07:34:53.999Z</time></trkpt><trkpt lat="43.436824789486906" lon="12.85167956498695"><ele>302.0</ele><time>2026-04-18T07:34:54.999Z</time></trkpt><trkpt lat="43.43702745107055" lon="12.85159171648542"><ele>302.0</ele><time>2026-04-18T07:34:55.999Z</time></trkpt><trkpt lat="43.437224066251986" lon="12.851527755045543"><ele>302.0</ele><time>2026-04-18T07:34:56.999Z</time></trkpt><trkpt lat="43.43741237883195" lon="12.851462957979406"><ele>302.33333333333337</ele><time>2026-04-18T07:34:57.999Z</time></trkpt><trkpt lat="43.437577941395915" lon="12.85136301622291"><ele>302.6666666666667</ele><time>2026-04-18T07:34:58.999Z</time></trkpt><trkpt lat="43.43772442354728" lon="12.851223287569802"><ele>303.0</ele><time>2026-04-18T07:34:59.999Z</time></trkpt><trkpt lat="43.437869420235735" lon="12.851081257349248"><ele>304.0</ele><time>2026-04-18T07:35:00.999Z</time></trkpt><trkpt lat="43.43802461677628" lon="12.850951553097683"><ele>305.0</ele><time>2026-04-18T07:35:01.999Z</time></trkpt><trkpt lat="43.438182082201266" lon="12.85082823571021"><ele>306.0</ele><time>2026-04-18T07:35:02.999Z</time></trkpt><trkpt lat="43.43834674978491" lon="12.850718295648065"><ele>306.0</ele><time>2026-04-18T07:35:03.999Z</time></trkpt><trkpt lat="43.43851937233044" lon="12.850649710660866"><ele>306.0</ele><time>2026-04-18T07:35:04.999Z</time></trkpt><trkpt lat="43.43869603591944" lon="12.850591602728013"><ele>306.0</ele><time>2026-04-18T07:35:05.999Z</time></trkpt><trkpt lat="43.43887222157085" lon="12.850538200068495"><ele>306.3333333333333</ele><time>2026-04-18T07:35:06.999Z</time></trkpt><trkpt lat="43.43904766262227" lon="12.850470112735259"><ele>306.66666666666663</ele><time>2026-04-18T07:35:07.999Z</time></trkpt><trkpt lat="43.43922933522233" lon="12.850414099919773"><ele>307.0</ele><time>2026-04-18T07:35:08.999Z</time></trkpt><trkpt lat="43.439408091232295" lon="12.850355902962757"><ele>307.0</ele><time>2026-04-18T07:35:09.999Z</time></trkpt><trkpt lat="43.43958415542109" lon="12.850311121895869"><ele>307.0</ele><time>2026-04-18T07:35:10.999Z</time></trkpt><trkpt lat="43.43976330793437" lon="12.850261529959308"><ele>307.0</ele><time>2026-04-18T07:35:11.999Z</time></trkpt><trkpt lat="43.439946027436356" lon="12.850202741257393"><ele>307.0</ele><time>2026-04-18T07:35:12.999Z</time></trkpt><trkpt lat="43.440117583286444" lon="12.850138636752305"><ele>307.0</ele><time>2026-04-18T07:35:13.999Z</time></trkpt><trkpt lat="43.44029401157604" lon="12.85007447715639"><ele>307.0</ele><time>2026-04-18T07:35:14.999Z</time></trkpt><trkpt lat="43.440472989327006" lon="12.85002831714961"><ele>309.0</ele><time>2026-04-18T07:35:15.999Z</time></trkpt><trkpt lat="43.4406479831173" lon="12.849974593207458"><ele>311.0</ele><time>2026-04-18T07:35:16.999Z</time></trkpt><trkpt lat="43.44081808348412" lon="12.849918200288712"><ele>313.0</ele><time>2026-04-18T07:35:17.999Z</time></trkpt><trkpt lat="43.44098457985305" lon="12.849863438070127"><ele>313.0</ele><time>2026-04-18T07:35:18.999Z</time></trkpt><trkpt lat="43.44113154826811" lon="12.849840999507201"><ele>313.0</ele><time>2026-04-18T07:35:19.999Z</time></trkpt><trkpt lat="43.441252092101585" lon="12.84980480937984"><ele>313.0</ele><time>2026-04-18T07:35:20.999Z</time></trkpt><trkpt lat="43.44135457576509" lon="12.84977404133412"><ele>313.0</ele><time>2026-04-18T07:35:21.999Z</time></trkpt><trkpt lat="43.44145890414331" lon="12.84974271933192"><ele>313.25</ele><time>2026-04-18T07:35:22.999Z</time></trkpt><trkpt lat="43.44157159339808" lon="12.849707165516813"><ele>313.5</ele><time>2026-04-18T07:35:24Z</time></trkpt><trkpt lat="43.441684693206426" lon="12.849643274530367"><ele>313.75</ele><time>2026-04-18T07:35:25Z</time></trkpt><trkpt lat="43.44180688338707" lon="12.849610366936407"><ele>314.0</ele><time>2026-04-18T07:35:26Z</time></trkpt><trkpt lat="43.441934960359156" lon="12.84958176205371"><ele>314.0</ele><time>2026-04-18T07:35:27Z</time></trkpt><trkpt lat="43.442065934280116" lon="12.849547063914192"><ele>314.0</ele><time>2026-04-18T07:35:28Z</time></trkpt><trkpt lat="43.44219040695592" lon="12.849507314083011"><ele>314.0</ele><time>2026-04-18T07:35:29Z</time></trkpt><trkpt lat="43.442308585672826" lon="12.849478645049825"><ele>314.0</ele><time>2026-04-18T07:35:30Z</time></trkpt><trkpt lat="43.44243837128392" lon="12.849421564564286"><ele>314.0</ele><time>2026-04-18T07:35:31Z</time></trkpt><trkpt lat="43.44258977625561" lon="12.849391232050822"><ele>314.0</ele><time>2026-04-18T07:35:32Z</time></trkpt><trkpt lat="43.44274796402489" lon="12.849338708747991"><ele>314.0</ele><time>2026-04-18T07:35:33Z</time></trkpt><trkpt lat="43.44290488463895" lon="12.849284591585262"><ele>313.6666666666667</ele><time>2026-04-18T07:35:34Z</time></trkpt><trkpt lat="43.443061626488635" lon="12.849224177669564"><ele>313.3333333333333</ele><time>2026-04-18T07:35:35Z</time></trkpt><trkpt lat="43.44322056366217" lon="12.849149688753936"><ele>313.0</ele><time>2026-04-18T07:35:36Z</time></trkpt><trkpt lat="43.44338017611293" lon="12.849059025344518"><ele>313.0</ele><time>2026-04-18T07:35:37Z</time></trkpt><trkpt lat="43.44354436700443" lon="12.848949533610648"><ele>313.0</ele><time>2026-04-18T07:35:38Z</time></trkpt><trkpt lat="43.4437005029034" lon="12.848830570460445"><ele>313.0</ele><time>2026-04-18T07:35:39Z</time></trkpt><trkpt lat="43.44385444464282" lon="12.848703761691517"><ele>314.0</ele><time>2026-04-18T07:35:40Z</time></trkpt><trkpt lat="43.444011234145265" lon="12.848569885010784"><ele>315.0</ele><time>2026-04-18T07:35:41Z</time></trkpt><trkpt lat="43.444166434505476" lon="12.848427709601259"><ele>316.0</ele><time>2026-04-18T07:35:42Z</time></trkpt><trkpt lat="43.44432075821599" lon="12.848283649095285"><ele>316.0</ele><time>2026-04-18T07:35:43Z</time></trkpt><trkpt lat="43.44447846065722" lon="12.848137570530058"><ele>316.0</ele><time>2026-04-18T07:35:44Z</time></trkpt><trkpt lat="43.44463637936414" lon="12.847991044678594"><ele>316.0</ele><time>2026-04-18T07:35:45Z</time></trkpt><trkpt lat="43.44479158963581" lon="12.847848486380576"><ele>316.3333333333333</ele><time>2026-04-18T07:35:46Z</time></trkpt><trkpt lat="43.444944917588856" lon="12.847705452702009"><ele>316.6666666666667</ele><time>2026-04-18T07:35:47Z</time></trkpt><trkpt lat="43.445096045224396" lon="12.847562915625666"><ele>317.0</ele><time>2026-04-18T07:35:48Z</time></trkpt><trkpt lat="43.44524524375814" lon="12.84743355443288"><ele>315.5</ele><time>2026-04-18T07:35:49Z</time></trkpt><trkpt lat="43.44556709843471" lon="12.847280736334984"><ele>314.0</ele><time>2026-04-18T07:35:51Z</time></trkpt><trkpt lat="43.4457380189737" lon="12.847261391748985"><ele>314.0</ele><time>2026-04-18T07:35:52Z</time></trkpt><trkpt lat="43.44591428810071" lon="12.84728469883098"><ele>314.0</ele><time>2026-04-18T07:35:53Z</time></trkpt><trkpt lat="43.446087931456574" lon="12.847334475083887"><ele>314.0</ele><time>2026-04-18T07:35:54Z</time></trkpt><trkpt lat="43.44624785160544" lon="12.84742778928085"><ele>316.33333333333337</ele><time>2026-04-18T07:35:55Z</time></trkpt><trkpt lat="43.44640203370789" lon="12.847564881326548"><ele>318.6666666666667</ele><time>2026-04-18T07:35:56Z</time></trkpt><trkpt lat="43.44656106748713" lon="12.84772010569624"><ele>321.0</ele><time>2026-04-18T07:35:57Z</time></trkpt><trkpt lat="43.44673605701479" lon="12.847844816671124"><ele>321.5</ele><time>2026-04-18T07:35:58Z</time></trkpt><trkpt lat="43.44711055981654" lon="12.84794885430918"><ele>322.0</ele><time>2026-04-18T07:36:00Z</time></trkpt><trkpt lat="43.44729020681803" lon="12.847948303689574"><ele>323.0</ele><time>2026-04-18T07:36:01Z</time></trkpt><trkpt lat="43.44761587533038" lon="12.847915045634153"><ele>324.0</ele><time>2026-04-18T07:36:03Z</time></trkpt><trkpt lat="43.44776134909685" lon="12.847895009826145"><ele>324.0</ele><time>2026-04-18T07:36:04Z</time></trkpt><trkpt lat="43.44790142128063" lon="12.847882834425073"><ele>324.0</ele><time>2026-04-18T07:36:05Z</time></trkpt><trkpt lat="43.44803850699756" lon="12.847873634982937"><ele>324.0</ele><time>2026-04-18T07:36:06Z</time></trkpt><trkpt lat="43.44819607153125" lon="12.847854060577376"><ele>324.0</ele><time>2026-04-18T07:36:07Z</time></trkpt><trkpt lat="43.44837154476672" lon="12.847822808606821"><ele>324.6666666666667</ele><time>2026-04-18T07:36:08Z</time></trkpt><trkpt lat="43.448555700865704" lon="12.847795761038569"><ele>325.33333333333337</ele><time>2026-04-18T07:36:09Z</time></trkpt><trkpt lat="43.44872697472556" lon="12.847770142284688"><ele>326.0</ele><time>2026-04-18T07:36:10Z</time></trkpt><trkpt lat="43.44889710212328" lon="12.847760754208664"><ele>326.0</ele><time>2026-04-18T07:36:11Z</time></trkpt><trkpt lat="43.44907356261494" lon="12.84771676080982"><ele>326.0</ele><time>2026-04-18T07:36:12Z</time></trkpt><trkpt lat="43.449253670212464" lon="12.847695982855422"><ele>326.0</ele><time>2026-04-18T07:36:13Z</time></trkpt><trkpt lat="43.44943307783515" lon="12.84769508217851"><ele>326.0</ele><time>2026-04-18T07:36:14Z</time></trkpt><trkpt lat="43.44961455554778" lon="12.847652922714072"><ele>326.0</ele><time>2026-04-18T07:36:15Z</time></trkpt><trkpt lat="43.44978971519733" lon="12.847632489942304"><ele>326.0</ele><time>2026-04-18T07:36:16Z</time></trkpt><trkpt lat="43.449969206268605" lon="12.847611729189314"><ele>327.0</ele><time>2026-04-18T07:36:17Z</time></trkpt><trkpt lat="43.45014491677569" lon="12.84758998246999"><ele>328.0</ele><time>2026-04-18T07:36:18Z</time></trkpt><trkpt lat="43.45031261164046" lon="12.847567235301144"><ele>329.0</ele><time>2026-04-18T07:36:19Z</time></trkpt><trkpt lat="43.45048463188587" lon="12.84754461082651"><ele>330.0</ele><time>2026-04-18T07:36:20Z</time></trkpt><trkpt lat="43.4506493675214" lon="12.847529244850907"><ele>331.0</ele><time>2026-04-18T07:36:21Z</time></trkpt><trkpt lat="43.450820998708345" lon="12.847510939329863"><ele>332.0</ele><time>2026-04-18T07:36:22Z</time></trkpt><trkpt lat="43.450999057427104" lon="12.847487002455267"><ele>332.0</ele><time>2026-04-18T07:36:23Z</time></trkpt><trkpt lat="43.451218183624405" lon="12.847474388934787"><ele>332.0</ele><time>2026-04-18T07:36:24Z</time></trkpt><trkpt lat="43.451343311805914" lon="12.847437014859652"><ele>332.0</ele><time>2026-04-18T07:36:25Z</time></trkpt><trkpt lat="43.45152118470837" lon="12.847436329069398"><ele>332.0</ele><time>2026-04-18T07:36:26Z</time></trkpt><trkpt lat="43.45170883794152" lon="12.847391638296866"><ele>332.0</ele><time>2026-04-18T07:36:27Z</time></trkpt><trkpt lat="43.451901255326916" lon="12.847372510936333"><ele>332.0</ele><time>2026-04-18T07:36:28Z</time></trkpt><trkpt lat="43.45209145475714" lon="12.847347193056295"><ele>332.0</ele><time>2026-04-18T07:36:29Z</time></trkpt><trkpt lat="43.452282829271276" lon="12.847311150980813"><ele>332.0</ele><time>2026-04-18T07:36:30Z</time></trkpt><trkpt lat="43.45248592158095" lon="12.847258650935872"><ele>332.0</ele><time>2026-04-18T07:36:31Z</time></trkpt><trkpt lat="43.45269079357435" lon="12.847192382879971"><ele>332.0</ele><time>2026-04-18T07:36:32Z</time></trkpt><trkpt lat="43.45290064616044" lon="12.847114717227361"><ele>332.0</ele><time>2026-04-18T07:36:33Z</time></trkpt><trkpt lat="43.453102101486195" lon="12.847037235130559"><ele>332.0</ele><time>2026-04-18T07:36:34Z</time></trkpt><trkpt lat="43.45330739894513" lon="12.846960437351155"><ele>331.0</ele><time>2026-04-18T07:36:35Z</time></trkpt><trkpt lat="43.4535089152159" lon="12.84687876504616"><ele>330.0</ele><time>2026-04-18T07:36:36Z</time></trkpt><trkpt lat="43.45371774319554" lon="12.846792085590689"><ele>329.0</ele><time>2026-04-18T07:36:37Z</time></trkpt><trkpt lat="43.45392285337563" lon="12.846684736086882"><ele>331.0</ele><time>2026-04-18T07:36:38Z</time></trkpt><trkpt lat="43.454124423529564" lon="12.84656146342746"><ele>333.0</ele><time>2026-04-18T07:36:39Z</time></trkpt><trkpt lat="43.454328247125886" lon="12.846429132052615"><ele>335.0</ele><time>2026-04-18T07:36:40Z</time></trkpt><trkpt lat="43.4545328190357" lon="12.846292114932004"><ele>335.0</ele><time>2026-04-18T07:36:41Z</time></trkpt><trkpt lat="43.45473882050394" lon="12.846157020902176"><ele>335.0</ele><time>2026-04-18T07:36:41.999Z</time></trkpt><trkpt lat="43.45494397051071" lon="12.846018758546325"><ele>338.0</ele><time>2026-04-18T07:36:42.999Z</time></trkpt><trkpt lat="43.455147455451176" lon="12.845874495096302"><ele>341.0</ele><time>2026-04-18T07:36:43.999Z</time></trkpt><trkpt lat="43.4553491664057" lon="12.845727765014951"><ele>339.6666666666667</ele><time>2026-04-18T07:36:44.999Z</time></trkpt><trkpt lat="43.455550058767386" lon="12.845586755588071"><ele>338.3333333333333</ele><time>2026-04-18T07:36:45.999Z</time></trkpt><trkpt lat="43.45574911935292" lon="12.845452201957023"><ele>337.0</ele><time>2026-04-18T07:36:46.999Z</time></trkpt><trkpt lat="43.455947297478005" lon="12.845325504584553"><ele>337.0</ele><time>2026-04-18T07:36:47.999Z</time></trkpt><trkpt lat="43.45614212955726" lon="12.84520005142788"><ele>337.0</ele><time>2026-04-18T07:36:48.999Z</time></trkpt><trkpt lat="43.456333437562314" lon="12.845066176045407"><ele>337.0</ele><time>2026-04-18T07:36:49.999Z</time></trkpt><trkpt lat="43.456507908749366" lon="12.844917167914733"><ele>337.3333333333333</ele><time>2026-04-18T07:36:50.999Z</time></trkpt><trkpt lat="43.45667021435646" lon="12.844719501015742"><ele>337.6666666666667</ele><time>2026-04-18T07:36:51.999Z</time></trkpt><trkpt lat="43.456801910503756" lon="12.844476786004474"><ele>338.0</ele><time>2026-04-18T07:36:52.999Z</time></trkpt><trkpt lat="43.45690820140721" lon="12.844225733847441"><ele>337.6666666666667</ele><time>2026-04-18T07:36:53.999Z</time></trkpt><trkpt lat="43.45701878251" lon="12.844020312542737"><ele>337.3333333333333</ele><time>2026-04-18T07:36:54.999Z</time></trkpt><trkpt lat="43.45711280522633" lon="12.843839845820911"><ele>337.0</ele><time>2026-04-18T07:36:55.999Z</time></trkpt><trkpt lat="43.45720354022246" lon="12.843638410660049"><ele>338.3333333333333</ele><time>2026-04-18T07:36:56.999Z</time></trkpt><trkpt lat="43.45731030821242" lon="12.843413361691047"><ele>339.6666666666667</ele><time>2026-04-18T07:36:57.999Z</time></trkpt><trkpt lat="43.4574225952632" lon="12.843192664984802"><ele>341.0</ele><time>2026-04-18T07:36:58.999Z</time></trkpt><trkpt lat="43.45754476582553" lon="12.842954367717818"><ele>341.0</ele><time>2026-04-18T07:36:59.999Z</time></trkpt><trkpt lat="43.457674036548944" lon="12.842707752460463"><ele>341.0</ele><time>2026-04-18T07:37:00.999Z</time></trkpt><trkpt lat="43.457796299393756" lon="12.842457278141238"><ele>341.0</ele><time>2026-04-18T07:37:01.999Z</time></trkpt><trkpt lat="43.457923212608634" lon="12.842203227583761"><ele>340.5</ele><time>2026-04-18T07:37:02.999Z</time></trkpt><trkpt lat="43.45805450137107" lon="12.84194469694331"><ele>340.0</ele><time>2026-04-18T07:37:03.999Z</time></trkpt><trkpt lat="43.45818413363469" lon="12.841689720947848"><ele>342.5</ele><time>2026-04-18T07:37:04.999Z</time></trkpt><trkpt lat="43.458313918820096" lon="12.84143155997593"><ele>345.0</ele><time>2026-04-18T07:37:05.999Z</time></trkpt><trkpt lat="43.45844496950438" lon="12.841169379439254"><ele>347.0</ele><time>2026-04-18T07:37:06.999Z</time></trkpt><trkpt lat="43.45857371170941" lon="12.840911235605724"><ele>349.0</ele><time>2026-04-18T07:37:07.999Z</time></trkpt><trkpt lat="43.458705351636915" lon="12.840643053774151"><ele>348.5</ele><time>2026-04-18T07:37:08.999Z</time></trkpt><trkpt lat="43.45883868838221" lon="12.840375823107939"><ele>348.0</ele><time>2026-04-18T07:37:09.999Z</time></trkpt><trkpt lat="43.45910598974423" lon="12.839850599487239"><ele>348.0</ele><time>2026-04-18T07:37:11.999Z</time></trkpt><trkpt lat="43.45923701973562" lon="12.839586201875177"><ele>348.0</ele><time>2026-04-18T07:37:12.999Z</time></trkpt><trkpt lat="43.45936888554136" lon="12.839321064471648"><ele>348.0</ele><time>2026-04-18T07:37:13.999Z</time></trkpt><trkpt lat="43.459498751175275" lon="12.83905870118505"><ele>348.0</ele><time>2026-04-18T07:37:14.999Z</time></trkpt><trkpt lat="43.45962609740759" lon="12.838805922284937"><ele>348.0</ele><time>2026-04-18T07:37:15.999Z</time></trkpt><trkpt lat="43.459755711741025" lon="12.838547685169937"><ele>348.0</ele><time>2026-04-18T07:37:16.999Z</time></trkpt><trkpt lat="43.459884633044574" lon="12.83829174204861"><ele>348.6666666666667</ele><time>2026-04-18T07:37:17.999Z</time></trkpt><trkpt lat="43.460010378999925" lon="12.838045325601273"><ele>349.33333333333337</ele><time>2026-04-18T07:37:18.999Z</time></trkpt><trkpt lat="43.46013655372691" lon="12.837794331979351"><ele>350.0</ele><time>2026-04-18T07:37:19.999Z</time></trkpt><trkpt lat="43.46025946933925" lon="12.83754787205341"><ele>349.6666666666667</ele><time>2026-04-18T07:37:20.999Z</time></trkpt><trkpt lat="43.46038257188802" lon="12.837302293300418"><ele>349.3333333333333</ele><time>2026-04-18T07:37:21.999Z</time></trkpt><trkpt lat="43.460503074853605" lon="12.837053989361088"><ele>349.0</ele><time>2026-04-18T07:37:22.999Z</time></trkpt><trkpt lat="43.460605725311154" lon="12.836794166624909"><ele>350.3333333333333</ele><time>2026-04-18T07:37:23.999Z</time></trkpt><trkpt lat="43.46066831509737" lon="12.836510104515494"><ele>351.6666666666667</ele><time>2026-04-18T07:37:24.999Z</time></trkpt><trkpt lat="43.460684245522344" lon="12.836205686069247"><ele>353.0</ele><time>2026-04-18T07:37:25.999Z</time></trkpt><trkpt lat="43.46065724476337" lon="12.835895603832514"><ele>355.0</ele><time>2026-04-18T07:37:26.999Z</time></trkpt><trkpt lat="43.46060117312631" lon="12.83559180608885"><ele>357.0</ele><time>2026-04-18T07:37:27.999Z</time></trkpt><trkpt lat="43.460544166896355" lon="12.83528692226451"><ele>357.0</ele><time>2026-04-18T07:37:28.999Z</time></trkpt><trkpt lat="43.46049150389102" lon="12.834977531196238"><ele>357.0</ele><time>2026-04-18T07:37:30Z</time></trkpt><trkpt lat="43.460443517204894" lon="12.834660320784513"><ele>363.5</ele><time>2026-04-18T07:37:31Z</time></trkpt><trkpt lat="43.46039596825453" lon="12.834347189466945"><ele>370.0</ele><time>2026-04-18T07:37:32Z</time></trkpt><trkpt lat="43.460345845226136" lon="12.834022003771398"><ele>370.0</ele><time>2026-04-18T07:37:33Z</time></trkpt><trkpt lat="43.46029688511046" lon="12.833702314550246"><ele>370.0</ele><time>2026-04-18T07:37:34Z</time></trkpt><trkpt lat="43.46024556381167" lon="12.833381004205492"><ele>369.5</ele><time>2026-04-18T07:37:35Z</time></trkpt><trkpt lat="43.46019452860089" lon="12.8330572822658"><ele>369.0</ele><time>2026-04-18T07:37:36Z</time></trkpt><trkpt lat="43.460142272096" lon="12.83273575780745"><ele>369.0</ele><time>2026-04-18T07:37:37Z</time></trkpt><trkpt lat="43.46009037971393" lon="12.8324126180543"><ele>369.0</ele><time>2026-04-18T07:37:38Z</time></trkpt><trkpt lat="43.46003725958318" lon="12.832086095576456"><ele>368.5</ele><time>2026-04-18T07:37:39Z</time></trkpt><trkpt lat="43.45998554349067" lon="12.831761574242025"><ele>368.0</ele><time>2026-04-18T07:37:40Z</time></trkpt><trkpt lat="43.45993961456781" lon="12.831444854061507"><ele>368.0</ele><time>2026-04-18T07:37:41Z</time></trkpt><trkpt lat="43.45990425888048" lon="12.831130403391821"><ele>368.0</ele><time>2026-04-18T07:37:42Z</time></trkpt><trkpt lat="43.459895236360374" lon="12.830803199579922"><ele>366.5</ele><time>2026-04-18T07:37:43Z</time></trkpt><trkpt lat="43.45991833700054" lon="12.830475317037552"><ele>365.0</ele><time>2026-04-18T07:37:44Z</time></trkpt><trkpt lat="43.459985583381915" lon="12.830155823374136"><ele>365.0</ele><time>2026-04-18T07:37:45Z</time></trkpt><trkpt lat="43.46007970603927" lon="12.829845258776047"><ele>365.0</ele><time>2026-04-18T07:37:46Z</time></trkpt><trkpt lat="43.46021275584331" lon="12.829559122658113"><ele>366.5</ele><time>2026-04-18T07:37:47Z</time></trkpt><trkpt lat="43.46037267208147" lon="12.82930671048521"><ele>368.0</ele><time>2026-04-18T07:37:48Z</time></trkpt><trkpt lat="43.46055382621571" lon="12.829078769518679"><ele>368.0</ele><time>2026-04-18T07:37:49Z</time></trkpt><trkpt lat="43.46074883367497" lon="12.828869719516268"><ele>368.0</ele><time>2026-04-18T07:37:50Z</time></trkpt><trkpt lat="43.460949661775125" lon="12.828671810587984"><ele>366.5</ele><time>2026-04-18T07:37:51Z</time></trkpt><trkpt lat="43.46114881082354" lon="12.828467028290273"><ele>365.0</ele><time>2026-04-18T07:37:52Z</time></trkpt><trkpt lat="43.46134609655993" lon="12.828250517274917"><ele>371.5</ele><time>2026-04-18T07:37:53Z</time></trkpt><trkpt lat="43.4615319995284" lon="12.82801748318798"><ele>378.0</ele><time>2026-04-18T07:37:54Z</time></trkpt><trkpt lat="43.46169719324701" lon="12.827750953854881"><ele>374.5</ele><time>2026-04-18T07:37:55Z</time></trkpt><trkpt lat="43.46183470737079" lon="12.827454072560938"><ele>371.0</ele><time>2026-04-18T07:37:56Z</time></trkpt><trkpt lat="43.46196153270193" lon="12.827148586535854"><ele>371.0</ele><time>2026-04-18T07:37:57Z</time></trkpt><trkpt lat="43.462056900003795" lon="12.82682026177277"><ele>371.0</ele><time>2026-04-18T07:37:58Z</time></trkpt><trkpt lat="43.46212503533737" lon="12.826485399307884"><ele>381.5</ele><time>2026-04-18T07:37:59Z</time></trkpt><trkpt lat="43.46216541379267" lon="12.826132074566273"><ele>392.0</ele><time>2026-04-18T07:38:00Z</time></trkpt><trkpt lat="43.46219133723648" lon="12.825783520705576"><ele>392.0</ele><time>2026-04-18T07:38:01Z</time></trkpt><trkpt lat="43.46219692068616" lon="12.825436205208943"><ele>392.0</ele><time>2026-04-18T07:38:02Z</time></trkpt><trkpt lat="43.46217514664211" lon="12.825090555004673"><ele>392.0</ele><time>2026-04-18T07:38:03Z</time></trkpt><trkpt lat="43.46213106137513" lon="12.824749489895389"><ele>392.0</ele><time>2026-04-18T07:38:04Z</time></trkpt><trkpt lat="43.462060280886625" lon="12.824414351858428"><ele>382.5</ele><time>2026-04-18T07:38:05Z</time></trkpt><trkpt lat="43.461982458960726" lon="12.824081138125884"><ele>373.0</ele><time>2026-04-18T07:38:06Z</time></trkpt><trkpt lat="43.46191225149091" lon="12.823740683458928"><ele>375.0</ele><time>2026-04-18T07:38:07Z</time></trkpt><trkpt lat="43.46184484071288" lon="12.823405845034433"><ele>377.0</ele><time>2026-04-18T07:38:08Z</time></trkpt><trkpt lat="43.461773823697065" lon="12.823079622609292"><ele>377.0</ele><time>2026-04-18T07:38:09Z</time></trkpt><trkpt lat="43.46170392120483" lon="12.82276175858183"><ele>377.0</ele><time>2026-04-18T07:38:10Z</time></trkpt><trkpt lat="43.461643084330326" lon="12.82246588546645"><ele>378.6666666666667</ele><time>2026-04-18T07:38:11Z</time></trkpt><trkpt lat="43.46158695874485" lon="12.822185622150304"><ele>380.3333333333333</ele><time>2026-04-18T07:38:12Z</time></trkpt><trkpt lat="43.4615348377845" lon="12.821928728599133"><ele>382.0</ele><time>2026-04-18T07:38:13Z</time></trkpt><trkpt lat="43.46149137260193" lon="12.821716930610446"><ele>382.20000000000005</ele><time>2026-04-18T07:38:14Z</time></trkpt><trkpt lat="43.461457399468344" lon="12.821546927005363"><ele>382.4</ele><time>2026-04-18T07:38:15Z</time></trkpt><trkpt lat="43.46142949427109" lon="12.82140902353411"><ele>382.6</ele><time>2026-04-18T07:38:16Z</time></trkpt><trkpt lat="43.46140410466635" lon="12.821288034498295"><ele>382.79999999999995</ele><time>2026-04-18T07:38:17Z</time></trkpt><trkpt lat="43.461381592080805" lon="12.821182575780341"><ele>383.0</ele><time>2026-04-18T07:38:18Z</time></trkpt><trkpt lat="43.461362326452445" lon="12.82108968705102"><ele>382.4</ele><time>2026-04-18T07:38:19Z</time></trkpt><trkpt lat="43.461339811860334" lon="12.820976880000853"><ele>381.79999999999995</ele><time>2026-04-18T07:38:21Z</time></trkpt><trkpt lat="43.461310140809736" lon="12.820817103641707"><ele>381.2</ele><time>2026-04-18T07:38:23Z</time></trkpt><trkpt lat="43.46129289880276" lon="12.82066832390944"><ele>380.6</ele><time>2026-04-18T07:38:24Z</time></trkpt><trkpt lat="43.46126824075719" lon="12.820511597529206"><ele>380.0</ele><time>2026-04-18T07:38:25Z</time></trkpt><trkpt lat="43.46123657625403" lon="12.820318124099577"><ele>379.5</ele><time>2026-04-18T07:38:26Z</time></trkpt><trkpt lat="43.46120675554323" lon="12.820120798408045"><ele>379.0</ele><time>2026-04-18T07:38:27Z</time></trkpt><trkpt lat="43.46117409898502" lon="12.819917196401757"><ele>378.5</ele><time>2026-04-18T07:38:28Z</time></trkpt><trkpt lat="43.46114081611422" lon="12.819724566977788"><ele>378.0</ele><time>2026-04-18T07:38:29Z</time></trkpt><trkpt lat="43.46111055439149" lon="12.819534382752725"><ele>378.0</ele><time>2026-04-18T07:38:30Z</time></trkpt><trkpt lat="43.46110063781495" lon="12.819362728493088"><ele>378.0</ele><time>2026-04-18T07:38:31Z</time></trkpt><trkpt lat="43.46115250883662" lon="12.819219827861616"><ele>378.0</ele><time>2026-04-18T07:38:32Z</time></trkpt><trkpt lat="43.461244738884176" lon="12.819010444146407"><ele>378.0</ele><time>2026-04-18T07:38:33Z</time></trkpt><trkpt lat="43.46137605162798" lon="12.818845047453443"><ele>379.3333333333333</ele><time>2026-04-18T07:38:34Z</time></trkpt><trkpt lat="43.46150138670101" lon="12.818680158226357"><ele>380.66666666666663</ele><time>2026-04-18T07:38:35Z</time></trkpt><trkpt lat="43.46163941006568" lon="12.818501773640262"><ele>382.0</ele><time>2026-04-18T07:38:35.999Z</time></trkpt><trkpt lat="43.46177400129895" lon="12.818322181818692"><ele>382.0</ele><time>2026-04-18T07:38:36.999Z</time></trkpt><trkpt lat="43.46191468215022" lon="12.81813367398838"><ele>382.0</ele><time>2026-04-18T07:38:37.999Z</time></trkpt><trkpt lat="43.46206700460363" lon="12.81793524138217"><ele>382.0</ele><time>2026-04-18T07:38:38.999Z</time></trkpt><trkpt lat="43.462219898912856" lon="12.817740374530867"><ele>382.66666666666663</ele><time>2026-04-18T07:38:39.999Z</time></trkpt><trkpt lat="43.46236876307359" lon="12.817538290222013"><ele>383.3333333333333</ele><time>2026-04-18T07:38:40.999Z</time></trkpt><trkpt lat="43.46251986536123" lon="12.817328713025509"><ele>384.0</ele><time>2026-04-18T07:38:41.999Z</time></trkpt><trkpt lat="43.462680222941486" lon="12.817114123186885"><ele>384.0</ele><time>2026-04-18T07:38:42.999Z</time></trkpt><trkpt lat="43.462847368852714" lon="12.8168951438927"><ele>384.0</ele><time>2026-04-18T07:38:43.999Z</time></trkpt><trkpt lat="43.463017868077536" lon="12.816673879488834"><ele>384.0</ele><time>2026-04-18T07:38:44.999Z</time></trkpt><trkpt lat="43.46318952166042" lon="12.816452843289907"><ele>384.0</ele><time>2026-04-18T07:38:45.999Z</time></trkpt><trkpt lat="43.46335994416161" lon="12.816235522477267"><ele>384.0</ele><time>2026-04-18T07:38:46.999Z</time></trkpt><trkpt lat="43.46353828413833" lon="12.81600448917256"><ele>384.0</ele><time>2026-04-18T07:38:47.999Z</time></trkpt><trkpt lat="43.46371369082268" lon="12.81577486072376"><ele>385.0</ele><time>2026-04-18T07:38:48.999Z</time></trkpt><trkpt lat="43.463887028423855" lon="12.815554067496707"><ele>386.0</ele><time>2026-04-18T07:38:49.999Z</time></trkpt><trkpt lat="43.46408505909566" lon="12.815347939202704"><ele>386.0</ele><time>2026-04-18T07:38:50.999Z</time></trkpt><trkpt lat="43.46432291210056" lon="12.815237238086315"><ele>386.0</ele><time>2026-04-18T07:38:51.999Z</time></trkpt><trkpt lat="43.4645653498736" lon="12.815104723103659"><ele>387.0</ele><time>2026-04-18T07:38:52.999Z</time></trkpt><trkpt lat="43.46481057721551" lon="12.814999235975913"><ele>388.0</ele><time>2026-04-18T07:38:53.999Z</time></trkpt><trkpt lat="43.46504497402329" lon="12.814881090581045"><ele>388.0</ele><time>2026-04-18T07:38:54.999Z</time></trkpt><trkpt lat="43.46528929574544" lon="12.814784435219352"><ele>388.0</ele><time>2026-04-18T07:38:55.999Z</time></trkpt><trkpt lat="43.46554415746646" lon="12.814797732444553"><ele>389.0</ele><time>2026-04-18T07:38:56.999Z</time></trkpt><trkpt lat="43.465806599843255" lon="12.81485100098369"><ele>390.0</ele><time>2026-04-18T07:38:57.999Z</time></trkpt><trkpt lat="43.46608064057441" lon="12.81491150415445"><ele>392.5</ele><time>2026-04-18T07:38:58.999Z</time></trkpt><trkpt lat="43.46635083123814" lon="12.814968865238933"><ele>395.0</ele><time>2026-04-18T07:38:59.999Z</time></trkpt><trkpt lat="43.4666285063748" lon="12.814971904067269"><ele>395.0</ele><time>2026-04-18T07:39:00.999Z</time></trkpt><trkpt lat="43.466913424668306" lon="12.81492513961136"><ele>395.0</ele><time>2026-04-18T07:39:01.999Z</time></trkpt><trkpt lat="43.46719195514841" lon="12.814871582843468"><ele>396.0</ele><time>2026-04-18T07:39:02.999Z</time></trkpt><trkpt lat="43.46746965769379" lon="12.814808202644999"><ele>397.0</ele><time>2026-04-18T07:39:03.999Z</time></trkpt><trkpt lat="43.46774062227643" lon="12.814737820157205"><ele>399.0</ele><time>2026-04-18T07:39:04.999Z</time></trkpt><trkpt lat="43.46800755842693" lon="12.81466701972048"><ele>401.0</ele><time>2026-04-18T07:39:05.999Z</time></trkpt><trkpt lat="43.46827349363027" lon="12.81460229010142"><ele>401.0</ele><time>2026-04-18T07:39:06.999Z</time></trkpt><trkpt lat="43.46853068418399" lon="12.814542801646574"><ele>401.0</ele><time>2026-04-18T07:39:07.999Z</time></trkpt><trkpt lat="43.4687776811447" lon="12.814481634168196"><ele>401.5</ele><time>2026-04-18T07:39:08.999Z</time></trkpt><trkpt lat="43.46902070074826" lon="12.814391985860508"><ele>402.0</ele><time>2026-04-18T07:39:09.999Z</time></trkpt><trkpt lat="43.469252031755175" lon="12.81425341633778"><ele>403.0</ele><time>2026-04-18T07:39:10.999Z</time></trkpt><trkpt lat="43.46947420299049" lon="12.814073295273047"><ele>404.0</ele><time>2026-04-18T07:39:11.999Z</time></trkpt><trkpt lat="43.46968449605118" lon="12.81386817147928"><ele>404.0</ele><time>2026-04-18T07:39:12.999Z</time></trkpt><trkpt lat="43.46989722024683" lon="12.813663135875528"><ele>404.0</ele><time>2026-04-18T07:39:13.999Z</time></trkpt><trkpt lat="43.47011189296606" lon="12.813485855107977"><ele>406.0</ele><time>2026-04-18T07:39:14.999Z</time></trkpt><trkpt lat="43.47033220106528" lon="12.813335319742231"><ele>408.0</ele><time>2026-04-18T07:39:15.999Z</time></trkpt><trkpt lat="43.47054920344174" lon="12.8132256339757"><ele>408.0</ele><time>2026-04-18T07:39:16.999Z</time></trkpt><trkpt lat="43.47076796362445" lon="12.813168435860344"><ele>408.0</ele><time>2026-04-18T07:39:17.999Z</time></trkpt><trkpt lat="43.47099613658491" lon="12.8131486788357"><ele>408.0</ele><time>2026-04-18T07:39:18.999Z</time></trkpt><trkpt lat="43.471229219935445" lon="12.81313641271346"><ele>408.0</ele><time>2026-04-18T07:39:19.999Z</time></trkpt><trkpt lat="43.471444673934485" lon="12.813120870250074"><ele>408.0</ele><time>2026-04-18T07:39:20.999Z</time></trkpt><trkpt lat="43.471639353046264" lon="12.81310347262555"><ele>409.0</ele><time>2026-04-18T07:39:21.999Z</time></trkpt><trkpt lat="43.471829029609424" lon="12.813084177239052"><ele>410.0</ele><time>2026-04-18T07:39:22.999Z</time></trkpt><trkpt lat="43.472003258187144" lon="12.813065692232398"><ele>411.0</ele><time>2026-04-18T07:39:23.999Z</time></trkpt><trkpt lat="43.472180294660156" lon="12.813040830491493"><ele>411.33333333333337</ele><time>2026-04-18T07:39:24.999Z</time></trkpt><trkpt lat="43.47235612932576" lon="12.813014671792779"><ele>411.6666666666667</ele><time>2026-04-18T07:39:25.999Z</time></trkpt><trkpt lat="43.472525121440206" lon="12.812984425835321"><ele>412.0</ele><time>2026-04-18T07:39:26.999Z</time></trkpt><trkpt lat="43.47269638047744" lon="12.812947871009731"><ele>412.0</ele><time>2026-04-18T07:39:27.999Z</time></trkpt><trkpt lat="43.47286830150524" lon="12.812908215366138"><ele>412.0</ele><time>2026-04-18T07:39:28.999Z</time></trkpt><trkpt lat="43.47304344748821" lon="12.81286625416196"><ele>412.0</ele><time>2026-04-18T07:39:29.999Z</time></trkpt><trkpt lat="43.473218470712695" lon="12.812821337111352"><ele>412.0</ele><time>2026-04-18T07:39:30.999Z</time></trkpt><trkpt lat="43.473388765114684" lon="12.812770352998253"><ele>412.0</ele><time>2026-04-18T07:39:31.999Z</time></trkpt><trkpt lat="43.4735550894216" lon="12.812714433335078"><ele>412.0</ele><time>2026-04-18T07:39:32.999Z</time></trkpt><trkpt lat="43.47371341709609" lon="12.812662289370975"><ele>413.33333333333337</ele><time>2026-04-18T07:39:33.999Z</time></trkpt><trkpt lat="43.47385970854083" lon="12.812600694675522"><ele>414.66666666666663</ele><time>2026-04-18T07:39:34.999Z</time></trkpt><trkpt lat="43.474003193948896" lon="12.81250259096949"><ele>416.0</ele><time>2026-04-18T07:39:36Z</time></trkpt><trkpt lat="43.47414298358294" lon="12.812382121054096"><ele>416.0</ele><time>2026-04-18T07:39:37Z</time></trkpt><trkpt lat="43.47428983779883" lon="12.812267228449585"><ele>416.0</ele><time>2026-04-18T07:39:38Z</time></trkpt><trkpt lat="43.474436580557615" lon="12.812152816871967"><ele>416.0</ele><time>2026-04-18T07:39:39Z</time></trkpt><trkpt lat="43.4745809765254" lon="12.8120373753651"><ele>416.0</ele><time>2026-04-18T07:39:40Z</time></trkpt><trkpt lat="43.47472348217169" lon="12.811921579458474"><ele>416.0</ele><time>2026-04-18T07:39:41Z</time></trkpt><trkpt lat="43.474857959037365" lon="12.811814330318672"><ele>416.0</ele><time>2026-04-18T07:39:42Z</time></trkpt><trkpt lat="43.474976717213664" lon="12.811719135641566"><ele>416.25</ele><time>2026-04-18T07:39:43Z</time></trkpt><trkpt lat="43.47508390366256" lon="12.811638101227969"><ele>416.5</ele><time>2026-04-18T07:39:44Z</time></trkpt><trkpt lat="43.475186570771925" lon="12.811573857873109"><ele>416.75</ele><time>2026-04-18T07:39:45Z</time></trkpt><trkpt lat="43.47529330399337" lon="12.811531525158266"><ele>417.0</ele><time>2026-04-18T07:39:46Z</time></trkpt><trkpt lat="43.4753973665023" lon="12.811522217436291"><ele>417.8</ele><time>2026-04-18T07:39:47Z</time></trkpt><trkpt lat="43.47549762831337" lon="12.811568638791702"><ele>418.6</ele><time>2026-04-18T07:39:48Z</time></trkpt><trkpt lat="43.47557745479676" lon="12.811633036099087"><ele>419.40000000000003</ele><time>2026-04-18T07:39:49Z</time></trkpt><trkpt lat="43.475651800346014" lon="12.811680057446125"><ele>420.20000000000005</ele><time>2026-04-18T07:39:50Z</time></trkpt><trkpt lat="43.475747796189246" lon="12.811652310318422"><ele>421.0</ele><time>2026-04-18T07:39:51Z</time></trkpt><trkpt lat="43.47586355993357" lon="12.811554803501952"><ele>421.0</ele><time>2026-04-18T07:39:52Z</time></trkpt><trkpt lat="43.47601312224321" lon="12.811368679684866"><ele>421.0</ele><time>2026-04-18T07:39:53Z</time></trkpt><trkpt lat="43.476214911533" lon="12.811194045651353"><ele>421.0</ele><time>2026-04-18T07:39:54Z</time></trkpt><trkpt lat="43.47639046929313" lon="12.810994811222477"><ele>422.0</ele><time>2026-04-18T07:39:55Z</time></trkpt><trkpt lat="43.47657005685751" lon="12.810813223641995"><ele>423.0</ele><time>2026-04-18T07:39:56Z</time></trkpt><trkpt lat="43.476772116051464" lon="12.810674308874903"><ele>424.0</ele><time>2026-04-18T07:39:57Z</time></trkpt><trkpt lat="43.476992245774845" lon="12.81055439254409"><ele>428.5</ele><time>2026-04-18T07:39:58Z</time></trkpt><trkpt lat="43.47722887187292" lon="12.81041555465422"><ele>433.0</ele><time>2026-04-18T07:39:59Z</time></trkpt><trkpt lat="43.47746944225338" lon="12.810309116479962"><ele>433.0</ele><time>2026-04-18T07:40:00Z</time></trkpt><trkpt lat="43.47771120261915" lon="12.810189888842746"><ele>433.0</ele><time>2026-04-18T07:40:01Z</time></trkpt><trkpt lat="43.477951230464775" lon="12.810071181736209"><ele>435.0</ele><time>2026-04-18T07:40:02Z</time></trkpt><trkpt lat="43.47818002003959" lon="12.809956536679978"><ele>437.0</ele><time>2026-04-18T07:40:03Z</time></trkpt><trkpt lat="43.478410079525396" lon="12.809845980746836"><ele>437.0</ele><time>2026-04-18T07:40:04Z</time></trkpt><trkpt lat="43.47862907275537" lon="12.80972802187926"><ele>437.0</ele><time>2026-04-18T07:40:05Z</time></trkpt><trkpt lat="43.47882954311276" lon="12.809556796814372"><ele>436.0</ele><time>2026-04-18T07:40:06Z</time></trkpt><trkpt lat="43.479021128624666" lon="12.809356604863208"><ele>435.0</ele><time>2026-04-18T07:40:07Z</time></trkpt><trkpt lat="43.47924328180128" lon="12.809226294507154"><ele>435.0</ele><time>2026-04-18T07:40:08Z</time></trkpt><trkpt lat="43.47944734703623" lon="12.80908797099993"><ele>435.0</ele><time>2026-04-18T07:40:09Z</time></trkpt><trkpt lat="43.47963807942436" lon="12.808982980301458"><ele>435.0</ele><time>2026-04-18T07:40:10Z</time></trkpt><trkpt lat="43.479804233184616" lon="12.808863728935615"><ele>437.33333333333337</ele><time>2026-04-18T07:40:11Z</time></trkpt><trkpt lat="43.47995360446532" lon="12.80874483937317"><ele>439.6666666666667</ele><time>2026-04-18T07:40:12Z</time></trkpt><trkpt lat="43.480108971090694" lon="12.808675382679015"><ele>442.0</ele><time>2026-04-18T07:40:13Z</time></trkpt><trkpt lat="43.48026309394389" lon="12.808666463655321"><ele>442.0</ele><time>2026-04-18T07:40:14Z</time></trkpt><trkpt lat="43.48043262662832" lon="12.80871161183606"><ele>442.0</ele><time>2026-04-18T07:40:15Z</time></trkpt><trkpt lat="43.480619026812825" lon="12.808803543992997"><ele>442.0</ele><time>2026-04-18T07:40:16Z</time></trkpt><trkpt lat="43.48079857723457" lon="12.808947610162253"><ele>442.6666666666667</ele><time>2026-04-18T07:40:17Z</time></trkpt><trkpt lat="43.48098505927223" lon="12.80909919354976"><ele>443.33333333333337</ele><time>2026-04-18T07:40:18Z</time></trkpt><trkpt lat="43.48117916169915" lon="12.809249809986191"><ele>444.0</ele><time>2026-04-18T07:40:19Z</time></trkpt><trkpt lat="43.48140524017993" lon="12.809318680250074"><ele>446.5</ele><time>2026-04-18T07:40:20Z</time></trkpt><trkpt lat="43.48165749358281" lon="12.809319280614282"><ele>449.0</ele><time>2026-04-18T07:40:21Z</time></trkpt><trkpt lat="43.481925407456814" lon="12.809315933967401"><ele>454.0</ele><time>2026-04-18T07:40:22Z</time></trkpt><trkpt lat="43.48220472531805" lon="12.809335808510443"><ele>459.0</ele><time>2026-04-18T07:40:23Z</time></trkpt><trkpt lat="43.48248882268091" lon="12.809360184704591"><ele>459.0</ele><time>2026-04-18T07:40:24Z</time></trkpt><trkpt lat="43.48277855881923" lon="12.80937949533142"><ele>459.0</ele><time>2026-04-18T07:40:25Z</time></trkpt><trkpt lat="43.4830674048576" lon="12.809393864841901"><ele>459.0</ele><time>2026-04-18T07:40:26Z</time></trkpt><trkpt lat="43.48335522375648" lon="12.809404187675213"><ele>459.0</ele><time>2026-04-18T07:40:27Z</time></trkpt><trkpt lat="43.48364635914646" lon="12.8094270702876"><ele>460.0</ele><time>2026-04-18T07:40:28Z</time></trkpt><trkpt lat="43.48392949655009" lon="12.80944746538315"><ele>461.0</ele><time>2026-04-18T07:40:29Z</time></trkpt><trkpt lat="43.48420527482889" lon="12.809462964318238"><ele>461.0</ele><time>2026-04-18T07:40:30Z</time></trkpt><trkpt lat="43.48448152709595" lon="12.809499703350353"><ele>461.0</ele><time>2026-04-18T07:40:31Z</time></trkpt><trkpt lat="43.48476218042672" lon="12.809496152894395"><ele>464.5</ele><time>2026-04-18T07:40:32Z</time></trkpt><trkpt lat="43.485030543758974" lon="12.809519896552025"><ele>468.0</ele><time>2026-04-18T07:40:33Z</time></trkpt><trkpt lat="43.48529928141179" lon="12.809535834466201"><ele>468.5</ele><time>2026-04-18T07:40:34Z</time></trkpt><trkpt lat="43.48556086206865" lon="12.809551636291143"><ele>469.0</ele><time>2026-04-18T07:40:35Z</time></trkpt><trkpt lat="43.485820329437466" lon="12.809567316448481"><ele>469.0</ele><time>2026-04-18T07:40:35.999Z</time></trkpt><trkpt lat="43.48607324460126" lon="12.809585338485146"><ele>469.0</ele><time>2026-04-18T07:40:36.999Z</time></trkpt><trkpt lat="43.48631625222556" lon="12.809602597655433"><ele>469.0</ele><time>2026-04-18T07:40:37.999Z</time></trkpt><trkpt lat="43.486542371057546" lon="12.809631959974304"><ele>469.0</ele><time>2026-04-18T07:40:38.999Z</time></trkpt><trkpt lat="43.48676040278057" lon="12.809686274706225"><ele>469.0</ele><time>2026-04-18T07:40:39.999Z</time></trkpt><trkpt lat="43.48698511415497" lon="12.809755017435103"><ele>466.6666666666667</ele><time>2026-04-18T07:40:40.999Z</time></trkpt><trkpt lat="43.4872058836001" lon="12.809829781712995"><ele>464.33333333333337</ele><time>2026-04-18T07:40:41.999Z</time></trkpt><trkpt lat="43.48740776006076" lon="12.809911612884177"><ele>462.0</ele><time>2026-04-18T07:40:42.999Z</time></trkpt><trkpt lat="43.487593979923254" lon="12.809994087327595"><ele>462.0</ele><time>2026-04-18T07:40:43.999Z</time></trkpt><trkpt lat="43.48776160379589" lon="12.81005442480851"><ele>462.0</ele><time>2026-04-18T07:40:44.999Z</time></trkpt><trkpt lat="43.4879274364964" lon="12.810055951021168"><ele>462.0</ele><time>2026-04-18T07:40:45.999Z</time></trkpt><trkpt lat="43.48809900546519" lon="12.809968822647548"><ele>458.66666666666663</ele><time>2026-04-18T07:40:46.999Z</time></trkpt><trkpt lat="43.488265084769665" lon="12.809808521968884"><ele>455.3333333333333</ele><time>2026-04-18T07:40:47.999Z</time></trkpt><trkpt lat="43.48843835692077" lon="12.809606838411257"><ele>452.0</ele><time>2026-04-18T07:40:48.999Z</time></trkpt><trkpt lat="43.48862291907448" lon="12.809442590627418"><ele>452.0</ele><time>2026-04-18T07:40:49.999Z</time></trkpt><trkpt lat="43.48880090522256" lon="12.809266416227377"><ele>452.0</ele><time>2026-04-18T07:40:50.999Z</time></trkpt><trkpt lat="43.48897414500464" lon="12.809070689659363"><ele>452.0</ele><time>2026-04-18T07:40:51.999Z</time></trkpt><trkpt lat="43.48916567644322" lon="12.808896932063318"><ele>452.0</ele><time>2026-04-18T07:40:52.999Z</time></trkpt><trkpt lat="43.4893555120795" lon="12.808725814151074"><ele>452.0</ele><time>2026-04-18T07:40:53.999Z</time></trkpt><trkpt lat="43.48954097881382" lon="12.80856187850343"><ele>452.0</ele><time>2026-04-18T07:40:54.999Z</time></trkpt><trkpt lat="43.48972354343738" lon="12.80840549116688"><ele>450.66666666666663</ele><time>2026-04-18T07:40:55.999Z</time></trkpt><trkpt lat="43.48990066763103" lon="12.808256874774656"><ele>449.33333333333337</ele><time>2026-04-18T07:40:56.999Z</time></trkpt><trkpt lat="43.490075378386734" lon="12.808110523813923"><ele>448.0</ele><time>2026-04-18T07:40:57.999Z</time></trkpt><trkpt lat="43.490250485566" lon="12.807965089845363"><ele>443.33333333333337</ele><time>2026-04-18T07:40:58.999Z</time></trkpt><trkpt lat="43.490440112689214" lon="12.80785154219406"><ele>438.66666666666663</ele><time>2026-04-18T07:40:59.999Z</time></trkpt><trkpt lat="43.49064231318223" lon="12.807782940825222"><ele>434.0</ele><time>2026-04-18T07:41:00.999Z</time></trkpt><trkpt lat="43.490852810931756" lon="12.807746071154392"><ele>434.0</ele><time>2026-04-18T07:41:01.999Z</time></trkpt><trkpt lat="43.49106366392341" lon="12.807725556234734"><ele>434.0</ele><time>2026-04-18T07:41:02.999Z</time></trkpt><trkpt lat="43.4912748180728" lon="12.807757357904341"><ele>434.0</ele><time>2026-04-18T07:41:03.999Z</time></trkpt><trkpt lat="43.491493186390144" lon="12.807781844712597"><ele>433.0</ele><time>2026-04-18T07:41:04.999Z</time></trkpt><trkpt lat="43.49170491113404" lon="12.80785995496042"><ele>432.0</ele><time>2026-04-18T07:41:05.999Z</time></trkpt><trkpt lat="43.4919201098765" lon="12.807946441697489"><ele>431.0</ele><time>2026-04-18T07:41:06.999Z</time></trkpt><trkpt lat="43.49213557363956" lon="12.808037332504023"><ele>435.66666666666663</ele><time>2026-04-18T07:41:07.999Z</time></trkpt><trkpt lat="43.49234581418944" lon="12.808140602750951"><ele>440.33333333333337</ele><time>2026-04-18T07:41:08.999Z</time></trkpt><trkpt lat="43.49255096221877" lon="12.808269737792756"><ele>445.0</ele><time>2026-04-18T07:41:09.999Z</time></trkpt><trkpt lat="43.49274320936905" lon="12.808414462553314"><ele>438.6666666666667</ele><time>2026-04-18T07:41:10.999Z</time></trkpt><trkpt lat="43.49292728238007" lon="12.808568357531186"><ele>432.33333333333337</ele><time>2026-04-18T07:41:11.999Z</time></trkpt><trkpt lat="43.49311242032319" lon="12.808734817550375"><ele>426.0</ele><time>2026-04-18T07:41:12.999Z</time></trkpt><trkpt lat="43.49331073984836" lon="12.808908673021826"><ele>426.0</ele><time>2026-04-18T07:41:13.999Z</time></trkpt><trkpt lat="43.493511924414435" lon="12.809084058146789"><ele>426.0</ele><time>2026-04-18T07:41:14.999Z</time></trkpt><trkpt lat="43.49370826952498" lon="12.80926758866831"><ele>421.5</ele><time>2026-04-18T07:41:15.999Z</time></trkpt><trkpt lat="43.493905768645185" lon="12.809459237246731"><ele>417.0</ele><time>2026-04-18T07:41:16.999Z</time></trkpt><trkpt lat="43.494106752499114" lon="12.809645025489171"><ele>417.0</ele><time>2026-04-18T07:41:17.999Z</time></trkpt><trkpt lat="43.494316532375265" lon="12.809815235631959"><ele>417.0</ele><time>2026-04-18T07:41:18.999Z</time></trkpt><trkpt lat="43.49453099590356" lon="12.809952924273002"><ele>423.5</ele><time>2026-04-18T07:41:19.999Z</time></trkpt><trkpt lat="43.494758952452756" lon="12.810069737314425"><ele>430.0</ele><time>2026-04-18T07:41:20.999Z</time></trkpt><trkpt lat="43.49499173605715" lon="12.81014449701406"><ele>432.5</ele><time>2026-04-18T07:41:21.999Z</time></trkpt><trkpt lat="43.495240677057126" lon="12.810167002868743"><ele>435.0</ele><time>2026-04-18T07:41:22.999Z</time></trkpt><trkpt lat="43.49549964237075" lon="12.81014784913544"><ele>435.0</ele><time>2026-04-18T07:41:23.999Z</time></trkpt><trkpt lat="43.49576767287536" lon="12.810152176626891"><ele>435.0</ele><time>2026-04-18T07:41:24.999Z</time></trkpt><trkpt lat="43.496031337870484" lon="12.810229277194779"><ele>419.5</ele><time>2026-04-18T07:41:25.999Z</time></trkpt><trkpt lat="43.49629813604327" lon="12.810290663966075"><ele>404.0</ele><time>2026-04-18T07:41:26.999Z</time></trkpt><trkpt lat="43.49656043158917" lon="12.810385407644867"><ele>404.0</ele><time>2026-04-18T07:41:27.999Z</time></trkpt><trkpt lat="43.49682215799972" lon="12.810488328405725"><ele>404.0</ele><time>2026-04-18T07:41:28.999Z</time></trkpt><trkpt lat="43.49708443322209" lon="12.810596290305831"><ele>409.0</ele><time>2026-04-18T07:41:29.999Z</time></trkpt><trkpt lat="43.4973492875117" lon="12.81070994450493"><ele>414.0</ele><time>2026-04-18T07:41:30.999Z</time></trkpt><trkpt lat="43.49761199434469" lon="12.810825986026405"><ele>414.0</ele><time>2026-04-18T07:41:31.999Z</time></trkpt><trkpt lat="43.49787195286072" lon="12.810951045288078"><ele>414.0</ele><time>2026-04-18T07:41:32.999Z</time></trkpt><trkpt lat="43.49812524051616" lon="12.811083116507634"><ele>403.0</ele><time>2026-04-18T07:41:33.999Z</time></trkpt><trkpt lat="43.49838095119184" lon="12.81122315664185"><ele>392.0</ele><time>2026-04-18T07:41:34.999Z</time></trkpt><trkpt lat="43.49863532645893" lon="12.81136511896798"><ele>398.0</ele><time>2026-04-18T07:41:35.999Z</time></trkpt><trkpt lat="43.49889220698551" lon="12.811509799642833"><ele>404.0</ele><time>2026-04-18T07:41:36.999Z</time></trkpt><trkpt lat="43.499143814315474" lon="12.811649684817462"><ele>404.0</ele><time>2026-04-18T07:41:37.999Z</time></trkpt><trkpt lat="43.499396620346864" lon="12.811782471461038"><ele>404.0</ele><time>2026-04-18T07:41:38.999Z</time></trkpt><trkpt lat="43.4996652151804" lon="12.8118966638489"><ele>395.0</ele><time>2026-04-18T07:41:39.999Z</time></trkpt><trkpt lat="43.49995427334462" lon="12.811973896972894"><ele>386.0</ele><time>2026-04-18T07:41:40.999Z</time></trkpt><trkpt lat="43.50024804244556" lon="12.812034941752646"><ele>386.0</ele><time>2026-04-18T07:41:42Z</time></trkpt><trkpt lat="43.50055286263868" lon="12.812101342282393"><ele>386.0</ele><time>2026-04-18T07:41:43Z</time></trkpt><trkpt lat="43.500854949194874" lon="12.812174335748498"><ele>386.0</ele><time>2026-04-18T07:41:44Z</time></trkpt><trkpt lat="43.50115898304846" lon="12.812250341629538"><ele>386.0</ele><time>2026-04-18T07:41:45Z</time></trkpt><trkpt lat="43.50144926980028" lon="12.812326282365298"><ele>388.0</ele><time>2026-04-18T07:41:46Z</time></trkpt><trkpt lat="43.50173738040741" lon="12.812406152842026"><ele>390.0</ele><time>2026-04-18T07:41:47Z</time></trkpt><trkpt lat="43.50201299601457" lon="12.812482699575058"><ele>390.0</ele><time>2026-04-18T07:41:48Z</time></trkpt><trkpt lat="43.502279566249" lon="12.812560051327209"><ele>390.0</ele><time>2026-04-18T07:41:49Z</time></trkpt><trkpt lat="43.50254659511145" lon="12.812633548464621"><ele>380.5</ele><time>2026-04-18T07:41:50Z</time></trkpt><trkpt lat="43.502809306587416" lon="12.812686623062055"><ele>371.0</ele><time>2026-04-18T07:41:51Z</time></trkpt><trkpt lat="43.50307179716678" lon="12.812691306202357"><ele>376.0</ele><time>2026-04-18T07:41:52Z</time></trkpt><trkpt lat="43.503327224472336" lon="12.812627043267454"><ele>381.0</ele><time>2026-04-18T07:41:53Z</time></trkpt><trkpt lat="43.50357956103344" lon="12.812548325884272"><ele>375.0</ele><time>2026-04-18T07:41:54Z</time></trkpt><trkpt lat="43.50383418872089" lon="12.812549144275915"><ele>369.0</ele><time>2026-04-18T07:41:55Z</time></trkpt><trkpt lat="43.50408365100214" lon="12.812623712399851"><ele>368.0</ele><time>2026-04-18T07:41:56Z</time></trkpt><trkpt lat="43.504306128388556" lon="12.8128000650891"><ele>367.0</ele><time>2026-04-18T07:41:57Z</time></trkpt><trkpt lat="43.504542652915376" lon="12.812958840069918"><ele>365.0</ele><time>2026-04-18T07:41:58Z</time></trkpt><trkpt lat="43.504764321045265" lon="12.813159342839894"><ele>363.0</ele><time>2026-04-18T07:41:59Z</time></trkpt><trkpt lat="43.50498687935624" lon="12.813348336301878"><ele>365.0</ele><time>2026-04-18T07:42:00Z</time></trkpt><trkpt lat="43.50521197150399" lon="12.813524427681024"><ele>367.0</ele><time>2026-04-18T07:42:01Z</time></trkpt><trkpt lat="43.50543542800522" lon="12.8136999004964"><ele>367.0</ele><time>2026-04-18T07:42:02Z</time></trkpt><trkpt lat="43.50566226724433" lon="12.81388804180812"><ele>367.0</ele><time>2026-04-18T07:42:03Z</time></trkpt><trkpt lat="43.5058827382932" lon="12.814088071474044"><ele>367.0</ele><time>2026-04-18T07:42:04Z</time></trkpt><trkpt lat="43.50609559793762" lon="12.814296708186166"><ele>367.0</ele><time>2026-04-18T07:42:05Z</time></trkpt><trkpt lat="43.50631085827872" lon="12.814499658496185"><ele>368.5</ele><time>2026-04-18T07:42:06Z</time></trkpt><trkpt lat="43.506545461941876" lon="12.814687649812383"><ele>370.0</ele><time>2026-04-18T07:42:07Z</time></trkpt><trkpt lat="43.506794757353894" lon="12.814837514159201"><ele>370.0</ele><time>2026-04-18T07:42:08Z</time></trkpt><trkpt lat="43.507053484141885" lon="12.814964048068159"><ele>370.0</ele><time>2026-04-18T07:42:09Z</time></trkpt><trkpt lat="43.5073140112721" lon="12.815075049163699"><ele>375.0</ele><time>2026-04-18T07:42:10Z</time></trkpt><trkpt lat="43.50756856412426" lon="12.815184361953687"><ele>380.0</ele><time>2026-04-18T07:42:11Z</time></trkpt><trkpt lat="43.50781477868082" lon="12.815288458724117"><ele>372.0</ele><time>2026-04-18T07:42:12Z</time></trkpt><trkpt lat="43.50805125837043" lon="12.815381877553378"><ele>364.0</ele><time>2026-04-18T07:42:13Z</time></trkpt><trkpt lat="43.508273914630415" lon="12.815478599623928"><ele>364.0</ele><time>2026-04-18T07:42:14Z</time></trkpt><trkpt lat="43.508481386916685" lon="12.815607735575115"><ele>364.0</ele><time>2026-04-18T07:42:15Z</time></trkpt><trkpt lat="43.50866845865338" lon="12.815761879538451"><ele>364.0</ele><time>2026-04-18T07:42:16Z</time></trkpt><trkpt lat="43.508852106123314" lon="12.815908526963781"><ele>372.0</ele><time>2026-04-18T07:42:17Z</time></trkpt><trkpt lat="43.50906715110946" lon="12.81599057647138"><ele>380.0</ele><time>2026-04-18T07:42:18Z</time></trkpt><trkpt lat="43.5092901762099" lon="12.81602033915039"><ele>388.0</ele><time>2026-04-18T07:42:19Z</time></trkpt><trkpt lat="43.50950019538769" lon="12.816037886047505"><ele>379.0</ele><time>2026-04-18T07:42:20Z</time></trkpt><trkpt lat="43.50968823466921" lon="12.816063138231936"><ele>370.0</ele><time>2026-04-18T07:42:21Z</time></trkpt><trkpt lat="43.509849642414736" lon="12.816118295544092"><ele>361.0</ele><time>2026-04-18T07:42:22Z</time></trkpt><trkpt lat="43.5099873741191" lon="12.816176212812866"><ele>361.0</ele><time>2026-04-18T07:42:23Z</time></trkpt><trkpt lat="43.510094263584215" lon="12.816294710737893"><ele>361.0</ele><time>2026-04-18T07:42:24Z</time></trkpt><trkpt lat="43.51016622880047" lon="12.81645607420306"><ele>361.0</ele><time>2026-04-18T07:42:25Z</time></trkpt><trkpt lat="43.51024912815345" lon="12.81660686454954"><ele>361.0</ele><time>2026-04-18T07:42:26Z</time></trkpt><trkpt lat="43.51030301831948" lon="12.81676954902982"><ele>358.25</ele><time>2026-04-18T07:42:27Z</time></trkpt><trkpt lat="43.51037711590062" lon="12.816906597379603"><ele>355.5</ele><time>2026-04-18T07:42:28Z</time></trkpt><trkpt lat="43.510502398479034" lon="12.817005814155058"><ele>352.75</ele><time>2026-04-18T07:42:29Z</time></trkpt><trkpt lat="43.51067333670915" lon="12.817077871300746"><ele>350.0</ele><time>2026-04-18T07:42:30Z</time></trkpt><trkpt lat="43.5108312341028" lon="12.81718628994424"><ele>350.0</ele><time>2026-04-18T07:42:30.999Z</time></trkpt><trkpt lat="43.51098605127376" lon="12.81727313298422"><ele>350.0</ele><time>2026-04-18T07:42:31.999Z</time></trkpt><trkpt lat="43.51108695573219" lon="12.817462670633851"><ele>350.0</ele><time>2026-04-18T07:42:32.999Z</time></trkpt><trkpt lat="43.51120364970314" lon="12.81765628550121"><ele>350.6666666666667</ele><time>2026-04-18T07:42:33.999Z</time></trkpt><trkpt lat="43.51130609773308" lon="12.817890484239614"><ele>351.3333333333333</ele><time>2026-04-18T07:42:34.999Z</time></trkpt><trkpt lat="43.5114135531358" lon="12.8181177815356"><ele>352.0</ele><time>2026-04-18T07:42:35.999Z</time></trkpt><trkpt lat="43.51152534506667" lon="12.8183436119025"><ele>352.0</ele><time>2026-04-18T07:42:36.999Z</time></trkpt><trkpt lat="43.51164686583855" lon="12.818579417718722"><ele>352.0</ele><time>2026-04-18T07:42:37.999Z</time></trkpt><trkpt lat="43.5117658968628" lon="12.818718496446404"><ele>352.0</ele><time>2026-04-18T07:42:38.999Z</time></trkpt><trkpt lat="43.51188265802679" lon="12.818829831876624"><ele>352.0</ele><time>2026-04-18T07:42:39.999Z</time></trkpt><trkpt lat="43.51201594861519" lon="12.818865411830146"><ele>352.0</ele><time>2026-04-18T07:42:40.999Z</time></trkpt><trkpt lat="43.512161716907585" lon="12.818780563876793"><ele>352.0</ele><time>2026-04-18T07:42:41.999Z</time></trkpt><trkpt lat="43.51233340340567" lon="12.818685873280865"><ele>350.0</ele><time>2026-04-18T07:42:42.999Z</time></trkpt><trkpt lat="43.51250799794444" lon="12.818561714729032"><ele>348.0</ele><time>2026-04-18T07:42:43.999Z</time></trkpt><trkpt lat="43.51268593021504" lon="12.818486345954023"><ele>346.0</ele><time>2026-04-18T07:42:44.999Z</time></trkpt><trkpt lat="43.51288198673801" lon="12.818467121049554"><ele>346.3333333333333</ele><time>2026-04-18T07:42:45.999Z</time></trkpt><trkpt lat="43.51307646046559" lon="12.818530425084212"><ele>346.6666666666667</ele><time>2026-04-18T07:42:46.999Z</time></trkpt><trkpt lat="43.51325580200723" lon="12.818648765048085"><ele>347.0</ele><time>2026-04-18T07:42:47.999Z</time></trkpt><trkpt lat="43.513438572723366" lon="12.818792099919323"><ele>347.0</ele><time>2026-04-18T07:42:48.999Z</time></trkpt><trkpt lat="43.51362326388067" lon="12.818954532351068"><ele>347.0</ele><time>2026-04-18T07:42:49.999Z</time></trkpt><trkpt lat="43.513808045285195" lon="12.819120992790088"><ele>347.0</ele><time>2026-04-18T07:42:50.999Z</time></trkpt><trkpt lat="43.51399512994398" lon="12.819260911590701"><ele>346.6666666666667</ele><time>2026-04-18T07:42:51.999Z</time></trkpt><trkpt lat="43.51417162961314" lon="12.819405687432306"><ele>346.3333333333333</ele><time>2026-04-18T07:42:52.999Z</time></trkpt><trkpt lat="43.514353014397294" lon="12.819517898365664"><ele>346.0</ele><time>2026-04-18T07:42:53.999Z</time></trkpt><trkpt lat="43.5145535121006" lon="12.819597170315657"><ele>345.66666666666663</ele><time>2026-04-18T07:42:54.999Z</time></trkpt><trkpt lat="43.51476334999951" lon="12.819664828349724"><ele>345.3333333333333</ele><time>2026-04-18T07:42:55.999Z</time></trkpt><trkpt lat="43.51497401195907" lon="12.819738160855152"><ele>345.0</ele><time>2026-04-18T07:42:56.999Z</time></trkpt><trkpt lat="43.51518418534536" lon="12.81981483065014"><ele>345.0</ele><time>2026-04-18T07:42:57.999Z</time></trkpt><trkpt lat="43.51538953786057" lon="12.819891631511332"><ele>345.0</ele><time>2026-04-18T07:42:58.999Z</time></trkpt><trkpt lat="43.51558692361163" lon="12.820027390669308"><ele>345.0</ele><time>2026-04-18T07:42:59.999Z</time></trkpt><trkpt lat="43.51576801907874" lon="12.820175597445395"><ele>342.3333333333333</ele><time>2026-04-18T07:43:00.999Z</time></trkpt><trkpt lat="43.515931908359406" lon="12.820308474597303"><ele>339.66666666666663</ele><time>2026-04-18T07:43:01.999Z</time></trkpt><trkpt lat="43.516092894534786" lon="12.820402280739184"><ele>337.0</ele><time>2026-04-18T07:43:02.999Z</time></trkpt><trkpt lat="43.51622761485921" lon="12.820509331505264"><ele>337.25</ele><time>2026-04-18T07:43:03.999Z</time></trkpt><trkpt lat="43.51635241243857" lon="12.820633891997039"><ele>337.5</ele><time>2026-04-18T07:43:04.999Z</time></trkpt><trkpt lat="43.51646163964702" lon="12.820756312753677"><ele>337.75</ele><time>2026-04-18T07:43:05.999Z</time></trkpt><trkpt lat="43.516556252691736" lon="12.820896891548133"><ele>338.0</ele><time>2026-04-18T07:43:06.999Z</time></trkpt><trkpt lat="43.51663655857485" lon="12.821049538953464"><ele>338.0</ele><time>2026-04-18T07:43:07.999Z</time></trkpt><trkpt lat="43.51671872507051" lon="12.821182477631885"><ele>338.0</ele><time>2026-04-18T07:43:08.999Z</time></trkpt><trkpt lat="43.51679305886616" lon="12.821301317439804"><ele>338.0</ele><time>2026-04-18T07:43:09.999Z</time></trkpt><trkpt lat="43.51686109537649" lon="12.821406472696099"><ele>338.0</ele><time>2026-04-18T07:43:10.999Z</time></trkpt><trkpt lat="43.51693311764851" lon="12.821511598454522"><ele>338.0</ele><time>2026-04-18T07:43:11.999Z</time></trkpt><trkpt lat="43.51702553357427" lon="12.821608816776846"><ele>337.5</ele><time>2026-04-18T07:43:12.999Z</time></trkpt><trkpt lat="43.51710766091141" lon="12.821729402041687"><ele>337.0</ele><time>2026-04-18T07:43:13.999Z</time></trkpt><trkpt lat="43.51719615454705" lon="12.821834862757758"><ele>336.5</ele><time>2026-04-18T07:43:14.999Z</time></trkpt><trkpt lat="43.517300010227736" lon="12.821922275120198"><ele>336.0</ele><time>2026-04-18T07:43:15.999Z</time></trkpt><trkpt lat="43.51740869002216" lon="12.821996600063356"><ele>336.0</ele><time>2026-04-18T07:43:16.999Z</time></trkpt><trkpt lat="43.51752822532821" lon="12.822059423260502"><ele>336.0</ele><time>2026-04-18T07:43:17.999Z</time></trkpt><trkpt lat="43.51763951084882" lon="12.82212910865331"><ele>336.0</ele><time>2026-04-18T07:43:18.999Z</time></trkpt><trkpt lat="43.517751632968675" lon="12.822201234043867"><ele>336.0</ele><time>2026-04-18T07:43:19.999Z</time></trkpt><trkpt lat="43.51787320867837" lon="12.822271906878862"><ele>338.25</ele><time>2026-04-18T07:43:20.999Z</time></trkpt><trkpt lat="43.51799621050522" lon="12.822349235534672"><ele>340.5</ele><time>2026-04-18T07:43:21.999Z</time></trkpt><trkpt lat="43.51811909699178" lon="12.822414392058223"><ele>342.75</ele><time>2026-04-18T07:43:22.999Z</time></trkpt><trkpt lat="43.518246020064936" lon="12.822486105493182"><ele>345.0</ele><time>2026-04-18T07:43:23.999Z</time></trkpt><trkpt lat="43.51837196036115" lon="12.82256467662229"><ele>343.3333333333333</ele><time>2026-04-18T07:43:24.999Z</time></trkpt><trkpt lat="43.51850076308554" lon="12.82266208940569"><ele>341.66666666666663</ele><time>2026-04-18T07:43:25.999Z</time></trkpt><trkpt lat="43.51863590091271" lon="12.822777180173565"><ele>340.0</ele><time>2026-04-18T07:43:26.999Z</time></trkpt><trkpt lat="43.51877151571208" lon="12.822901468573221"><ele>340.0</ele><time>2026-04-18T07:43:27.999Z</time></trkpt><trkpt lat="43.51890810002677" lon="12.823034632663749"><ele>340.0</ele><time>2026-04-18T07:43:28.999Z</time></trkpt><trkpt lat="43.519035904299606" lon="12.823174406701854"><ele>340.0</ele><time>2026-04-18T07:43:29.999Z</time></trkpt><trkpt lat="43.519144411257194" lon="12.823337514893835"><ele>340.0</ele><time>2026-04-18T07:43:30.999Z</time></trkpt><trkpt lat="43.519268234453385" lon="12.823462466494526"><ele>340.0</ele><time>2026-04-18T07:43:31.999Z</time></trkpt><trkpt lat="43.51936422353621" lon="12.823617438985426"><ele>340.0</ele><time>2026-04-18T07:43:32.999Z</time></trkpt><trkpt lat="43.51947573724815" lon="12.823756817246318"><ele>341.0</ele><time>2026-04-18T07:43:33.999Z</time></trkpt><trkpt lat="43.51958927470032" lon="12.823895726668457"><ele>342.0</ele><time>2026-04-18T07:43:34.999Z</time></trkpt><trkpt lat="43.51970249123357" lon="12.82403408337814"><ele>343.0</ele><time>2026-04-18T07:43:35.999Z</time></trkpt><trkpt lat="43.51983410854259" lon="12.824164919768826"><ele>341.66666666666663</ele><time>2026-04-18T07:43:36.999Z</time></trkpt><trkpt lat="43.5199574169844" lon="12.824317209343777"><ele>340.3333333333333</ele><time>2026-04-18T07:43:37.999Z</time></trkpt><trkpt lat="43.52007335135087" lon="12.824464796927368"><ele>339.0</ele><time>2026-04-18T07:43:38.999Z</time></trkpt><trkpt lat="43.5201827656418" lon="12.824612276176024"><ele>339.0</ele><time>2026-04-18T07:43:39.999Z</time></trkpt><trkpt lat="43.52027752191116" lon="12.824781501161404"><ele>339.0</ele><time>2026-04-18T07:43:40.999Z</time></trkpt><trkpt lat="43.520393130699446" lon="12.82492235554439"><ele>339.0</ele><time>2026-04-18T07:43:41.999Z</time></trkpt><trkpt lat="43.52050661623841" lon="12.825083250163836"><ele>338.3333333333333</ele><time>2026-04-18T07:43:42.999Z</time></trkpt><trkpt lat="43.5206320227035" lon="12.825222915856084"><ele>337.66666666666663</ele><time>2026-04-18T07:43:43.999Z</time></trkpt><trkpt lat="43.520790276436564" lon="12.825334809254901"><ele>337.0</ele><time>2026-04-18T07:43:44.999Z</time></trkpt><trkpt lat="43.5209453436769" lon="12.825432924071515"><ele>337.0</ele><time>2026-04-18T07:43:45.999Z</time></trkpt><trkpt lat="43.52109206653276" lon="12.825522736097888"><ele>337.0</ele><time>2026-04-18T07:43:46.999Z</time></trkpt><trkpt lat="43.5212348890856" lon="12.825609360857248"><ele>337.0</ele><time>2026-04-18T07:43:48Z</time></trkpt><trkpt lat="43.52137930536964" lon="12.825691858325635"><ele>336.3333333333333</ele><time>2026-04-18T07:43:49Z</time></trkpt><trkpt lat="43.52152523869658" lon="12.825776938996068"><ele>335.6666666666667</ele><time>2026-04-18T07:43:50Z</time></trkpt><trkpt lat="43.52167692074669" lon="12.825863460630416"><ele>335.0</ele><time>2026-04-18T07:43:51Z</time></trkpt><trkpt lat="43.52183219214219" lon="12.825951311224765"><ele>334.33333333333337</ele><time>2026-04-18T07:43:52Z</time></trkpt><trkpt lat="43.521990425633966" lon="12.826041114885054"><ele>333.6666666666667</ele><time>2026-04-18T07:43:53Z</time></trkpt><trkpt lat="43.52214799162145" lon="12.826130988921724"><ele>333.0</ele><time>2026-04-18T07:43:54Z</time></trkpt><trkpt lat="43.52231220985869" lon="12.826227527406333"><ele>333.0</ele><time>2026-04-18T07:43:55Z</time></trkpt><trkpt lat="43.522476666162476" lon="12.826328770314888"><ele>333.0</ele><time>2026-04-18T07:43:56Z</time></trkpt><trkpt lat="43.52264418305484" lon="12.82642755972948"><ele>333.0</ele><time>2026-04-18T07:43:57Z</time></trkpt><trkpt lat="43.52281089853101" lon="12.826516426236228"><ele>334.3333333333333</ele><time>2026-04-18T07:43:58Z</time></trkpt><trkpt lat="43.52297569034761" lon="12.826608771605793"><ele>335.66666666666663</ele><time>2026-04-18T07:43:59Z</time></trkpt><trkpt lat="43.523146194294505" lon="12.826707589697449"><ele>337.0</ele><time>2026-04-18T07:44:00Z</time></trkpt><trkpt lat="43.523319333593825" lon="12.826810320887082"><ele>336.3333333333333</ele><time>2026-04-18T07:44:01Z</time></trkpt><trkpt lat="43.52349471307245" lon="12.826911636474062"><ele>335.6666666666667</ele><time>2026-04-18T07:44:02Z</time></trkpt><trkpt lat="43.52366942263004" lon="12.827012463179942"><ele>335.0</ele><time>2026-04-18T07:44:03Z</time></trkpt><trkpt lat="43.52384332303519" lon="12.827115072593445"><ele>334.33333333333337</ele><time>2026-04-18T07:44:04Z</time></trkpt><trkpt lat="43.52401423191204" lon="12.827221363994196"><ele>333.6666666666667</ele><time>2026-04-18T07:44:05Z</time></trkpt><trkpt lat="43.52418545748641" lon="12.827320980787718"><ele>333.0</ele><time>2026-04-18T07:44:06Z</time></trkpt><trkpt lat="43.52435294970982" lon="12.827416117307617"><ele>333.0</ele><time>2026-04-18T07:44:07Z</time></trkpt><trkpt lat="43.524524906692264" lon="12.827510826029147"><ele>333.0</ele><time>2026-04-18T07:44:08Z</time></trkpt><trkpt lat="43.524705309977584" lon="12.827613414821538"><ele>333.0</ele><time>2026-04-18T07:44:09Z</time></trkpt><trkpt lat="43.5248907630412" lon="12.827723629497127"><ele>331.6666666666667</ele><time>2026-04-18T07:44:10Z</time></trkpt><trkpt lat="43.525071361114556" lon="12.827829188344174"><ele>330.33333333333337</ele><time>2026-04-18T07:44:11Z</time></trkpt><trkpt lat="43.52525418608211" lon="12.827934809729362"><ele>329.0</ele><time>2026-04-18T07:44:12Z</time></trkpt><trkpt lat="43.52544027177746" lon="12.828042449799431"><ele>329.0</ele><time>2026-04-18T07:44:13Z</time></trkpt><trkpt lat="43.525624837656494" lon="12.82815061140585"><ele>329.0</ele><time>2026-04-18T07:44:14Z</time></trkpt><trkpt lat="43.525811250021505" lon="12.82826283403909"><ele>329.0</ele><time>2026-04-18T07:44:15Z</time></trkpt><trkpt lat="43.525999725154364" lon="12.828374946038446"><ele>328.0</ele><time>2026-04-18T07:44:16Z</time></trkpt><trkpt lat="43.52618491994837" lon="12.828485074543481"><ele>327.0</ele><time>2026-04-18T07:44:17Z</time></trkpt><trkpt lat="43.526370686426716" lon="12.82859483753164"><ele>326.0</ele><time>2026-04-18T07:44:18Z</time></trkpt><trkpt lat="43.52656332171774" lon="12.828701903729161"><ele>326.0</ele><time>2026-04-18T07:44:19Z</time></trkpt><trkpt lat="43.526752925694545" lon="12.828810646744351"><ele>326.0</ele><time>2026-04-18T07:44:20Z</time></trkpt><trkpt lat="43.526940123084636" lon="12.82891791109384"><ele>326.0</ele><time>2026-04-18T07:44:21Z</time></trkpt><trkpt lat="43.527127266327675" lon="12.829028879323936"><ele>325.33333333333337</ele><time>2026-04-18T07:44:22Z</time></trkpt><trkpt lat="43.527313744605095" lon="12.82913557601221"><ele>324.6666666666667</ele><time>2026-04-18T07:44:23Z</time></trkpt><trkpt lat="43.52749713784652" lon="12.829244788049783"><ele>324.0</ele><time>2026-04-18T07:44:24Z</time></trkpt><trkpt lat="43.5276786131335" lon="12.829356748920109"><ele>323.6666666666667</ele><time>2026-04-18T07:44:25Z</time></trkpt><trkpt lat="43.52786014317071" lon="12.829465195285675"><ele>323.33333333333337</ele><time>2026-04-18T07:44:26Z</time></trkpt><trkpt lat="43.52805389118663" lon="12.829582159397788"><ele>323.0</ele><time>2026-04-18T07:44:27Z</time></trkpt><trkpt lat="43.52825283136111" lon="12.82973766580958"><ele>322.0</ele><time>2026-04-18T07:44:28Z</time></trkpt><trkpt lat="43.52847006176475" lon="12.829892712808663"><ele>321.0</ele><time>2026-04-18T07:44:29Z</time></trkpt><trkpt lat="43.528712656193605" lon="12.830065863244302"><ele>321.0</ele><time>2026-04-18T07:44:30Z</time></trkpt><trkpt lat="43.52898999946117" lon="12.830263118776308"><ele>321.0</ele><time>2026-04-18T07:44:30.999Z</time></trkpt><trkpt lat="43.529296151245184" lon="12.83046398118816"><ele>321.0</ele><time>2026-04-18T07:44:31.999Z</time></trkpt><trkpt lat="43.52957949856548" lon="12.83067014121298"><ele>321.0</ele><time>2026-04-18T07:44:32.999Z</time></trkpt><trkpt lat="43.529832491219196" lon="12.830853925250741"><ele>319.0</ele><time>2026-04-18T07:44:33.999Z</time></trkpt><trkpt lat="43.53004972162016" lon="12.831019815944535"><ele>317.0</ele><time>2026-04-18T07:44:34.999Z</time></trkpt><trkpt lat="43.53024430835876" lon="12.83115981851065"><ele>316.6666666666667</ele><time>2026-04-18T07:44:35.999Z</time></trkpt><trkpt lat="43.53044443556623" lon="12.831264976922018"><ele>316.3333333333333</ele><time>2026-04-18T07:44:36.999Z</time></trkpt><trkpt lat="43.530659050142795" lon="12.831318807067323"><ele>316.0</ele><time>2026-04-18T07:44:37.999Z</time></trkpt><trkpt lat="43.53088835772916" lon="12.831340199918994"><ele>316.0</ele><time>2026-04-18T07:44:38.999Z</time></trkpt><trkpt lat="43.53113301922005" lon="12.831311370817827"><ele>316.0</ele><time>2026-04-18T07:44:39.999Z</time></trkpt><trkpt lat="43.53137138941934" lon="12.831299849446784"><ele>316.0</ele><time>2026-04-18T07:44:40.999Z</time></trkpt><trkpt lat="43.531601582464006" lon="12.831290038483546"><ele>316.0</ele><time>2026-04-18T07:44:41.999Z</time></trkpt><trkpt lat="43.53181340315593" lon="12.831312843629307"><ele>316.0</ele><time>2026-04-18T07:44:42.999Z</time></trkpt><trkpt lat="43.53200485025545" lon="12.83136124641772"><ele>316.0</ele><time>2026-04-18T07:44:43.999Z</time></trkpt><trkpt lat="43.53220453032243" lon="12.831392193849464"><ele>316.0</ele><time>2026-04-18T07:44:44.999Z</time></trkpt><trkpt lat="43.53239088657768" lon="12.831443249678635"><ele>316.0</ele><time>2026-04-18T07:44:45.999Z</time></trkpt><trkpt lat="43.53258403275956" lon="12.83148764537229"><ele>316.0</ele><time>2026-04-18T07:44:46.999Z</time></trkpt><trkpt lat="43.53278508341107" lon="12.831558888244029"><ele>316.0</ele><time>2026-04-18T07:44:47.999Z</time></trkpt><trkpt lat="43.53299247248113" lon="12.831608702550747"><ele>316.0</ele><time>2026-04-18T07:44:48.999Z</time></trkpt><trkpt lat="43.53319299281724" lon="12.831654574826358"><ele>314.3333333333333</ele><time>2026-04-18T07:44:49.999Z</time></trkpt><trkpt lat="43.53340347337822" lon="12.83167963088601"><ele>312.6666666666667</ele><time>2026-04-18T07:44:50.999Z</time></trkpt><trkpt lat="43.53360950726041" lon="12.831726648600636"><ele>311.0</ele><time>2026-04-18T07:44:51.999Z</time></trkpt><trkpt lat="43.53381987417559" lon="12.8317702051594"><ele>309.33333333333337</ele><time>2026-04-18T07:44:52.999Z</time></trkpt><trkpt lat="43.53403063392943" lon="12.831818646351497"><ele>307.6666666666667</ele><time>2026-04-18T07:44:53.999Z</time></trkpt><trkpt lat="43.53424517709785" lon="12.831867858186477"><ele>306.0</ele><time>2026-04-18T07:44:54.999Z</time></trkpt><trkpt lat="43.53449190027928" lon="12.831920586054407"><ele>307.3333333333333</ele><time>2026-04-18T07:44:55.999Z</time></trkpt><trkpt lat="43.534664903195015" lon="12.831962958002919"><ele>308.66666666666663</ele><time>2026-04-18T07:44:56.999Z</time></trkpt><trkpt lat="43.53487318918683" lon="12.832007310885833"><ele>310.0</ele><time>2026-04-18T07:44:57.999Z</time></trkpt><trkpt lat="43.53509031536091" lon="12.832053530014992"><ele>310.0</ele><time>2026-04-18T07:44:58.999Z</time></trkpt><trkpt lat="43.535336564757124" lon="12.83210300838885"><ele>310.0</ele><time>2026-04-18T07:44:59.999Z</time></trkpt><trkpt lat="43.535563739136656" lon="12.832155144269896"><ele>310.0</ele><time>2026-04-18T07:45:00.999Z</time></trkpt><trkpt lat="43.535742231988806" lon="12.832199752436038"><ele>310.0</ele><time>2026-04-18T07:45:01.999Z</time></trkpt><trkpt lat="43.53594655752411" lon="12.832242284606261"><ele>310.0</ele><time>2026-04-18T07:45:02.999Z</time></trkpt><trkpt lat="43.53616667826879" lon="12.832288180034737"><ele>309.0</ele><time>2026-04-18T07:45:03.999Z</time></trkpt><trkpt lat="43.536380146068616" lon="12.832335781098806"><ele>308.0</ele><time>2026-04-18T07:45:04.999Z</time></trkpt><trkpt lat="43.53658780059186" lon="12.832382527362505"><ele>307.0</ele><time>2026-04-18T07:45:05.999Z</time></trkpt><trkpt lat="43.53678527965758" lon="12.832430383289402"><ele>307.0</ele><time>2026-04-18T07:45:06.999Z</time></trkpt><trkpt lat="43.53696925439822" lon="12.832473322504367"><ele>307.0</ele><time>2026-04-18T07:45:07.999Z</time></trkpt><trkpt lat="43.53713406657118" lon="12.832510261148363"><ele>307.0</ele><time>2026-04-18T07:45:08.999Z</time></trkpt><trkpt lat="43.537273914070994" lon="12.832541741137602"><ele>307.0</ele><time>2026-04-18T07:45:09.999Z</time></trkpt><trkpt lat="43.53739720968126" lon="12.832571048874462"><ele>307.0</ele><time>2026-04-18T07:45:10.999Z</time></trkpt><trkpt lat="43.53750142308625" lon="12.832599719131633"><ele>307.0</ele><time>2026-04-18T07:45:11.999Z</time></trkpt><trkpt lat="43.537593288284256" lon="12.832647379779171"><ele>307.0</ele><time>2026-04-18T07:45:12.999Z</time></trkpt><trkpt lat="43.53765833112566" lon="12.832738604935635"><ele>307.0</ele><time>2026-04-18T07:45:13.999Z</time></trkpt><trkpt lat="43.537709669582554" lon="12.832844608365699"><ele>307.0</ele><time>2026-04-18T07:45:14.999Z</time></trkpt><trkpt lat="43.53777897046601" lon="12.832901327463707"><ele>307.0</ele><time>2026-04-18T07:45:15.999Z</time></trkpt><trkpt lat="43.53787025441368" lon="12.832875337596631"><ele>307.0</ele><time>2026-04-18T07:45:16.999Z</time></trkpt><trkpt lat="43.53796109626048" lon="12.832808701895752"><ele>307.0</ele><time>2026-04-18T07:45:17.999Z</time></trkpt><trkpt lat="43.53806348046221" lon="12.832764190251671"><ele>307.0</ele><time>2026-04-18T07:45:18.999Z</time></trkpt><trkpt lat="43.538183478503846" lon="12.832833670491187"><ele>305.66666666666663</ele><time>2026-04-18T07:45:19.999Z</time></trkpt><trkpt lat="43.538319559398516" lon="12.832882924652248"><ele>304.3333333333333</ele><time>2026-04-18T07:45:20.999Z</time></trkpt><trkpt lat="43.53846166966361" lon="12.832968265381046"><ele>303.0</ele><time>2026-04-18T07:45:21.999Z</time></trkpt><trkpt lat="43.53861622364254" lon="12.833061784436428"><ele>303.0</ele><time>2026-04-18T07:45:22.999Z</time></trkpt><trkpt lat="43.53877099251806" lon="12.833154674344138"><ele>303.0</ele><time>2026-04-18T07:45:23.999Z</time></trkpt><trkpt lat="43.53894084492839" lon="12.83324934088061"><ele>303.0</ele><time>2026-04-18T07:45:24.999Z</time></trkpt><trkpt lat="43.53911156716502" lon="12.833338283565212"><ele>303.0</ele><time>2026-04-18T07:45:25.999Z</time></trkpt><trkpt lat="43.53929456181446" lon="12.833439175600388"><ele>303.0</ele><time>2026-04-18T07:45:26.999Z</time></trkpt><trkpt lat="43.53947609600124" lon="12.833545829693408"><ele>303.0</ele><time>2026-04-18T07:45:27.999Z</time></trkpt><trkpt lat="43.53965361154207" lon="12.833649492568526"><ele>301.6666666666667</ele><time>2026-04-18T07:45:28.999Z</time></trkpt><trkpt lat="43.53982771293344" lon="12.83374683450418"><ele>300.33333333333337</ele><time>2026-04-18T07:45:29.999Z</time></trkpt><trkpt lat="43.54000157461221" lon="12.833834524180592"><ele>299.0</ele><time>2026-04-18T07:45:30.999Z</time></trkpt><trkpt lat="43.5401708409819" lon="12.833924082530693"><ele>299.0</ele><time>2026-04-18T07:45:31.999Z</time></trkpt><trkpt lat="43.54033819675884" lon="12.833999844956818"><ele>299.0</ele><time>2026-04-18T07:45:32.999Z</time></trkpt><trkpt lat="43.54050808821134" lon="12.834056383811273"><ele>299.0</ele><time>2026-04-18T07:45:33.999Z</time></trkpt><trkpt lat="43.54068597207108" lon="12.834093105654203"><ele>299.0</ele><time>2026-04-18T07:45:34.999Z</time></trkpt><trkpt lat="43.540865668007015" lon="12.834118837677506"><ele>299.0</ele><time>2026-04-18T07:45:35.999Z</time></trkpt><trkpt lat="43.54104266648883" lon="12.834137946648301"><ele>299.0</ele><time>2026-04-18T07:45:36.999Z</time></trkpt><trkpt lat="43.541222162315236" lon="12.834154400712595"><ele>298.6666666666667</ele><time>2026-04-18T07:45:37.999Z</time></trkpt><trkpt lat="43.54140032327974" lon="12.834162038304932"><ele>298.3333333333333</ele><time>2026-04-18T07:45:38.999Z</time></trkpt><trkpt lat="43.54157897762678" lon="12.834163383313253"><ele>298.0</ele><time>2026-04-18T07:45:39.999Z</time></trkpt><trkpt lat="43.541759258800745" lon="12.834157085889336"><ele>298.0</ele><time>2026-04-18T07:45:40.999Z</time></trkpt><trkpt lat="43.54193625597327" lon="12.83414513974893"><ele>298.0</ele><time>2026-04-18T07:45:41.999Z</time></trkpt><trkpt lat="43.542115257200436" lon="12.834123432438476"><ele>298.0</ele><time>2026-04-18T07:45:42.999Z</time></trkpt><trkpt lat="43.54229543192071" lon="12.834100748894905"><ele>297.66666666666663</ele><time>2026-04-18T07:45:43.999Z</time></trkpt><trkpt lat="43.5424735612781" lon="12.834084846906245"><ele>297.3333333333333</ele><time>2026-04-18T07:45:44.999Z</time></trkpt><trkpt lat="43.54265575863615" lon="12.834075456891236"><ele>297.0</ele><time>2026-04-18T07:45:45.999Z</time></trkpt><trkpt lat="43.54284042061866" lon="12.834103523349954"><ele>297.3333333333333</ele><time>2026-04-18T07:45:46.999Z</time></trkpt><trkpt lat="43.54302515015997" lon="12.834120747270518"><ele>297.66666666666663</ele><time>2026-04-18T07:45:47.999Z</time></trkpt><trkpt lat="43.54321460828649" lon="12.834124504146788"><ele>298.0</ele><time>2026-04-18T07:45:48.999Z</time></trkpt><trkpt lat="43.54340043084562" lon="12.834158170872161"><ele>298.0</ele><time>2026-04-18T07:45:49.999Z</time></trkpt><trkpt lat="43.54358437726115" lon="12.834192395770984"><ele>298.0</ele><time>2026-04-18T07:45:50.999Z</time></trkpt><trkpt lat="43.543770092605506" lon="12.834227621177815"><ele>298.0</ele><time>2026-04-18T07:45:51.999Z</time></trkpt><trkpt lat="43.54395190811311" lon="12.834262542995871"><ele>296.66666666666663</ele><time>2026-04-18T07:45:52.999Z</time></trkpt><trkpt lat="43.544136559409914" lon="12.834301190498044"><ele>295.3333333333333</ele><time>2026-04-18T07:45:54Z</time></trkpt><trkpt lat="43.54432060818289" lon="12.834348981129299"><ele>294.0</ele><time>2026-04-18T07:45:55Z</time></trkpt><trkpt lat="43.54450033134926" lon="12.834402735160243"><ele>293.6666666666667</ele><time>2026-04-18T07:45:56Z</time></trkpt><trkpt lat="43.54467932271881" lon="12.834461668478122"><ele>293.33333333333337</ele><time>2026-04-18T07:45:57Z</time></trkpt><trkpt lat="43.54485137264157" lon="12.834515348271562"><ele>293.0</ele><time>2026-04-18T07:45:58Z</time></trkpt><trkpt lat="43.54501779612964" lon="12.83457377772443"><ele>293.0</ele><time>2026-04-18T07:45:59Z</time></trkpt><trkpt lat="43.54517605947541" lon="12.834625504108233"><ele>293.0</ele><time>2026-04-18T07:46:00Z</time></trkpt><trkpt lat="43.545327286691574" lon="12.834676552623517"><ele>293.0</ele><time>2026-04-18T07:46:01Z</time></trkpt><trkpt lat="43.54547939828718" lon="12.8347289204946"><ele>292.5</ele><time>2026-04-18T07:46:02Z</time></trkpt><trkpt lat="43.545624545859184" lon="12.834779860154029"><ele>292.0</ele><time>2026-04-18T07:46:03Z</time></trkpt><trkpt lat="43.54576937434934" lon="12.83483283948581"><ele>291.5</ele><time>2026-04-18T07:46:04Z</time></trkpt><trkpt lat="43.54591457327562" lon="12.83488369870446"><ele>291.0</ele><time>2026-04-18T07:46:05Z</time></trkpt><trkpt lat="43.546057258272455" lon="12.834928904887091"><ele>291.0</ele><time>2026-04-18T07:46:06Z</time></trkpt><trkpt lat="43.54619396416999" lon="12.834990078095265"><ele>291.0</ele><time>2026-04-18T07:46:07Z</time></trkpt><trkpt lat="43.54632829976136" lon="12.83501696364336"><ele>291.0</ele><time>2026-04-18T07:46:08Z</time></trkpt><trkpt lat="43.54646577539141" lon="12.835016189405165"><ele>291.0</ele><time>2026-04-18T07:46:09Z</time></trkpt><trkpt lat="43.54660057278433" lon="12.835055022182717"><ele>290.75</ele><time>2026-04-18T07:46:10Z</time></trkpt><trkpt lat="43.546740585524944" lon="12.835076667211114"><ele>290.5</ele><time>2026-04-18T07:46:11Z</time></trkpt><trkpt lat="43.546878084403176" lon="12.83509801467414"><ele>290.25</ele><time>2026-04-18T07:46:12Z</time></trkpt><trkpt lat="43.54701855854477" lon="12.835117892901245"><ele>290.0</ele><time>2026-04-18T07:46:13Z</time></trkpt><trkpt lat="43.5471608322361" lon="12.835135572597983"><ele>290.0</ele><time>2026-04-18T07:46:14Z</time></trkpt><trkpt lat="43.54730158434405" lon="12.835152477794514"><ele>290.0</ele><time>2026-04-18T07:46:15Z</time></trkpt><trkpt lat="43.547441704552" lon="12.835168418547957"><ele>290.0</ele><time>2026-04-18T07:46:16Z</time></trkpt><trkpt lat="43.54758136482945" lon="12.835183730794109"><ele>290.0</ele><time>2026-04-18T07:46:17Z</time></trkpt><trkpt lat="43.547719972864876" lon="12.835198927679055"><ele>290.0</ele><time>2026-04-18T07:46:18Z</time></trkpt><trkpt lat="43.547855539865154" lon="12.835186894503"><ele>290.0</ele><time>2026-04-18T07:46:19Z</time></trkpt><trkpt lat="43.547983229503586" lon="12.835202064341269"><ele>290.0</ele><time>2026-04-18T07:46:20Z</time></trkpt><trkpt lat="43.548106723863654" lon="12.835214916269537"><ele>290.0</ele><time>2026-04-18T07:46:21Z</time></trkpt><trkpt lat="43.54822187050557" lon="12.83522730385843"><ele>289.0</ele><time>2026-04-18T07:46:22Z</time></trkpt><trkpt lat="43.54834115479899" lon="12.835239102962012"><ele>288.0</ele><time>2026-04-18T07:46:23Z</time></trkpt><trkpt lat="43.54845950179991" lon="12.835251470271563"><ele>287.0</ele><time>2026-04-18T07:46:24Z</time></trkpt><trkpt lat="43.54857643221379" lon="12.835262523835464"><ele>286.0</ele><time>2026-04-18T07:46:25Z</time></trkpt><trkpt lat="43.548699473216686" lon="12.835273320573885"><ele>285.75</ele><time>2026-04-18T07:46:26Z</time></trkpt><trkpt lat="43.54881853720535" lon="12.83528839058434"><ele>285.5</ele><time>2026-04-18T07:46:26.999Z</time></trkpt><trkpt lat="43.548938859482085" lon="12.83530406239282"><ele>285.25</ele><time>2026-04-18T07:46:27.999Z</time></trkpt><trkpt lat="43.54906106955809" lon="12.835318132248386"><ele>285.0</ele><time>2026-04-18T07:46:28.999Z</time></trkpt><trkpt lat="43.54918400987702" lon="12.835330951587835"><ele>285.0</ele><time>2026-04-18T07:46:29.999Z</time></trkpt><trkpt lat="43.54931042572485" lon="12.835342610834006"><ele>285.0</ele><time>2026-04-18T07:46:30.999Z</time></trkpt><trkpt lat="43.549439853607105" lon="12.835351194191459"><ele>285.0</ele><time>2026-04-18T07:46:31.999Z</time></trkpt><trkpt lat="43.5495751185171" lon="12.835361663735402"><ele>285.0</ele><time>2026-04-18T07:46:32.999Z</time></trkpt><trkpt lat="43.54971317609767" lon="12.835378376628901"><ele>284.5</ele><time>2026-04-18T07:46:33.999Z</time></trkpt><trkpt lat="43.549841920908634" lon="12.835394463393753"><ele>284.0</ele><time>2026-04-18T07:46:34.999Z</time></trkpt><trkpt lat="43.549974993686284" lon="12.835403405474256"><ele>283.5</ele><time>2026-04-18T07:46:35.999Z</time></trkpt><trkpt lat="43.550100171611476" lon="12.835421229772336"><ele>283.0</ele><time>2026-04-18T07:46:36.999Z</time></trkpt><trkpt lat="43.55022796174257" lon="12.835430400959703"><ele>283.0</ele><time>2026-04-18T07:46:37.999Z</time></trkpt><trkpt lat="43.55035207568165" lon="12.835441066424908"><ele>283.0</ele><time>2026-04-18T07:46:38.999Z</time></trkpt><trkpt lat="43.55047824030083" lon="12.835454167573081"><ele>283.0</ele><time>2026-04-18T07:46:39.999Z</time></trkpt><trkpt lat="43.550602591684026" lon="12.835469235820256"><ele>283.0</ele><time>2026-04-18T07:46:40.999Z</time></trkpt><trkpt lat="43.5507351526804" lon="12.83548204680026"><ele>283.25</ele><time>2026-04-18T07:46:41.999Z</time></trkpt><trkpt lat="43.55086492320945" lon="12.835497221373283"><ele>283.5</ele><time>2026-04-18T07:46:42.999Z</time></trkpt><trkpt lat="43.55099469618922" lon="12.835510990270103"><ele>283.75</ele><time>2026-04-18T07:46:43.999Z</time></trkpt><trkpt lat="43.55111846844378" lon="12.83552381836882"><ele>284.0</ele><time>2026-04-18T07:46:44.999Z</time></trkpt><trkpt lat="43.55123214384484" lon="12.835537861425877"><ele>283.5</ele><time>2026-04-18T07:46:45.999Z</time></trkpt><trkpt lat="43.55133880720568" lon="12.835564169152084"><ele>283.0</ele><time>2026-04-18T07:46:46.999Z</time></trkpt><trkpt lat="43.55146969939568" lon="12.835577940376812"><ele>282.5</ele><time>2026-04-18T07:46:47.999Z</time></trkpt><trkpt lat="43.5516222850758" lon="12.835593993980812"><ele>282.0</ele><time>2026-04-18T07:46:48.999Z</time></trkpt><trkpt lat="43.55177085426167" lon="12.835609625049244"><ele>282.0</ele><time>2026-04-18T07:46:49.999Z</time></trkpt><trkpt lat="43.55192380779823" lon="12.835607341171327"><ele>282.0</ele><time>2026-04-18T07:46:50.999Z</time></trkpt><trkpt lat="43.55207883744451" lon="12.835632779215388"><ele>282.0</ele><time>2026-04-18T07:46:51.999Z</time></trkpt><trkpt lat="43.55223683035128" lon="12.835649705859048"><ele>281.3333333333333</ele><time>2026-04-18T07:46:52.999Z</time></trkpt><trkpt lat="43.55239204013286" lon="12.835668507723033"><ele>280.66666666666663</ele><time>2026-04-18T07:46:53.999Z</time></trkpt><trkpt lat="43.552541230066105" lon="12.835692455918643"><ele>280.0</ele><time>2026-04-18T07:46:54.999Z</time></trkpt><trkpt lat="43.552689477633216" lon="12.835709807602635"><ele>280.0</ele><time>2026-04-18T07:46:55.999Z</time></trkpt><trkpt lat="43.55283652183596" lon="12.835726690843488"><ele>280.0</ele><time>2026-04-18T07:46:56.999Z</time></trkpt><trkpt lat="43.55298705571265" lon="12.83574155753782"><ele>280.0</ele><time>2026-04-18T07:46:57.999Z</time></trkpt><trkpt lat="43.55313401064399" lon="12.835757158558593"><ele>280.0</ele><time>2026-04-18T07:46:58.999Z</time></trkpt><trkpt lat="43.553280725091426" lon="12.835777071291"><ele>279.5</ele><time>2026-04-18T07:46:59.999Z</time></trkpt><trkpt lat="43.55342852738723" lon="12.8357993899351"><ele>279.0</ele><time>2026-04-18T07:47:00.999Z</time></trkpt><trkpt lat="43.553588989899986" lon="12.83582381141396"><ele>278.5</ele><time>2026-04-18T07:47:01.999Z</time></trkpt><trkpt lat="43.553703002877" lon="12.835845979361327"><ele>278.0</ele><time>2026-04-18T07:47:02.999Z</time></trkpt><trkpt lat="43.55382074278596" lon="12.835867025722083"><ele>278.0</ele><time>2026-04-18T07:47:03.999Z</time></trkpt><trkpt lat="43.55400091044102" lon="12.835894083937546"><ele>278.0</ele><time>2026-04-18T07:47:04.999Z</time></trkpt><trkpt lat="43.554142660580816" lon="12.835898057364066"><ele>278.0</ele><time>2026-04-18T07:47:05.999Z</time></trkpt><trkpt lat="43.5542885303929" lon="12.835919220630451"><ele>278.0</ele><time>2026-04-18T07:47:06.999Z</time></trkpt><trkpt lat="43.554436684833185" lon="12.835934539133813"><ele>278.0</ele><time>2026-04-18T07:47:07.999Z</time></trkpt><trkpt lat="43.55458497606831" lon="12.835955036436934"><ele>278.0</ele><time>2026-04-18T07:47:08.999Z</time></trkpt><trkpt lat="43.55472214504101" lon="12.835976744427908"><ele>278.0</ele><time>2026-04-18T07:47:09.999Z</time></trkpt><trkpt lat="43.554867982500866" lon="12.835991587999203"><ele>277.5</ele><time>2026-04-18T07:47:10.999Z</time></trkpt><trkpt lat="43.55501383029367" lon="12.836004210657395"><ele>277.0</ele><time>2026-04-18T07:47:11.999Z</time></trkpt><trkpt lat="43.55515775735902" lon="12.836024030169954"><ele>276.5</ele><time>2026-04-18T07:47:12.999Z</time></trkpt><trkpt lat="43.555300231862844" lon="12.836063818325657"><ele>276.0</ele><time>2026-04-18T07:47:13.999Z</time></trkpt><trkpt lat="43.55544221628202" lon="12.836082485050888"><ele>275.75</ele><time>2026-04-18T07:47:14.999Z</time></trkpt><trkpt lat="43.55558581572876" lon="12.836079730183634"><ele>275.5</ele><time>2026-04-18T07:47:15.999Z</time></trkpt><trkpt lat="43.55573505775958" lon="12.836102838187562"><ele>275.25</ele><time>2026-04-18T07:47:16.999Z</time></trkpt><trkpt lat="43.55588290594022" lon="12.83613498991677"><ele>275.0</ele><time>2026-04-18T07:47:17.999Z</time></trkpt><trkpt lat="43.55603471008778" lon="12.836150779616268"><ele>275.0</ele><time>2026-04-18T07:47:18.999Z</time></trkpt><trkpt lat="43.55617329139128" lon="12.83616481747522"><ele>275.0</ele><time>2026-04-18T07:47:19.999Z</time></trkpt><trkpt lat="43.5563170781782" lon="12.836181036983186"><ele>275.0</ele><time>2026-04-18T07:47:20.999Z</time></trkpt><trkpt lat="43.556455975881434" lon="12.83619757925664"><ele>275.0</ele><time>2026-04-18T07:47:21.999Z</time></trkpt><trkpt lat="43.556586354094925" lon="12.836220726465182"><ele>274.25</ele><time>2026-04-18T07:47:22.999Z</time></trkpt><trkpt lat="43.55671259040404" lon="12.836241608191756"><ele>273.5</ele><time>2026-04-18T07:47:23.999Z</time></trkpt><trkpt lat="43.55682637464755" lon="12.83625522212851"><ele>272.75</ele><time>2026-04-18T07:47:24.999Z</time></trkpt><trkpt lat="43.556937043668384" lon="12.836275412850961"><ele>272.0</ele><time>2026-04-18T07:47:25.999Z</time></trkpt><trkpt lat="43.5570410132508" lon="12.836280823469204"><ele>271.8</ele><time>2026-04-18T07:47:26.999Z</time></trkpt><trkpt lat="43.55714605343267" lon="12.836313619341086"><ele>271.6</ele><time>2026-04-18T07:47:27.999Z</time></trkpt><trkpt lat="43.55724804608336" lon="12.836328033681676"><ele>271.40000000000003</ele><time>2026-04-18T07:47:28.999Z</time></trkpt><trkpt lat="43.55734284077803" lon="12.836341430756011"><ele>271.2</ele><time>2026-04-18T07:47:29.999Z</time></trkpt><trkpt lat="43.55742480797958" lon="12.836353161928155"><ele>271.0</ele><time>2026-04-18T07:47:30.999Z</time></trkpt><trkpt lat="43.557503956075294" lon="12.836364584482983"><ele>271.0</ele><time>2026-04-18T07:47:31.999Z</time></trkpt><trkpt lat="43.55757544815455" lon="12.836374902149151"><ele>271.0</ele><time>2026-04-18T07:47:32.999Z</time></trkpt><trkpt lat="43.55764389567234" lon="12.836384241766355"><ele>271.0</ele><time>2026-04-18T07:47:33.999Z</time></trkpt><trkpt lat="43.55771213414535" lon="12.836371919400948"><ele>271.0</ele><time>2026-04-18T07:47:35.999Z</time></trkpt><trkpt lat="43.557640017126715" lon="12.836440925835808"><ele>271.0</ele><time>2026-04-18T07:47:37.999Z</time></trkpt><trkpt lat="43.55842114072116" lon="12.836464410752967"><ele>270.66666666666663</ele><time>2026-04-18T07:47:41.999Z</time></trkpt><trkpt lat="43.55857056488876" lon="12.836472806165006"><ele>270.3333333333333</ele><time>2026-04-18T07:47:42.999Z</time></trkpt><trkpt lat="43.55872187007585" lon="12.83647827679747"><ele>270.0</ele><time>2026-04-18T07:47:43.999Z</time></trkpt><trkpt lat="43.558875055820835" lon="12.836478372371062"><ele>269.25</ele><time>2026-04-18T07:47:44.999Z</time></trkpt><trkpt lat="43.5590175622855" lon="12.836459865264843"><ele>268.5</ele><time>2026-04-18T07:47:45.999Z</time></trkpt><trkpt lat="43.55915659119228" lon="12.836442099361463"><ele>267.75</ele><time>2026-04-18T07:47:46.999Z</time></trkpt><trkpt lat="43.55929333308514" lon="12.836403560751947"><ele>267.0</ele><time>2026-04-18T07:47:47.999Z</time></trkpt><trkpt lat="43.55943754214128" lon="12.836362474977792"><ele>266.25</ele><time>2026-04-18T07:47:48.999Z</time></trkpt><trkpt lat="43.55957557163847" lon="12.8363164299999"><ele>265.5</ele><time>2026-04-18T07:47:49.999Z</time></trkpt><trkpt lat="43.559697243474034" lon="12.836263670784648"><ele>264.75</ele><time>2026-04-18T07:47:50.999Z</time></trkpt><trkpt lat="43.5598053511658" lon="12.83621303035893"><ele>264.0</ele><time>2026-04-18T07:47:51.999Z</time></trkpt><trkpt lat="43.559902164923386" lon="12.836165833344204"><ele>264.0</ele><time>2026-04-18T07:47:52.999Z</time></trkpt><trkpt lat="43.55998908259935" lon="12.836126211478375"><ele>264.0</ele><time>2026-04-18T07:47:53.999Z</time></trkpt><trkpt lat="43.56006336620833" lon="12.836080114695621"><ele>264.0</ele><time>2026-04-18T07:47:54.999Z</time></trkpt><trkpt lat="43.56017249762867" lon="12.83606331230319"><ele>264.0</ele><time>2026-04-18T07:47:56.999Z</time></trkpt><trkpt lat="43.56020092915008" lon="12.835979819766184"><ele>264.0</ele><time>2026-04-18T07:47:57.999Z</time></trkpt><trkpt lat="43.560223220385545" lon="12.835885839759632"><ele>264.0</ele><time>2026-04-18T07:48:04Z</time></trkpt><trkpt lat="43.56021861173161" lon="12.835674203180476"><ele>265.0</ele><time>2026-04-18T07:48:06Z</time></trkpt><trkpt lat="43.560236173559986" lon="12.835549332971834"><ele>266.0</ele><time>2026-04-18T07:48:07Z</time></trkpt><trkpt lat="43.56024391864581" lon="12.835425164293522"><ele>267.0</ele><time>2026-04-18T07:48:08Z</time></trkpt><trkpt lat="43.560249329932326" lon="12.83530359397134"><ele>268.0</ele><time>2026-04-18T07:48:09Z</time></trkpt><trkpt lat="43.56026005528053" lon="12.835163284167264"><ele>269.0</ele><time>2026-04-18T07:48:10Z</time></trkpt><trkpt lat="43.56026701804471" lon="12.835016495452932"><ele>270.25</ele><time>2026-04-18T07:48:11Z</time></trkpt><trkpt lat="43.56027853733507" lon="12.834845746513235"><ele>271.5</ele><time>2026-04-18T07:48:12Z</time></trkpt><trkpt lat="43.5602987013443" lon="12.834659291621177"><ele>272.75</ele><time>2026-04-18T07:48:13Z</time></trkpt><trkpt lat="43.560311138722966" lon="12.834473484369127"><ele>274.0</ele><time>2026-04-18T07:48:14Z</time></trkpt><trkpt lat="43.560321112825044" lon="12.83427209040907"><ele>277.0</ele><time>2026-04-18T07:48:15Z</time></trkpt><trkpt lat="43.560342194288815" lon="12.833907982088279"><ele>280.0</ele><time>2026-04-18T07:48:17Z</time></trkpt><trkpt lat="43.56035086951706" lon="12.833723358366662"><ele>283.0</ele><time>2026-04-18T07:48:18Z</time></trkpt><trkpt lat="43.560363422465336" lon="12.833546299141727"><ele>284.75</ele><time>2026-04-18T07:48:19Z</time></trkpt><trkpt lat="43.56037303538443" lon="12.833361835921504"><ele>286.5</ele><time>2026-04-18T07:48:20Z</time></trkpt><trkpt lat="43.56038518909103" lon="12.833185928000596"><ele>288.25</ele><time>2026-04-18T07:48:21Z</time></trkpt><trkpt lat="43.5604052565048" lon="12.833006644984055"><ele>290.0</ele><time>2026-04-18T07:48:22Z</time></trkpt><trkpt lat="43.56044728087016" lon="12.8328351205852"><ele>290.0</ele><time>2026-04-18T07:48:23Z</time></trkpt><trkpt lat="43.56053734656801" lon="12.832688549244308"><ele>290.0</ele><time>2026-04-18T07:48:24Z</time></trkpt><trkpt lat="43.56064462897401" lon="12.83256022160604"><ele>290.0</ele><time>2026-04-18T07:48:25Z</time></trkpt><trkpt lat="43.5607715101089" lon="12.832451038350404"><ele>290.0</ele><time>2026-04-18T07:48:26Z</time></trkpt><trkpt lat="43.56090405393745" lon="12.83240750153264"><ele>288.75</ele><time>2026-04-18T07:48:27Z</time></trkpt><trkpt lat="43.56104041630649" lon="12.83238495043434"><ele>287.5</ele><time>2026-04-18T07:48:28Z</time></trkpt><trkpt lat="43.561170025188105" lon="12.832392498717365"><ele>286.25</ele><time>2026-04-18T07:48:29Z</time></trkpt><trkpt lat="43.561298926643765" lon="12.832415952915198"><ele>285.0</ele><time>2026-04-18T07:48:30Z</time></trkpt><trkpt lat="43.5614304985883" lon="12.832436866937382"><ele>282.6666666666667</ele><time>2026-04-18T07:48:31Z</time></trkpt><trkpt lat="43.5615657164129" lon="12.832433868801985"><ele>280.33333333333337</ele><time>2026-04-18T07:48:32Z</time></trkpt><trkpt lat="43.56168729405088" lon="12.832434937766296"><ele>278.0</ele><time>2026-04-18T07:48:33Z</time></trkpt><trkpt lat="43.56192519660747" lon="12.832383692650815"><ele>274.5</ele><time>2026-04-18T07:48:34.999Z</time></trkpt><trkpt lat="43.56205197702843" lon="12.832316410576507"><ele>271.0</ele><time>2026-04-18T07:48:35.999Z</time></trkpt><trkpt lat="43.56217413096036" lon="12.832220874277535"><ele>267.5</ele><time>2026-04-18T07:48:36.999Z</time></trkpt><trkpt lat="43.56227397323216" lon="12.832099144048298"><ele>264.0</ele><time>2026-04-18T07:48:37.999Z</time></trkpt><trkpt lat="43.56235202373699" lon="12.831961559591035"><ele>264.0</ele><time>2026-04-18T07:48:38.999Z</time></trkpt><trkpt lat="43.562427282731555" lon="12.83182054365163"><ele>264.0</ele><time>2026-04-18T07:48:39.999Z</time></trkpt><trkpt lat="43.562482979558546" lon="12.831671613783982"><ele>264.0</ele><time>2026-04-18T07:48:40.999Z</time></trkpt><trkpt lat="43.56252032059919" lon="12.831519887173291"><ele>264.0</ele><time>2026-04-18T07:48:41.999Z</time></trkpt><trkpt lat="43.56253338926663" lon="12.83137116686961"><ele>264.0</ele><time>2026-04-18T07:48:42.999Z</time></trkpt><trkpt lat="43.56253869725741" lon="12.83122327414684"><ele>264.0</ele><time>2026-04-18T07:48:43.999Z</time></trkpt><trkpt lat="43.56253251864328" lon="12.831084832907054"><ele>264.0</ele><time>2026-04-18T07:48:44.999Z</time></trkpt><trkpt lat="43.56252153017099" lon="12.830963200985458"><ele>264.0</ele><time>2026-04-18T07:48:45.999Z</time></trkpt><trkpt lat="43.56250664446944" lon="12.830857937599"><ele>264.0</ele><time>2026-04-18T07:48:46.999Z</time></trkpt><trkpt lat="43.56247977045723" lon="12.830760994406615"><ele>264.0</ele><time>2026-04-18T07:48:47.999Z</time></trkpt><trkpt lat="43.56244461541899" lon="12.830656801951056"><ele>264.0</ele><time>2026-04-18T07:48:48.999Z</time></trkpt><trkpt lat="43.562407508755406" lon="12.830573929004082"><ele>264.0</ele><time>2026-04-18T07:48:49.999Z</time></trkpt><trkpt lat="43.56236301802115" lon="12.830498440496418"><ele>264.0</ele><time>2026-04-18T07:48:51.999Z</time></trkpt><trkpt lat="43.56229959303284" lon="12.830378947819488"><ele>264.0</ele><time>2026-04-18T07:48:54.999Z</time></trkpt><trkpt lat="43.562255835198734" lon="12.830287716394013"><ele>264.0</ele><time>2026-04-18T07:48:55.999Z</time></trkpt><trkpt lat="43.56220534417473" lon="12.83018773737767"><ele>263.25</ele><time>2026-04-18T07:48:56.999Z</time></trkpt><trkpt lat="43.562143446398075" lon="12.830078071350608"><ele>262.5</ele><time>2026-04-18T07:48:57.999Z</time></trkpt><trkpt lat="43.56206364657469" lon="12.829939132661647"><ele>261.75</ele><time>2026-04-18T07:48:58.999Z</time></trkpt><trkpt lat="43.561981041931766" lon="12.829806362093711"><ele>261.0</ele><time>2026-04-18T07:48:59.999Z</time></trkpt><trkpt lat="43.561888777066486" lon="12.829663377766494"><ele>261.5</ele><time>2026-04-18T07:49:00.999Z</time></trkpt><trkpt lat="43.561793739940434" lon="12.829515233290675"><ele>262.0</ele><time>2026-04-18T07:49:01.999Z</time></trkpt><trkpt lat="43.56169296984212" lon="12.829367118686452"><ele>262.5</ele><time>2026-04-18T07:49:02.999Z</time></trkpt><trkpt lat="43.56158903410787" lon="12.829212926534431"><ele>263.0</ele><time>2026-04-18T07:49:03.999Z</time></trkpt><trkpt lat="43.56148131168663" lon="12.829052834518736"><ele>263.0</ele><time>2026-04-18T07:49:04.999Z</time></trkpt><trkpt lat="43.561255520034" lon="12.828739931413311"><ele>263.0</ele><time>2026-04-18T07:49:06.999Z</time></trkpt><trkpt lat="43.56111576496913" lon="12.82860867333958"><ele>263.33333333333337</ele><time>2026-04-18T07:49:07.999Z</time></trkpt><trkpt lat="43.56095715576086" lon="12.828510610110925"><ele>263.6666666666667</ele><time>2026-04-18T07:49:08.999Z</time></trkpt><trkpt lat="43.56079409497091" lon="12.828429873679474"><ele>264.0</ele><time>2026-04-18T07:49:09.999Z</time></trkpt><trkpt lat="43.560634656362865" lon="12.82835219244391"><ele>260.6666666666667</ele><time>2026-04-18T07:49:10.999Z</time></trkpt><trkpt lat="43.56048236454514" lon="12.828274656114528"><ele>257.33333333333337</ele><time>2026-04-18T07:49:11.999Z</time></trkpt><trkpt lat="43.56033606022382" lon="12.828200057362498"><ele>254.0</ele><time>2026-04-18T07:49:12.999Z</time></trkpt><trkpt lat="43.56020814626632" lon="12.828131038004425"><ele>254.0</ele><time>2026-04-18T07:49:13.999Z</time></trkpt><trkpt lat="43.56010270403828" lon="12.828040204832586"><ele>254.0</ele><time>2026-04-18T07:49:14.999Z</time></trkpt><trkpt lat="43.56002507071233" lon="12.82790640838681"><ele>254.0</ele><time>2026-04-18T07:49:15.999Z</time></trkpt><trkpt lat="43.55998159586498" lon="12.827752657023314"><ele>254.0</ele><time>2026-04-18T07:49:16.999Z</time></trkpt><trkpt lat="43.55997424310576" lon="12.827590469189559"><ele>254.0</ele><time>2026-04-18T07:49:17.999Z</time></trkpt><trkpt lat="43.559997690569766" lon="12.827437626206718"><ele>254.0</ele><time>2026-04-18T07:49:18.999Z</time></trkpt><trkpt lat="43.56004364948031" lon="12.827293816206573"><ele>254.0</ele><time>2026-04-18T07:49:19.999Z</time></trkpt><trkpt lat="43.56011250171107" lon="12.827157269100525"><ele>254.0</ele><time>2026-04-18T07:49:20.999Z</time></trkpt><trkpt lat="43.56017855377269" lon="12.827012947575987"><ele>254.0</ele><time>2026-04-18T07:49:21.999Z</time></trkpt><trkpt lat="43.56022644549508" lon="12.826868973204444"><ele>253.99999999999997</ele><time>2026-04-18T07:49:22.999Z</time></trkpt><trkpt lat="43.560251656124294" lon="12.826727599327755"><ele>253.99999999999997</ele><time>2026-04-18T07:49:23.999Z</time></trkpt><trkpt lat="43.560255840271715" lon="12.826586559938562"><ele>254.0</ele><time>2026-04-18T07:49:24.999Z</time></trkpt><trkpt lat="43.56024136860819" lon="12.826455744927461"><ele>254.0</ele><time>2026-04-18T07:49:25.999Z</time></trkpt><trkpt lat="43.56021961285727" lon="12.826331106881625"><ele>254.2</ele><time>2026-04-18T07:49:26.999Z</time></trkpt><trkpt lat="43.56020540791975" lon="12.826219184939447"><ele>254.39999999999998</ele><time>2026-04-18T07:49:27.999Z</time></trkpt><trkpt lat="43.560236102520435" lon="12.82611901702645"><ele>254.6</ele><time>2026-04-18T07:49:28.999Z</time></trkpt><trkpt lat="43.56026213104681" lon="12.82601680070106"><ele>254.8</ele><time>2026-04-18T07:49:29.999Z</time></trkpt><trkpt lat="43.560462163838594" lon="12.826021791224832"><ele>255.0</ele><time>2026-04-18T07:49:31.999Z</time></trkpt><trkpt lat="43.56055671705367" lon="12.82606238277994"><ele>255.0</ele><time>2026-04-18T07:49:32.999Z</time></trkpt><trkpt lat="43.56066964642198" lon="12.826101828700388"><ele>255.0</ele><time>2026-04-18T07:49:33.999Z</time></trkpt><trkpt lat="43.56081511178172" lon="12.826137276369712"><ele>255.0</ele><time>2026-04-18T07:49:34.999Z</time></trkpt><trkpt lat="43.56096226874215" lon="12.82616331463858"><ele>255.0</ele><time>2026-04-18T07:49:35.999Z</time></trkpt><trkpt lat="43.56114150507912" lon="12.826186180180459"><ele>256.3333333333333</ele><time>2026-04-18T07:49:36.999Z</time></trkpt><trkpt lat="43.56133210735371" lon="12.826218736876358"><ele>257.66666666666663</ele><time>2026-04-18T07:49:37.999Z</time></trkpt><trkpt lat="43.5615295379383" lon="12.826261562574732"><ele>259.0</ele><time>2026-04-18T07:49:38.999Z</time></trkpt><trkpt lat="43.56171862614358" lon="12.826350109271699"><ele>259.0</ele><time>2026-04-18T07:49:39.999Z</time></trkpt><trkpt lat="43.56191899161594" lon="12.826417701481887"><ele>259.0</ele><time>2026-04-18T07:49:40.999Z</time></trkpt><trkpt lat="43.56228514939626" lon="12.826655502283913"><ele>258.0</ele><time>2026-04-18T07:49:42.999Z</time></trkpt><trkpt lat="43.56245655964701" lon="12.826788034303403"><ele>257.0</ele><time>2026-04-18T07:49:43.999Z</time></trkpt><trkpt lat="43.562622934848946" lon="12.826932556311148"><ele>256.0</ele><time>2026-04-18T07:49:44.999Z</time></trkpt><trkpt lat="43.562773527139996" lon="12.827091159573726"><ele>254.66666666666666</ele><time>2026-04-18T07:49:45.999Z</time></trkpt><trkpt lat="43.56292017720436" lon="12.827257363508528"><ele>253.33333333333331</ele><time>2026-04-18T07:49:46.999Z</time></trkpt><trkpt lat="43.56305166094245" lon="12.827444007226267"><ele>252.0</ele><time>2026-04-18T07:49:47.999Z</time></trkpt><trkpt lat="43.56320282334506" lon="12.82760265611643"><ele>251.33333333333331</ele><time>2026-04-18T07:49:48.999Z</time></trkpt><trkpt lat="43.56334507266881" lon="12.827779446030913"><ele>250.66666666666666</ele><time>2026-04-18T07:49:49.999Z</time></trkpt><trkpt lat="43.56349605135024" lon="12.827964707811583"><ele>250.0</ele><time>2026-04-18T07:49:50.999Z</time></trkpt><trkpt lat="43.56365089381371" lon="12.82816114369304"><ele>251.5</ele><time>2026-04-18T07:49:51.999Z</time></trkpt><trkpt lat="43.56381032985995" lon="12.828370040602058"><ele>253.0</ele><time>2026-04-18T07:49:52.999Z</time></trkpt><trkpt lat="43.563980687377104" lon="12.828589678970594"><ele>253.0</ele><time>2026-04-18T07:49:53.999Z</time></trkpt><trkpt lat="43.56415632323716" lon="12.828809444604646"><ele>253.0</ele><time>2026-04-18T07:49:54.999Z</time></trkpt><trkpt lat="43.564330895799685" lon="12.829025218158245"><ele>253.0</ele><time>2026-04-18T07:49:55.999Z</time></trkpt><trkpt lat="43.5645128940707" lon="12.829248269062642"><ele>253.0</ele><time>2026-04-18T07:49:56.999Z</time></trkpt><trkpt lat="43.56469786691848" lon="12.829479304589851"><ele>255.0</ele><time>2026-04-18T07:49:57.999Z</time></trkpt><trkpt lat="43.564883117957585" lon="12.829712967360981"><ele>257.0</ele><time>2026-04-18T07:49:58.999Z</time></trkpt><trkpt lat="43.565067808144406" lon="12.829947852445777"><ele>255.5</ele><time>2026-04-18T07:49:59.999Z</time></trkpt><trkpt lat="43.565252779834694" lon="12.830180730567227"><ele>254.0</ele><time>2026-04-18T07:50:00.999Z</time></trkpt><trkpt lat="43.5654413716844" lon="12.830414680109104"><ele>254.0</ele><time>2026-04-18T07:50:01.999Z</time></trkpt><trkpt lat="43.56562794402697" lon="12.830646062519815"><ele>254.0</ele><time>2026-04-18T07:50:02.999Z</time></trkpt><trkpt lat="43.56581294124162" lon="12.83087686877381"><ele>251.5</ele><time>2026-04-18T07:50:03.999Z</time></trkpt><trkpt lat="43.56599634950844" lon="12.831104744585803"><ele>249.0</ele><time>2026-04-18T07:50:04.999Z</time></trkpt><trkpt lat="43.566179691657474" lon="12.831332987288864"><ele>253.5</ele><time>2026-04-18T07:50:06Z</time></trkpt><trkpt lat="43.56636330126072" lon="12.831564500220313"><ele>258.0</ele><time>2026-04-18T07:50:07Z</time></trkpt><trkpt lat="43.56654670693113" lon="12.831793637239489"><ele>256.0</ele><time>2026-04-18T07:50:08Z</time></trkpt><trkpt lat="43.566727556540435" lon="12.832019209312476"><ele>254.0</ele><time>2026-04-18T07:50:09Z</time></trkpt><trkpt lat="43.56690927427557" lon="12.83224420630976"><ele>254.0</ele><time>2026-04-18T07:50:10Z</time></trkpt><trkpt lat="43.56708942351607" lon="12.832468897167274"><ele>254.0</ele><time>2026-04-18T07:50:11Z</time></trkpt><trkpt lat="43.56726930822425" lon="12.832692568621384"><ele>254.0</ele><time>2026-04-18T07:50:12Z</time></trkpt><trkpt lat="43.56744996268105" lon="12.832915476942297"><ele>254.0</ele><time>2026-04-18T07:50:13Z</time></trkpt><trkpt lat="43.56762545557725" lon="12.83313702542821"><ele>254.0</ele><time>2026-04-18T07:50:14Z</time></trkpt><trkpt lat="43.5677993961632" lon="12.833353168316231"><ele>254.0</ele><time>2026-04-18T07:50:15Z</time></trkpt><trkpt lat="43.56796989789549" lon="12.83356292244278"><ele>257.5</ele><time>2026-04-18T07:50:16Z</time></trkpt><trkpt lat="43.568146452372844" lon="12.833778499197445"><ele>261.0</ele><time>2026-04-18T07:50:17Z</time></trkpt><trkpt lat="43.56832178021269" lon="12.833994122723361"><ele>261.0</ele><time>2026-04-18T07:50:18Z</time></trkpt><trkpt lat="43.56849516516106" lon="12.834207901820259"><ele>261.0</ele><time>2026-04-18T07:50:19Z</time></trkpt><trkpt lat="43.56866519265564" lon="12.834420083461492"><ele>262.0</ele><time>2026-04-18T07:50:20Z</time></trkpt><trkpt lat="43.56882763964073" lon="12.834632073164665"><ele>263.0</ele><time>2026-04-18T07:50:21Z</time></trkpt><trkpt lat="43.568979159552214" lon="12.834853096614852"><ele>264.0</ele><time>2026-04-18T07:50:22Z</time></trkpt><trkpt lat="43.56911698781498" lon="12.835085904702899"><ele>263.0</ele><time>2026-04-18T07:50:23Z</time></trkpt><trkpt lat="43.56923732065531" lon="12.835329547978395"><ele>262.0</ele><time>2026-04-18T07:50:24Z</time></trkpt><trkpt lat="43.56935040287257" lon="12.835580318126004"><ele>261.0</ele><time>2026-04-18T07:50:25Z</time></trkpt><trkpt lat="43.56943930432247" lon="12.835829392754919"><ele>260.6666666666667</ele><time>2026-04-18T07:50:26Z</time></trkpt><trkpt lat="43.56948864378264" lon="12.836063567291557"><ele>260.33333333333337</ele><time>2026-04-18T07:50:27Z</time></trkpt><trkpt lat="43.569584358291145" lon="12.836321010524507"><ele>260.0</ele><time>2026-04-18T07:50:28Z</time></trkpt><trkpt lat="43.569634902172865" lon="12.836544424341032"><ele>260.0</ele><time>2026-04-18T07:50:29Z</time></trkpt><trkpt lat="43.56966585078348" lon="12.836750025973306"><ele>260.0</ele><time>2026-04-18T07:50:30Z</time></trkpt><trkpt lat="43.56968594401648" lon="12.836950250221097"><ele>260.0</ele><time>2026-04-18T07:50:31Z</time></trkpt><trkpt lat="43.569685033835455" lon="12.837135728717094"><ele>260.0</ele><time>2026-04-18T07:50:32Z</time></trkpt><trkpt lat="43.56971596411073" lon="12.83731944311509"><ele>259.33333333333337</ele><time>2026-04-18T07:50:33Z</time></trkpt><trkpt lat="43.56975410397207" lon="12.83752386768015"><ele>258.6666666666667</ele><time>2026-04-18T07:50:34Z</time></trkpt><trkpt lat="43.56979588279738" lon="12.837747796633284"><ele>258.0</ele><time>2026-04-18T07:50:35Z</time></trkpt><trkpt lat="43.56973874443246" lon="12.838002023199326"><ele>258.0</ele><time>2026-04-18T07:50:36Z</time></trkpt><trkpt lat="43.56971464999334" lon="12.838242592760743"><ele>258.0</ele><time>2026-04-18T07:50:36.999Z</time></trkpt><trkpt lat="43.56969047017311" lon="12.838485203015571"><ele>258.0</ele><time>2026-04-18T07:50:37.999Z</time></trkpt><trkpt lat="43.56966171900079" lon="12.838727066858402"><ele>258.6666666666667</ele><time>2026-04-18T07:50:38.999Z</time></trkpt><trkpt lat="43.569637499504466" lon="12.838973398623192"><ele>259.33333333333337</ele><time>2026-04-18T07:50:39.999Z</time></trkpt><trkpt lat="43.569610151322706" lon="12.839222049770434"><ele>260.0</ele><time>2026-04-18T07:50:40.999Z</time></trkpt><trkpt lat="43.56958575361956" lon="12.839474852368319"><ele>260.0</ele><time>2026-04-18T07:50:41.999Z</time></trkpt><trkpt lat="43.56956103146456" lon="12.839730580168007"><ele>260.0</ele><time>2026-04-18T07:50:42.999Z</time></trkpt><trkpt lat="43.56953699450684" lon="12.839989534175555"><ele>260.0</ele><time>2026-04-18T07:50:43.999Z</time></trkpt><trkpt lat="43.56951316823315" lon="12.840248709254189"><ele>256.6666666666667</ele><time>2026-04-18T07:50:44.999Z</time></trkpt><trkpt lat="43.569488085194834" lon="12.84050775399024"><ele>253.33333333333331</ele><time>2026-04-18T07:50:45.999Z</time></trkpt><trkpt lat="43.56946168534842" lon="12.84076855439849"><ele>250.0</ele><time>2026-04-18T07:50:46.999Z</time></trkpt><trkpt lat="43.56943365682943" lon="12.84103076016308"><ele>249.33333333333331</ele><time>2026-04-18T07:50:47.999Z</time></trkpt><trkpt lat="43.56940643951806" lon="12.841289207405616"><ele>248.66666666666669</ele><time>2026-04-18T07:50:48.999Z</time></trkpt><trkpt lat="43.56938032138348" lon="12.841552017470356"><ele>248.0</ele><time>2026-04-18T07:50:49.999Z</time></trkpt><trkpt lat="43.56935590797499" lon="12.841807829041889"><ele>247.66666666666669</ele><time>2026-04-18T07:50:50.999Z</time></trkpt><trkpt lat="43.569333734108525" lon="12.842060412011609"><ele>247.33333333333331</ele><time>2026-04-18T07:50:51.999Z</time></trkpt><trkpt lat="43.569315241087835" lon="12.842301399407663"><ele>247.0</ele><time>2026-04-18T07:50:52.999Z</time></trkpt><trkpt lat="43.56930361807649" lon="12.842520860616789"><ele>246.25</ele><time>2026-04-18T07:50:53.999Z</time></trkpt><trkpt lat="43.56929992957767" lon="12.84273199204774"><ele>245.5</ele><time>2026-04-18T07:50:54.999Z</time></trkpt><trkpt lat="43.56931000814688" lon="12.842923077020798"><ele>244.75</ele><time>2026-04-18T07:50:55.999Z</time></trkpt><trkpt lat="43.569331070935526" lon="12.84308915399023"><ele>244.0</ele><time>2026-04-18T07:50:56.999Z</time></trkpt><trkpt lat="43.56935840354156" lon="12.843243178295262"><ele>243.99999999999997</ele><time>2026-04-18T07:50:57.999Z</time></trkpt><trkpt lat="43.56938598765537" lon="12.843396859445713"><ele>244.0</ele><time>2026-04-18T07:50:58.999Z</time></trkpt><trkpt lat="43.569410614502004" lon="12.843540408561347"><ele>244.0</ele><time>2026-04-18T07:50:59.999Z</time></trkpt><trkpt lat="43.569428975902184" lon="12.843659494859246"><ele>244.0</ele><time>2026-04-18T07:51:00.999Z</time></trkpt><trkpt lat="43.56943803216134" lon="12.843757793289369"><ele>243.99999999999997</ele><time>2026-04-18T07:51:01.999Z</time></trkpt><trkpt lat="43.56942390327178" lon="12.843844690995693"><ele>244.0</ele><time>2026-04-18T07:51:02.999Z</time></trkpt><trkpt lat="43.56930631994402" lon="12.84390341629227"><ele>243.39999999999998</ele><time>2026-04-18T07:51:04.999Z</time></trkpt><trkpt lat="43.56920531684824" lon="12.843878662940373"><ele>242.79999999999998</ele><time>2026-04-18T07:51:05.999Z</time></trkpt><trkpt lat="43.56910018290328" lon="12.843860187422749"><ele>242.20000000000002</ele><time>2026-04-18T07:51:06.999Z</time></trkpt><trkpt lat="43.5689870177093" lon="12.843865003183296"><ele>241.60000000000002</ele><time>2026-04-18T07:51:07.999Z</time></trkpt><trkpt lat="43.56886849233707" lon="12.843912501284262"><ele>241.0</ele><time>2026-04-18T07:51:08.999Z</time></trkpt><trkpt lat="43.56875107163637" lon="12.843981217321781"><ele>240.5</ele><time>2026-04-18T07:51:09.999Z</time></trkpt><trkpt lat="43.568639283325595" lon="12.844056176136222"><ele>240.0</ele><time>2026-04-18T07:51:10.999Z</time></trkpt><trkpt lat="43.568523538380866" lon="12.84413210444084"><ele>239.5</ele><time>2026-04-18T07:51:11.999Z</time></trkpt><trkpt lat="43.56840978801484" lon="12.84421517048782"><ele>239.0</ele><time>2026-04-18T07:51:12.999Z</time></trkpt><trkpt lat="43.56829516560192" lon="12.844298514609514"><ele>238.5</ele><time>2026-04-18T07:51:13.999Z</time></trkpt><trkpt lat="43.56817039112729" lon="12.844369267740786"><ele>238.0</ele><time>2026-04-18T07:51:14.999Z</time></trkpt><trkpt lat="43.56803679229255" lon="12.844435363116467"><ele>237.5</ele><time>2026-04-18T07:51:15.999Z</time></trkpt><trkpt lat="43.56789966606079" lon="12.84451556447511"><ele>237.0</ele><time>2026-04-18T07:51:16.999Z</time></trkpt><trkpt lat="43.56775712155196" lon="12.84459865367173"><ele>238.33333333333331</ele><time>2026-04-18T07:51:17.999Z</time></trkpt><trkpt lat="43.567604544004034" lon="12.84464888109177"><ele>239.66666666666666</ele><time>2026-04-18T07:51:18.999Z</time></trkpt><trkpt lat="43.56743970727353" lon="12.84466657420091"><ele>241.0</ele><time>2026-04-18T07:51:19.999Z</time></trkpt><trkpt lat="43.56728024614501" lon="12.84465631245159"><ele>241.0</ele><time>2026-04-18T07:51:20.999Z</time></trkpt><trkpt lat="43.56711318756384" lon="12.844636138705638"><ele>241.0</ele><time>2026-04-18T07:51:21.999Z</time></trkpt><trkpt lat="43.566947410660035" lon="12.84461152903685"><ele>241.0</ele><time>2026-04-18T07:51:22.999Z</time></trkpt><trkpt lat="43.56677694888421" lon="12.844581576088077"><ele>242.33333333333331</ele><time>2026-04-18T07:51:23.999Z</time></trkpt><trkpt lat="43.56660953241139" lon="12.844540025809215"><ele>243.66666666666669</ele><time>2026-04-18T07:51:24.999Z</time></trkpt><trkpt lat="43.566441042232576" lon="12.844482956966111"><ele>245.0</ele><time>2026-04-18T07:51:25.999Z</time></trkpt><trkpt lat="43.56626446899552" lon="12.844416936934891"><ele>246.33333333333334</ele><time>2026-04-18T07:51:26.999Z</time></trkpt><trkpt lat="43.566094624773726" lon="12.844339693704466"><ele>247.66666666666669</ele><time>2026-04-18T07:51:27.999Z</time></trkpt><trkpt lat="43.56593126454737" lon="12.844250164725802"><ele>249.0</ele><time>2026-04-18T07:51:28.999Z</time></trkpt><trkpt lat="43.565770038959165" lon="12.844153206165458"><ele>249.0</ele><time>2026-04-18T07:51:29.999Z</time></trkpt><trkpt lat="43.565611186221844" lon="12.844048145706848"><ele>249.0</ele><time>2026-04-18T07:51:30.999Z</time></trkpt><trkpt lat="43.5654583675269" lon="12.843935261656089"><ele>249.0</ele><time>2026-04-18T07:51:31.999Z</time></trkpt><trkpt lat="43.5651647546418" lon="12.843688044552273"><ele>249.0</ele><time>2026-04-18T07:51:33.999Z</time></trkpt><trkpt lat="43.56502776458982" lon="12.843567647611959"><ele>249.0</ele><time>2026-04-18T07:51:34.999Z</time></trkpt><trkpt lat="43.56489823361898" lon="12.84345646115992"><ele>249.0</ele><time>2026-04-18T07:51:35.999Z</time></trkpt><trkpt lat="43.5647777912667" lon="12.843353191243523"><ele>249.0</ele><time>2026-04-18T07:51:36.999Z</time></trkpt><trkpt lat="43.5646638242119" lon="12.843253545251352"><ele>249.0</ele><time>2026-04-18T07:51:37.999Z</time></trkpt><trkpt lat="43.56456251664967" lon="12.843158525683155"><ele>249.0</ele><time>2026-04-18T07:51:38.999Z</time></trkpt><trkpt lat="43.56446698694013" lon="12.84306382610659"><ele>249.0</ele><time>2026-04-18T07:51:39.999Z</time></trkpt><trkpt lat="43.56438195870896" lon="12.842976177900207"><ele>250.39999999999998</ele><time>2026-04-18T07:51:40.999Z</time></trkpt><trkpt lat="43.56430945894786" lon="12.84289526751936"><ele>251.79999999999998</ele><time>2026-04-18T07:51:41.999Z</time></trkpt><trkpt lat="43.56424165616915" lon="12.842816639201077"><ele>253.20000000000002</ele><time>2026-04-18T07:51:42.999Z</time></trkpt><trkpt lat="43.56418635735067" lon="12.842745742306688"><ele>254.60000000000002</ele><time>2026-04-18T07:51:43.999Z</time></trkpt><trkpt lat="43.5641381032048" lon="12.842679838987268"><ele>256.0</ele><time>2026-04-18T07:51:44.999Z</time></trkpt><trkpt lat="43.56406105513159" lon="12.842853413435922"><ele>256.0</ele><time>2026-04-18T07:51:48.999Z</time></trkpt><trkpt lat="43.56409182097958" lon="12.842965503760599"><ele>256.0</ele><time>2026-04-18T07:51:49.999Z</time></trkpt><trkpt lat="43.564127051243084" lon="12.843095407939133"><ele>256.0</ele><time>2026-04-18T07:51:50.999Z</time></trkpt><trkpt lat="43.56417807976136" lon="12.843235926243928"><ele>256.0</ele><time>2026-04-18T07:51:51.999Z</time></trkpt><trkpt lat="43.56424616985287" lon="12.843388550101595"><ele>256.0</ele><time>2026-04-18T07:51:52.999Z</time></trkpt><trkpt lat="43.564336111185874" lon="12.843527964253049"><ele>255.33333333333331</ele><time>2026-04-18T07:51:53.999Z</time></trkpt><trkpt lat="43.5644496131114" lon="12.843666119844773"><ele>254.66666666666669</ele><time>2026-04-18T07:51:54.999Z</time></trkpt><trkpt lat="43.56458278209225" lon="12.843783442221987"><ele>254.0</ele><time>2026-04-18T07:51:55.999Z</time></trkpt><trkpt lat="43.56471652894169" lon="12.843878751446733"><ele>254.0</ele><time>2026-04-18T07:51:56.999Z</time></trkpt><trkpt lat="43.56484404015243" lon="12.843986677335394"><ele>254.0</ele><time>2026-04-18T07:51:57.999Z</time></trkpt><trkpt lat="43.56495915055529" lon="12.844111940845394"><ele>254.0</ele><time>2026-04-18T07:51:58.999Z</time></trkpt><trkpt lat="43.56504932762583" lon="12.844268099166971"><ele>254.0</ele><time>2026-04-18T07:51:59.999Z</time></trkpt><trkpt lat="43.56509078973057" lon="12.844473164526343"><ele>255.0</ele><time>2026-04-18T07:52:00.999Z</time></trkpt><trkpt lat="43.56510124347905" lon="12.844699311793374"><ele>256.0</ele><time>2026-04-18T07:52:01.999Z</time></trkpt><trkpt lat="43.565079962036734" lon="12.844943168923123"><ele>257.0</ele><time>2026-04-18T07:52:02.999Z</time></trkpt><trkpt lat="43.565056891353635" lon="12.845188627293355"><ele>257.0</ele><time>2026-04-18T07:52:03.999Z</time></trkpt><trkpt lat="43.565007322969144" lon="12.845431151084584"><ele>257.0</ele><time>2026-04-18T07:52:04.999Z</time></trkpt><trkpt lat="43.56494074611106" lon="12.845675249867469"><ele>257.0</ele><time>2026-04-18T07:52:05.999Z</time></trkpt><trkpt lat="43.56487842946795" lon="12.845933933098188"><ele>257.33333333333337</ele><time>2026-04-18T07:52:06.999Z</time></trkpt><trkpt lat="43.56482728426159" lon="12.84620332701196"><ele>257.6666666666667</ele><time>2026-04-18T07:52:07.999Z</time></trkpt><trkpt lat="43.56478941306694" lon="12.846476614772588"><ele>258.0</ele><time>2026-04-18T07:52:08.999Z</time></trkpt><trkpt lat="43.56475325051039" lon="12.846749621172153"><ele>257.0</ele><time>2026-04-18T07:52:09.999Z</time></trkpt><trkpt lat="43.56471910302031" lon="12.847026873799368"><ele>256.0</ele><time>2026-04-18T07:52:10.999Z</time></trkpt><trkpt lat="43.564687832074654" lon="12.84729957112189"><ele>255.0</ele><time>2026-04-18T07:52:12Z</time></trkpt><trkpt lat="43.564664930158116" lon="12.847581495699952"><ele>255.66666666666669</ele><time>2026-04-18T07:52:13Z</time></trkpt><trkpt lat="43.56465259270765" lon="12.847850816094333"><ele>256.33333333333337</ele><time>2026-04-18T07:52:14Z</time></trkpt><trkpt lat="43.56463913978891" lon="12.848104529366816"><ele>257.0</ele><time>2026-04-18T07:52:15Z</time></trkpt><trkpt lat="43.5646269459489" lon="12.848329682390343"><ele>259.25</ele><time>2026-04-18T07:52:16Z</time></trkpt><trkpt lat="43.564589980660045" lon="12.848521108558302"><ele>261.5</ele><time>2026-04-18T07:52:17Z</time></trkpt><trkpt lat="43.564503186631164" lon="12.848668686338183"><ele>263.75</ele><time>2026-04-18T07:52:18Z</time></trkpt><trkpt lat="43.56437886168942" lon="12.848801067909822"><ele>266.0</ele><time>2026-04-18T07:52:19Z</time></trkpt><trkpt lat="43.564212571607484" lon="12.848850376290658"><ele>267.0</ele><time>2026-04-18T07:52:20Z</time></trkpt><trkpt lat="43.564043865795405" lon="12.848921773489883"><ele>268.0</ele><time>2026-04-18T07:52:21Z</time></trkpt><trkpt lat="43.56384966961838" lon="12.84896741336503"><ele>269.0</ele><time>2026-04-18T07:52:22Z</time></trkpt><trkpt lat="43.56365539500631" lon="12.849061421220156"><ele>269.33333333333337</ele><time>2026-04-18T07:52:23Z</time></trkpt><trkpt lat="43.563462161044264" lon="12.84918332558806"><ele>269.6666666666667</ele><time>2026-04-18T07:52:24Z</time></trkpt><trkpt lat="43.563265588431555" lon="12.84931222064098"><ele>270.0</ele><time>2026-04-18T07:52:25Z</time></trkpt><trkpt lat="43.5630628186976" lon="12.849438627733559"><ele>272.3333333333333</ele><time>2026-04-18T07:52:26Z</time></trkpt><trkpt lat="43.562867260010144" lon="12.849548908478916"><ele>274.66666666666663</ele><time>2026-04-18T07:52:27Z</time></trkpt><trkpt lat="43.5626786040438" lon="12.849652480791299"><ele>277.0</ele><time>2026-04-18T07:52:28Z</time></trkpt><trkpt lat="43.56249158608489" lon="12.849753687748331"><ele>277.0</ele><time>2026-04-18T07:52:29Z</time></trkpt><trkpt lat="43.56231310289912" lon="12.849850920623734"><ele>277.0</ele><time>2026-04-18T07:52:29.999Z</time></trkpt><trkpt lat="43.56214701599806" lon="12.84994999112733"><ele>277.0</ele><time>2026-04-18T07:52:30.999Z</time></trkpt><trkpt lat="43.56199248248903" lon="12.850084498351595"><ele>277.0</ele><time>2026-04-18T07:52:31.999Z</time></trkpt><trkpt lat="43.56185829721091" lon="12.850271895385733"><ele>277.0</ele><time>2026-04-18T07:52:32.999Z</time></trkpt><trkpt lat="43.56174397999119" lon="12.85047796549741"><ele>277.0</ele><time>2026-04-18T07:52:33.999Z</time></trkpt><trkpt lat="43.56161415306791" lon="12.850643791888203"><ele>277.0</ele><time>2026-04-18T07:52:34.999Z</time></trkpt><trkpt lat="43.56145256893908" lon="12.85072650757278"><ele>277.0</ele><time>2026-04-18T07:52:35.999Z</time></trkpt><trkpt lat="43.56127368865197" lon="12.850710401688888"><ele>277.0</ele><time>2026-04-18T07:52:36.999Z</time></trkpt><trkpt lat="43.56108881404425" lon="12.850697393405985"><ele>277.0</ele><time>2026-04-18T07:52:37.999Z</time></trkpt><trkpt lat="43.56091331627514" lon="12.850692693548346"><ele>277.0</ele><time>2026-04-18T07:52:38.999Z</time></trkpt><trkpt lat="43.560750323537604" lon="12.850739443155527"><ele>277.0</ele><time>2026-04-18T07:52:39.999Z</time></trkpt><trkpt lat="43.56061943888565" lon="12.850879449875634"><ele>278.0</ele><time>2026-04-18T07:52:40.999Z</time></trkpt><trkpt lat="43.560468396601" lon="12.851044585703116"><ele>279.0</ele><time>2026-04-18T07:52:41.999Z</time></trkpt><trkpt lat="43.56034537036564" lon="12.85123918893484"><ele>280.0</ele><time>2026-04-18T07:52:42.999Z</time></trkpt><trkpt lat="43.56024227021415" lon="12.851450430685842"><ele>280.0</ele><time>2026-04-18T07:52:43.999Z</time></trkpt><trkpt lat="43.5601924106721" lon="12.851691432157654"><ele>280.0</ele><time>2026-04-18T07:52:44.999Z</time></trkpt><trkpt lat="43.56013621230261" lon="12.851942415984748"><ele>280.0</ele><time>2026-04-18T07:52:45.999Z</time></trkpt><trkpt lat="43.56009606947272" lon="12.852212781928296"><ele>280.66666666666663</ele><time>2026-04-18T07:52:46.999Z</time></trkpt><trkpt lat="43.56016659496528" lon="12.852511848406198"><ele>281.3333333333333</ele><time>2026-04-18T07:52:47.999Z</time></trkpt><trkpt lat="43.560158055824786" lon="12.852783863484552"><ele>282.0</ele><time>2026-04-18T07:52:48.999Z</time></trkpt><trkpt lat="43.560160294663504" lon="12.8530505945571"><ele>283.0</ele><time>2026-04-18T07:52:49.999Z</time></trkpt><trkpt lat="43.56019000236594" lon="12.85330464410578"><ele>284.0</ele><time>2026-04-18T07:52:50.999Z</time></trkpt><trkpt lat="43.560239993658634" lon="12.853558841330754"><ele>285.0</ele><time>2026-04-18T07:52:51.999Z</time></trkpt><trkpt lat="43.56028751284061" lon="12.853818962804045"><ele>286.6666666666667</ele><time>2026-04-18T07:52:52.999Z</time></trkpt><trkpt lat="43.56029247154755" lon="12.854075922598662"><ele>288.33333333333337</ele><time>2026-04-18T07:52:53.999Z</time></trkpt><trkpt lat="43.5602934476422" lon="12.854339661279438"><ele>290.0</ele><time>2026-04-18T07:52:54.999Z</time></trkpt><trkpt lat="43.56029234037078" lon="12.85460074515943"><ele>292.33333333333337</ele><time>2026-04-18T07:52:55.999Z</time></trkpt><trkpt lat="43.560308954760686" lon="12.85485759606971"><ele>294.6666666666667</ele><time>2026-04-18T07:52:56.999Z</time></trkpt><trkpt lat="43.56030746301894" lon="12.855110291467714"><ele>297.0</ele><time>2026-04-18T07:52:57.999Z</time></trkpt><trkpt lat="43.56027775310631" lon="12.855364548289955"><ele>298.3333333333333</ele><time>2026-04-18T07:52:58.999Z</time></trkpt><trkpt lat="43.56028689685349" lon="12.855628828702233"><ele>299.66666666666663</ele><time>2026-04-18T07:52:59.999Z</time></trkpt><trkpt lat="43.56029720174679" lon="12.855893793762348"><ele>301.0</ele><time>2026-04-18T07:53:00.999Z</time></trkpt><trkpt lat="43.56032435334508" lon="12.856162496113239"><ele>301.66666666666663</ele><time>2026-04-18T07:53:01.999Z</time></trkpt><trkpt lat="43.56033203075414" lon="12.856427994145408"><ele>302.3333333333333</ele><time>2026-04-18T07:53:02.999Z</time></trkpt><trkpt lat="43.56035259007032" lon="12.856684872129689"><ele>303.0</ele><time>2026-04-18T07:53:03.999Z</time></trkpt><trkpt lat="43.56038787349189" lon="12.856917962307653"><ele>308.25</ele><time>2026-04-18T07:53:04.999Z</time></trkpt><trkpt lat="43.56040137355101" lon="12.857125927446047"><ele>313.5</ele><time>2026-04-18T07:53:05.999Z</time></trkpt><trkpt lat="43.56041244626485" lon="12.857302523722344"><ele>318.75</ele><time>2026-04-18T07:53:06.999Z</time></trkpt><trkpt lat="43.56042374309362" lon="12.857463211824447"><ele>324.0</ele><time>2026-04-18T07:53:07.999Z</time></trkpt><trkpt lat="43.560431892922914" lon="12.85760573711911"><ele>323.79999999999995</ele><time>2026-04-18T07:53:08.999Z</time></trkpt><trkpt lat="43.56040235299708" lon="12.857735141804783"><ele>323.59999999999997</ele><time>2026-04-18T07:53:09.999Z</time></trkpt><trkpt lat="43.560333885564596" lon="12.857831032327748"><ele>323.4</ele><time>2026-04-18T07:53:10.999Z</time></trkpt><trkpt lat="43.56022456905223" lon="12.857874305364527"><ele>323.2</ele><time>2026-04-18T07:53:11.999Z</time></trkpt><trkpt lat="43.5601014200849" lon="12.857870633445893"><ele>323.0</ele><time>2026-04-18T07:53:12.999Z</time></trkpt><trkpt lat="43.55998911576252" lon="12.857809122947328"><ele>322.75</ele><time>2026-04-18T07:53:13.999Z</time></trkpt><trkpt lat="43.55991287792553" lon="12.857704880580261"><ele>322.5</ele><time>2026-04-18T07:53:14.999Z</time></trkpt><trkpt lat="43.5598575409214" lon="12.857597863878745"><ele>322.25</ele><time>2026-04-18T07:53:15.999Z</time></trkpt><trkpt lat="43.55970147940464" lon="12.857423561933158"><ele>322.0</ele><time>2026-04-18T07:53:16.999Z</time></trkpt><trkpt lat="43.559577224607125" lon="12.857321442815794"><ele>321.75</ele><time>2026-04-18T07:53:17.999Z</time></trkpt><trkpt lat="43.55945352214042" lon="12.85730239538912"><ele>321.5</ele><time>2026-04-18T07:53:18.999Z</time></trkpt><trkpt lat="43.55933690064006" lon="12.857376711592977"><ele>321.25</ele><time>2026-04-18T07:53:19.999Z</time></trkpt><trkpt lat="43.559245173259214" lon="12.857512725308894"><ele>321.0</ele><time>2026-04-18T07:53:20.999Z</time></trkpt><trkpt lat="43.559189496415016" lon="12.85771299683697"><ele>321.0</ele><time>2026-04-18T07:53:21.999Z</time></trkpt><trkpt lat="43.559141684861046" lon="12.857933583707803"><ele>321.0</ele><time>2026-04-18T07:53:22.999Z</time></trkpt><trkpt lat="43.55908784169735" lon="12.858171007620445"><ele>321.0</ele><time>2026-04-18T07:53:23.999Z</time></trkpt><trkpt lat="43.55901849657566" lon="12.858419427869462"><ele>323.3333333333333</ele><time>2026-04-18T07:53:24.999Z</time></trkpt><trkpt lat="43.55893961797045" lon="12.858676569927455"><ele>325.66666666666663</ele><time>2026-04-18T07:53:25.999Z</time></trkpt><trkpt lat="43.55885627719286" lon="12.858952139280905"><ele>328.0</ele><time>2026-04-18T07:53:26.999Z</time></trkpt><trkpt lat="43.558770778924476" lon="12.859236477869947"><ele>328.0</ele><time>2026-04-18T07:53:27.999Z</time></trkpt><trkpt lat="43.558685759515804" lon="12.859513885899865"><ele>328.0</ele><time>2026-04-18T07:53:28.999Z</time></trkpt><trkpt lat="43.55859967128523" lon="12.859786343414225"><ele>328.0</ele><time>2026-04-18T07:53:29.999Z</time></trkpt><trkpt lat="43.558515917404" lon="12.860044231520696"><ele>330.0</ele><time>2026-04-18T07:53:30.999Z</time></trkpt><trkpt lat="43.55843190470506" lon="12.860302818766533"><ele>332.0</ele><time>2026-04-18T07:53:31.999Z</time></trkpt><trkpt lat="43.55835407537059" lon="12.860545339885993"><ele>334.0</ele><time>2026-04-18T07:53:32.999Z</time></trkpt><trkpt lat="43.55827783371788" lon="12.860771969322391"><ele>337.0</ele><time>2026-04-18T07:53:33.999Z</time></trkpt><trkpt lat="43.5582090236335" lon="12.860988966519159"><ele>340.0</ele><time>2026-04-18T07:53:34.999Z</time></trkpt><trkpt lat="43.55815088310573" lon="12.861192790190561"><ele>343.0</ele><time>2026-04-18T07:53:35.999Z</time></trkpt><trkpt lat="43.5581135513287" lon="12.861409844335894"><ele>343.0</ele><time>2026-04-18T07:53:36.999Z</time></trkpt><trkpt lat="43.55810635207214" lon="12.861640482421032"><ele>343.0</ele><time>2026-04-18T07:53:37.999Z</time></trkpt><trkpt lat="43.55809017742872" lon="12.86188747121732"><ele>343.0</ele><time>2026-04-18T07:53:38.999Z</time></trkpt><trkpt lat="43.55808065655015" lon="12.862140305360683"><ele>346.0</ele><time>2026-04-18T07:53:39.999Z</time></trkpt><trkpt lat="43.55807290981329" lon="12.862389203569927"><ele>349.0</ele><time>2026-04-18T07:53:40.999Z</time></trkpt><trkpt lat="43.55806396116273" lon="12.862647465028155"><ele>352.0</ele><time>2026-04-18T07:53:41.999Z</time></trkpt><trkpt lat="43.55805325545154" lon="12.86289184636854"><ele>353.66666666666663</ele><time>2026-04-18T07:53:42.999Z</time></trkpt><trkpt lat="43.55805577979102" lon="12.863144931943616"><ele>355.3333333333333</ele><time>2026-04-18T07:53:43.999Z</time></trkpt><trkpt lat="43.55803625956053" lon="12.863399057393648"><ele>357.0</ele><time>2026-04-18T07:53:44.999Z</time></trkpt><trkpt lat="43.558014668717945" lon="12.863638712491236"><ele>359.0</ele><time>2026-04-18T07:53:45.999Z</time></trkpt><trkpt lat="43.55799991867658" lon="12.863862360695212"><ele>361.0</ele><time>2026-04-18T07:53:46.999Z</time></trkpt><trkpt lat="43.557985359617916" lon="12.864092979108237"><ele>363.0</ele><time>2026-04-18T07:53:47.999Z</time></trkpt><trkpt lat="43.55794456193463" lon="12.864319145937017"><ele>361.6666666666667</ele><time>2026-04-18T07:53:48.999Z</time></trkpt><trkpt lat="43.55784485583823" lon="12.86453367668114"><ele>360.33333333333337</ele><time>2026-04-18T07:53:49.999Z</time></trkpt><trkpt lat="43.55775024369674" lon="12.864761717632009"><ele>359.0</ele><time>2026-04-18T07:53:50.999Z</time></trkpt><trkpt lat="43.55762840074735" lon="12.864961879828757"><ele>362.33333333333337</ele><time>2026-04-18T07:53:51.999Z</time></trkpt><trkpt lat="43.55751846528266" lon="12.865168881694373"><ele>365.6666666666667</ele><time>2026-04-18T07:53:52.999Z</time></trkpt><trkpt lat="43.557417494656875" lon="12.865388634796915"><ele>369.0</ele><time>2026-04-18T07:53:53.999Z</time></trkpt><trkpt lat="43.55731870155304" lon="12.865618844259137"><ele>369.0</ele><time>2026-04-18T07:53:54.999Z</time></trkpt><trkpt lat="43.55722070602842" lon="12.865851639269057"><ele>369.0</ele><time>2026-04-18T07:53:55.999Z</time></trkpt><trkpt lat="43.557121268739586" lon="12.86608101727589"><ele>369.0</ele><time>2026-04-18T07:53:56.999Z</time></trkpt><trkpt lat="43.55702178189046" lon="12.86630190515718"><ele>369.3333333333333</ele><time>2026-04-18T07:53:57.999Z</time></trkpt><trkpt lat="43.55692555893609" lon="12.866516860968213"><ele>369.66666666666663</ele><time>2026-04-18T07:53:58.999Z</time></trkpt><trkpt lat="43.556841683098845" lon="12.866730934076672"><ele>370.0</ele><time>2026-04-18T07:53:59.999Z</time></trkpt><trkpt lat="43.55677242163954" lon="12.866951375472565"><ele>373.0</ele><time>2026-04-18T07:54:00.999Z</time></trkpt><trkpt lat="43.55671792182171" lon="12.867182826463598"><ele>376.0</ele><time>2026-04-18T07:54:01.999Z</time></trkpt><trkpt lat="43.55667761241359" lon="12.86742008544716"><ele>379.0</ele><time>2026-04-18T07:54:02.999Z</time></trkpt><trkpt lat="43.556633251950956" lon="12.867658972794718"><ele>381.3333333333333</ele><time>2026-04-18T07:54:03.999Z</time></trkpt><trkpt lat="43.55659932062411" lon="12.867892015799786"><ele>383.66666666666663</ele><time>2026-04-18T07:54:04.999Z</time></trkpt><trkpt lat="43.5565795371442" lon="12.868130793863788"><ele>386.0</ele><time>2026-04-18T07:54:05.999Z</time></trkpt><trkpt lat="43.556585572445584" lon="12.868372056863254"><ele>386.66666666666663</ele><time>2026-04-18T07:54:06.999Z</time></trkpt><trkpt lat="43.556603710330464" lon="12.868618554441895"><ele>387.33333333333337</ele><time>2026-04-18T07:54:07.999Z</time></trkpt><trkpt lat="43.55659557028803" lon="12.868866690274706"><ele>388.0</ele><time>2026-04-18T07:54:08.999Z</time></trkpt><trkpt lat="43.55658183456507" lon="12.869105692429585"><ele>389.0</ele><time>2026-04-18T07:54:09.999Z</time></trkpt><trkpt lat="43.556571449882576" lon="12.869329362664637"><ele>390.0</ele><time>2026-04-18T07:54:10.999Z</time></trkpt><trkpt lat="43.55660127936614" lon="12.869548630653483"><ele>391.0</ele><time>2026-04-18T07:54:11.999Z</time></trkpt><trkpt lat="43.55666008190948" lon="12.869733663570972"><ele>391.0</ele><time>2026-04-18T07:54:12.999Z</time></trkpt><trkpt lat="43.55669747410062" lon="12.869926962761337"><ele>391.0</ele><time>2026-04-18T07:54:13.999Z</time></trkpt><trkpt lat="43.55672138423496" lon="12.870126371567038"><ele>391.0</ele><time>2026-04-18T07:54:14.999Z</time></trkpt><trkpt lat="43.55671972283662" lon="12.870336884609047"><ele>391.0</ele><time>2026-04-18T07:54:15.999Z</time></trkpt><trkpt lat="43.5566492853129" lon="12.870551756264302"><ele>391.0</ele><time>2026-04-18T07:54:16.999Z</time></trkpt><trkpt lat="43.55654389836621" lon="12.870732105812632"><ele>391.0</ele><time>2026-04-18T07:54:17.999Z</time></trkpt><trkpt lat="43.55644013642357" lon="12.870899404592222"><ele>391.0</ele><time>2026-04-18T07:54:18.999Z</time></trkpt><trkpt lat="43.55633590258364" lon="12.871064371125577"><ele>393.6666666666667</ele><time>2026-04-18T07:54:19.999Z</time></trkpt><trkpt lat="43.55626617141017" lon="12.8712767375521"><ele>396.33333333333337</ele><time>2026-04-18T07:54:20.999Z</time></trkpt><trkpt lat="43.55624021344956" lon="12.87153027115141"><ele>399.0</ele><time>2026-04-18T07:54:21.999Z</time></trkpt><trkpt lat="43.55623294657738" lon="12.871785093269931"><ele>399.0</ele><time>2026-04-18T07:54:22.999Z</time></trkpt><trkpt lat="43.55619880770678" lon="12.8720263058962"><ele>399.0</ele><time>2026-04-18T07:54:23.999Z</time></trkpt><trkpt lat="43.55613454416847" lon="12.872230637735488"><ele>399.0</ele><time>2026-04-18T07:54:24.999Z</time></trkpt><trkpt lat="43.55604329505194" lon="12.872403258160329"><ele>399.0</ele><time>2026-04-18T07:54:25.999Z</time></trkpt><trkpt lat="43.55591457788997" lon="12.872493271504657"><ele>399.0</ele><time>2026-04-18T07:54:26.999Z</time></trkpt><trkpt lat="43.55576966540107" lon="12.8725502111591"><ele>399.0</ele><time>2026-04-18T07:54:27.999Z</time></trkpt><trkpt lat="43.55560918980019" lon="12.872615373965804"><ele>402.33333333333337</ele><time>2026-04-18T07:54:28.999Z</time></trkpt><trkpt lat="43.55546595339177" lon="12.87274657397191"><ele>405.6666666666667</ele><time>2026-04-18T07:54:29.999Z</time></trkpt><trkpt lat="43.555329601698716" lon="12.872922967507348"><ele>409.0</ele><time>2026-04-18T07:54:30.999Z</time></trkpt><trkpt lat="43.555168728366894" lon="12.873078614166058"><ele>409.0</ele><time>2026-04-18T07:54:31.999Z</time></trkpt><trkpt lat="43.55500406924231" lon="12.873202883038195"><ele>409.0</ele><time>2026-04-18T07:54:32.999Z</time></trkpt><trkpt lat="43.55483946847871" lon="12.87331166305386"><ele>409.0</ele><time>2026-04-18T07:54:33.999Z</time></trkpt><trkpt lat="43.554688486354706" lon="12.873423343240844"><ele>411.0</ele><time>2026-04-18T07:54:34.999Z</time></trkpt><trkpt lat="43.55454704927745" lon="12.873540512037216"><ele>413.0</ele><time>2026-04-18T07:54:35.999Z</time></trkpt><trkpt lat="43.55440738556763" lon="12.873641811125763"><ele>415.0</ele><time>2026-04-18T07:54:36.999Z</time></trkpt><trkpt lat="43.554286601658035" lon="12.873747403813214"><ele>416.33333333333337</ele><time>2026-04-18T07:54:37.999Z</time></trkpt><trkpt lat="43.554187326455285" lon="12.87390162728861"><ele>417.66666666666663</ele><time>2026-04-18T07:54:38.999Z</time></trkpt><trkpt lat="43.554098105786395" lon="12.874082342932889"><ele>419.0</ele><time>2026-04-18T07:54:39.999Z</time></trkpt><trkpt lat="43.55403013983068" lon="12.874265827462718"><ele>417.25</ele><time>2026-04-18T07:54:40.999Z</time></trkpt><trkpt lat="43.553966667280015" lon="12.874440018991828"><ele>415.5</ele><time>2026-04-18T07:54:41.999Z</time></trkpt><trkpt lat="43.553900128043" lon="12.874608333369823"><ele>413.75</ele><time>2026-04-18T07:54:42.999Z</time></trkpt><trkpt lat="43.55383114145965" lon="12.874780349648086"><ele>412.0</ele><time>2026-04-18T07:54:43.999Z</time></trkpt><trkpt lat="43.55374616788352" lon="12.874941415107116"><ele>409.75</ele><time>2026-04-18T07:54:44.999Z</time></trkpt><trkpt lat="43.553643008251704" lon="12.875081837055157"><ele>407.5</ele><time>2026-04-18T07:54:45.999Z</time></trkpt><trkpt lat="43.553523825511526" lon="12.875197579974902"><ele>405.25</ele><time>2026-04-18T07:54:46.999Z</time></trkpt><trkpt lat="43.55338323595618" lon="12.875276620044518"><ele>403.0</ele><time>2026-04-18T07:54:47.999Z</time></trkpt><trkpt lat="43.55322124878581" lon="12.875310853701865"><ele>403.0</ele><time>2026-04-18T07:54:48.999Z</time></trkpt><trkpt lat="43.55307709137305" lon="12.875348014424358"><ele>403.0</ele><time>2026-04-18T07:54:49.999Z</time></trkpt><trkpt lat="43.55292210991238" lon="12.875406448962103"><ele>403.0</ele><time>2026-04-18T07:54:50.999Z</time></trkpt><trkpt lat="43.552765103653236" lon="12.875481930649059"><ele>408.33333333333337</ele><time>2026-04-18T07:54:51.999Z</time></trkpt><trkpt lat="43.552628194000604" lon="12.875596785650302"><ele>413.66666666666663</ele><time>2026-04-18T07:54:52.999Z</time></trkpt><trkpt lat="43.5525120837305" lon="12.875718437275719"><ele>419.0</ele><time>2026-04-18T07:54:53.999Z</time></trkpt><trkpt lat="43.55239627655572" lon="12.875840784150384"><ele>419.0</ele><time>2026-04-18T07:54:54.999Z</time></trkpt><trkpt lat="43.55226817318625" lon="12.875929835593631"><ele>419.0</ele><time>2026-04-18T07:54:55.999Z</time></trkpt><trkpt lat="43.55212564553193" lon="12.87592716501147"><ele>419.0</ele><time>2026-04-18T07:54:56.999Z</time></trkpt><trkpt lat="43.55199387775764" lon="12.875949907082099"><ele>419.0</ele><time>2026-04-18T07:54:57.999Z</time></trkpt><trkpt lat="43.551867068512514" lon="12.875943949367336"><ele>414.5</ele><time>2026-04-18T07:54:58.999Z</time></trkpt><trkpt lat="43.55174103795536" lon="12.875956957888786"><ele>410.0</ele><time>2026-04-18T07:54:59.999Z</time></trkpt><trkpt lat="43.551624357763" lon="12.87598068677669"><ele>405.5</ele><time>2026-04-18T07:55:00.999Z</time></trkpt><trkpt lat="43.55150819906009" lon="12.876000461764248"><ele>401.0</ele><time>2026-04-18T07:55:01.999Z</time></trkpt><trkpt lat="43.55139945231033" lon="12.876024751405264"><ele>401.0</ele><time>2026-04-18T07:55:02.999Z</time></trkpt><trkpt lat="43.55128401490058" lon="12.876044292861177"><ele>401.0</ele><time>2026-04-18T07:55:03.999Z</time></trkpt><trkpt lat="43.55116635490416" lon="12.876049287082346"><ele>401.0</ele><time>2026-04-18T07:55:04.999Z</time></trkpt><trkpt lat="43.55103981411559" lon="12.87605150653433"><ele>401.0</ele><time>2026-04-18T07:55:05.999Z</time></trkpt><trkpt lat="43.550913578338076" lon="12.876034992229268"><ele>400.75</ele><time>2026-04-18T07:55:06.999Z</time></trkpt><trkpt lat="43.55078174600068" lon="12.876020084920894"><ele>400.5</ele><time>2026-04-18T07:55:07.999Z</time></trkpt><trkpt lat="43.55065014431031" lon="12.875994766495468"><ele>400.25</ele><time>2026-04-18T07:55:08.999Z</time></trkpt><trkpt lat="43.550527138692914" lon="12.875946735078186"><ele>400.0</ele><time>2026-04-18T07:55:09.999Z</time></trkpt><trkpt lat="43.550408110941895" lon="12.875866101636467"><ele>400.75</ele><time>2026-04-18T07:55:10.999Z</time></trkpt><trkpt lat="43.55028893081383" lon="12.875772638088808"><ele>401.5</ele><time>2026-04-18T07:55:11.999Z</time></trkpt><trkpt lat="43.550161896918716" lon="12.87567594465274"><ele>402.25</ele><time>2026-04-18T07:55:12.999Z</time></trkpt><trkpt lat="43.55003652958179" lon="12.875581558629197"><ele>403.0</ele><time>2026-04-18T07:55:13.999Z</time></trkpt><trkpt lat="43.54990007025956" lon="12.8754849828491"><ele>403.0</ele><time>2026-04-18T07:55:14.999Z</time></trkpt><trkpt lat="43.54976342175987" lon="12.875389800129218"><ele>403.0</ele><time>2026-04-18T07:55:15.999Z</time></trkpt><trkpt lat="43.54962477457708" lon="12.875302699126983"><ele>403.0</ele><time>2026-04-18T07:55:16.999Z</time></trkpt><trkpt lat="43.54947965232789" lon="12.875212426708144"><ele>402.33333333333337</ele><time>2026-04-18T07:55:17.999Z</time></trkpt><trkpt lat="43.549328252236734" lon="12.87512396848766"><ele>401.66666666666663</ele><time>2026-04-18T07:55:18.999Z</time></trkpt><trkpt lat="43.54918192675181" lon="12.875030125260139"><ele>401.0</ele><time>2026-04-18T07:55:19.999Z</time></trkpt><trkpt lat="43.54903270092046" lon="12.874938491893726"><ele>401.0</ele><time>2026-04-18T07:55:20.999Z</time></trkpt><trkpt lat="43.5488867328748" lon="12.874840758407428"><ele>401.0</ele><time>2026-04-18T07:55:21.999Z</time></trkpt><trkpt lat="43.54874771111122" lon="12.874741901276787"><ele>401.0</ele><time>2026-04-18T07:55:22.999Z</time></trkpt><trkpt lat="43.54861335869645" lon="12.874655229839377"><ele>397.8</ele><time>2026-04-18T07:55:23.999Z</time></trkpt><trkpt lat="43.54849676913471" lon="12.874576328402695"><ele>394.6</ele><time>2026-04-18T07:55:24.999Z</time></trkpt><trkpt lat="43.54840329890743" lon="12.874501513852652"><ele>391.4</ele><time>2026-04-18T07:55:25.999Z</time></trkpt><trkpt lat="43.54832910597017" lon="12.874457108109741"><ele>388.2</ele><time>2026-04-18T07:55:26.999Z</time></trkpt><trkpt lat="43.54825507434828" lon="12.874483431707837"><ele>385.0</ele><time>2026-04-18T07:55:27.999Z</time></trkpt><trkpt lat="43.54820424602863" lon="12.874581942486648"><ele>385.0</ele><time>2026-04-18T07:55:28.999Z</time></trkpt><trkpt lat="43.54818968329114" lon="12.874727230117468"><ele>385.0</ele><time>2026-04-18T07:55:29.999Z</time></trkpt><trkpt lat="43.54822825031378" lon="12.874879532563709"><ele>385.0</ele><time>2026-04-18T07:55:30.999Z</time></trkpt><trkpt lat="43.54830400461508" lon="12.875023017765086"><ele>385.0</ele><time>2026-04-18T07:55:31.999Z</time></trkpt><trkpt lat="43.548396674504566" lon="12.8751524316944"><ele>384.25</ele><time>2026-04-18T07:55:32.999Z</time></trkpt><trkpt lat="43.5484951834492" lon="12.875273902292983"><ele>383.5</ele><time>2026-04-18T07:55:33.999Z</time></trkpt><trkpt lat="43.548578201780444" lon="12.87541368070583"><ele>382.75</ele><time>2026-04-18T07:55:34.999Z</time></trkpt><trkpt lat="43.54866970274945" lon="12.875534708609976"><ele>382.0</ele><time>2026-04-18T07:55:35.999Z</time></trkpt><trkpt lat="43.548757939783016" lon="12.875663078372995"><ele>382.0</ele><time>2026-04-18T07:55:36.999Z</time></trkpt><trkpt lat="43.548839543896804" lon="12.87579608234239"><ele>382.0</ele><time>2026-04-18T07:55:37.999Z</time></trkpt><trkpt lat="43.54890865587519" lon="12.875942036265144"><ele>382.0</ele><time>2026-04-18T07:55:38.999Z</time></trkpt><trkpt lat="43.54895755800669" lon="12.876100640864355"><ele>382.0</ele><time>2026-04-18T07:55:39.999Z</time></trkpt><trkpt lat="43.548988548630085" lon="12.87626113979835"><ele>379.75</ele><time>2026-04-18T07:55:40.999Z</time></trkpt><trkpt lat="43.54902636134191" lon="12.876433048367543"><ele>377.5</ele><time>2026-04-18T07:55:41.999Z</time></trkpt><trkpt lat="43.549055406464184" lon="12.876618635674381"><ele>375.25</ele><time>2026-04-18T07:55:42.999Z</time></trkpt><trkpt lat="43.54908035429402" lon="12.876809762818747"><ele>373.0</ele><time>2026-04-18T07:55:43.999Z</time></trkpt><trkpt lat="43.54908618186023" lon="12.877008253913953"><ele>371.0</ele><time>2026-04-18T07:55:44.999Z</time></trkpt><trkpt lat="43.549116187486" lon="12.877210681285218"><ele>369.0</ele><time>2026-04-18T07:55:45.999Z</time></trkpt><trkpt lat="43.54912069624327" lon="12.877413633105595"><ele>367.0</ele><time>2026-04-18T07:55:46.999Z</time></trkpt><trkpt lat="43.549115834849815" lon="12.877609543403114"><ele>365.0</ele><time>2026-04-18T07:55:47.999Z</time></trkpt><trkpt lat="43.549108632149476" lon="12.877799202085278"><ele>363.5</ele><time>2026-04-18T07:55:48.999Z</time></trkpt><trkpt lat="43.54909663722378" lon="12.877992670901985"><ele>362.0</ele><time>2026-04-18T07:55:49.999Z</time></trkpt><trkpt lat="43.54907259483711" lon="12.878180558791913"><ele>360.5</ele><time>2026-04-18T07:55:50.999Z</time></trkpt><trkpt lat="43.549030317431246" lon="12.878356242628321"><ele>359.0</ele><time>2026-04-18T07:55:51.999Z</time></trkpt><trkpt lat="43.54895919952399" lon="12.878529009605687"><ele>355.6666666666667</ele><time>2026-04-18T07:55:52.999Z</time></trkpt><trkpt lat="43.54885524680833" lon="12.878689823709461"><ele>352.3333333333333</ele><time>2026-04-18T07:55:53.999Z</time></trkpt><trkpt lat="43.54874525759909" lon="12.87885028783225"><ele>349.0</ele><time>2026-04-18T07:55:54.999Z</time></trkpt><trkpt lat="43.54863333822583" lon="12.879015121910987"><ele>349.0</ele><time>2026-04-18T07:55:55.999Z</time></trkpt><trkpt lat="43.54851989935261" lon="12.879181815675992"><ele>349.0</ele><time>2026-04-18T07:55:56.999Z</time></trkpt><trkpt lat="43.54840449288169" lon="12.87934461011844"><ele>349.0</ele><time>2026-04-18T07:55:57.999Z</time></trkpt><trkpt lat="43.54829519982022" lon="12.879503063261161"><ele>347.66666666666663</ele><time>2026-04-18T07:55:58.999Z</time></trkpt><trkpt lat="43.548185996278434" lon="12.879659601936684"><ele>346.3333333333333</ele><time>2026-04-18T07:55:59.999Z</time></trkpt><trkpt lat="43.548075276233256" lon="12.879808881490634"><ele>345.0</ele><time>2026-04-18T07:56:00.999Z</time></trkpt><trkpt lat="43.54796455042066" lon="12.879946562321024"><ele>346.0</ele><time>2026-04-18T07:56:01.999Z</time></trkpt><trkpt lat="43.54784422249079" lon="12.88007575053205"><ele>347.0</ele><time>2026-04-18T07:56:02.999Z</time></trkpt><trkpt lat="43.547716261632445" lon="12.88018515768381"><ele>348.0</ele><time>2026-04-18T07:56:03.999Z</time></trkpt><trkpt lat="43.547579435624" lon="12.880278895164547"><ele>345.0</ele><time>2026-04-18T07:56:04.999Z</time></trkpt><trkpt lat="43.54743506629521" lon="12.880366934358795"><ele>342.0</ele><time>2026-04-18T07:56:05.999Z</time></trkpt><trkpt lat="43.54729519196809" lon="12.880455955172096"><ele>339.0</ele><time>2026-04-18T07:56:06.999Z</time></trkpt><trkpt lat="43.54715712686548" lon="12.880549968486722"><ele>341.3333333333333</ele><time>2026-04-18T07:56:07.999Z</time></trkpt><trkpt lat="43.54701868166546" lon="12.880638323411292"><ele>343.66666666666663</ele><time>2026-04-18T07:56:08.999Z</time></trkpt><trkpt lat="43.5468806402825" lon="12.880727584953958"><ele>346.0</ele><time>2026-04-18T07:56:09.999Z</time></trkpt><trkpt lat="43.54674098498251" lon="12.880822836665782"><ele>346.0</ele><time>2026-04-18T07:56:10.999Z</time></trkpt><trkpt lat="43.54661124860769" lon="12.880929417454718"><ele>346.0</ele><time>2026-04-18T07:56:11.999Z</time></trkpt><trkpt lat="43.54647954584546" lon="12.881038176780839"><ele>346.0</ele><time>2026-04-18T07:56:12.999Z</time></trkpt><trkpt lat="43.54635317446266" lon="12.881148397031831"><ele>344.0</ele><time>2026-04-18T07:56:13.999Z</time></trkpt><trkpt lat="43.5462299693644" lon="12.881261252771722"><ele>342.0</ele><time>2026-04-18T07:56:14.999Z</time></trkpt><trkpt lat="43.54611115393627" lon="12.881377854483524"><ele>340.0</ele><time>2026-04-18T07:56:15.999Z</time></trkpt><trkpt lat="43.54599729553533" lon="12.88149649237232"><ele>338.0</ele><time>2026-04-18T07:56:16.999Z</time></trkpt><trkpt lat="43.5458845254686" lon="12.881614686185335"><ele>338.0</ele><time>2026-04-18T07:56:17.999Z</time></trkpt><trkpt lat="43.54574666482867" lon="12.881715031621193"><ele>338.0</ele><time>2026-04-18T07:56:18.999Z</time></trkpt><trkpt lat="43.545601100638414" lon="12.881789681416926"><ele>338.0</ele><time>2026-04-18T07:56:19.999Z</time></trkpt><trkpt lat="43.5454495426821" lon="12.881862160460146"><ele>334.0</ele><time>2026-04-18T07:56:20.999Z</time></trkpt><trkpt lat="43.54531170827041" lon="12.881963724519798"><ele>330.0</ele><time>2026-04-18T07:56:21.999Z</time></trkpt><trkpt lat="43.54518154985362" lon="12.882096012944105"><ele>326.0</ele><time>2026-04-18T07:56:23Z</time></trkpt><trkpt lat="43.54505458894718" lon="12.882244571647627"><ele>326.0</ele><time>2026-04-18T07:56:24Z</time></trkpt><trkpt lat="43.54491984689259" lon="12.882376338626658"><ele>326.0</ele><time>2026-04-18T07:56:25Z</time></trkpt><trkpt lat="43.54479330619797" lon="12.882508144964008"><ele>326.0</ele><time>2026-04-18T07:56:26Z</time></trkpt><trkpt lat="43.54467792994769" lon="12.882655013362376"><ele>322.0</ele><time>2026-04-18T07:56:27Z</time></trkpt><trkpt lat="43.54459868568452" lon="12.882827978787963"><ele>318.0</ele><time>2026-04-18T07:56:28Z</time></trkpt><trkpt lat="43.54453376149842" lon="12.883000818970624"><ele>314.0</ele><time>2026-04-18T07:56:29Z</time></trkpt><trkpt lat="43.54444515487204" lon="12.883120712586413"><ele>310.0</ele><time>2026-04-18T07:56:30Z</time></trkpt><trkpt lat="43.54436492093184" lon="12.883242565129338"><ele>310.0</ele><time>2026-04-18T07:56:31Z</time></trkpt><trkpt lat="43.54424889418871" lon="12.883272905812817"><ele>310.0</ele><time>2026-04-18T07:56:32Z</time></trkpt><trkpt lat="43.54413999665375" lon="12.883197720757304"><ele>310.0</ele><time>2026-04-18T07:56:33Z</time></trkpt><trkpt lat="43.5440562654683" lon="12.883048477933869"><ele>310.0</ele><time>2026-04-18T07:56:34Z</time></trkpt><trkpt lat="43.54396947521742" lon="12.88284983299206"><ele>310.0</ele><time>2026-04-18T07:56:35Z</time></trkpt><trkpt lat="43.54386078510153" lon="12.882647309413631"><ele>310.0</ele><time>2026-04-18T07:56:36Z</time></trkpt><trkpt lat="43.543763806447636" lon="12.8824611362693"><ele>310.0</ele><time>2026-04-18T07:56:37Z</time></trkpt><trkpt lat="43.54366035166692" lon="12.882281866786323"><ele>309.3333333333333</ele><time>2026-04-18T07:56:38Z</time></trkpt><trkpt lat="43.54356652927544" lon="12.882091682460995"><ele>308.6666666666667</ele><time>2026-04-18T07:56:39Z</time></trkpt><trkpt lat="43.54347523524196" lon="12.881911963204868"><ele>308.0</ele><time>2026-04-18T07:56:40Z</time></trkpt><trkpt lat="43.543381426650285" lon="12.881730746381384"><ele>310.25</ele><time>2026-04-18T07:56:41Z</time></trkpt><trkpt lat="43.54329373401862" lon="12.881561340084296"><ele>312.5</ele><time>2026-04-18T07:56:42Z</time></trkpt><trkpt lat="43.54320770180206" lon="12.881396184280321"><ele>314.75</ele><time>2026-04-18T07:56:43Z</time></trkpt><trkpt lat="43.54311958122282" lon="12.881231251852398"><ele>317.0</ele><time>2026-04-18T07:56:43.999Z</time></trkpt><trkpt lat="43.543039116046124" lon="12.881077536445188"><ele>317.0</ele><time>2026-04-18T07:56:44.999Z</time></trkpt><trkpt lat="43.54296384778753" lon="12.880935681892216"><ele>317.0</ele><time>2026-04-18T07:56:45.999Z</time></trkpt><trkpt lat="43.542889412988266" lon="12.880791406563707"><ele>317.0</ele><time>2026-04-18T07:56:46.999Z</time></trkpt><trkpt lat="43.54282198620844" lon="12.880651801543367"><ele>317.0</ele><time>2026-04-18T07:56:47.999Z</time></trkpt><trkpt lat="43.54277340344162" lon="12.880509977126959"><ele>313.6</ele><time>2026-04-18T07:56:48.999Z</time></trkpt><trkpt lat="43.54275980865287" lon="12.880346260558312"><ele>310.2</ele><time>2026-04-18T07:56:49.999Z</time></trkpt><trkpt lat="43.542767527836666" lon="12.880181360068725"><ele>306.8</ele><time>2026-04-18T07:56:50.999Z</time></trkpt><trkpt lat="43.542766068494174" lon="12.880064250863896"><ele>303.4</ele><time>2026-04-18T07:56:51.999Z</time></trkpt><trkpt lat="43.542737986256064" lon="12.879959916541438"><ele>300.0</ele><time>2026-04-18T07:56:52.999Z</time></trkpt><trkpt lat="43.542680379584496" lon="12.879901082280998"><ele>300.0</ele><time>2026-04-18T07:56:53.999Z</time></trkpt><trkpt lat="43.54258829226296" lon="12.879917887764426"><ele>300.0</ele><time>2026-04-18T07:56:54.999Z</time></trkpt><trkpt lat="43.54251580721274" lon="12.880017357087006"><ele>300.0</ele><time>2026-04-18T07:56:55.999Z</time></trkpt><trkpt lat="43.5424840877883" lon="12.880167955659543"><ele>300.0</ele><time>2026-04-18T07:56:56.999Z</time></trkpt><trkpt lat="43.54248564868178" lon="12.880336976064822"><ele>300.0</ele><time>2026-04-18T07:56:57.999Z</time></trkpt><trkpt lat="43.54247954065802" lon="12.880507925330294"><ele>299.5</ele><time>2026-04-18T07:56:58.999Z</time></trkpt><trkpt lat="43.54246995209832" lon="12.880688526875577"><ele>299.0</ele><time>2026-04-18T07:56:59.999Z</time></trkpt><trkpt lat="43.54246327915162" lon="12.880869888084458"><ele>298.5</ele><time>2026-04-18T07:57:00.999Z</time></trkpt><trkpt lat="43.54246458811233" lon="12.881058223265205"><ele>298.0</ele><time>2026-04-18T07:57:01.999Z</time></trkpt><trkpt lat="43.54245473144945" lon="12.881250928092525"><ele>296.75</ele><time>2026-04-18T07:57:02.999Z</time></trkpt><trkpt lat="43.54247080912392" lon="12.881444457422498"><ele>295.5</ele><time>2026-04-18T07:57:03.999Z</time></trkpt><trkpt lat="43.54246598407179" lon="12.88163695127249"><ele>294.25</ele><time>2026-04-18T07:57:04.999Z</time></trkpt><trkpt lat="43.54246326850512" lon="12.881821821164584"><ele>293.0</ele><time>2026-04-18T07:57:05.999Z</time></trkpt><trkpt lat="43.54245944754194" lon="12.882004745401032"><ele>291.0</ele><time>2026-04-18T07:57:06.999Z</time></trkpt><trkpt lat="43.54246361135858" lon="12.882180714206832"><ele>289.0</ele><time>2026-04-18T07:57:07.999Z</time></trkpt><trkpt lat="43.5424911275061" lon="12.882346133667605"><ele>287.0</ele><time>2026-04-18T07:57:08.999Z</time></trkpt><trkpt lat="43.54255641857597" lon="12.882485695063679"><ele>285.0</ele><time>2026-04-18T07:57:09.999Z</time></trkpt><trkpt lat="43.54265954117136" lon="12.88268481210963"><ele>281.8</ele><time>2026-04-18T07:57:11.999Z</time></trkpt><trkpt lat="43.542674396493716" lon="12.882852774970942"><ele>278.6</ele><time>2026-04-18T07:57:13.999Z</time></trkpt><trkpt lat="43.54258844413051" lon="12.882906601122524"><ele>275.4</ele><time>2026-04-18T07:57:14.999Z</time></trkpt><trkpt lat="43.54248534810999" lon="12.882866819108278"><ele>272.2</ele><time>2026-04-18T07:57:15.999Z</time></trkpt><trkpt lat="43.54243259378956" lon="12.882746350868729"><ele>269.0</ele><time>2026-04-18T07:57:16.999Z</time></trkpt><trkpt lat="43.54236072154812" lon="12.88265801251843"><ele>268.59999999999997</ele><time>2026-04-18T07:57:17.999Z</time></trkpt><trkpt lat="43.5423040789975" lon="12.882545133277471"><ele>268.2</ele><time>2026-04-18T07:57:18.999Z</time></trkpt><trkpt lat="43.54223684781733" lon="12.88243081369687"><ele>267.79999999999995</ele><time>2026-04-18T07:57:19.999Z</time></trkpt><trkpt lat="43.542166101463216" lon="12.882316874097478"><ele>267.4</ele><time>2026-04-18T07:57:20.999Z</time></trkpt><trkpt lat="43.54209436349241" lon="12.882200535040699"><ele>267.0</ele><time>2026-04-18T07:57:21.999Z</time></trkpt><trkpt lat="43.54201733574756" lon="12.882091374529146"><ele>267.0</ele><time>2026-04-18T07:57:22.999Z</time></trkpt><trkpt lat="43.54192736396929" lon="12.88200250506269"><ele>267.0</ele><time>2026-04-18T07:57:23.999Z</time></trkpt><trkpt lat="43.54182592827589" lon="12.88194899673498"><ele>267.0</ele><time>2026-04-18T07:57:24.999Z</time></trkpt><trkpt lat="43.54171067063343" lon="12.881938371329129"><ele>267.0</ele><time>2026-04-18T07:57:25.999Z</time></trkpt><trkpt lat="43.54160472768145" lon="12.881955188856914"><ele>267.0</ele><time>2026-04-18T07:57:26.999Z</time></trkpt><trkpt lat="43.54149380053225" lon="12.88195281638641"><ele>267.0</ele><time>2026-04-18T07:57:27.999Z</time></trkpt><trkpt lat="43.541391232903294" lon="12.881908874815542"><ele>267.0</ele><time>2026-04-18T07:57:28.999Z</time></trkpt><trkpt lat="43.541296465517995" lon="12.881830337465471"><ele>267.0</ele><time>2026-04-18T07:57:29.999Z</time></trkpt><trkpt lat="43.54120474789641" lon="12.881727983529332"><ele>267.0</ele><time>2026-04-18T07:57:30.999Z</time></trkpt><trkpt lat="43.54111836784479" lon="12.881623839791176"><ele>265.8</ele><time>2026-04-18T07:57:31.999Z</time></trkpt><trkpt lat="43.54103216223649" lon="12.88152915839145"><ele>264.6</ele><time>2026-04-18T07:57:32.999Z</time></trkpt><trkpt lat="43.540945841340516" lon="12.881445657745418"><ele>263.40000000000003</ele><time>2026-04-18T07:57:33.999Z</time></trkpt><trkpt lat="43.54085640245644" lon="12.88137216641947"><ele>262.2</ele><time>2026-04-18T07:57:34.999Z</time></trkpt><trkpt lat="43.54076082881621" lon="12.881325846490821"><ele>261.0</ele><time>2026-04-18T07:57:35.999Z</time></trkpt><trkpt lat="43.54065520822898" lon="12.881316373576961"><ele>261.0</ele><time>2026-04-18T07:57:36.999Z</time></trkpt><trkpt lat="43.540556098875896" lon="12.881369357820487"><ele>261.0</ele><time>2026-04-18T07:57:37.999Z</time></trkpt><trkpt lat="43.54046692849515" lon="12.881427607650048"><ele>261.0</ele><time>2026-04-18T07:57:38.999Z</time></trkpt><trkpt lat="43.54040461892525" lon="12.881453797522918"><ele>261.0</ele><time>2026-04-18T07:57:39.999Z</time></trkpt><trkpt lat="43.54034385219035" lon="12.881495781451763"><ele>261.0</ele><time>2026-04-18T07:57:41.999Z</time></trkpt><trkpt lat="43.540365854445106" lon="12.881900811732532"><ele>259.8</ele><time>2026-04-18T07:57:43.999Z</time></trkpt><trkpt lat="43.54026421837628" lon="12.881904979242387"><ele>258.6</ele><time>2026-04-18T07:57:45.999Z</time></trkpt><trkpt lat="43.54020375538462" lon="12.881875307397433"><ele>257.4</ele><time>2026-04-18T07:57:46.999Z</time></trkpt><trkpt lat="43.540126290612534" lon="12.881850937819141"><ele>256.2</ele><time>2026-04-18T07:57:47.999Z</time></trkpt><trkpt lat="43.540027629957635" lon="12.88185017639741"><ele>255.0</ele><time>2026-04-18T07:57:48.999Z</time></trkpt><trkpt lat="43.53990652677286" lon="12.881840432118542"><ele>255.0</ele><time>2026-04-18T07:57:49.999Z</time></trkpt><trkpt lat="43.53976880066172" lon="12.881823233425308"><ele>255.0</ele><time>2026-04-18T07:57:50.999Z</time></trkpt><trkpt lat="43.53963269938488" lon="12.881803336351538"><ele>255.0</ele><time>2026-04-18T07:57:51.999Z</time></trkpt><trkpt lat="43.53947710153884" lon="12.881784422036983"><ele>255.0</ele><time>2026-04-18T07:57:52.999Z</time></trkpt><trkpt lat="43.5393194577711" lon="12.881769778148273"><ele>255.66666666666669</ele><time>2026-04-18T07:57:53.999Z</time></trkpt><trkpt lat="43.53915591482765" lon="12.881753210617738"><ele>256.33333333333337</ele><time>2026-04-18T07:57:54.999Z</time></trkpt><trkpt lat="43.53898348158702" lon="12.88172825541325"><ele>257.0</ele><time>2026-04-18T07:57:55.999Z</time></trkpt><trkpt lat="43.53881627726562" lon="12.8816749974736"><ele>259.6666666666667</ele><time>2026-04-18T07:57:56.999Z</time></trkpt><trkpt lat="43.53866510379757" lon="12.881584772496208"><ele>262.3333333333333</ele><time>2026-04-18T07:57:57.999Z</time></trkpt><trkpt lat="43.53852392717677" lon="12.881489574780986"><ele>265.0</ele><time>2026-04-18T07:57:58.999Z</time></trkpt><trkpt lat="43.53838798189218" lon="12.881430111571966"><ele>265.0</ele><time>2026-04-18T07:57:59.999Z</time></trkpt><trkpt lat="43.538262804873376" lon="12.881440533857676"><ele>265.0</ele><time>2026-04-18T07:58:00.999Z</time></trkpt><trkpt lat="43.538138553035104" lon="12.881517478689684"><ele>265.0</ele><time>2026-04-18T07:58:01.999Z</time></trkpt><trkpt lat="43.538015311446124" lon="12.881636614825121"><ele>265.0</ele><time>2026-04-18T07:58:02.999Z</time></trkpt><trkpt lat="43.537882659816795" lon="12.881758783220834"><ele>268.0</ele><time>2026-04-18T07:58:03.999Z</time></trkpt><trkpt lat="43.537750620734215" lon="12.881856326230992"><ele>271.0</ele><time>2026-04-18T07:58:04.999Z</time></trkpt><trkpt lat="43.53763354596438" lon="12.881938433197453"><ele>274.0</ele><time>2026-04-18T07:58:05.999Z</time></trkpt><trkpt lat="43.53752995943669" lon="12.882011728274641"><ele>277.0</ele><time>2026-04-18T07:58:06.999Z</time></trkpt><trkpt lat="43.537443783589474" lon="12.88207787040932"><ele>277.0</ele><time>2026-04-18T07:58:07.999Z</time></trkpt><trkpt lat="43.53739323641034" lon="12.882159799431506"><ele>277.0</ele><time>2026-04-18T07:58:08.999Z</time></trkpt><trkpt lat="43.537384629882084" lon="12.882263245378057"><ele>277.0</ele><time>2026-04-18T07:58:09.999Z</time></trkpt><trkpt lat="43.53741127532749" lon="12.882389154428372"><ele>277.0</ele><time>2026-04-18T07:58:10.999Z</time></trkpt><trkpt lat="43.53748323989608" lon="12.882473402220423"><ele>277.0</ele><time>2026-04-18T07:58:11.999Z</time></trkpt><trkpt lat="43.53758067792233" lon="12.8824921022963"><ele>277.0</ele><time>2026-04-18T07:58:12.999Z</time></trkpt><trkpt lat="43.53769441900536" lon="12.882454994220092"><ele>277.0</ele><time>2026-04-18T07:58:13.999Z</time></trkpt><trkpt lat="43.5378199906136" lon="12.882395675478355"><ele>277.0</ele><time>2026-04-18T07:58:14.999Z</time></trkpt><trkpt lat="43.5379648008591" lon="12.882340081402093"><ele>277.0</ele><time>2026-04-18T07:58:15.999Z</time></trkpt><trkpt lat="43.53812266232987" lon="12.882291093444557"><ele>277.0</ele><time>2026-04-18T07:58:16.999Z</time></trkpt><trkpt lat="43.53827388056728" lon="12.882248864862635"><ele>276.75</ele><time>2026-04-18T07:58:17.999Z</time></trkpt><trkpt lat="43.538415429955315" lon="12.88221119254979"><ele>276.5</ele><time>2026-04-18T07:58:18.999Z</time></trkpt><trkpt lat="43.538539654526815" lon="12.882173913792062"><ele>276.25</ele><time>2026-04-18T07:58:19.999Z</time></trkpt><trkpt lat="43.53864378353328" lon="12.882168775863889"><ele>276.0</ele><time>2026-04-18T07:58:20.999Z</time></trkpt><trkpt lat="43.538718610068585" lon="12.882235909874503"><ele>276.0</ele><time>2026-04-18T07:58:21.999Z</time></trkpt><trkpt lat="43.53872574268119" lon="12.882364632187432"><ele>276.0</ele><time>2026-04-18T07:58:22.999Z</time></trkpt><trkpt lat="43.538679270227384" lon="12.882487960644816"><ele>276.0</ele><time>2026-04-18T07:58:23.999Z</time></trkpt><trkpt lat="43.538572650584236" lon="12.882549142226264"><ele>276.0</ele><time>2026-04-18T07:58:24.999Z</time></trkpt><trkpt lat="43.53845538743956" lon="12.882553271710602"><ele>276.0</ele><time>2026-04-18T07:58:25.999Z</time></trkpt><trkpt lat="43.53832044106901" lon="12.88252358154824"><ele>277.5</ele><time>2026-04-18T07:58:26.999Z</time></trkpt><trkpt lat="43.53818769665589" lon="12.882582886372624"><ele>279.0</ele><time>2026-04-18T07:58:27.999Z</time></trkpt><trkpt lat="43.538074190767105" lon="12.882680620958558"><ele>280.5</ele><time>2026-04-18T07:58:28.999Z</time></trkpt><trkpt lat="43.53797773907335" lon="12.882797736995247"><ele>282.0</ele><time>2026-04-18T07:58:29.999Z</time></trkpt><trkpt lat="43.53788313531968" lon="12.882950756268514"><ele>283.25</ele><time>2026-04-18T07:58:30.999Z</time></trkpt><trkpt lat="43.5378055569136" lon="12.883102956366985"><ele>284.5</ele><time>2026-04-18T07:58:31.999Z</time></trkpt><trkpt lat="43.53774640477064" lon="12.883249308264258"><ele>285.75</ele><time>2026-04-18T07:58:32.999Z</time></trkpt><trkpt lat="43.537718874335226" lon="12.88340295230441"><ele>287.0</ele><time>2026-04-18T07:58:33.999Z</time></trkpt><trkpt lat="43.53774093850026" lon="12.883564443651974"><ele>290.75</ele><time>2026-04-18T07:58:34.999Z</time></trkpt><trkpt lat="43.537790355179744" lon="12.883720719131505"><ele>294.5</ele><time>2026-04-18T07:58:35.999Z</time></trkpt><trkpt lat="43.537803276914055" lon="12.88387691948381"><ele>298.25</ele><time>2026-04-18T07:58:36.999Z</time></trkpt><trkpt lat="43.537754092096186" lon="12.884050443943712"><ele>302.0</ele><time>2026-04-18T07:58:37.999Z</time></trkpt><trkpt lat="43.53767161546204" lon="12.88417510486024"><ele>302.0</ele><time>2026-04-18T07:58:38.999Z</time></trkpt><trkpt lat="43.537587037226324" lon="12.88420386008669"><ele>302.0</ele><time>2026-04-18T07:58:39.999Z</time></trkpt><trkpt lat="43.53750944284362" lon="12.884100846496908"><ele>302.0</ele><time>2026-04-18T07:58:40.999Z</time></trkpt><trkpt lat="43.537443106361756" lon="12.883975342227393"><ele>302.0</ele><time>2026-04-18T07:58:42Z</time></trkpt><trkpt lat="43.53736234905075" lon="12.883838203961439"><ele>302.0</ele><time>2026-04-18T07:58:42.999Z</time></trkpt><trkpt lat="43.5372732114149" lon="12.88375228340269"><ele>302.0</ele><time>2026-04-18T07:58:43.999Z</time></trkpt><trkpt lat="43.537182577443545" lon="12.883737448068414"><ele>302.0</ele><time>2026-04-18T07:58:44.999Z</time></trkpt><trkpt lat="43.5370930120843" lon="12.883801695300663"><ele>302.0</ele><time>2026-04-18T07:58:45.999Z</time></trkpt><trkpt lat="43.53700655479995" lon="12.883941022363995"><ele>302.0</ele><time>2026-04-18T07:58:46.999Z</time></trkpt><trkpt lat="43.536919985305474" lon="12.884121951626874"><ele>306.0</ele><time>2026-04-18T07:58:47.999Z</time></trkpt><trkpt lat="43.53683127675119" lon="12.884300443356071"><ele>310.0</ele><time>2026-04-18T07:58:48.999Z</time></trkpt><trkpt lat="43.536732936760856" lon="12.88447873581446"><ele>314.0</ele><time>2026-04-18T07:58:49.999Z</time></trkpt><trkpt lat="43.53663838231245" lon="12.884659899194629"><ele>314.0</ele><time>2026-04-18T07:58:50.999Z</time></trkpt><trkpt lat="43.53654074615984" lon="12.884832837740472"><ele>314.0</ele><time>2026-04-18T07:58:51.999Z</time></trkpt><trkpt lat="43.53645265879962" lon="12.884982491592961"><ele>314.0</ele><time>2026-04-18T07:58:52.999Z</time></trkpt><trkpt lat="43.536370480164855" lon="12.885116820775222"><ele>314.0</ele><time>2026-04-18T07:58:53.999Z</time></trkpt><trkpt lat="43.53631508005836" lon="12.885258377237712"><ele>316.25</ele><time>2026-04-18T07:58:54.999Z</time></trkpt><trkpt lat="43.53630536309899" lon="12.885416429436072"><ele>318.5</ele><time>2026-04-18T07:58:55.999Z</time></trkpt><trkpt lat="43.536348062144846" lon="12.885585865607812"><ele>320.75</ele><time>2026-04-18T07:58:56.999Z</time></trkpt><trkpt lat="43.536426894630175" lon="12.885725654696067"><ele>323.0</ele><time>2026-04-18T07:58:57.999Z</time></trkpt><trkpt lat="43.53650644050346" lon="12.885880993937922"><ele>324.5</ele><time>2026-04-18T07:58:58.999Z</time></trkpt><trkpt lat="43.53658555407412" lon="12.886030729797913"><ele>326.0</ele><time>2026-04-18T07:58:59.999Z</time></trkpt><trkpt lat="43.536638400815114" lon="12.886184948676846"><ele>327.5</ele><time>2026-04-18T07:59:00.999Z</time></trkpt><trkpt lat="43.53665454298943" lon="12.886363257678658"><ele>329.0</ele><time>2026-04-18T07:59:01.999Z</time></trkpt><trkpt lat="43.5366663554619" lon="12.88653798340179"><ele>329.0</ele><time>2026-04-18T07:59:02.999Z</time></trkpt><trkpt lat="43.536675866620016" lon="12.886686472007435"><ele>329.0</ele><time>2026-04-18T07:59:03.999Z</time></trkpt><trkpt lat="43.536659805003616" lon="12.88677453732422"><ele>329.0</ele><time>2026-04-18T07:59:04.999Z</time></trkpt><trkpt lat="43.536477538093976" lon="12.886726058151845"><ele>329.0</ele><time>2026-04-18T07:59:06.999Z</time></trkpt><trkpt lat="43.53638220001364" lon="12.8865946000498"><ele>329.0</ele><time>2026-04-18T07:59:07.999Z</time></trkpt><trkpt lat="43.536289866038985" lon="12.886469169527091"><ele>329.0</ele><time>2026-04-18T07:59:08.999Z</time></trkpt><trkpt lat="43.53617820621549" lon="12.88635392618737"><ele>329.0</ele><time>2026-04-18T07:59:09.999Z</time></trkpt><trkpt lat="43.53607416375956" lon="12.886281565648515"><ele>329.0</ele><time>2026-04-18T07:59:10.999Z</time></trkpt><trkpt lat="43.53597823118127" lon="12.886258793451356"><ele>329.0</ele><time>2026-04-18T07:59:11.999Z</time></trkpt><trkpt lat="43.53589844703353" lon="12.88633482277408"><ele>329.0</ele><time>2026-04-18T07:59:13Z</time></trkpt><trkpt lat="43.53585946888381" lon="12.886482591609182"><ele>329.0</ele><time>2026-04-18T07:59:14Z</time></trkpt><trkpt lat="43.53585817036241" lon="12.886673377025614"><ele>329.0</ele><time>2026-04-18T07:59:15Z</time></trkpt><trkpt lat="43.53587400442822" lon="12.886878072866269"><ele>329.0</ele><time>2026-04-18T07:59:16Z</time></trkpt><trkpt lat="43.53588126289591" lon="12.887080624339154"><ele>329.0</ele><time>2026-04-18T07:59:17Z</time></trkpt><trkpt lat="43.53588692701081" lon="12.887272451532445"><ele>329.0</ele><time>2026-04-18T07:59:18Z</time></trkpt><trkpt lat="43.53591206282523" lon="12.88746841652078"><ele>329.0</ele><time>2026-04-18T07:59:19Z</time></trkpt><trkpt lat="43.53596045918882" lon="12.887650887954063"><ele>332.25</ele><time>2026-04-18T07:59:20Z</time></trkpt><trkpt lat="43.53603495749281" lon="12.88782283569178"><ele>335.5</ele><time>2026-04-18T07:59:21Z</time></trkpt><trkpt lat="43.53612171760646" lon="12.887966363863248"><ele>338.75</ele><time>2026-04-18T07:59:22Z</time></trkpt><trkpt lat="43.53619793336575" lon="12.88809019285203"><ele>342.0</ele><time>2026-04-18T07:59:23Z</time></trkpt><trkpt lat="43.53625855511904" lon="12.888190582855264"><ele>343.40000000000003</ele><time>2026-04-18T07:59:24Z</time></trkpt><trkpt lat="43.536305311384005" lon="12.8883040167802"><ele>344.8</ele><time>2026-04-18T07:59:25Z</time></trkpt><trkpt lat="43.536314258615214" lon="12.888404365111247"><ele>346.2</ele><time>2026-04-18T07:59:26Z</time></trkpt><trkpt lat="43.53623589567845" lon="12.888485652695133"><ele>347.6</ele><time>2026-04-18T07:59:27Z</time></trkpt><trkpt lat="43.5361300258599" lon="12.8885093870316"><ele>349.0</ele><time>2026-04-18T07:59:28Z</time></trkpt><trkpt lat="43.53600659380113" lon="12.888495000172092"><ele>346.66666666666663</ele><time>2026-04-18T07:59:29Z</time></trkpt><trkpt lat="43.535860910340276" lon="12.888457512575949"><ele>344.3333333333333</ele><time>2026-04-18T07:59:30Z</time></trkpt><trkpt lat="43.535708054193414" lon="12.888415078560977"><ele>342.0</ele><time>2026-04-18T07:59:31Z</time></trkpt><trkpt lat="43.53556749614899" lon="12.888346893504316"><ele>342.0</ele><time>2026-04-18T07:59:32Z</time></trkpt><trkpt lat="43.53544017674547" lon="12.88825157760341"><ele>342.0</ele><time>2026-04-18T07:59:33Z</time></trkpt><trkpt lat="43.53532856591537" lon="12.888160940112488"><ele>342.0</ele><time>2026-04-18T07:59:34Z</time></trkpt><trkpt lat="43.53523394228322" lon="12.888102898868775"><ele>342.0</ele><time>2026-04-18T07:59:35Z</time></trkpt><trkpt lat="43.53512901711794" lon="12.888107484189755"><ele>342.75</ele><time>2026-04-18T07:59:36Z</time></trkpt><trkpt lat="43.53503533405309" lon="12.888191548636422"><ele>343.5</ele><time>2026-04-18T07:59:37Z</time></trkpt><trkpt lat="43.534939354710225" lon="12.888335536160428"><ele>344.25</ele><time>2026-04-18T07:59:38Z</time></trkpt><trkpt lat="43.534847179074625" lon="12.88850179542839"><ele>345.0</ele><time>2026-04-18T07:59:39Z</time></trkpt><trkpt lat="43.53473591077818" lon="12.888663274699276"><ele>346.6666666666667</ele><time>2026-04-18T07:59:40Z</time></trkpt><trkpt lat="43.534611177229856" lon="12.888825746156927"><ele>348.33333333333337</ele><time>2026-04-18T07:59:41Z</time></trkpt><trkpt lat="43.534492805773226" lon="12.888986716838808"><ele>350.0</ele><time>2026-04-18T07:59:42Z</time></trkpt><trkpt lat="43.534391295863536" lon="12.889117025924335"><ele>350.0</ele><time>2026-04-18T07:59:43Z</time></trkpt><trkpt lat="43.534288112461184" lon="12.889237103003843"><ele>350.0</ele><time>2026-04-18T07:59:44Z</time></trkpt><trkpt lat="43.534197805955245" lon="12.889349435724368"><ele>350.0</ele><time>2026-04-18T07:59:45Z</time></trkpt><trkpt lat="43.53412751364313" lon="12.889464017754571"><ele>350.0</ele><time>2026-04-18T07:59:46Z</time></trkpt><trkpt lat="43.5340703467431" lon="12.889580597017273"><ele>353.4</ele><time>2026-04-18T07:59:47Z</time></trkpt><trkpt lat="43.534033137288006" lon="12.88970960663631"><ele>356.8</ele><time>2026-04-18T07:59:48Z</time></trkpt><trkpt lat="43.534010700229956" lon="12.889839645952202"><ele>360.20000000000005</ele><time>2026-04-18T07:59:49Z</time></trkpt><trkpt lat="43.534020071534684" lon="12.889979870807277"><ele>363.6</ele><time>2026-04-18T07:59:50Z</time></trkpt><trkpt lat="43.53405224532876" lon="12.89012807577414"><ele>367.0</ele><time>2026-04-18T07:59:51Z</time></trkpt><trkpt lat="43.534110081995635" lon="12.890266676096152"><ele>369.8</ele><time>2026-04-18T07:59:52Z</time></trkpt><trkpt lat="43.53414332435925" lon="12.890390187222026"><ele>372.6</ele><time>2026-04-18T07:59:53Z</time></trkpt><trkpt lat="43.53417371961481" lon="12.890489000766738"><ele>375.40000000000003</ele><time>2026-04-18T07:59:54Z</time></trkpt><trkpt lat="43.53412830346789" lon="12.890631651172804"><ele>378.20000000000005</ele><time>2026-04-18T07:59:56Z</time></trkpt><trkpt lat="43.53404069519363" lon="12.890644166664295"><ele>381.0</ele><time>2026-04-18T07:59:57Z</time></trkpt><trkpt lat="43.53395658026175" lon="12.890577344370001"><ele>381.0</ele><time>2026-04-18T07:59:58Z</time></trkpt><trkpt lat="43.53388199420117" lon="12.890454162737276"><ele>381.0</ele><time>2026-04-18T07:59:59Z</time></trkpt><trkpt lat="43.53380054024892" lon="12.890324272628567"><ele>381.0</ele><time>2026-04-18T08:00:00Z</time></trkpt><trkpt lat="43.533720650084454" lon="12.89021191404416"><ele>381.0</ele><time>2026-04-18T08:00:01Z</time></trkpt><trkpt lat="43.53363247250843" lon="12.89014270035589"><ele>382.5</ele><time>2026-04-18T08:00:02Z</time></trkpt><trkpt lat="43.53353331734574" lon="12.890134006265429"><ele>384.0</ele><time>2026-04-18T08:00:03Z</time></trkpt><trkpt lat="43.533402274497135" lon="12.89019627468825"><ele>385.5</ele><time>2026-04-18T08:00:04Z</time></trkpt><trkpt lat="43.53324984568297" lon="12.890264251477316"><ele>387.0</ele><time>2026-04-18T08:00:05Z</time></trkpt><trkpt lat="43.53309136870698" lon="12.890318742850063"><ele>387.0</ele><time>2026-04-18T08:00:06Z</time></trkpt><trkpt lat="43.532958135792434" lon="12.89035825224718"><ele>387.0</ele><time>2026-04-18T08:00:07Z</time></trkpt><trkpt lat="43.53284451906025" lon="12.89043739860433"><ele>387.0</ele><time>2026-04-18T08:00:08Z</time></trkpt><trkpt lat="43.53274879245837" lon="12.890604011275615"><ele>387.0</ele><time>2026-04-18T08:00:09Z</time></trkpt><trkpt lat="43.532654523015594" lon="12.890836709531017"><ele>388.66666666666663</ele><time>2026-04-18T08:00:10Z</time></trkpt><trkpt lat="43.5325520088694" lon="12.891060430049684"><ele>390.3333333333333</ele><time>2026-04-18T08:00:11Z</time></trkpt><trkpt lat="43.532471441029486" lon="12.891267370261959"><ele>392.0</ele><time>2026-04-18T08:00:12Z</time></trkpt><trkpt lat="43.53242163317524" lon="12.891446764985528"><ele>392.0</ele><time>2026-04-18T08:00:13Z</time></trkpt><trkpt lat="43.53240692690765" lon="12.891603208087572"><ele>392.0</ele><time>2026-04-18T08:00:14Z</time></trkpt><trkpt lat="43.53238250960969" lon="12.891717855214154"><ele>392.0</ele><time>2026-04-18T08:00:15Z</time></trkpt><trkpt lat="43.53232249751769" lon="12.891779625794198"><ele>392.0</ele><time>2026-04-18T08:00:16Z</time></trkpt><trkpt lat="43.53223101838359" lon="12.891785508583526"><ele>392.0</ele><time>2026-04-18T08:00:17Z</time></trkpt><trkpt lat="43.53211087943282" lon="12.891777876947947"><ele>392.6</ele><time>2026-04-18T08:00:18Z</time></trkpt><trkpt lat="43.53197847885154" lon="12.891780583544566"><ele>393.20000000000005</ele><time>2026-04-18T08:00:19Z</time></trkpt><trkpt lat="43.53186960943019" lon="12.891772945408242"><ele>393.8</ele><time>2026-04-18T08:00:20Z</time></trkpt><trkpt lat="43.53181096425961" lon="12.89168670901032"><ele>394.4</ele><time>2026-04-18T08:00:21Z</time></trkpt><trkpt lat="43.53181062424848" lon="12.891551135062855"><ele>395.0</ele><time>2026-04-18T08:00:22Z</time></trkpt><trkpt lat="43.531893456757324" lon="12.891408908774753"><ele>395.0</ele><time>2026-04-18T08:00:23Z</time></trkpt><trkpt lat="43.53196473392182" lon="12.891229034621798"><ele>395.0</ele><time>2026-04-18T08:00:24Z</time></trkpt><trkpt lat="43.5320116193959" lon="12.891031741091906"><ele>395.0</ele><time>2026-04-18T08:00:25Z</time></trkpt><trkpt lat="43.53202052707859" lon="12.890816729237022"><ele>395.0</ele><time>2026-04-18T08:00:26Z</time></trkpt><trkpt lat="43.5320006263916" lon="12.890612685535315"><ele>395.0</ele><time>2026-04-18T08:00:27Z</time></trkpt><trkpt lat="43.53199576276858" lon="12.890447723825242"><ele>395.0</ele><time>2026-04-18T08:00:28Z</time></trkpt><trkpt lat="43.53197317638037" lon="12.890322975062967"><ele>395.0</ele><time>2026-04-18T08:00:29Z</time></trkpt><trkpt lat="43.53196367959917" lon="12.890202240111226"><ele>395.0</ele><time>2026-04-18T08:00:30Z</time></trkpt><trkpt lat="43.53179959681042" lon="12.890204318902693"><ele>395.0</ele><time>2026-04-18T08:00:31Z</time></trkpt><trkpt lat="43.531665893802064" lon="12.890179366981572"><ele>395.0</ele><time>2026-04-18T08:00:32Z</time></trkpt><trkpt lat="43.53151563664087" lon="12.890164419293296"><ele>395.0</ele><time>2026-04-18T08:00:33Z</time></trkpt><trkpt lat="43.53135630521315" lon="12.890157615903295"><ele>395.0</ele><time>2026-04-18T08:00:34Z</time></trkpt><trkpt lat="43.53119470578163" lon="12.890171954871812"><ele>395.0</ele><time>2026-04-18T08:00:35Z</time></trkpt><trkpt lat="43.53104885932503" lon="12.89022999634175"><ele>395.75</ele><time>2026-04-18T08:00:36Z</time></trkpt><trkpt lat="43.53092902725647" lon="12.890329790322419"><ele>396.5</ele><time>2026-04-18T08:00:37Z</time></trkpt><trkpt lat="43.53083975726412" lon="12.890483749442147"><ele>397.25</ele><time>2026-04-18T08:00:38Z</time></trkpt><trkpt lat="43.53075153434899" lon="12.890666305383006"><ele>398.0</ele><time>2026-04-18T08:00:39Z</time></trkpt><trkpt lat="43.530621932227994" lon="12.890789096058285"><ele>398.0</ele><time>2026-04-18T08:00:40Z</time></trkpt><trkpt lat="43.5304800248426" lon="12.890855065106502"><ele>398.0</ele><time>2026-04-18T08:00:41Z</time></trkpt><trkpt lat="43.53033927163703" lon="12.890910095385143"><ele>398.0</ele><time>2026-04-18T08:00:42Z</time></trkpt><trkpt lat="43.53022920911782" lon="12.890981539198954"><ele>398.0</ele><time>2026-04-18T08:00:43Z</time></trkpt><trkpt lat="43.53016307780679" lon="12.891139157775706"><ele>400.0</ele><time>2026-04-18T08:00:44Z</time></trkpt><trkpt lat="43.530107218619825" lon="12.89132853583366"><ele>402.0</ele><time>2026-04-18T08:00:45Z</time></trkpt><trkpt lat="43.530010530876055" lon="12.891451976904879"><ele>404.0</ele><time>2026-04-18T08:00:46Z</time></trkpt><trkpt lat="43.52990759846881" lon="12.891561890347099"><ele>406.0</ele><time>2026-04-18T08:00:47Z</time></trkpt><trkpt lat="43.529791775071374" lon="12.891670027357122"><ele>408.5</ele><time>2026-04-18T08:00:48Z</time></trkpt><trkpt lat="43.52967050541801" lon="12.891779063094011"><ele>411.0</ele><time>2026-04-18T08:00:49Z</time></trkpt><trkpt lat="43.52954877636378" lon="12.89188115613181"><ele>413.5</ele><time>2026-04-18T08:00:50Z</time></trkpt><trkpt lat="43.52942792064729" lon="12.891985272994141"><ele>416.0</ele><time>2026-04-18T08:00:51Z</time></trkpt><trkpt lat="43.52930166061032" lon="12.892097621211583"><ele>416.0</ele><time>2026-04-18T08:00:52Z</time></trkpt><trkpt lat="43.52919069506553" lon="12.892217993063905"><ele>416.0</ele><time>2026-04-18T08:00:53Z</time></trkpt><trkpt lat="43.52907642572821" lon="12.89232082978965"><ele>416.0</ele><time>2026-04-18T08:00:54Z</time></trkpt><trkpt lat="43.52897017920287" lon="12.89242652851235"><ele>416.0</ele><time>2026-04-18T08:00:55Z</time></trkpt><trkpt lat="43.52886422283503" lon="12.892505686932386"><ele>419.25</ele><time>2026-04-18T08:00:56Z</time></trkpt><trkpt lat="43.52876754384879" lon="12.89259638146318"><ele>422.5</ele><time>2026-04-18T08:00:57Z</time></trkpt><trkpt lat="43.52867228354254" lon="12.892704138674652"><ele>425.75</ele><time>2026-04-18T08:00:58Z</time></trkpt><trkpt lat="43.5285553798779" lon="12.892768282827564"><ele>429.0</ele><time>2026-04-18T08:00:59Z</time></trkpt><trkpt lat="43.52841196071572" lon="12.89280582082085"><ele>429.0</ele><time>2026-04-18T08:01:00Z</time></trkpt><trkpt lat="43.52825825341375" lon="12.892826977134519"><ele>429.0</ele><time>2026-04-18T08:01:01Z</time></trkpt><trkpt lat="43.52810291743198" lon="12.892848204189223"><ele>429.0</ele><time>2026-04-18T08:01:02Z</time></trkpt><trkpt lat="43.52795361820524" lon="12.892870329151181"><ele>428.5</ele><time>2026-04-18T08:01:03Z</time></trkpt><trkpt lat="43.5278040773364" lon="12.892899233777987"><ele>428.0</ele><time>2026-04-18T08:01:04Z</time></trkpt><trkpt lat="43.52766167942726" lon="12.89290511740192"><ele>427.5</ele><time>2026-04-18T08:01:05Z</time></trkpt><trkpt lat="43.527530496279184" lon="12.892882062274575"><ele>427.0</ele><time>2026-04-18T08:01:06Z</time></trkpt><trkpt lat="43.52741175056781" lon="12.892822134941486"><ele>427.0</ele><time>2026-04-18T08:01:07Z</time></trkpt><trkpt lat="43.5273197020569" lon="12.892747042646544"><ele>427.00000000000006</ele><time>2026-04-18T08:01:08Z</time></trkpt><trkpt lat="43.52723982046615" lon="12.892680076144032"><ele>427.00000000000006</ele><time>2026-04-18T08:01:09Z</time></trkpt><trkpt lat="43.52715258666155" lon="12.89264833519485"><ele>427.0</ele><time>2026-04-18T08:01:10Z</time></trkpt><trkpt lat="43.52706377466846" lon="12.892673954725124"><ele>427.0</ele><time>2026-04-18T08:01:11Z</time></trkpt><trkpt lat="43.52697970009675" lon="12.892734707249616"><ele>424.75</ele><time>2026-04-18T08:01:12Z</time></trkpt><trkpt lat="43.52692272185771" lon="12.892855556239924"><ele>422.5</ele><time>2026-04-18T08:01:13Z</time></trkpt><trkpt lat="43.526877961687944" lon="12.893002537376997"><ele>420.25</ele><time>2026-04-18T08:01:14Z</time></trkpt><trkpt lat="43.526832845787226" lon="12.893164742540117"><ele>418.0</ele><time>2026-04-18T08:01:15Z</time></trkpt><trkpt lat="43.526776529005744" lon="12.893328118736207"><ele>417.5</ele><time>2026-04-18T08:01:16Z</time></trkpt><trkpt lat="43.52671649265073" lon="12.893501818160788"><ele>417.0</ele><time>2026-04-18T08:01:17Z</time></trkpt><trkpt lat="43.526651958342235" lon="12.893683382151927"><ele>416.5</ele><time>2026-04-18T08:01:18Z</time></trkpt><trkpt lat="43.52658763276422" lon="12.893861400854792"><ele>416.0</ele><time>2026-04-18T08:01:19Z</time></trkpt><trkpt lat="43.52652673403722" lon="12.894030186496693"><ele>416.0</ele><time>2026-04-18T08:01:20Z</time></trkpt><trkpt lat="43.52647752186788" lon="12.89418798669373"><ele>416.0</ele><time>2026-04-18T08:01:21Z</time></trkpt><trkpt lat="43.52646097095873" lon="12.894331751673338"><ele>416.0</ele><time>2026-04-18T08:01:22Z</time></trkpt><trkpt lat="43.526511010963354" lon="12.894445524105306"><ele>416.0</ele><time>2026-04-18T08:01:23Z</time></trkpt><trkpt lat="43.52661942263857" lon="12.894520906542125"><ele>416.0</ele><time>2026-04-18T08:01:24Z</time></trkpt><trkpt lat="43.52674230116873" lon="12.894608387740202"><ele>416.75</ele><time>2026-04-18T08:01:25Z</time></trkpt><trkpt lat="43.5268696597744" lon="12.894703998847975"><ele>417.5</ele><time>2026-04-18T08:01:26Z</time></trkpt><trkpt lat="43.52698410361748" lon="12.894787474970832"><ele>418.25</ele><time>2026-04-18T08:01:27Z</time></trkpt><trkpt lat="43.5270997148138" lon="12.894818458588917"><ele>419.0</ele><time>2026-04-18T08:01:28Z</time></trkpt><trkpt lat="43.52722456046868" lon="12.8948298539747"><ele>419.0</ele><time>2026-04-18T08:01:29Z</time></trkpt><trkpt lat="43.52734403693319" lon="12.894848436124361"><ele>419.0</ele><time>2026-04-18T08:01:30Z</time></trkpt><trkpt lat="43.527447821939376" lon="12.894929891974424"><ele>419.0</ele><time>2026-04-18T08:01:31Z</time></trkpt><trkpt lat="43.52754838372878" lon="12.895043442941754"><ele>419.0</ele><time>2026-04-18T08:01:32Z</time></trkpt><trkpt lat="43.527631794845924" lon="12.895161428239861"><ele>418.2</ele><time>2026-04-18T08:01:33Z</time></trkpt><trkpt lat="43.527701457900754" lon="12.895287286923786"><ele>417.4</ele><time>2026-04-18T08:01:34Z</time></trkpt><trkpt lat="43.527755369448215" lon="12.895420262794147"><ele>416.6</ele><time>2026-04-18T08:01:35Z</time></trkpt><trkpt lat="43.527731826219174" lon="12.895571729548454"><ele>415.8</ele><time>2026-04-18T08:01:36Z</time></trkpt><trkpt lat="43.52766006203819" lon="12.895677272414277"><ele>415.0</ele><time>2026-04-18T08:01:37Z</time></trkpt><trkpt lat="43.527532419012346" lon="12.895702477803768"><ele>415.0</ele><time>2026-04-18T08:01:38Z</time></trkpt><trkpt lat="43.52740203292908" lon="12.895764706639941"><ele>415.0</ele><time>2026-04-18T08:01:39Z</time></trkpt><trkpt lat="43.5272576314429" lon="12.89583216235324"><ele>415.0</ele><time>2026-04-18T08:01:40Z</time></trkpt><trkpt lat="43.52710990704368" lon="12.895915498700983"><ele>415.6666666666667</ele><time>2026-04-18T08:01:41Z</time></trkpt><trkpt lat="43.52695785899445" lon="12.895995208864937"><ele>416.33333333333337</ele><time>2026-04-18T08:01:42Z</time></trkpt><trkpt lat="43.52681185676423" lon="12.896062553938702"><ele>417.0</ele><time>2026-04-18T08:01:43Z</time></trkpt><trkpt lat="43.526684056465776" lon="12.896144968537305"><ele>417.0</ele><time>2026-04-18T08:01:44Z</time></trkpt><trkpt lat="43.52658581475531" lon="12.896270873532382"><ele>417.0</ele><time>2026-04-18T08:01:45Z</time></trkpt><trkpt lat="43.5265303831794" lon="12.89644069329504"><ele>417.0</ele><time>2026-04-18T08:01:46Z</time></trkpt><trkpt lat="43.526481210963354" lon="12.896604352516977"><ele>417.0</ele><time>2026-04-18T08:01:47Z</time></trkpt><trkpt lat="43.52638778670855" lon="12.896704727445293"><ele>417.0</ele><time>2026-04-18T08:01:48Z</time></trkpt><trkpt lat="43.52626983474771" lon="12.896728521981476"><ele>417.0</ele><time>2026-04-18T08:01:49Z</time></trkpt><trkpt lat="43.52614710907978" lon="12.896708785098712"><ele>417.0</ele><time>2026-04-18T08:01:50Z</time></trkpt><trkpt lat="43.52601845533828" lon="12.896695141784468"><ele>417.0</ele><time>2026-04-18T08:01:51Z</time></trkpt><trkpt lat="43.52588916046468" lon="12.896791263313487"><ele>420.66666666666663</ele><time>2026-04-18T08:01:52Z</time></trkpt><trkpt lat="43.525766578198564" lon="12.896926281150915"><ele>424.3333333333333</ele><time>2026-04-18T08:01:53Z</time></trkpt><trkpt lat="43.52565495668142" lon="12.897077708130123"><ele>428.0</ele><time>2026-04-18T08:01:54Z</time></trkpt><trkpt lat="43.525523804889666" lon="12.897193749724217"><ele>419.66666666666663</ele><time>2026-04-18T08:01:55Z</time></trkpt><trkpt lat="43.52537796626348" lon="12.8972796523475"><ele>411.33333333333337</ele><time>2026-04-18T08:01:56Z</time></trkpt><trkpt lat="43.52522205569421" lon="12.897347129859288"><ele>403.0</ele><time>2026-04-18T08:01:57Z</time></trkpt><trkpt lat="43.52507111583457" lon="12.897423199663791"><ele>403.0</ele><time>2026-04-18T08:01:58Z</time></trkpt><trkpt lat="43.52493323868287" lon="12.897499978714166"><ele>403.0</ele><time>2026-04-18T08:01:59Z</time></trkpt><trkpt lat="43.52480212266559" lon="12.89757164732751"><ele>403.0</ele><time>2026-04-18T08:02:00Z</time></trkpt><trkpt lat="43.524679972138365" lon="12.897661922789585"><ele>403.0</ele><time>2026-04-18T08:02:01Z</time></trkpt><trkpt lat="43.524564055745714" lon="12.897786746761753"><ele>402.75</ele><time>2026-04-18T08:02:02Z</time></trkpt><trkpt lat="43.524461524608974" lon="12.897916527244027"><ele>402.5</ele><time>2026-04-18T08:02:03Z</time></trkpt><trkpt lat="43.52435380304601" lon="12.89804215911466"><ele>402.25</ele><time>2026-04-18T08:02:04Z</time></trkpt><trkpt lat="43.524250177798095" lon="12.898126551419981"><ele>402.0</ele><time>2026-04-18T08:02:05Z</time></trkpt><trkpt lat="43.52410309651219" lon="12.898277054780628"><ele>402.0</ele><time>2026-04-18T08:02:06Z</time></trkpt><trkpt lat="43.52398138913124" lon="12.898403573767574"><ele>402.0</ele><time>2026-04-18T08:02:07Z</time></trkpt><trkpt lat="43.523862911742924" lon="12.898531629136405"><ele>402.0</ele><time>2026-04-18T08:02:08Z</time></trkpt><trkpt lat="43.523748053347624" lon="12.898655574488645"><ele>402.0</ele><time>2026-04-18T08:02:09Z</time></trkpt><trkpt lat="43.5236374011267" lon="12.898770415408675"><ele>398.75</ele><time>2026-04-18T08:02:10Z</time></trkpt><trkpt lat="43.523524110435076" lon="12.898881856349686"><ele>395.5</ele><time>2026-04-18T08:02:11Z</time></trkpt><trkpt lat="43.52341496804798" lon="12.8989867655721"><ele>392.25</ele><time>2026-04-18T08:02:12Z</time></trkpt><trkpt lat="43.52330789926412" lon="12.89909103172675"><ele>389.0</ele><time>2026-04-18T08:02:13Z</time></trkpt><trkpt lat="43.52320553277362" lon="12.89919419943253"><ele>388.25</ele><time>2026-04-18T08:02:14Z</time></trkpt><trkpt lat="43.523105580997196" lon="12.899294561877106"><ele>387.5</ele><time>2026-04-18T08:02:15Z</time></trkpt><trkpt lat="43.5230088816971" lon="12.89938927604449"><ele>386.75</ele><time>2026-04-18T08:02:16Z</time></trkpt><trkpt lat="43.52292308051082" lon="12.899492617469202"><ele>386.0</ele><time>2026-04-18T08:02:17Z</time></trkpt><trkpt lat="43.52285701988877" lon="12.899606896121156"><ele>385.99999999999994</ele><time>2026-04-18T08:02:18Z</time></trkpt><trkpt lat="43.52279568894441" lon="12.899693513718749"><ele>386.0</ele><time>2026-04-18T08:02:19Z</time></trkpt><trkpt lat="43.52274307442432" lon="12.899764331789216"><ele>386.0</ele><time>2026-04-18T08:02:20Z</time></trkpt><trkpt lat="43.52263550550444" lon="12.899729780167164"><ele>386.0</ele><time>2026-04-18T08:02:22Z</time></trkpt><trkpt lat="43.52263253850565" lon="12.899624713986183"><ele>385.99999999999994</ele><time>2026-04-18T08:02:23Z</time></trkpt><trkpt lat="43.52268941642243" lon="12.899535386180043"><ele>386.0</ele><time>2026-04-18T08:02:24Z</time></trkpt><trkpt lat="43.52276858933097" lon="12.899440297658016"><ele>386.0</ele><time>2026-04-18T08:02:25Z</time></trkpt><trkpt lat="43.52283984023929" lon="12.899321268472812"><ele>386.0</ele><time>2026-04-18T08:02:26Z</time></trkpt><trkpt lat="43.5229153042823" lon="12.89917730272889"><ele>386.0</ele><time>2026-04-18T08:02:27Z</time></trkpt><trkpt lat="43.52299593017031" lon="12.89902057114292"><ele>386.0</ele><time>2026-04-18T08:02:28Z</time></trkpt><trkpt lat="43.52308700869515" lon="12.898858964481677"><ele>386.75</ele><time>2026-04-18T08:02:29Z</time></trkpt><trkpt lat="43.52317142827311" lon="12.898713167313623"><ele>387.5</ele><time>2026-04-18T08:02:30Z</time></trkpt><trkpt lat="43.52325255979255" lon="12.89857489998663"><ele>388.25</ele><time>2026-04-18T08:02:31Z</time></trkpt><trkpt lat="43.52336453847405" lon="12.898486329642406"><ele>389.0</ele><time>2026-04-18T08:02:32Z</time></trkpt><trkpt lat="43.523471795125275" lon="12.898355437933125"><ele>385.3333333333333</ele><time>2026-04-18T08:02:33Z</time></trkpt><trkpt lat="43.52360924835427" lon="12.898232931043806"><ele>381.66666666666663</ele><time>2026-04-18T08:02:34Z</time></trkpt><trkpt lat="43.52373100813753" lon="12.898102053847984"><ele>378.0</ele><time>2026-04-18T08:02:35Z</time></trkpt><trkpt lat="43.523840891351774" lon="12.897977536520246"><ele>378.5</ele><time>2026-04-18T08:02:36Z</time></trkpt><trkpt lat="43.52394422548961" lon="12.897838299981267"><ele>379.0</ele><time>2026-04-18T08:02:37Z</time></trkpt><trkpt lat="43.524042414710124" lon="12.897699339761227"><ele>379.5</ele><time>2026-04-18T08:02:38Z</time></trkpt><trkpt lat="43.52413903833568" lon="12.897557761401295"><ele>380.0</ele><time>2026-04-18T08:02:39Z</time></trkpt><trkpt lat="43.52425187539128" lon="12.89744194934873"><ele>380.0</ele><time>2026-04-18T08:02:40Z</time></trkpt><trkpt lat="43.5243576918561" lon="12.897325650491906"><ele>380.0</ele><time>2026-04-18T08:02:41Z</time></trkpt><trkpt lat="43.52447690020502" lon="12.897233117529321"><ele>380.0</ele><time>2026-04-18T08:02:42Z</time></trkpt><trkpt lat="43.524608391193176" lon="12.897158729199088"><ele>380.0</ele><time>2026-04-18T08:02:43Z</time></trkpt><trkpt lat="43.524747216263115" lon="12.897062951999828"><ele>379.0</ele><time>2026-04-18T08:02:44Z</time></trkpt><trkpt lat="43.52489482547963" lon="12.896984083266187"><ele>378.0</ele><time>2026-04-18T08:02:45Z</time></trkpt><trkpt lat="43.52502735267441" lon="12.896870633286952"><ele>377.0</ele><time>2026-04-18T08:02:46Z</time></trkpt><trkpt lat="43.525142186178506" lon="12.896739735051002"><ele>377.0</ele><time>2026-04-18T08:02:47Z</time></trkpt><trkpt lat="43.525231249824984" lon="12.896624411946808"><ele>377.0</ele><time>2026-04-18T08:02:48Z</time></trkpt><trkpt lat="43.52529546334641" lon="12.8965376494215"><ele>377.0</ele><time>2026-04-18T08:02:49Z</time></trkpt><trkpt lat="43.525345740619464" lon="12.896450074772579"><ele>377.0</ele><time>2026-04-18T08:02:50Z</time></trkpt><trkpt lat="43.52531274853821" lon="12.89631528008355"><ele>377.0</ele><time>2026-04-18T08:02:51Z</time></trkpt><trkpt lat="43.52524197036931" lon="12.896218274951625"><ele>377.0</ele><time>2026-04-18T08:02:52Z</time></trkpt><trkpt lat="43.52515566356819" lon="12.896160867706344"><ele>377.0</ele><time>2026-04-18T08:02:53Z</time></trkpt><trkpt lat="43.52504632936611" lon="12.89626867853412"><ele>377.0</ele><time>2026-04-18T08:02:54Z</time></trkpt><trkpt lat="43.52493006595755" lon="12.89634446391288"><ele>377.0</ele><time>2026-04-18T08:02:55Z</time></trkpt><trkpt lat="43.52480917646713" lon="12.896365653063375"><ele>377.0</ele><time>2026-04-18T08:02:56Z</time></trkpt><trkpt lat="43.52466392881254" lon="12.896382240573525"><ele>377.0</ele><time>2026-04-18T08:02:57Z</time></trkpt><trkpt lat="43.52452157470648" lon="12.89636321557676"><ele>377.0</ele><time>2026-04-18T08:02:58Z</time></trkpt><trkpt lat="43.52436921379487" lon="12.89633606088"><ele>377.0</ele><time>2026-04-18T08:02:59Z</time></trkpt><trkpt lat="43.52423551428518" lon="12.896297565395045"><ele>375.40000000000003</ele><time>2026-04-18T08:03:00Z</time></trkpt><trkpt lat="43.52413878204107" lon="12.896224291774613"><ele>373.8</ele><time>2026-04-18T08:03:01Z</time></trkpt><trkpt lat="43.52409299389875" lon="12.896120337400715"><ele>372.2</ele><time>2026-04-18T08:03:02Z</time></trkpt><trkpt lat="43.524133779767524" lon="12.895974758201756"><ele>370.6</ele><time>2026-04-18T08:03:03Z</time></trkpt><trkpt lat="43.524137962849366" lon="12.895821231816122"><ele>369.0</ele><time>2026-04-18T08:03:04Z</time></trkpt><trkpt lat="43.52411035386379" lon="12.89567101272059"><ele>369.0</ele><time>2026-04-18T08:03:05Z</time></trkpt><trkpt lat="43.5240255581346" lon="12.89559049839747"><ele>369.0</ele><time>2026-04-18T08:03:06Z</time></trkpt><trkpt lat="43.52391545730059" lon="12.895595661622"><ele>369.0</ele><time>2026-04-18T08:03:07Z</time></trkpt><trkpt lat="43.52381421492929" lon="12.895669827487744"><ele>369.0</ele><time>2026-04-18T08:03:08Z</time></trkpt><trkpt lat="43.52372501600704" lon="12.895792088305313"><ele>367.0</ele><time>2026-04-18T08:03:09Z</time></trkpt><trkpt lat="43.523645465707155" lon="12.895932200489785"><ele>365.0</ele><time>2026-04-18T08:03:10Z</time></trkpt><trkpt lat="43.52356437661082" lon="12.896076489259706"><ele>363.0</ele><time>2026-04-18T08:03:11Z</time></trkpt><trkpt lat="43.52346728740988" lon="12.896216607530333"><ele>361.0</ele><time>2026-04-18T08:03:12Z</time></trkpt><trkpt lat="43.523377083546194" lon="12.89634890495191"><ele>361.0</ele><time>2026-04-18T08:03:13Z</time></trkpt><trkpt lat="43.52327146801281" lon="12.89647845206641"><ele>361.0</ele><time>2026-04-18T08:03:14Z</time></trkpt><trkpt lat="43.52316977454513" lon="12.896598604516702"><ele>361.0</ele><time>2026-04-18T08:03:15Z</time></trkpt><trkpt lat="43.52306905662654" lon="12.896704694757183"><ele>361.0</ele><time>2026-04-18T08:03:16Z</time></trkpt><trkpt lat="43.52296623171554" lon="12.896793351757237"><ele>357.0</ele><time>2026-04-18T08:03:17Z</time></trkpt><trkpt lat="43.52285079070858" lon="12.896872785819298"><ele>353.0</ele><time>2026-04-18T08:03:18Z</time></trkpt><trkpt lat="43.52273956320714" lon="12.896943588612329"><ele>349.0</ele><time>2026-04-18T08:03:19Z</time></trkpt><trkpt lat="43.52262796631185" lon="12.897019928969922"><ele>345.0</ele><time>2026-04-18T08:03:20Z</time></trkpt><trkpt lat="43.5225044984563" lon="12.89710040500532"><ele>345.0</ele><time>2026-04-18T08:03:21Z</time></trkpt><trkpt lat="43.52237025777421" lon="12.897190660378916"><ele>345.0</ele><time>2026-04-18T08:03:22Z</time></trkpt><trkpt lat="43.522229097621064" lon="12.897254409647656"><ele>345.0</ele><time>2026-04-18T08:03:23Z</time></trkpt><trkpt lat="43.522075994104085" lon="12.897313623960907"><ele>345.6666666666667</ele><time>2026-04-18T08:03:24Z</time></trkpt><trkpt lat="43.52192058425816" lon="12.897373866320672"><ele>346.33333333333337</ele><time>2026-04-18T08:03:25Z</time></trkpt><trkpt lat="43.52176877798252" lon="12.897450095202371"><ele>347.0</ele><time>2026-04-18T08:03:26Z</time></trkpt><trkpt lat="43.521607610462084" lon="12.897515020606246"><ele>342.6666666666667</ele><time>2026-04-18T08:03:27Z</time></trkpt><trkpt lat="43.521442376137514" lon="12.897588556492222"><ele>338.3333333333333</ele><time>2026-04-18T08:03:28Z</time></trkpt><trkpt lat="43.521274503897764" lon="12.897660641761602"><ele>334.0</ele><time>2026-04-18T08:03:29Z</time></trkpt><trkpt lat="43.52110536188791" lon="12.897739855262579"><ele>333.0</ele><time>2026-04-18T08:03:30Z</time></trkpt><trkpt lat="43.52093656900716" lon="12.897820830297356"><ele>332.0</ele><time>2026-04-18T08:03:31Z</time></trkpt><trkpt lat="43.520767278989325" lon="12.897906835115112"><ele>331.0</ele><time>2026-04-18T08:03:32Z</time></trkpt><trkpt lat="43.52060521132111" lon="12.897988392437666"><ele>331.0</ele><time>2026-04-18T08:03:33Z</time></trkpt><trkpt lat="43.52044747888218" lon="12.89806490625364"><ele>331.0</ele><time>2026-04-18T08:03:34Z</time></trkpt><trkpt lat="43.52029307182658" lon="12.898141932279348"><ele>331.0</ele><time>2026-04-18T08:03:35Z</time></trkpt><trkpt lat="43.52014475544811" lon="12.898216640596766"><ele>333.3333333333333</ele><time>2026-04-18T08:03:36Z</time></trkpt><trkpt lat="43.52000064549942" lon="12.898292842952007"><ele>335.6666666666667</ele><time>2026-04-18T08:03:37Z</time></trkpt><trkpt lat="43.5198620886472" lon="12.898379191827804"><ele>338.0</ele><time>2026-04-18T08:03:38Z</time></trkpt><trkpt lat="43.51973287459415" lon="12.898501841661332"><ele>332.33333333333337</ele><time>2026-04-18T08:03:39Z</time></trkpt><trkpt lat="43.51961103264616" lon="12.898648201448012"><ele>326.6666666666667</ele><time>2026-04-18T08:03:40Z</time></trkpt><trkpt lat="43.51950026129946" lon="12.89880515356929"><ele>321.0</ele><time>2026-04-18T08:03:41Z</time></trkpt><trkpt lat="43.5194109053658" lon="12.898957774498513"><ele>320.6</ele><time>2026-04-18T08:03:42Z</time></trkpt><trkpt lat="43.51934682488758" lon="12.899105719030675"><ele>320.20000000000005</ele><time>2026-04-18T08:03:43Z</time></trkpt><trkpt lat="43.51926967301109" lon="12.899212078876168"><ele>319.79999999999995</ele><time>2026-04-18T08:03:44Z</time></trkpt><trkpt lat="43.51920612433736" lon="12.8992940434298"><ele>319.4</ele><time>2026-04-18T08:03:45Z</time></trkpt><trkpt lat="43.51912642921497" lon="12.899340391187046"><ele>319.0</ele><time>2026-04-18T08:03:46Z</time></trkpt><trkpt lat="43.51903302581096" lon="12.899276081383501"><ele>319.0</ele><time>2026-04-18T08:03:47Z</time></trkpt><trkpt lat="43.51894331683412" lon="12.89914315222402"><ele>319.0</ele><time>2026-04-18T08:03:48Z</time></trkpt><trkpt lat="43.5188516765243" lon="12.898983706556002"><ele>319.0</ele><time>2026-04-18T08:03:49Z</time></trkpt><trkpt lat="43.518744555046965" lon="12.898830108025646"><ele>319.0</ele><time>2026-04-18T08:03:50Z</time></trkpt><trkpt lat="43.51863612634279" lon="12.898687412011366"><ele>318.5</ele><time>2026-04-18T08:03:51Z</time></trkpt><trkpt lat="43.51852319955604" lon="12.898553635638658"><ele>318.0</ele><time>2026-04-18T08:03:52Z</time></trkpt><trkpt lat="43.51840134342691" lon="12.89843648253687"><ele>317.5</ele><time>2026-04-18T08:03:53Z</time></trkpt><trkpt lat="43.51828318092271" lon="12.89832885374319"><ele>317.0</ele><time>2026-04-18T08:03:54Z</time></trkpt><trkpt lat="43.51815925939446" lon="12.89824543284908"><ele>317.0</ele><time>2026-04-18T08:03:55Z</time></trkpt><trkpt lat="43.51803451707897" lon="12.898204955838402"><ele>317.0</ele><time>2026-04-18T08:03:56Z</time></trkpt><trkpt lat="43.51792684589011" lon="12.898157181121505"><ele>317.0</ele><time>2026-04-18T08:03:57Z</time></trkpt><trkpt lat="43.51785119548211" lon="12.898053697454957"><ele>317.0</ele><time>2026-04-18T08:03:58Z</time></trkpt><trkpt lat="43.51783313762893" lon="12.897889357447491"><ele>318.0</ele><time>2026-04-18T08:03:59Z</time></trkpt><trkpt lat="43.517853147417455" lon="12.897709541178418"><ele>319.0</ele><time>2026-04-18T08:04:00Z</time></trkpt><trkpt lat="43.517847360844094" lon="12.897549451689327"><ele>320.0</ele><time>2026-04-18T08:04:01Z</time></trkpt><trkpt lat="43.51783681493064" lon="12.897405114753983"><ele>321.0</ele><time>2026-04-18T08:04:02Z</time></trkpt><trkpt lat="43.517991968269875" lon="12.897247685506347"><ele>321.0</ele><time>2026-04-18T08:04:03Z</time></trkpt><trkpt lat="43.5180084330324" lon="12.897129454315884"><ele>321.0</ele><time>2026-04-18T08:04:04Z</time></trkpt><trkpt lat="43.517975126603616" lon="12.897027483913146"><ele>321.0</ele><time>2026-04-18T08:04:05Z</time></trkpt><trkpt lat="43.51788894160957" lon="12.896986661395113"><ele>321.0</ele><time>2026-04-18T08:04:06Z</time></trkpt><trkpt lat="43.517795256410345" lon="12.89702511855718"><ele>321.0</ele><time>2026-04-18T08:04:07Z</time></trkpt><trkpt lat="43.51772196489001" lon="12.89715154215567"><ele>315.0</ele><time>2026-04-18T08:04:08Z</time></trkpt><trkpt lat="43.517683844629914" lon="12.897371372680318"><ele>309.0</ele><time>2026-04-18T08:04:09Z</time></trkpt><trkpt lat="43.51764425824308" lon="12.897620318224323"><ele>303.0</ele><time>2026-04-18T08:04:10Z</time></trkpt><trkpt lat="43.51760610202788" lon="12.897830716068519"><ele>301.75</ele><time>2026-04-18T08:04:11Z</time></trkpt><trkpt lat="43.51756137251496" lon="12.89800367410647"><ele>300.5</ele><time>2026-04-18T08:04:12Z</time></trkpt><trkpt lat="43.5175172135231" lon="12.89816620412674"><ele>299.25</ele><time>2026-04-18T08:04:13Z</time></trkpt><trkpt lat="43.5174347292525" lon="12.898302375994618"><ele>298.0</ele><time>2026-04-18T08:04:14Z</time></trkpt><trkpt lat="43.517298266832604" lon="12.898419905030055"><ele>298.0</ele><time>2026-04-18T08:04:15Z</time></trkpt><trkpt lat="43.51717188161665" lon="12.898540758265458"><ele>298.0</ele><time>2026-04-18T08:04:16Z</time></trkpt><trkpt lat="43.51707443486649" lon="12.898646836174477"><ele>298.0</ele><time>2026-04-18T08:04:17Z</time></trkpt><trkpt lat="43.516984728904426" lon="12.898724077981532"><ele>298.0</ele><time>2026-04-18T08:04:18Z</time></trkpt><trkpt lat="43.51688997621429" lon="12.898718560072492"><ele>299.5</ele><time>2026-04-18T08:04:19Z</time></trkpt><trkpt lat="43.51680471254045" lon="12.898616933078268"><ele>301.0</ele><time>2026-04-18T08:04:20Z</time></trkpt><trkpt lat="43.51671762074278" lon="12.898446869758388"><ele>302.5</ele><time>2026-04-18T08:04:21Z</time></trkpt><trkpt lat="43.516618841129215" lon="12.89826100273374"><ele>304.0</ele><time>2026-04-18T08:04:22Z</time></trkpt><trkpt lat="43.51648236456102" lon="12.89812185701405"><ele>304.0</ele><time>2026-04-18T08:04:23Z</time></trkpt><trkpt lat="43.51630490887592" lon="12.898042129811804"><ele>304.0</ele><time>2026-04-18T08:04:24Z</time></trkpt><trkpt lat="43.51610645548292" lon="12.897964663735333"><ele>304.0</ele><time>2026-04-18T08:04:25Z</time></trkpt><trkpt lat="43.5159032639038" lon="12.897891403808714"><ele>308.0</ele><time>2026-04-18T08:04:26Z</time></trkpt><trkpt lat="43.51570151237955" lon="12.897849522702186"><ele>312.0</ele><time>2026-04-18T08:04:27Z</time></trkpt><trkpt lat="43.515498224668974" lon="12.897825463491433"><ele>316.0</ele><time>2026-04-18T08:04:28Z</time></trkpt><trkpt lat="43.5153082447808" lon="12.897806186939318"><ele>316.0</ele><time>2026-04-18T08:04:29Z</time></trkpt><trkpt lat="43.515128066463106" lon="12.897795064374506"><ele>316.0</ele><time>2026-04-18T08:04:30Z</time></trkpt><trkpt lat="43.514940947123506" lon="12.897820292344244"><ele>316.0</ele><time>2026-04-18T08:04:31Z</time></trkpt><trkpt lat="43.514749254704974" lon="12.89790262268906"><ele>315.0</ele><time>2026-04-18T08:04:32Z</time></trkpt><trkpt lat="43.51454772100002" lon="12.897984462381233"><ele>314.0</ele><time>2026-04-18T08:04:33Z</time></trkpt><trkpt lat="43.514344971256804" lon="12.898049110505093"><ele>313.0</ele><time>2026-04-18T08:04:34Z</time></trkpt><trkpt lat="43.51413999552276" lon="12.898089190168509"><ele>313.0</ele><time>2026-04-18T08:04:35Z</time></trkpt><trkpt lat="43.51394179894652" lon="12.898088422909082"><ele>313.0</ele><time>2026-04-18T08:04:36Z</time></trkpt><trkpt lat="43.51374838263525" lon="12.898046504694715"><ele>313.0</ele><time>2026-04-18T08:04:37Z</time></trkpt><trkpt lat="43.51355998235773" lon="12.89798385367908"><ele>316.3333333333333</ele><time>2026-04-18T08:04:38Z</time></trkpt><trkpt lat="43.51337714518029" lon="12.8978996342256"><ele>319.6666666666667</ele><time>2026-04-18T08:04:39Z</time></trkpt><trkpt lat="43.513207750385114" lon="12.897759800767515"><ele>323.0</ele><time>2026-04-18T08:04:40Z</time></trkpt><trkpt lat="43.5130505759667" lon="12.89760731283446"><ele>324.33333333333337</ele><time>2026-04-18T08:04:41Z</time></trkpt><trkpt lat="43.512904998153545" lon="12.89746104712396"><ele>325.6666666666667</ele><time>2026-04-18T08:04:42Z</time></trkpt><trkpt lat="43.512770593008405" lon="12.897331884216435"><ele>327.0</ele><time>2026-04-18T08:04:43Z</time></trkpt><trkpt lat="43.51262498763834" lon="12.897231271203106"><ele>327.0</ele><time>2026-04-18T08:04:44Z</time></trkpt><trkpt lat="43.512449609527515" lon="12.897185520420814"><ele>327.0</ele><time>2026-04-18T08:04:45Z</time></trkpt><trkpt lat="43.512255239159785" lon="12.897169532586718"><ele>327.0</ele><time>2026-04-18T08:04:46Z</time></trkpt><trkpt lat="43.512059874082425" lon="12.89716905217731"><ele>328.6666666666667</ele><time>2026-04-18T08:04:47Z</time></trkpt><trkpt lat="43.51187319266095" lon="12.897152384978785"><ele>330.33333333333337</ele><time>2026-04-18T08:04:48Z</time></trkpt><trkpt lat="43.511703607625854" lon="12.89709560844678"><ele>332.0</ele><time>2026-04-18T08:04:49Z</time></trkpt><trkpt lat="43.511553008387374" lon="12.896960433343223"><ele>332.0</ele><time>2026-04-18T08:04:50Z</time></trkpt><trkpt lat="43.51139703090864" lon="12.896802618833503"><ele>332.0</ele><time>2026-04-18T08:04:51Z</time></trkpt><trkpt lat="43.51121020543001" lon="12.896685431413507"><ele>332.0</ele><time>2026-04-18T08:04:52Z</time></trkpt><trkpt lat="43.511019374700375" lon="12.896592743035242"><ele>331.33333333333337</ele><time>2026-04-18T08:04:53Z</time></trkpt><trkpt lat="43.51084056486109" lon="12.896500736677575"><ele>330.6666666666667</ele><time>2026-04-18T08:04:54Z</time></trkpt><trkpt lat="43.510674798865345" lon="12.89639011483595"><ele>330.0</ele><time>2026-04-18T08:04:55Z</time></trkpt><trkpt lat="43.51051746417763" lon="12.896274123120602"><ele>333.3333333333333</ele><time>2026-04-18T08:04:56Z</time></trkpt><trkpt lat="43.510341703982775" lon="12.896176298937638"><ele>336.66666666666663</ele><time>2026-04-18T08:04:57Z</time></trkpt><trkpt lat="43.51015821658052" lon="12.896116867102814"><ele>340.0</ele><time>2026-04-18T08:04:58Z</time></trkpt><trkpt lat="43.509981240187535" lon="12.896067639213586"><ele>340.0</ele><time>2026-04-18T08:04:59Z</time></trkpt><trkpt lat="43.50982564271656" lon="12.89602802254226"><ele>340.0</ele><time>2026-04-18T08:05:00Z</time></trkpt><trkpt lat="43.50968768290337" lon="12.895994175527356"><ele>340.0</ele><time>2026-04-18T08:05:01Z</time></trkpt><trkpt lat="43.50957444495155" lon="12.895996922096634"><ele>340.0</ele><time>2026-04-18T08:05:02Z</time></trkpt><trkpt lat="43.509489868418335" lon="12.896067635983453"><ele>339.75</ele><time>2026-04-18T08:05:03Z</time></trkpt><trkpt lat="43.509425731924985" lon="12.896210649590763"><ele>339.5</ele><time>2026-04-18T08:05:04Z</time></trkpt><trkpt lat="43.509367261362286" lon="12.896414231349393"><ele>339.25</ele><time>2026-04-18T08:05:05Z</time></trkpt><trkpt lat="43.50931055840964" lon="12.896616116819898"><ele>339.0</ele><time>2026-04-18T08:05:06Z</time></trkpt><trkpt lat="43.50928065724561" lon="12.896803585127465"><ele>339.0</ele><time>2026-04-18T08:05:07Z</time></trkpt><trkpt lat="43.509306717683735" lon="12.897001522993012"><ele>339.0</ele><time>2026-04-18T08:05:08Z</time></trkpt><trkpt lat="43.509327685299986" lon="12.897220791500466"><ele>339.0</ele><time>2026-04-18T08:05:09Z</time></trkpt><trkpt lat="43.509291308394246" lon="12.897424137909537"><ele>342.6666666666667</ele><time>2026-04-18T08:05:10Z</time></trkpt><trkpt lat="43.50919876155494" lon="12.897621185778325"><ele>346.33333333333337</ele><time>2026-04-18T08:05:11Z</time></trkpt><trkpt lat="43.50906928704681" lon="12.89778403783592"><ele>350.0</ele><time>2026-04-18T08:05:12Z</time></trkpt><trkpt lat="43.50894965921034" lon="12.897952896076537"><ele>350.0</ele><time>2026-04-18T08:05:13Z</time></trkpt><trkpt lat="43.508843152392295" lon="12.898120355677696"><ele>350.0</ele><time>2026-04-18T08:05:14Z</time></trkpt><trkpt lat="43.50874489583852" lon="12.898286384852854"><ele>350.0</ele><time>2026-04-18T08:05:15Z</time></trkpt><trkpt lat="43.50865031087185" lon="12.898446211286366"><ele>350.25</ele><time>2026-04-18T08:05:16Z</time></trkpt><trkpt lat="43.50855522548768" lon="12.898602117453239"><ele>350.5</ele><time>2026-04-18T08:05:17Z</time></trkpt><trkpt lat="43.50845165813784" lon="12.898752376613869"><ele>350.75</ele><time>2026-04-18T08:05:18Z</time></trkpt><trkpt lat="43.508360154256394" lon="12.898896828704132"><ele>351.0</ele><time>2026-04-18T08:05:19Z</time></trkpt><trkpt lat="43.50827368483473" lon="12.899026935608624"><ele>351.0</ele><time>2026-04-18T08:05:20Z</time></trkpt><trkpt lat="43.50819326804624" lon="12.899154938878736"><ele>351.0</ele><time>2026-04-18T08:05:21Z</time></trkpt><trkpt lat="43.50810566953256" lon="12.899297192085173"><ele>351.0</ele><time>2026-04-18T08:05:22Z</time></trkpt><trkpt lat="43.508014917554355" lon="12.899442075691397"><ele>351.0</ele><time>2026-04-18T08:05:23Z</time></trkpt><trkpt lat="43.50793385270508" lon="12.899574918333501"><ele>351.0</ele><time>2026-04-18T08:05:24Z</time></trkpt><trkpt lat="43.50786370970159" lon="12.89969160495979"><ele>351.0</ele><time>2026-04-18T08:05:25Z</time></trkpt><trkpt lat="43.50779013488872" lon="12.899804831191394"><ele>351.0</ele><time>2026-04-18T08:05:26Z</time></trkpt><trkpt lat="43.50770750411936" lon="12.899933045682355"><ele>351.0</ele><time>2026-04-18T08:05:27Z</time></trkpt><trkpt lat="43.50762986021205" lon="12.900059791206152"><ele>354.75</ele><time>2026-04-18T08:05:28Z</time></trkpt><trkpt lat="43.507557793802036" lon="12.900192483076172"><ele>358.5</ele><time>2026-04-18T08:05:29Z</time></trkpt><trkpt lat="43.507484247730254" lon="12.900335602570989"><ele>362.25</ele><time>2026-04-18T08:05:30Z</time></trkpt><trkpt lat="43.507394907844315" lon="12.900477534260544"><ele>366.0</ele><time>2026-04-18T08:05:31Z</time></trkpt><trkpt lat="43.5072839076683" lon="12.900627921324324"><ele>366.0</ele><time>2026-04-18T08:05:32Z</time></trkpt><trkpt lat="43.50716146267107" lon="12.900769620386175"><ele>366.0</ele><time>2026-04-18T08:05:33Z</time></trkpt><trkpt lat="43.507031787568025" lon="12.900903561587718"><ele>366.0</ele><time>2026-04-18T08:05:34Z</time></trkpt><trkpt lat="43.506912363353734" lon="12.901024480845738"><ele>363.0</ele><time>2026-04-18T08:05:35Z</time></trkpt><trkpt lat="43.50682372870154" lon="12.901137911147714"><ele>360.0</ele><time>2026-04-18T08:05:36Z</time></trkpt><trkpt lat="43.50677620145883" lon="12.901272058395461"><ele>357.0</ele><time>2026-04-18T08:05:37Z</time></trkpt><trkpt lat="43.506780261915736" lon="12.901428134370066"><ele>354.0</ele><time>2026-04-18T08:05:38Z</time></trkpt><trkpt lat="43.50682114115128" lon="12.901604982774316"><ele>355.0</ele><time>2026-04-18T08:05:39Z</time></trkpt><trkpt lat="43.50686315578166" lon="12.901797047811808"><ele>356.0</ele><time>2026-04-18T08:05:40Z</time></trkpt><trkpt lat="43.50691620803726" lon="12.90198030792992"><ele>357.0</ele><time>2026-04-18T08:05:41Z</time></trkpt><trkpt lat="43.50697078697592" lon="12.902161910780988"><ele>358.0</ele><time>2026-04-18T08:05:42Z</time></trkpt><trkpt lat="43.507043225211454" lon="12.902336393458446"><ele>361.25</ele><time>2026-04-18T08:05:43Z</time></trkpt><trkpt lat="43.507122866117946" lon="12.902498772143602"><ele>364.5</ele><time>2026-04-18T08:05:44Z</time></trkpt><trkpt lat="43.50719915535961" lon="12.902666527777134"><ele>367.75</ele><time>2026-04-18T08:05:45Z</time></trkpt><trkpt lat="43.50727716174554" lon="12.90282875443796"><ele>371.0</ele><time>2026-04-18T08:05:46Z</time></trkpt><trkpt lat="43.50736941024403" lon="12.902973210069877"><ele>371.0</ele><time>2026-04-18T08:05:47Z</time></trkpt><trkpt lat="43.50746832882209" lon="12.90308899245954"><ele>371.0</ele><time>2026-04-18T08:05:48Z</time></trkpt><trkpt lat="43.5075484750606" lon="12.903198619395651"><ele>371.0</ele><time>2026-04-18T08:05:49Z</time></trkpt><trkpt lat="43.507616542881856" lon="12.903307419741243"><ele>371.0</ele><time>2026-04-18T08:05:50Z</time></trkpt><trkpt lat="43.50765389503054" lon="12.90342212494776"><ele>371.0</ele><time>2026-04-18T08:05:51Z</time></trkpt><trkpt lat="43.50765001060129" lon="12.903532217135513"><ele>371.8</ele><time>2026-04-18T08:05:52Z</time></trkpt><trkpt lat="43.50759951339794" lon="12.903628762143002"><ele>372.6</ele><time>2026-04-18T08:05:53Z</time></trkpt><trkpt lat="43.507505835024475" lon="12.903652579068055"><ele>373.4</ele><time>2026-04-18T08:05:54Z</time></trkpt><trkpt lat="43.50740564313532" lon="12.903641521320523"><ele>374.2</ele><time>2026-04-18T08:05:55Z</time></trkpt><trkpt lat="43.507291640777666" lon="12.903636305942644"><ele>375.0</ele><time>2026-04-18T08:05:56Z</time></trkpt><trkpt lat="43.50717326963446" lon="12.90364429890883"><ele>377.0</ele><time>2026-04-18T08:05:57Z</time></trkpt><trkpt lat="43.50704163789907" lon="12.903652559233203"><ele>379.0</ele><time>2026-04-18T08:05:58Z</time></trkpt><trkpt lat="43.50690440216227" lon="12.903662074754006"><ele>381.0</ele><time>2026-04-18T08:05:59Z</time></trkpt><trkpt lat="43.50676327021912" lon="12.903671417462192"><ele>383.0</ele><time>2026-04-18T08:06:00Z</time></trkpt><trkpt lat="43.50662645181671" lon="12.90365727745822"><ele>383.0</ele><time>2026-04-18T08:06:01Z</time></trkpt><trkpt lat="43.5064924088409" lon="12.903573640756514"><ele>383.0</ele><time>2026-04-18T08:06:02Z</time></trkpt><trkpt lat="43.50635841691666" lon="12.903470452030813"><ele>383.0</ele><time>2026-04-18T08:06:03Z</time></trkpt><trkpt lat="43.50622229821923" lon="12.903392078755397"><ele>383.0</ele><time>2026-04-18T08:06:04Z</time></trkpt><trkpt lat="43.50607666803442" lon="12.90335799656051"><ele>380.5</ele><time>2026-04-18T08:06:05Z</time></trkpt><trkpt lat="43.50592977184523" lon="12.903352786334963"><ele>378.0</ele><time>2026-04-18T08:06:06Z</time></trkpt><trkpt lat="43.50578835397086" lon="12.903350817207803"><ele>375.5</ele><time>2026-04-18T08:06:07Z</time></trkpt><trkpt lat="43.50565846046436" lon="12.90335694861802"><ele>373.0</ele><time>2026-04-18T08:06:08Z</time></trkpt><trkpt lat="43.505529521237236" lon="12.903406014777582"><ele>376.0</ele><time>2026-04-18T08:06:09Z</time></trkpt><trkpt lat="43.505407089068704" lon="12.903496692488083"><ele>379.0</ele><time>2026-04-18T08:06:10Z</time></trkpt><trkpt lat="43.50528109608595" lon="12.903609311693168"><ele>382.0</ele><time>2026-04-18T08:06:11Z</time></trkpt><trkpt lat="43.50515997057917" lon="12.903747598342616"><ele>385.0</ele><time>2026-04-18T08:06:12Z</time></trkpt><trkpt lat="43.50503716694711" lon="12.903887002568872"><ele>385.0</ele><time>2026-04-18T08:06:13Z</time></trkpt><trkpt lat="43.504913566848366" lon="12.904024427128785"><ele>385.0</ele><time>2026-04-18T08:06:14Z</time></trkpt><trkpt lat="43.504785195743196" lon="12.904162794757289"><ele>385.0</ele><time>2026-04-18T08:06:15Z</time></trkpt><trkpt lat="43.50464768549833" lon="12.904308106683194"><ele>386.33333333333337</ele><time>2026-04-18T08:06:16Z</time></trkpt><trkpt lat="43.50450728292569" lon="12.904457031578898"><ele>387.66666666666663</ele><time>2026-04-18T08:06:17Z</time></trkpt><trkpt lat="43.50437070979501" lon="12.904597717707357"><ele>389.0</ele><time>2026-04-18T08:06:18Z</time></trkpt><trkpt lat="43.5042381042056" lon="12.904732119060636"><ele>389.0</ele><time>2026-04-18T08:06:19Z</time></trkpt><trkpt lat="43.50411408971253" lon="12.904861350502179"><ele>389.0</ele><time>2026-04-18T08:06:20Z</time></trkpt><trkpt lat="43.50399950953712" lon="12.904982159222884"><ele>389.0</ele><time>2026-04-18T08:06:21Z</time></trkpt><trkpt lat="43.503890330587915" lon="12.905094232564277"><ele>389.0</ele><time>2026-04-18T08:06:22Z</time></trkpt><trkpt lat="43.50379616041299" lon="12.905205951669961"><ele>386.75</ele><time>2026-04-18T08:06:23Z</time></trkpt><trkpt lat="43.50372652946282" lon="12.905336388569939"><ele>384.5</ele><time>2026-04-18T08:06:24Z</time></trkpt><trkpt lat="43.503700514246596" lon="12.90550719916611"><ele>382.25</ele><time>2026-04-18T08:06:25Z</time></trkpt><trkpt lat="43.503699727805355" lon="12.905696512894734"><ele>380.0</ele><time>2026-04-18T08:06:26Z</time></trkpt><trkpt lat="43.50368430223001" lon="12.905881558682008"><ele>382.0</ele><time>2026-04-18T08:06:27Z</time></trkpt><trkpt lat="43.50363313777283" lon="12.906053159846314"><ele>384.0</ele><time>2026-04-18T08:06:28Z</time></trkpt><trkpt lat="43.50352505926226" lon="12.906191138039475"><ele>386.0</ele><time>2026-04-18T08:06:29Z</time></trkpt><trkpt lat="43.5034096363468" lon="12.906305249008197"><ele>388.0</ele><time>2026-04-18T08:06:30Z</time></trkpt><trkpt lat="43.503312181298426" lon="12.906416176252591"><ele>388.0</ele><time>2026-04-18T08:06:31Z</time></trkpt><trkpt lat="43.50324411068967" lon="12.90654192494019"><ele>388.0</ele><time>2026-04-18T08:06:32Z</time></trkpt><trkpt lat="43.50322701611622" lon="12.906677231026148"><ele>388.0</ele><time>2026-04-18T08:06:33Z</time></trkpt><trkpt lat="43.503253551272394" lon="12.906806437573803"><ele>388.0</ele><time>2026-04-18T08:06:34Z</time></trkpt><trkpt lat="43.50333692643512" lon="12.90692889692778"><ele>388.0</ele><time>2026-04-18T08:06:35Z</time></trkpt><trkpt lat="43.50343474378298" lon="12.907046089962419"><ele>387.5</ele><time>2026-04-18T08:06:36Z</time></trkpt><trkpt lat="43.50350024774334" lon="12.907171428326428"><ele>387.0</ele><time>2026-04-18T08:06:37Z</time></trkpt><trkpt lat="43.503525519927244" lon="12.907317354527375"><ele>386.5</ele><time>2026-04-18T08:06:38Z</time></trkpt><trkpt lat="43.503485982972656" lon="12.9074672529911"><ele>386.0</ele><time>2026-04-18T08:06:39Z</time></trkpt><trkpt lat="43.50340787766854" lon="12.907584270018205"><ele>388.25</ele><time>2026-04-18T08:06:40Z</time></trkpt><trkpt lat="43.50329948047974" lon="12.907660803734945"><ele>390.5</ele><time>2026-04-18T08:06:41Z</time></trkpt><trkpt lat="43.50316480410752" lon="12.907696336481687"><ele>392.75</ele><time>2026-04-18T08:06:42Z</time></trkpt><trkpt lat="43.503042976042046" lon="12.907683119135658"><ele>395.0</ele><time>2026-04-18T08:06:43Z</time></trkpt><trkpt lat="43.502945703370195" lon="12.907606472675262"><ele>394.25</ele><time>2026-04-18T08:06:44Z</time></trkpt><trkpt lat="43.5028612629635" lon="12.90746360710098"><ele>393.5</ele><time>2026-04-18T08:06:45Z</time></trkpt><trkpt lat="43.50276081191806" lon="12.907315215357617"><ele>392.75</ele><time>2026-04-18T08:06:46Z</time></trkpt><trkpt lat="43.502648372847624" lon="12.907195863520688"><ele>392.0</ele><time>2026-04-18T08:06:47Z</time></trkpt><trkpt lat="43.50253699863992" lon="12.907107061622488"><ele>392.0</ele><time>2026-04-18T08:06:48Z</time></trkpt><trkpt lat="43.502399877999764" lon="12.907071842280294"><ele>392.0</ele><time>2026-04-18T08:06:49Z</time></trkpt><trkpt lat="43.502240107538626" lon="12.90710256229538"><ele>392.0</ele><time>2026-04-18T08:06:50Z</time></trkpt><trkpt lat="43.50207956961445" lon="12.907141487101509"><ele>391.66666666666663</ele><time>2026-04-18T08:06:51Z</time></trkpt><trkpt lat="43.50192003627459" lon="12.907193558367569"><ele>391.33333333333337</ele><time>2026-04-18T08:06:52Z</time></trkpt><trkpt lat="43.501759684711025" lon="12.907273869535814"><ele>391.0</ele><time>2026-04-18T08:06:53Z</time></trkpt><trkpt lat="43.501602732329324" lon="12.907370645737357"><ele>391.0</ele><time>2026-04-18T08:06:54Z</time></trkpt><trkpt lat="43.50143933777979" lon="12.907462920378235"><ele>391.0</ele><time>2026-04-18T08:06:55Z</time></trkpt><trkpt lat="43.501285447696986" lon="12.907562428295567"><ele>391.0</ele><time>2026-04-18T08:06:56Z</time></trkpt><trkpt lat="43.50113656278288" lon="12.90768267708122"><ele>393.6666666666667</ele><time>2026-04-18T08:06:57Z</time></trkpt><trkpt lat="43.50099131597547" lon="12.9078258070219"><ele>396.33333333333337</ele><time>2026-04-18T08:06:58Z</time></trkpt><trkpt lat="43.50084011785292" lon="12.907972907684039"><ele>399.0</ele><time>2026-04-18T08:06:59Z</time></trkpt><trkpt lat="43.50068031606043" lon="12.908119321664694"><ele>399.0</ele><time>2026-04-18T08:07:00Z</time></trkpt><trkpt lat="43.50052001879622" lon="12.908268254057857"><ele>399.0</ele><time>2026-04-18T08:07:01Z</time></trkpt><trkpt lat="43.500359248967435" lon="12.908426263192242"><ele>399.0</ele><time>2026-04-18T08:07:02Z</time></trkpt><trkpt lat="43.50020048749404" lon="12.908578425525702"><ele>400.0</ele><time>2026-04-18T08:07:03Z</time></trkpt><trkpt lat="43.50003975911287" lon="12.908717745791222"><ele>401.0</ele><time>2026-04-18T08:07:04Z</time></trkpt><trkpt lat="43.49989001309661" lon="12.908849094625076"><ele>402.0</ele><time>2026-04-18T08:07:05Z</time></trkpt><trkpt lat="43.49975123804817" lon="12.908980599846918"><ele>402.0</ele><time>2026-04-18T08:07:06Z</time></trkpt><trkpt lat="43.49963653019854" lon="12.90912684932216"><ele>402.0</ele><time>2026-04-18T08:07:07Z</time></trkpt><trkpt lat="43.49957165355854" lon="12.909311525112425"><ele>402.0</ele><time>2026-04-18T08:07:08Z</time></trkpt><trkpt lat="43.499511758970236" lon="12.90951565088591"><ele>404.33333333333337</ele><time>2026-04-18T08:07:09Z</time></trkpt><trkpt lat="43.49942395243095" lon="12.909681268290813"><ele>406.6666666666667</ele><time>2026-04-18T08:07:10Z</time></trkpt><trkpt lat="43.499283930015714" lon="12.909763867814995"><ele>409.0</ele><time>2026-04-18T08:07:11Z</time></trkpt><trkpt lat="43.499117290354626" lon="12.909783903892075"><ele>409.0</ele><time>2026-04-18T08:07:12Z</time></trkpt><trkpt lat="43.49892360438442" lon="12.909781822670393"><ele>409.0</ele><time>2026-04-18T08:07:13Z</time></trkpt><trkpt lat="43.498720144415515" lon="12.909804500377554"><ele>409.0</ele><time>2026-04-18T08:07:14Z</time></trkpt><trkpt lat="43.49853680832616" lon="12.909861567910701"><ele>410.33333333333337</ele><time>2026-04-18T08:07:15Z</time></trkpt><trkpt lat="43.49837632574605" lon="12.90991676605426"><ele>411.66666666666663</ele><time>2026-04-18T08:07:16Z</time></trkpt><trkpt lat="43.498241393219814" lon="12.909991286276464"><ele>413.0</ele><time>2026-04-18T08:07:17Z</time></trkpt><trkpt lat="43.498112500802975" lon="12.910092421907272"><ele>415.0</ele><time>2026-04-18T08:07:18Z</time></trkpt><trkpt lat="43.49800857361061" lon="12.91025387850608"><ele>417.0</ele><time>2026-04-18T08:07:19Z</time></trkpt><trkpt lat="43.497896331370555" lon="12.910383336847193"><ele>419.0</ele><time>2026-04-18T08:07:20Z</time></trkpt><trkpt lat="43.4977487222193" lon="12.910446570632782"><ele>419.0</ele><time>2026-04-18T08:07:21Z</time></trkpt><trkpt lat="43.49758604168969" lon="12.910459389014695"><ele>419.0</ele><time>2026-04-18T08:07:22Z</time></trkpt><trkpt lat="43.497437458370776" lon="12.910438194290736"><ele>419.0</ele><time>2026-04-18T08:07:23Z</time></trkpt><trkpt lat="43.49732255225891" lon="12.910353387019455"><ele>419.0</ele><time>2026-04-18T08:07:24Z</time></trkpt><trkpt lat="43.49721174348736" lon="12.910235849117852"><ele>419.0</ele><time>2026-04-18T08:07:25Z</time></trkpt><trkpt lat="43.49710451851342" lon="12.910081023826434"><ele>419.0</ele><time>2026-04-18T08:07:26Z</time></trkpt><trkpt lat="43.49698470225312" lon="12.909940015721714"><ele>419.0</ele><time>2026-04-18T08:07:27Z</time></trkpt><trkpt lat="43.49687301644141" lon="12.909823300237713"><ele>420.0</ele><time>2026-04-18T08:07:28Z</time></trkpt><trkpt lat="43.49675700788793" lon="12.909745240498273"><ele>421.0</ele><time>2026-04-18T08:07:29Z</time></trkpt><trkpt lat="43.496625573133436" lon="12.909728593534327"><ele>422.0</ele><time>2026-04-18T08:07:30Z</time></trkpt><trkpt lat="43.49647495970675" lon="12.909781797126112"><ele>423.0</ele><time>2026-04-18T08:07:31Z</time></trkpt><trkpt lat="43.49631748725516" lon="12.909867869055528"><ele>424.0</ele><time>2026-04-18T08:07:32Z</time></trkpt><trkpt lat="43.49616597812631" lon="12.909976815589465"><ele>425.0</ele><time>2026-04-18T08:07:33Z</time></trkpt><trkpt lat="43.49601425473859" lon="12.910082151303246"><ele>426.0</ele><time>2026-04-18T08:07:34Z</time></trkpt><trkpt lat="43.49585278922228" lon="12.910120059372803"><ele>426.0</ele><time>2026-04-18T08:07:35Z</time></trkpt><trkpt lat="43.49567960766354" lon="12.91007591834567"><ele>426.0</ele><time>2026-04-18T08:07:36Z</time></trkpt><trkpt lat="43.495525326100655" lon="12.909971516683196"><ele>426.0</ele><time>2026-04-18T08:07:37Z</time></trkpt><trkpt lat="43.49538022515751" lon="12.909856701360546"><ele>427.5</ele><time>2026-04-18T08:07:38Z</time></trkpt><trkpt lat="43.49522633601348" lon="12.90978038554413"><ele>429.0</ele><time>2026-04-18T08:07:39Z</time></trkpt><trkpt lat="43.49508872900753" lon="12.90971449371188"><ele>430.5</ele><time>2026-04-18T08:07:40Z</time></trkpt><trkpt lat="43.494962825227546" lon="12.909676540479134"><ele>432.0</ele><time>2026-04-18T08:07:41Z</time></trkpt><trkpt lat="43.49485516539679" lon="12.909715127736535"><ele>432.0</ele><time>2026-04-18T08:07:42Z</time></trkpt><trkpt lat="43.49477477293435" lon="12.90983265984127"><ele>432.0</ele><time>2026-04-18T08:07:43Z</time></trkpt><trkpt lat="43.49471699371067" lon="12.910043572881085"><ele>432.0</ele><time>2026-04-18T08:07:44Z</time></trkpt><trkpt lat="43.494652172075526" lon="12.910287417726218"><ele>429.33333333333337</ele><time>2026-04-18T08:07:45Z</time></trkpt><trkpt lat="43.4945718275372" lon="12.910515013399099"><ele>426.6666666666667</ele><time>2026-04-18T08:07:46Z</time></trkpt><trkpt lat="43.494500434081274" lon="12.910757014290555"><ele>424.0</ele><time>2026-04-18T08:07:47Z</time></trkpt><trkpt lat="43.494465758432696" lon="12.910990617486949"><ele>424.0</ele><time>2026-04-18T08:07:48Z</time></trkpt><trkpt lat="43.49445693096988" lon="12.911209311063029"><ele>424.0</ele><time>2026-04-18T08:07:49Z</time></trkpt><trkpt lat="43.49446319085636" lon="12.911412026956537"><ele>424.0</ele><time>2026-04-18T08:07:50Z</time></trkpt><trkpt lat="43.49452516403689" lon="12.91162933506613"><ele>430.6666666666667</ele><time>2026-04-18T08:07:51Z</time></trkpt><trkpt lat="43.4946099901322" lon="12.91183629718706"><ele>437.33333333333337</ele><time>2026-04-18T08:07:52Z</time></trkpt><trkpt lat="43.49470069329629" lon="12.91207129894067"><ele>444.0</ele><time>2026-04-18T08:07:53Z</time></trkpt><trkpt lat="43.49475970672247" lon="12.912302062070333"><ele>444.0</ele><time>2026-04-18T08:07:54Z</time></trkpt><trkpt lat="43.49482655323379" lon="12.912514378083992"><ele>444.0</ele><time>2026-04-18T08:07:55Z</time></trkpt><trkpt lat="43.494872922538924" lon="12.912725173043428"><ele>444.0</ele><time>2026-04-18T08:07:56Z</time></trkpt><trkpt lat="43.49490351516039" lon="12.912932171252743"><ele>444.25</ele><time>2026-04-18T08:07:57Z</time></trkpt><trkpt lat="43.4949014640244" lon="12.913114167478627"><ele>444.5</ele><time>2026-04-18T08:07:58Z</time></trkpt><trkpt lat="43.49488386939674" lon="12.913273811531285"><ele>444.75</ele><time>2026-04-18T08:07:59Z</time></trkpt><trkpt lat="43.49479797405909" lon="12.91338158902678"><ele>445.0</ele><time>2026-04-18T08:08:00Z</time></trkpt><trkpt lat="43.494665623253546" lon="12.91342233070019"><ele>443.33333333333337</ele><time>2026-04-18T08:08:01Z</time></trkpt><trkpt lat="43.49451420428553" lon="12.913383468679907"><ele>441.66666666666663</ele><time>2026-04-18T08:08:02Z</time></trkpt><trkpt lat="43.4943407659448" lon="12.913358067478757"><ele>440.0</ele><time>2026-04-18T08:08:03Z</time></trkpt><trkpt lat="43.49416757648934" lon="12.913343294260015"><ele>440.0</ele><time>2026-04-18T08:08:04Z</time></trkpt><trkpt lat="43.493993820371195" lon="12.91338042403091"><ele>440.0</ele><time>2026-04-18T08:08:05Z</time></trkpt><trkpt lat="43.493822511708935" lon="12.91341379779387"><ele>440.0</ele><time>2026-04-18T08:08:06Z</time></trkpt><trkpt lat="43.49366197569908" lon="12.91343383211011"><ele>441.0</ele><time>2026-04-18T08:08:07Z</time></trkpt><trkpt lat="43.49349883609092" lon="12.913423800418274"><ele>442.0</ele><time>2026-04-18T08:08:08Z</time></trkpt><trkpt lat="43.49335279679608" lon="12.91335586862013"><ele>443.0</ele><time>2026-04-18T08:08:09Z</time></trkpt><trkpt lat="43.4932183688506" lon="12.91322504920537"><ele>443.0</ele><time>2026-04-18T08:08:10Z</time></trkpt><trkpt lat="43.4930923822778" lon="12.913080814372693"><ele>443.0</ele><time>2026-04-18T08:08:11Z</time></trkpt><trkpt lat="43.49296873056168" lon="12.912959691254182"><ele>443.0</ele><time>2026-04-18T08:08:12Z</time></trkpt><trkpt lat="43.49285916387142" lon="12.912841511755124"><ele>442.79999999999995</ele><time>2026-04-18T08:08:13Z</time></trkpt><trkpt lat="43.4927612533251" lon="12.912735618425737"><ele>442.59999999999997</ele><time>2026-04-18T08:08:14Z</time></trkpt><trkpt lat="43.492667511026" lon="12.912653867995756"><ele>442.40000000000003</ele><time>2026-04-18T08:08:15Z</time></trkpt><trkpt lat="43.49257933522659" lon="12.912589242314013"><ele>442.20000000000005</ele><time>2026-04-18T08:08:16Z</time></trkpt><trkpt lat="43.49248927821123" lon="12.912518547722646"><ele>442.0</ele><time>2026-04-18T08:08:17Z</time></trkpt><trkpt lat="43.4924066893579" lon="12.912446880199376"><ele>442.0</ele><time>2026-04-18T08:08:18Z</time></trkpt><trkpt lat="43.492323443209905" lon="12.912402196979656"><ele>442.00000000000006</ele><time>2026-04-18T08:08:19Z</time></trkpt><trkpt lat="43.492237097700446" lon="12.912433519814487"><ele>442.00000000000006</ele><time>2026-04-18T08:08:20Z</time></trkpt><trkpt lat="43.492159886208384" lon="12.912530573177754"><ele>442.0</ele><time>2026-04-18T08:08:21Z</time></trkpt><trkpt lat="43.492158176254975" lon="12.912669531595133"><ele>442.0</ele><time>2026-04-18T08:08:22Z</time></trkpt><trkpt lat="43.49215816711918" lon="12.912827279637659"><ele>442.0</ele><time>2026-04-18T08:08:23Z</time></trkpt><trkpt lat="43.49217799984142" lon="12.912991183209659"><ele>442.0</ele><time>2026-04-18T08:08:24Z</time></trkpt><trkpt lat="43.49221155799107" lon="12.91315229209967"><ele>442.0</ele><time>2026-04-18T08:08:25Z</time></trkpt><trkpt lat="43.4922720642299" lon="12.913314441063841"><ele>442.0</ele><time>2026-04-18T08:08:26Z</time></trkpt><trkpt lat="43.492328359946725" lon="12.913492259363256"><ele>439.5</ele><time>2026-04-18T08:08:27Z</time></trkpt><trkpt lat="43.492400157585735" lon="12.91366525515641"><ele>437.0</ele><time>2026-04-18T08:08:28Z</time></trkpt><trkpt lat="43.492469181449565" lon="12.913846456415573"><ele>434.5</ele><time>2026-04-18T08:08:29Z</time></trkpt><trkpt lat="43.49253266627909" lon="12.9140354653034"><ele>432.0</ele><time>2026-04-18T08:08:30Z</time></trkpt><trkpt lat="43.492593524048566" lon="12.914227823846746"><ele>429.0</ele><time>2026-04-18T08:08:31Z</time></trkpt><trkpt lat="43.49266530062658" lon="12.91441078988681"><ele>426.0</ele><time>2026-04-18T08:08:32Z</time></trkpt><trkpt lat="43.4927304591675" lon="12.914587895089939"><ele>423.0</ele><time>2026-04-18T08:08:33Z</time></trkpt><trkpt lat="43.4927958877469" lon="12.914765402706744"><ele>420.0</ele><time>2026-04-18T08:08:34Z</time></trkpt><trkpt lat="43.49286081055746" lon="12.914938468677141"><ele>418.2</ele><time>2026-04-18T08:08:35Z</time></trkpt><trkpt lat="43.492921852981446" lon="12.91508530493076"><ele>416.4</ele><time>2026-04-18T08:08:36Z</time></trkpt><trkpt lat="43.49300945871133" lon="12.915180857429098"><ele>414.6</ele><time>2026-04-18T08:08:37Z</time></trkpt><trkpt lat="43.49311312971478" lon="12.915203704999671"><ele>412.8</ele><time>2026-04-18T08:08:38Z</time></trkpt><trkpt lat="43.49321201630591" lon="12.915162316425956"><ele>411.0</ele><time>2026-04-18T08:08:39Z</time></trkpt><trkpt lat="43.49333948822042" lon="12.915134533877374"><ele>411.0</ele><time>2026-04-18T08:08:40Z</time></trkpt><trkpt lat="43.493470404659504" lon="12.915152974406972"><ele>411.0</ele><time>2026-04-18T08:08:41Z</time></trkpt><trkpt lat="43.49358939169321" lon="12.915235470980688"><ele>411.0</ele><time>2026-04-18T08:08:42Z</time></trkpt><trkpt lat="43.49373438809013" lon="12.915298744523232"><ele>411.0</ele><time>2026-04-18T08:08:43Z</time></trkpt><trkpt lat="43.49386179221104" lon="12.915349081336485"><ele>413.5</ele><time>2026-04-18T08:08:44Z</time></trkpt><trkpt lat="43.49398898177906" lon="12.915406027012878"><ele>416.0</ele><time>2026-04-18T08:08:45Z</time></trkpt><trkpt lat="43.4941051493931" lon="12.915470045143385"><ele>418.5</ele><time>2026-04-18T08:08:46Z</time></trkpt><trkpt lat="43.49418999380497" lon="12.91557867230438"><ele>421.0</ele><time>2026-04-18T08:08:47Z</time></trkpt><trkpt lat="43.49425567161252" lon="12.91571560776333"><ele>421.0</ele><time>2026-04-18T08:08:48Z</time></trkpt><trkpt lat="43.49423848769661" lon="12.915887804323841"><ele>421.0</ele><time>2026-04-18T08:08:49Z</time></trkpt><trkpt lat="43.49414484332623" lon="12.916019699733454"><ele>421.0</ele><time>2026-04-18T08:08:50Z</time></trkpt><trkpt lat="43.4940425349096" lon="12.916154482192955"><ele>421.0</ele><time>2026-04-18T08:08:51Z</time></trkpt><trkpt lat="43.493915248358235" lon="12.916268934259032"><ele>422.5</ele><time>2026-04-18T08:08:52Z</time></trkpt><trkpt lat="43.493823221740904" lon="12.916422681803748"><ele>424.0</ele><time>2026-04-18T08:08:53Z</time></trkpt><trkpt lat="43.49375178434832" lon="12.916601714247617"><ele>425.5</ele><time>2026-04-18T08:08:54Z</time></trkpt><trkpt lat="43.493675740928204" lon="12.916768672157644"><ele>427.0</ele><time>2026-04-18T08:08:55Z</time></trkpt><trkpt lat="43.49357418666694" lon="12.916906230450676"><ele>422.25</ele><time>2026-04-18T08:08:56Z</time></trkpt><trkpt lat="43.49344792055939" lon="12.91700575885001"><ele>417.5</ele><time>2026-04-18T08:08:57Z</time></trkpt><trkpt lat="43.49331808514785" lon="12.91708138698705"><ele>412.75</ele><time>2026-04-18T08:08:58Z</time></trkpt><trkpt lat="43.49320562377352" lon="12.917159399801728"><ele>408.0</ele><time>2026-04-18T08:08:59Z</time></trkpt><trkpt lat="43.49311462847569" lon="12.917273073533558"><ele>408.0</ele><time>2026-04-18T08:09:00Z</time></trkpt><trkpt lat="43.49305917029644" lon="12.917422184188734"><ele>408.0</ele><time>2026-04-18T08:09:01Z</time></trkpt><trkpt lat="43.49305225430425" lon="12.917595019653108"><ele>408.0</ele><time>2026-04-18T08:09:02Z</time></trkpt><trkpt lat="43.49306341070974" lon="12.917759172294424"><ele>408.0</ele><time>2026-04-18T08:09:03Z</time></trkpt><trkpt lat="43.493066714120715" lon="12.917921174872369"><ele>409.0</ele><time>2026-04-18T08:09:04Z</time></trkpt><trkpt lat="43.49303132691016" lon="12.91807238179401"><ele>410.0</ele><time>2026-04-18T08:09:05Z</time></trkpt><trkpt lat="43.49295797441128" lon="12.918207993831516"><ele>411.0</ele><time>2026-04-18T08:09:06Z</time></trkpt><trkpt lat="43.49285418166024" lon="12.918306064169478"><ele>412.0</ele><time>2026-04-18T08:09:07Z</time></trkpt><trkpt lat="43.49276054326518" lon="12.91840351953734"><ele>405.25</ele><time>2026-04-18T08:09:08Z</time></trkpt><trkpt lat="43.492705411624904" lon="12.91854484429924"><ele>398.5</ele><time>2026-04-18T08:09:09Z</time></trkpt><trkpt lat="43.492701420440724" lon="12.918718213320043"><ele>391.75</ele><time>2026-04-18T08:09:10Z</time></trkpt><trkpt lat="43.492726622402934" lon="12.918899050697044"><ele>385.0</ele><time>2026-04-18T08:09:11Z</time></trkpt><trkpt lat="43.49275399488832" lon="12.91907695266491"><ele>384.75</ele><time>2026-04-18T08:09:12Z</time></trkpt><trkpt lat="43.492782620641634" lon="12.919261048483333"><ele>384.5</ele><time>2026-04-18T08:09:13Z</time></trkpt><trkpt lat="43.492805425846214" lon="12.919453039170662"><ele>384.25</ele><time>2026-04-18T08:09:14Z</time></trkpt><trkpt lat="43.492819083847955" lon="12.919644682057072"><ele>384.0</ele><time>2026-04-18T08:09:15Z</time></trkpt><trkpt lat="43.49280905170101" lon="12.919841178593789"><ele>384.0</ele><time>2026-04-18T08:09:16Z</time></trkpt><trkpt lat="43.49277333536866" lon="12.92004248278889"><ele>384.0</ele><time>2026-04-18T08:09:17Z</time></trkpt><trkpt lat="43.49273768677566" lon="12.920234316343697"><ele>384.0</ele><time>2026-04-18T08:09:18Z</time></trkpt><trkpt lat="43.49269806317987" lon="12.920427157838233"><ele>384.0</ele><time>2026-04-18T08:09:19Z</time></trkpt><trkpt lat="43.49265280572919" lon="12.92061266632159"><ele>382.75</ele><time>2026-04-18T08:09:20Z</time></trkpt><trkpt lat="43.49260642967294" lon="12.920792805853743"><ele>381.5</ele><time>2026-04-18T08:09:21Z</time></trkpt><trkpt lat="43.49256517773144" lon="12.920963199881783"><ele>380.25</ele><time>2026-04-18T08:09:22Z</time></trkpt><trkpt lat="43.49255753811924" lon="12.921132444539717"><ele>379.0</ele><time>2026-04-18T08:09:23Z</time></trkpt><trkpt lat="43.49261729753021" lon="12.921303948523242"><ele>377.25</ele><time>2026-04-18T08:09:24Z</time></trkpt><trkpt lat="43.492697224367944" lon="12.921467870839889"><ele>375.5</ele><time>2026-04-18T08:09:25Z</time></trkpt><trkpt lat="43.4927663765976" lon="12.92164724576685"><ele>373.75</ele><time>2026-04-18T08:09:26Z</time></trkpt><trkpt lat="43.49284182957171" lon="12.921818211762485"><ele>372.0</ele><time>2026-04-18T08:09:27Z</time></trkpt><trkpt lat="43.49292205045972" lon="12.92197282253134"><ele>370.75</ele><time>2026-04-18T08:09:28Z</time></trkpt><trkpt lat="43.492990780366945" lon="12.922133036629905"><ele>369.5</ele><time>2026-04-18T08:09:29Z</time></trkpt><trkpt lat="43.493025520367375" lon="12.922323093992633"><ele>368.25</ele><time>2026-04-18T08:09:30Z</time></trkpt><trkpt lat="43.49308000352538" lon="12.922504673274913"><ele>367.0</ele><time>2026-04-18T08:09:31Z</time></trkpt><trkpt lat="43.4931144912578" lon="12.922685370344032"><ele>367.0</ele><time>2026-04-18T08:09:32Z</time></trkpt><trkpt lat="43.4931508718395" lon="12.92286034413771"><ele>367.0</ele><time>2026-04-18T08:09:33Z</time></trkpt><trkpt lat="43.49318555334244" lon="12.923036423446671"><ele>367.0</ele><time>2026-04-18T08:09:34Z</time></trkpt><trkpt lat="43.49322789277735" lon="12.923211450179586"><ele>367.0</ele><time>2026-04-18T08:09:35Z</time></trkpt><trkpt lat="43.49327735971554" lon="12.92336960961944"><ele>365.5</ele><time>2026-04-18T08:09:36Z</time></trkpt><trkpt lat="43.4933441730442" lon="12.923512768592447"><ele>364.0</ele><time>2026-04-18T08:09:37Z</time></trkpt><trkpt lat="43.493421743503085" lon="12.923642328619195"><ele>362.5</ele><time>2026-04-18T08:09:38Z</time></trkpt><trkpt lat="43.493503085747946" lon="12.92376203132035"><ele>361.0</ele><time>2026-04-18T08:09:39Z</time></trkpt><trkpt lat="43.49357151294612" lon="12.923888360069222"><ele>361.0</ele><time>2026-04-18T08:09:40Z</time></trkpt><trkpt lat="43.493652340126935" lon="12.923995386203012"><ele>361.0</ele><time>2026-04-18T08:09:41Z</time></trkpt><trkpt lat="43.493677597247846" lon="12.924141586694793"><ele>361.0</ele><time>2026-04-18T08:09:42Z</time></trkpt><trkpt lat="43.49369763996711" lon="12.924275698950797"><ele>361.0</ele><time>2026-04-18T08:09:43Z</time></trkpt><trkpt lat="43.49372353167628" lon="12.92439978573238"><ele>361.0</ele><time>2026-04-18T08:09:44Z</time></trkpt><trkpt lat="43.493735216022785" lon="12.924511744294499"><ele>361.6</ele><time>2026-04-18T08:09:45Z</time></trkpt><trkpt lat="43.493772770168796" lon="12.924635542023175"><ele>362.20000000000005</ele><time>2026-04-18T08:09:47Z</time></trkpt><trkpt lat="43.49382660251012" lon="12.924697686711664"><ele>362.79999999999995</ele><time>2026-04-18T08:09:50Z</time></trkpt><trkpt lat="43.49397333778471" lon="12.92461254645693"><ele>363.4</ele><time>2026-04-18T08:10:39Z</time></trkpt><trkpt lat="43.494049778226945" lon="12.924541314884863"><ele>364.0</ele><time>2026-04-18T08:10:41Z</time></trkpt><trkpt lat="43.494119081335135" lon="12.92448666788554"><ele>364.0</ele><time>2026-04-18T08:10:43Z</time></trkpt><trkpt lat="43.49419060205234" lon="12.924385266235431"><ele>364.0</ele><time>2026-04-18T08:10:52Z</time></trkpt><trkpt lat="43.494275595668945" lon="12.924310323964798"><ele>364.0</ele><time>2026-04-18T08:10:53Z</time></trkpt><trkpt lat="43.49438194636691" lon="12.924251012880141"><ele>364.0</ele><time>2026-04-18T08:10:54Z</time></trkpt><trkpt lat="43.49451937363713" lon="12.924262269947665"><ele>365.0</ele><time>2026-04-18T08:10:55Z</time></trkpt><trkpt lat="43.49465236754302" lon="12.924318260770717"><ele>366.0</ele><time>2026-04-18T08:10:56Z</time></trkpt><trkpt lat="43.49475956840024" lon="12.924435650305696"><ele>367.0</ele><time>2026-04-18T08:10:57Z</time></trkpt><trkpt lat="43.49486920224142" lon="12.924577307581325"><ele>368.0</ele><time>2026-04-18T08:10:58Z</time></trkpt><trkpt lat="43.494979010752274" lon="12.924740069445603"><ele>368.0</ele><time>2026-04-18T08:10:59Z</time></trkpt><trkpt lat="43.49510572727516" lon="12.924884562999642"><ele>368.0</ele><time>2026-04-18T08:11:00Z</time></trkpt><trkpt lat="43.49522318924452" lon="12.9250339714185"><ele>368.0</ele><time>2026-04-18T08:11:01Z</time></trkpt><trkpt lat="43.49536313071147" lon="12.9251674970585"><ele>365.6666666666667</ele><time>2026-04-18T08:11:02Z</time></trkpt><trkpt lat="43.49552654531227" lon="12.925302685394469"><ele>363.3333333333333</ele><time>2026-04-18T08:11:03Z</time></trkpt><trkpt lat="43.49567364426843" lon="12.925386694180485"><ele>361.0</ele><time>2026-04-18T08:11:04Z</time></trkpt><trkpt lat="43.495879494234984" lon="12.925498242771344"><ele>361.0</ele><time>2026-04-18T08:11:05Z</time></trkpt><trkpt lat="43.49601610295731" lon="12.925581824037984"><ele>361.0</ele><time>2026-04-18T08:11:06Z</time></trkpt><trkpt lat="43.49614778142776" lon="12.925715873978534"><ele>361.0</ele><time>2026-04-18T08:11:07Z</time></trkpt><trkpt lat="43.49627778959054" lon="12.925886579180814"><ele>359.66666666666663</ele><time>2026-04-18T08:11:08Z</time></trkpt><trkpt lat="43.49640015918157" lon="12.92606408883496"><ele>358.3333333333333</ele><time>2026-04-18T08:11:09Z</time></trkpt><trkpt lat="43.4965302447871" lon="12.92622009460201"><ele>357.0</ele><time>2026-04-18T08:11:10Z</time></trkpt><trkpt lat="43.49666401529908" lon="12.926391540047513"><ele>357.0</ele><time>2026-04-18T08:11:11Z</time></trkpt><trkpt lat="43.496813366078925" lon="12.92654810493168"><ele>357.0</ele><time>2026-04-18T08:11:12Z</time></trkpt><trkpt lat="43.496966370971414" lon="12.926698212463752"><ele>357.0</ele><time>2026-04-18T08:11:13Z</time></trkpt><trkpt lat="43.49711743473158" lon="12.926849730548954"><ele>359.3333333333333</ele><time>2026-04-18T08:11:14Z</time></trkpt><trkpt lat="43.497231693250725" lon="12.92704292851558"><ele>361.66666666666663</ele><time>2026-04-18T08:11:15Z</time></trkpt><trkpt lat="43.497334945317796" lon="12.927264660821985"><ele>364.0</ele><time>2026-04-18T08:11:16Z</time></trkpt><trkpt lat="43.497430500879275" lon="12.927509508356144"><ele>360.66666666666663</ele><time>2026-04-18T08:11:17Z</time></trkpt><trkpt lat="43.49751718500262" lon="12.927747327423292"><ele>357.3333333333333</ele><time>2026-04-18T08:11:18Z</time></trkpt><trkpt lat="43.49760370923745" lon="12.928002452929826"><ele>354.0</ele><time>2026-04-18T08:11:19Z</time></trkpt><trkpt lat="43.49771336531454" lon="12.928324936509236"><ele>357.0</ele><time>2026-04-18T08:11:20Z</time></trkpt><trkpt lat="43.497840857297994" lon="12.928708416476725"><ele>360.0</ele><time>2026-04-18T08:11:21Z</time></trkpt><trkpt lat="43.49799262659819" lon="12.929126793914126"><ele>355.5</ele><time>2026-04-18T08:11:22Z</time></trkpt><trkpt lat="43.498129135693056" lon="12.929584967640855"><ele>351.0</ele><time>2026-04-18T08:11:23Z</time></trkpt><trkpt lat="43.49826390378225" lon="12.930037284016386"><ele>349.5</ele><time>2026-04-18T08:11:24Z</time></trkpt><trkpt lat="43.49838815091361" lon="12.930437115839304"><ele>348.0</ele><time>2026-04-18T08:11:25Z</time></trkpt><trkpt lat="43.49851538202456" lon="12.93082552703094"><ele>347.5</ele><time>2026-04-18T08:11:26Z</time></trkpt><trkpt lat="43.49864490252131" lon="12.931209447903306"><ele>347.0</ele><time>2026-04-18T08:11:27Z</time></trkpt><trkpt lat="43.4988326249829" lon="12.931570534010358"><ele>346.5</ele><time>2026-04-18T08:11:28Z</time></trkpt><trkpt lat="43.49907344935551" lon="12.931933167374298"><ele>346.0</ele><time>2026-04-18T08:11:29Z</time></trkpt><trkpt lat="43.4993477573907" lon="12.932293218781334"><ele>347.0</ele><time>2026-04-18T08:11:30Z</time></trkpt><trkpt lat="43.49962187742259" lon="12.932645596325923"><ele>348.0</ele><time>2026-04-18T08:11:31Z</time></trkpt><trkpt lat="43.49985285913253" lon="12.932948283673468"><ele>348.0</ele><time>2026-04-18T08:11:32Z</time></trkpt><trkpt lat="43.50005533180049" lon="12.93318520284308"><ele>348.0</ele><time>2026-04-18T08:11:33Z</time></trkpt><trkpt lat="43.500276068412525" lon="12.93336544066495"><ele>352.0</ele><time>2026-04-18T08:11:34Z</time></trkpt><trkpt lat="43.500526563479674" lon="12.933478793865326"><ele>356.0</ele><time>2026-04-18T08:11:35Z</time></trkpt><trkpt lat="43.50079540459558" lon="12.933536881467532"><ele>356.0</ele><time>2026-04-18T08:11:36Z</time></trkpt><trkpt lat="43.50108531159752" lon="12.933601483440563"><ele>356.0</ele><time>2026-04-18T08:11:37Z</time></trkpt><trkpt lat="43.50138203170724" lon="12.933770190362747"><ele>354.0</ele><time>2026-04-18T08:11:38Z</time></trkpt><trkpt lat="43.50165980141049" lon="12.933955457410413"><ele>352.0</ele><time>2026-04-18T08:11:39Z</time></trkpt><trkpt lat="43.50187786841532" lon="12.934138330877097"><ele>350.5</ele><time>2026-04-18T08:11:40Z</time></trkpt><trkpt lat="43.502027035720474" lon="12.93437394194219"><ele>349.0</ele><time>2026-04-18T08:11:41Z</time></trkpt><trkpt lat="43.50218677263869" lon="12.93465619357919"><ele>349.0</ele><time>2026-04-18T08:11:42Z</time></trkpt><trkpt lat="43.50233848860666" lon="12.934915074114178"><ele>349.0</ele><time>2026-04-18T08:11:43Z</time></trkpt><trkpt lat="43.50247241297067" lon="12.935119524181324"><ele>349.0</ele><time>2026-04-18T08:11:44Z</time></trkpt><trkpt lat="43.50254025682765" lon="12.935342878894213"><ele>347.66666666666663</ele><time>2026-04-18T08:11:45Z</time></trkpt><trkpt lat="43.50255629304309" lon="12.935563332750531"><ele>346.3333333333333</ele><time>2026-04-18T08:11:46Z</time></trkpt><trkpt lat="43.50255455480358" lon="12.93580991535423"><ele>345.0</ele><time>2026-04-18T08:11:47Z</time></trkpt><trkpt lat="43.502564901857625" lon="12.936061116684279"><ele>345.0</ele><time>2026-04-18T08:11:48Z</time></trkpt><trkpt lat="43.50259675958258" lon="12.936318949330186"><ele>345.0</ele><time>2026-04-18T08:11:49Z</time></trkpt><trkpt lat="43.502669073302314" lon="12.93658548720785"><ele>345.0</ele><time>2026-04-18T08:11:50Z</time></trkpt><trkpt lat="43.50280513454621" lon="12.936869679691124"><ele>342.5</ele><time>2026-04-18T08:11:51Z</time></trkpt><trkpt lat="43.50297887489073" lon="12.937154233591828"><ele>340.0</ele><time>2026-04-18T08:11:52Z</time></trkpt><trkpt lat="43.503147613777884" lon="12.937380117484954"><ele>340.5</ele><time>2026-04-18T08:11:53Z</time></trkpt><trkpt lat="43.50334411750857" lon="12.937571126899744"><ele>341.0</ele><time>2026-04-18T08:11:54Z</time></trkpt><trkpt lat="43.503578363454004" lon="12.937744948538265"><ele>341.0</ele><time>2026-04-18T08:11:55Z</time></trkpt><trkpt lat="43.503810442663635" lon="12.937978463798194"><ele>341.0</ele><time>2026-04-18T08:11:56Z</time></trkpt><trkpt lat="43.50401978627964" lon="12.938245070735269"><ele>336.5</ele><time>2026-04-18T08:11:57Z</time></trkpt><trkpt lat="43.504232235371276" lon="12.93850895329025"><ele>332.0</ele><time>2026-04-18T08:11:58Z</time></trkpt><trkpt lat="43.5044277474132" lon="12.938827964594909"><ele>332.0</ele><time>2026-04-18T08:11:59Z</time></trkpt><trkpt lat="43.50465323895689" lon="12.93916045567007"><ele>332.0</ele><time>2026-04-18T08:12:00Z</time></trkpt><trkpt lat="43.504884158902904" lon="12.939516588957106"><ele>332.0</ele><time>2026-04-18T08:12:01Z</time></trkpt><trkpt lat="43.50511593472255" lon="12.939890385694277"><ele>332.0</ele><time>2026-04-18T08:12:02Z</time></trkpt><trkpt lat="43.505326939804306" lon="12.940235279885695"><ele>337.5</ele><time>2026-04-18T08:12:03Z</time></trkpt><trkpt lat="43.50551442533852" lon="12.940528466504748"><ele>343.0</ele><time>2026-04-18T08:12:04Z</time></trkpt><trkpt lat="43.50570840472889" lon="12.94077623107292"><ele>333.5</ele><time>2026-04-18T08:12:05Z</time></trkpt><trkpt lat="43.50585317911173" lon="12.941050185607264"><ele>324.0</ele><time>2026-04-18T08:12:06Z</time></trkpt><trkpt lat="43.505973506480544" lon="12.941367761122688"><ele>324.0</ele><time>2026-04-18T08:12:07Z</time></trkpt><trkpt lat="43.506106773222626" lon="12.941697777243828"><ele>324.0</ele><time>2026-04-18T08:12:08Z</time></trkpt><trkpt lat="43.50624064703473" lon="12.942006915825834"><ele>322.0</ele><time>2026-04-18T08:12:09Z</time></trkpt><trkpt lat="43.5063700982515" lon="12.942317385793269"><ele>320.0</ele><time>2026-04-18T08:12:10Z</time></trkpt><trkpt lat="43.5065132188394" lon="12.942618482003168"><ele>320.0</ele><time>2026-04-18T08:12:11Z</time></trkpt><trkpt lat="43.50671895515569" lon="12.942874290870279"><ele>320.0</ele><time>2026-04-18T08:12:12Z</time></trkpt><trkpt lat="43.50688590100218" lon="12.943154026199739"><ele>319.0</ele><time>2026-04-18T08:12:13Z</time></trkpt><trkpt lat="43.50705312314558" lon="12.943400159173159"><ele>318.0</ele><time>2026-04-18T08:12:14Z</time></trkpt><trkpt lat="43.507209632285274" lon="12.943628057675442"><ele>318.0</ele><time>2026-04-18T08:12:15Z</time></trkpt><trkpt lat="43.50735856521533" lon="12.943846783532562"><ele>318.0</ele><time>2026-04-18T08:12:16Z</time></trkpt><trkpt lat="43.507504513723724" lon="12.944048008275798"><ele>318.0</ele><time>2026-04-18T08:12:17Z</time></trkpt><trkpt lat="43.50764536921526" lon="12.944201221118382"><ele>317.75</ele><time>2026-04-18T08:12:18Z</time></trkpt><trkpt lat="43.50778468200857" lon="12.944310562090719"><ele>317.5</ele><time>2026-04-18T08:12:19Z</time></trkpt><trkpt lat="43.50791817850212" lon="12.944401396378543"><ele>317.25</ele><time>2026-04-18T08:12:20Z</time></trkpt><trkpt lat="43.50803229185487" lon="12.944492719268705"><ele>317.0</ele><time>2026-04-18T08:12:21Z</time></trkpt><trkpt lat="43.508114451058134" lon="12.944598476481332"><ele>317.0</ele><time>2026-04-18T08:12:22Z</time></trkpt><trkpt lat="43.50818637840187" lon="12.944871287654632"><ele>317.0</ele><time>2026-04-18T08:12:24Z</time></trkpt><trkpt lat="43.508199759187875" lon="12.945031943858785"><ele>317.0</ele><time>2026-04-18T08:12:25Z</time></trkpt><trkpt lat="43.5082089625005" lon="12.945186351500505"><ele>317.0</ele><time>2026-04-18T08:12:26Z</time></trkpt><trkpt lat="43.50823375676989" lon="12.945324867213913"><ele>314.5</ele><time>2026-04-18T08:12:27Z</time></trkpt><trkpt lat="43.50828198975628" lon="12.94545009875364"><ele>312.0</ele><time>2026-04-18T08:12:28Z</time></trkpt><trkpt lat="43.50836114356054" lon="12.945560810971767"><ele>309.5</ele><time>2026-04-18T08:12:29Z</time></trkpt><trkpt lat="43.50849476829148" lon="12.945656952515389"><ele>307.0</ele><time>2026-04-18T08:12:30Z</time></trkpt><trkpt lat="43.50864031421824" lon="12.945738922723407"><ele>306.75</ele><time>2026-04-18T08:12:31Z</time></trkpt><trkpt lat="43.50876547421389" lon="12.945811925674393"><ele>306.5</ele><time>2026-04-18T08:12:32Z</time></trkpt><trkpt lat="43.508870403788755" lon="12.945884176988576"><ele>306.25</ele><time>2026-04-18T08:12:33Z</time></trkpt><trkpt lat="43.50896923003245" lon="12.94596338196448"><ele>306.0</ele><time>2026-04-18T08:12:34Z</time></trkpt><trkpt lat="43.50906663407337" lon="12.94605875971958"><ele>306.0</ele><time>2026-04-18T08:12:35Z</time></trkpt><trkpt lat="43.509160796864236" lon="12.946174474803259"><ele>306.0</ele><time>2026-04-18T08:12:36Z</time></trkpt><trkpt lat="43.50924150738703" lon="12.946312177571677"><ele>306.0</ele><time>2026-04-18T08:12:37Z</time></trkpt><trkpt lat="43.50932026750594" lon="12.94644609747427"><ele>306.0</ele><time>2026-04-18T08:12:38Z</time></trkpt><trkpt lat="43.50940282394384" lon="12.94657074391056"><ele>306.0</ele><time>2026-04-18T08:12:39Z</time></trkpt><trkpt lat="43.509481829976885" lon="12.946677125200697"><ele>306.0</ele><time>2026-04-18T08:12:40Z</time></trkpt><trkpt lat="43.50955917381961" lon="12.946778015545247"><ele>306.0</ele><time>2026-04-18T08:12:41Z</time></trkpt><trkpt lat="43.509632329421315" lon="12.946875957703588"><ele>306.0</ele><time>2026-04-18T08:12:42Z</time></trkpt><trkpt lat="43.50969400187641" lon="12.946967465102341"><ele>306.0</ele><time>2026-04-18T08:12:43Z</time></trkpt><trkpt lat="43.50975555271415" lon="12.947052938550557"><ele>306.5</ele><time>2026-04-18T08:12:44Z</time></trkpt><trkpt lat="43.509808212751004" lon="12.947134553172564"><ele>307.0</ele><time>2026-04-18T08:12:45Z</time></trkpt><trkpt lat="43.509858376782105" lon="12.947208827925607"><ele>307.5</ele><time>2026-04-18T08:12:46Z</time></trkpt><trkpt lat="43.50990123784589" lon="12.947280241729198"><ele>308.0</ele><time>2026-04-18T08:12:47Z</time></trkpt><trkpt lat="43.50994183991748" lon="12.947369214054167"><ele>308.5</ele><time>2026-04-18T08:12:49Z</time></trkpt><trkpt lat="43.509937632627356" lon="12.947481177424821"><ele>309.0</ele><time>2026-04-18T08:12:52Z</time></trkpt><trkpt lat="43.50985341903051" lon="12.94761385929644"><ele>308.75</ele><time>2026-04-18T08:12:54Z</time></trkpt><trkpt lat="43.50978529078461" lon="12.947690425001891"><ele>308.5</ele><time>2026-04-18T08:12:55Z</time></trkpt><trkpt lat="43.509696498352156" lon="12.947821647301444"><ele>308.25</ele><time>2026-04-18T08:12:56Z</time></trkpt><trkpt lat="43.509580557944744" lon="12.94800690374948"><ele>308.0</ele><time>2026-04-18T08:12:57Z</time></trkpt><trkpt lat="43.509431172040536" lon="12.948170111287265"><ele>308.0</ele><time>2026-04-18T08:12:58Z</time></trkpt><trkpt lat="43.509288746314226" lon="12.948310821690326"><ele>308.0</ele><time>2026-04-18T08:12:59Z</time></trkpt><trkpt lat="43.50920660055157" lon="12.948483956882184"><ele>308.0</ele><time>2026-04-18T08:13:00Z</time></trkpt><trkpt lat="43.50919649545596" lon="12.94867971058069"><ele>310.5</ele><time>2026-04-18T08:13:01Z</time></trkpt><trkpt lat="43.50925653640734" lon="12.94885863912532"><ele>313.0</ele><time>2026-04-18T08:13:02Z</time></trkpt><trkpt lat="43.50934316713581" lon="12.94901487450844"><ele>315.5</ele><time>2026-04-18T08:13:03Z</time></trkpt><trkpt lat="43.50938368664297" lon="12.94915229326581"><ele>318.0</ele><time>2026-04-18T08:13:04Z</time></trkpt><trkpt lat="43.50934253944681" lon="12.949284298346909"><ele>318.0</ele><time>2026-04-18T08:13:05Z</time></trkpt><trkpt lat="43.509238637154844" lon="12.949362260329618"><ele>318.0</ele><time>2026-04-18T08:13:06Z</time></trkpt><trkpt lat="43.50910399735107" lon="12.949315165130077"><ele>318.0</ele><time>2026-04-18T08:13:07Z</time></trkpt><trkpt lat="43.5090045958106" lon="12.949174247505475"><ele>318.0</ele><time>2026-04-18T08:13:08Z</time></trkpt><trkpt lat="43.508935879447094" lon="12.948959137658782"><ele>318.0</ele><time>2026-04-18T08:13:09Z</time></trkpt><trkpt lat="43.50885031061407" lon="12.948677525113519"><ele>318.0</ele><time>2026-04-18T08:13:10Z</time></trkpt><trkpt lat="43.50868724570949" lon="12.948400230183296"><ele>322.5</ele><time>2026-04-18T08:13:11Z</time></trkpt><trkpt lat="43.508441100366525" lon="12.94810559592597"><ele>327.0</ele><time>2026-04-18T08:13:12Z</time></trkpt><trkpt lat="43.50815714333839" lon="12.947782433332039"><ele>333.5</ele><time>2026-04-18T08:13:13Z</time></trkpt><trkpt lat="43.5078623358932" lon="12.94743087775625"><ele>340.0</ele><time>2026-04-18T08:13:14Z</time></trkpt><trkpt lat="43.507622625310375" lon="12.947129731679288"><ele>340.0</ele><time>2026-04-18T08:13:15Z</time></trkpt><trkpt lat="43.50743555091873" lon="12.946895278723083"><ele>340.0</ele><time>2026-04-18T08:13:16Z</time></trkpt><trkpt lat="43.50728000236341" lon="12.946697499962413"><ele>340.66666666666663</ele><time>2026-04-18T08:13:17Z</time></trkpt><trkpt lat="43.507137331066914" lon="12.946511297434567"><ele>341.3333333333333</ele><time>2026-04-18T08:13:18Z</time></trkpt><trkpt lat="43.507003517740216" lon="12.946368617995423"><ele>342.0</ele><time>2026-04-18T08:13:19Z</time></trkpt><trkpt lat="43.506869989404905" lon="12.946305022210405"><ele>342.0</ele><time>2026-04-18T08:13:20Z</time></trkpt><trkpt lat="43.50673456634542" lon="12.946344121267348"><ele>342.0</ele><time>2026-04-18T08:13:21Z</time></trkpt><trkpt lat="43.50656747627211" lon="12.946458056694079"><ele>342.0</ele><time>2026-04-18T08:13:22Z</time></trkpt><trkpt lat="43.50635128114203" lon="12.946639530627504"><ele>349.5</ele><time>2026-04-18T08:13:23Z</time></trkpt><trkpt lat="43.50608281573297" lon="12.946868815031841"><ele>357.0</ele><time>2026-04-18T08:13:24Z</time></trkpt><trkpt lat="43.505826771488685" lon="12.947056300331381"><ele>357.0</ele><time>2026-04-18T08:13:25Z</time></trkpt><trkpt lat="43.50563712801276" lon="12.94719734384201"><ele>357.0</ele><time>2026-04-18T08:13:26Z</time></trkpt><trkpt lat="43.50549317178949" lon="12.947305666709909"><ele>357.0</ele><time>2026-04-18T08:13:27Z</time></trkpt><trkpt lat="43.50536731889954" lon="12.947421428868719"><ele>357.75</ele><time>2026-04-18T08:13:28Z</time></trkpt><trkpt lat="43.50526432131341" lon="12.947561004710762"><ele>358.5</ele><time>2026-04-18T08:13:29Z</time></trkpt><trkpt lat="43.50517871653917" lon="12.94770149091209"><ele>359.25</ele><time>2026-04-18T08:13:30Z</time></trkpt><trkpt lat="43.50508976037816" lon="12.94779735513745"><ele>360.0</ele><time>2026-04-18T08:13:31Z</time></trkpt><trkpt lat="43.50502569096877" lon="12.947911322563465"><ele>360.0</ele><time>2026-04-18T08:13:32Z</time></trkpt><trkpt lat="43.50494694931418" lon="12.948004496195503"><ele>360.0</ele><time>2026-04-18T08:13:33Z</time></trkpt><trkpt lat="43.50487192607488" lon="12.948081399241378"><ele>360.0</ele><time>2026-04-18T08:13:34Z</time></trkpt><trkpt lat="43.504803043654675" lon="12.94814367300536"><ele>360.0</ele><time>2026-04-18T08:13:35Z</time></trkpt><trkpt lat="43.504735601995435" lon="12.9481945336136"><ele>360.0</ele><time>2026-04-18T08:13:36Z</time></trkpt><trkpt lat="43.5046624858666" lon="12.948220148191469"><ele>360.0</ele><time>2026-04-18T08:13:38Z</time></trkpt><trkpt lat="43.504543115467996" lon="12.948244050816113"><ele>359.6</ele><time>2026-04-18T08:13:42Z</time></trkpt><trkpt lat="43.50445344870551" lon="12.948290411354426"><ele>359.2</ele><time>2026-04-18T08:13:43Z</time></trkpt><trkpt lat="43.50437766481439" lon="12.948355859206305"><ele>358.79999999999995</ele><time>2026-04-18T08:13:44Z</time></trkpt><trkpt lat="43.504300680329926" lon="12.948397541186472"><ele>358.4</ele><time>2026-04-18T08:13:45Z</time></trkpt><trkpt lat="43.50420531429614" lon="12.948433996062004"><ele>358.0</ele><time>2026-04-18T08:13:46Z</time></trkpt><trkpt lat="43.50411468583525" lon="12.948462646317802"><ele>356.79999999999995</ele><time>2026-04-18T08:13:47Z</time></trkpt><trkpt lat="43.504025466251726" lon="12.948490235206226"><ele>355.6</ele><time>2026-04-18T08:13:48Z</time></trkpt><trkpt lat="43.50394101682899" lon="12.948512673425263"><ele>354.4</ele><time>2026-04-18T08:13:49Z</time></trkpt><trkpt lat="43.50385023444375" lon="12.94853280748268"><ele>353.20000000000005</ele><time>2026-04-18T08:13:50Z</time></trkpt><trkpt lat="43.50375108370016" lon="12.9485437169167"><ele>352.0</ele><time>2026-04-18T08:13:51Z</time></trkpt><trkpt lat="43.50365215285636" lon="12.948549773439995"><ele>351.40000000000003</ele><time>2026-04-18T08:13:52Z</time></trkpt><trkpt lat="43.503545726311884" lon="12.94855668816116"><ele>350.8</ele><time>2026-04-18T08:13:53Z</time></trkpt><trkpt lat="43.5034388454329" lon="12.948561290279823"><ele>350.2</ele><time>2026-04-18T08:13:54Z</time></trkpt><trkpt lat="43.50333028639471" lon="12.9485625537313"><ele>349.6</ele><time>2026-04-18T08:13:55Z</time></trkpt><trkpt lat="43.503217059904664" lon="12.948547071358059"><ele>349.0</ele><time>2026-04-18T08:13:56Z</time></trkpt><trkpt lat="43.50310458159061" lon="12.948512265954166"><ele>349.0</ele><time>2026-04-18T08:13:57Z</time></trkpt><trkpt lat="43.50300460293595" lon="12.948463754891351"><ele>349.0</ele><time>2026-04-18T08:13:58Z</time></trkpt><trkpt lat="43.50290748110517" lon="12.94840747312048"><ele>349.0</ele><time>2026-04-18T08:13:59Z</time></trkpt><trkpt lat="43.502804112452765" lon="12.948362001052434"><ele>349.0</ele><time>2026-04-18T08:14:00Z</time></trkpt><trkpt lat="43.502682964283245" lon="12.948328230586336"><ele>349.0</ele><time>2026-04-18T08:14:01Z</time></trkpt><trkpt lat="43.50255390699439" lon="12.948322205776531"><ele>352.5</ele><time>2026-04-18T08:14:02Z</time></trkpt><trkpt lat="43.502427630493706" lon="12.948317827124407"><ele>356.0</ele><time>2026-04-18T08:14:03Z</time></trkpt><trkpt lat="43.5023125082953" lon="12.948316072641413"><ele>359.5</ele><time>2026-04-18T08:14:04Z</time></trkpt><trkpt lat="43.50219968655199" lon="12.948313651465208"><ele>363.0</ele><time>2026-04-18T08:14:05Z</time></trkpt><trkpt lat="43.502084987635754" lon="12.948296396689651"><ele>361.4</ele><time>2026-04-18T08:14:06Z</time></trkpt><trkpt lat="43.50196858738943" lon="12.948287839487346"><ele>359.79999999999995</ele><time>2026-04-18T08:14:07Z</time></trkpt><trkpt lat="43.50185635757089" lon="12.948265371060216"><ele>358.2</ele><time>2026-04-18T08:14:08Z</time></trkpt><trkpt lat="43.50175369105251" lon="12.948229687507645"><ele>356.6</ele><time>2026-04-18T08:14:09Z</time></trkpt><trkpt lat="43.50165700698466" lon="12.948174795886601"><ele>355.0</ele><time>2026-04-18T08:14:10Z</time></trkpt><trkpt lat="43.501563217704" lon="12.948110946519753"><ele>355.0</ele><time>2026-04-18T08:14:11Z</time></trkpt><trkpt lat="43.50147545937394" lon="12.948045764144592"><ele>355.0</ele><time>2026-04-18T08:14:12Z</time></trkpt><trkpt lat="43.501390155346265" lon="12.947986228285679"><ele>355.0</ele><time>2026-04-18T08:14:13Z</time></trkpt><trkpt lat="43.501309015847006" lon="12.947925582094687"><ele>355.0</ele><time>2026-04-18T08:14:14Z</time></trkpt><trkpt lat="43.50122738322549" lon="12.947856053680832"><ele>355.0</ele><time>2026-04-18T08:14:15Z</time></trkpt><trkpt lat="43.50115272162256" lon="12.947783258470999"><ele>354.4</ele><time>2026-04-18T08:14:16Z</time></trkpt><trkpt lat="43.501082503700815" lon="12.947705209491524"><ele>353.8</ele><time>2026-04-18T08:14:17Z</time></trkpt><trkpt lat="43.50101111207743" lon="12.94763316829608"><ele>353.20000000000005</ele><time>2026-04-18T08:14:18Z</time></trkpt><trkpt lat="43.50093339342546" lon="12.947568006262953"><ele>352.6</ele><time>2026-04-18T08:14:19Z</time></trkpt><trkpt lat="43.50084987129517" lon="12.947513833038068"><ele>352.0</ele><time>2026-04-18T08:14:20Z</time></trkpt><trkpt lat="43.50076489107465" lon="12.947456156859545"><ele>353.20000000000005</ele><time>2026-04-18T08:14:21Z</time></trkpt><trkpt lat="43.50067766159803" lon="12.947398006378933"><ele>354.4</ele><time>2026-04-18T08:14:22Z</time></trkpt><trkpt lat="43.5005920984012" lon="12.947335612612715"><ele>355.6</ele><time>2026-04-18T08:14:23Z</time></trkpt><trkpt lat="43.500509340412" lon="12.94727563907354"><ele>356.79999999999995</ele><time>2026-04-18T08:14:24Z</time></trkpt><trkpt lat="43.50043677926673" lon="12.947224046473778"><ele>358.0</ele><time>2026-04-18T08:14:25Z</time></trkpt><trkpt lat="43.50035933918167" lon="12.947189735791712"><ele>358.0</ele><time>2026-04-18T08:14:26Z</time></trkpt><trkpt lat="43.50027693172756" lon="12.94721181692537"><ele>358.0</ele><time>2026-04-18T08:14:27Z</time></trkpt><trkpt lat="43.50019921428313" lon="12.947291784064301"><ele>358.0</ele><time>2026-04-18T08:14:28Z</time></trkpt><trkpt lat="43.50011695646806" lon="12.947430607818516"><ele>358.0</ele><time>2026-04-18T08:14:29Z</time></trkpt><trkpt lat="43.500031074341415" lon="12.947580189622975"><ele>358.0</ele><time>2026-04-18T08:14:30Z</time></trkpt><trkpt lat="43.4999682523599" lon="12.94771661053166"><ele>359.75</ele><time>2026-04-18T08:14:31Z</time></trkpt><trkpt lat="43.49993225593373" lon="12.947860560552684"><ele>361.5</ele><time>2026-04-18T08:14:32Z</time></trkpt><trkpt lat="43.49996664431126" lon="12.948056326019111"><ele>363.25</ele><time>2026-04-18T08:14:33Z</time></trkpt><trkpt lat="43.50006012560975" lon="12.94821773057419"><ele>365.0</ele><time>2026-04-18T08:14:34Z</time></trkpt><trkpt lat="43.500195572346314" lon="12.948362474707944"><ele>367.0</ele><time>2026-04-18T08:14:35Z</time></trkpt><trkpt lat="43.500325880446695" lon="12.94852856100779"><ele>369.0</ele><time>2026-04-18T08:14:36Z</time></trkpt><trkpt lat="43.50044729190149" lon="12.948702745666262"><ele>371.0</ele><time>2026-04-18T08:14:37Z</time></trkpt><trkpt lat="43.50055100870638" lon="12.948895483106211"><ele>364.6666666666667</ele><time>2026-04-18T08:14:38Z</time></trkpt><trkpt lat="43.50065993074531" lon="12.949068841204532"><ele>358.3333333333333</ele><time>2026-04-18T08:14:39Z</time></trkpt><trkpt lat="43.50075903568935" lon="12.94924796801547"><ele>352.0</ele><time>2026-04-18T08:14:40Z</time></trkpt><trkpt lat="43.500836615670835" lon="12.949454004000993"><ele>352.0</ele><time>2026-04-18T08:14:41Z</time></trkpt><trkpt lat="43.50090023443533" lon="12.949675769459946"><ele>352.0</ele><time>2026-04-18T08:14:42Z</time></trkpt><trkpt lat="43.50096027440147" lon="12.94989876496095"><ele>352.0</ele><time>2026-04-18T08:14:43Z</time></trkpt><trkpt lat="43.50101705783248" lon="12.950105845659754"><ele>351.75</ele><time>2026-04-18T08:14:44Z</time></trkpt><trkpt lat="43.5010648066283" lon="12.950295456776939"><ele>351.5</ele><time>2026-04-18T08:14:45Z</time></trkpt><trkpt lat="43.50107651989636" lon="12.950466177567565"><ele>351.25</ele><time>2026-04-18T08:14:46Z</time></trkpt><trkpt lat="43.50103648962634" lon="12.950621129938474"><ele>351.0</ele><time>2026-04-18T08:14:47Z</time></trkpt><trkpt lat="43.50097826976926" lon="12.950792081314193"><ele>351.0</ele><time>2026-04-18T08:14:48Z</time></trkpt><trkpt lat="43.50093198384067" lon="12.951004159867923"><ele>351.0</ele><time>2026-04-18T08:14:49Z</time></trkpt><trkpt lat="43.50090450681466" lon="12.951210834893281"><ele>351.0</ele><time>2026-04-18T08:14:50Z</time></trkpt><trkpt lat="43.5009239132914" lon="12.951418463566952"><ele>351.0</ele><time>2026-04-18T08:14:51Z</time></trkpt><trkpt lat="43.500973307447985" lon="12.951605523296232"><ele>351.0</ele><time>2026-04-18T08:14:52Z</time></trkpt><trkpt lat="43.50100540665326" lon="12.95177651495991"><ele>351.0</ele><time>2026-04-18T08:14:53Z</time></trkpt><trkpt lat="43.50104199016955" lon="12.951935081985617"><ele>351.0</ele><time>2026-04-18T08:14:54Z</time></trkpt><trkpt lat="43.50107099618656" lon="12.952105512319541"><ele>350.0</ele><time>2026-04-18T08:14:55Z</time></trkpt><trkpt lat="43.50109402117885" lon="12.952297453188514"><ele>349.0</ele><time>2026-04-18T08:14:56Z</time></trkpt><trkpt lat="43.501098974759266" lon="12.952514479284334"><ele>348.0</ele><time>2026-04-18T08:14:57Z</time></trkpt><trkpt lat="43.501106343136485" lon="12.952744813709085"><ele>345.6666666666667</ele><time>2026-04-18T08:14:58Z</time></trkpt><trkpt lat="43.50111205002511" lon="12.952976139497224"><ele>343.33333333333337</ele><time>2026-04-18T08:14:59Z</time></trkpt><trkpt lat="43.50113469726763" lon="12.953211349466331"><ele>341.0</ele><time>2026-04-18T08:15:00Z</time></trkpt><trkpt lat="43.50112627758878" lon="12.953444055999555"><ele>339.0</ele><time>2026-04-18T08:15:01Z</time></trkpt><trkpt lat="43.50114337050955" lon="12.95367236491628"><ele>337.0</ele><time>2026-04-18T08:15:02Z</time></trkpt><trkpt lat="43.50113974769535" lon="12.953890996307788"><ele>335.0</ele><time>2026-04-18T08:15:03Z</time></trkpt><trkpt lat="43.50114654055209" lon="12.95412195747609"><ele>333.33333333333337</ele><time>2026-04-18T08:15:04Z</time></trkpt><trkpt lat="43.50115510096041" lon="12.95435079534839"><ele>331.6666666666667</ele><time>2026-04-18T08:15:05Z</time></trkpt><trkpt lat="43.50116303350409" lon="12.95457409829481"><ele>330.0</ele><time>2026-04-18T08:15:06Z</time></trkpt><trkpt lat="43.50117154411028" lon="12.954791183290332"><ele>330.0</ele><time>2026-04-18T08:15:07Z</time></trkpt><trkpt lat="43.50118631296013" lon="12.954995028743797"><ele>330.0</ele><time>2026-04-18T08:15:08Z</time></trkpt><trkpt lat="43.50121025611024" lon="12.955186514513288"><ele>330.0</ele><time>2026-04-18T08:15:09Z</time></trkpt><trkpt lat="43.501236613177824" lon="12.955361575617141"><ele>330.0</ele><time>2026-04-18T08:15:10Z</time></trkpt><trkpt lat="43.501258764314315" lon="12.955508702073844"><ele>329.0</ele><time>2026-04-18T08:15:11Z</time></trkpt><trkpt lat="43.50126214960995" lon="12.95562530508591"><ele>328.0</ele><time>2026-04-18T08:15:12Z</time></trkpt><trkpt lat="43.501233367122204" lon="12.955723867286283"><ele>327.0</ele><time>2026-04-18T08:15:13Z</time></trkpt><trkpt lat="43.50114332017347" lon="12.955752449033847"><ele>326.0</ele><time>2026-04-18T08:15:14Z</time></trkpt><trkpt lat="43.501055176189645" lon="12.955696366658563"><ele>325.0</ele><time>2026-04-18T08:15:15Z</time></trkpt><trkpt lat="43.50100584204478" lon="12.955565102460305"><ele>325.0</ele><time>2026-04-18T08:15:16Z</time></trkpt><trkpt lat="43.500998121260544" lon="12.955387482840868"><ele>325.0</ele><time>2026-04-18T08:15:17Z</time></trkpt><trkpt lat="43.50099176830784" lon="12.955204443117049"><ele>325.0</ele><time>2026-04-18T08:15:18Z</time></trkpt><trkpt lat="43.50096311001708" lon="12.955017963424703"><ele>325.0</ele><time>2026-04-18T08:15:19Z</time></trkpt><trkpt lat="43.500914756200835" lon="12.954829547867055"><ele>326.66666666666663</ele><time>2026-04-18T08:15:20Z</time></trkpt><trkpt lat="43.50083848228447" lon="12.95463784658133"><ele>328.3333333333333</ele><time>2026-04-18T08:15:21Z</time></trkpt><trkpt lat="43.50072397748304" lon="12.954451862644163"><ele>330.0</ele><time>2026-04-18T08:15:22Z</time></trkpt><trkpt lat="43.50061415285308" lon="12.954261448652204"><ele>331.6666666666667</ele><time>2026-04-18T08:15:23Z</time></trkpt><trkpt lat="43.500519640412506" lon="12.954075666903197"><ele>333.33333333333337</ele><time>2026-04-18T08:15:24Z</time></trkpt><trkpt lat="43.50042918616465" lon="12.953904083299603"><ele>335.0</ele><time>2026-04-18T08:15:25Z</time></trkpt><trkpt lat="43.50033834711194" lon="12.953750770963556"><ele>331.0</ele><time>2026-04-18T08:15:26Z</time></trkpt><trkpt lat="43.50022873976001" lon="12.953641456316088"><ele>327.0</ele><time>2026-04-18T08:15:27Z</time></trkpt><trkpt lat="43.50008624430285" lon="12.953590552215315"><ele>323.0</ele><time>2026-04-18T08:15:28Z</time></trkpt><trkpt lat="43.49992804300605" lon="12.95360158787889"><ele>319.0</ele><time>2026-04-18T08:15:29Z</time></trkpt><trkpt lat="43.4997706642396" lon="12.95362568754214"><ele>319.0</ele><time>2026-04-18T08:15:30Z</time></trkpt><trkpt lat="43.4996268854804" lon="12.953634631362727"><ele>319.0</ele><time>2026-04-18T08:15:31Z</time></trkpt><trkpt lat="43.499491814058864" lon="12.953611329966002"><ele>319.0</ele><time>2026-04-18T08:15:32Z</time></trkpt><trkpt lat="43.499379758715385" lon="12.953528705426038"><ele>319.0</ele><time>2026-04-18T08:15:33Z</time></trkpt><trkpt lat="43.499306384093" lon="12.953377136166417"><ele>319.0</ele><time>2026-04-18T08:15:34Z</time></trkpt><trkpt lat="43.499258978398885" lon="12.95319863296967"><ele>319.0</ele><time>2026-04-18T08:15:35Z</time></trkpt><trkpt lat="43.49919953922442" lon="12.953019509216668"><ele>319.0</ele><time>2026-04-18T08:15:36Z</time></trkpt><trkpt lat="43.49913039766754" lon="12.952853112408135"><ele>319.0</ele><time>2026-04-18T08:15:37Z</time></trkpt><trkpt lat="43.499070983309295" lon="12.95269198426054"><ele>321.2</ele><time>2026-04-18T08:15:38Z</time></trkpt><trkpt lat="43.499031152767195" lon="12.952535022271794"><ele>323.4</ele><time>2026-04-18T08:15:39Z</time></trkpt><trkpt lat="43.49900080056516" lon="12.952369744017428"><ele>325.6</ele><time>2026-04-18T08:15:40Z</time></trkpt><trkpt lat="43.49894472359005" lon="12.952240973461393"><ele>327.8</ele><time>2026-04-18T08:15:41Z</time></trkpt><trkpt lat="43.49887937896994" lon="12.95216072212935"><ele>330.0</ele><time>2026-04-18T08:15:42Z</time></trkpt><trkpt lat="43.49877339385752" lon="12.952195199411694"><ele>327.25</ele><time>2026-04-18T08:15:43Z</time></trkpt><trkpt lat="43.49866143116176" lon="12.952210887047842"><ele>324.5</ele><time>2026-04-18T08:15:44Z</time></trkpt><trkpt lat="43.4986882716489" lon="12.95246609023751"><ele>321.75</ele><time>2026-04-18T08:15:45Z</time></trkpt><trkpt lat="43.498727903454125" lon="12.95262910318584"><ele>319.0</ele><time>2026-04-18T08:15:46Z</time></trkpt><trkpt lat="43.498774193107245" lon="12.952796008727386"><ele>319.0</ele><time>2026-04-18T08:15:47Z</time></trkpt><trkpt lat="43.49881888387196" lon="12.952984318502644"><ele>319.0</ele><time>2026-04-18T08:15:48Z</time></trkpt><trkpt lat="43.49887135375491" lon="12.953196213666851"><ele>319.0</ele><time>2026-04-18T08:15:49Z</time></trkpt><trkpt lat="43.49892627332387" lon="12.953415039287847"><ele>315.3333333333333</ele><time>2026-04-18T08:15:50Z</time></trkpt><trkpt lat="43.49898757490457" lon="12.953630710844713"><ele>311.6666666666667</ele><time>2026-04-18T08:15:51Z</time></trkpt><trkpt lat="43.499047495939976" lon="12.9538562680292"><ele>308.0</ele><time>2026-04-18T08:15:52Z</time></trkpt><trkpt lat="43.499103828063106" lon="12.954079842879793"><ele>305.0</ele><time>2026-04-18T08:15:53Z</time></trkpt><trkpt lat="43.499154249439144" lon="12.954292705295602"><ele>302.0</ele><time>2026-04-18T08:15:54Z</time></trkpt><trkpt lat="43.49921291322755" lon="12.954508353052768"><ele>299.0</ele><time>2026-04-18T08:15:55Z</time></trkpt><trkpt lat="43.49932316967023" lon="12.954851355251359"><ele>295.5</ele><time>2026-04-18T08:15:56Z</time></trkpt><trkpt lat="43.49942886101433" lon="12.95513109036905"><ele>292.0</ele><time>2026-04-18T08:15:57Z</time></trkpt><trkpt lat="43.499527658676186" lon="12.955410234193796"><ele>292.66666666666663</ele><time>2026-04-18T08:15:58Z</time></trkpt><trkpt lat="43.49962379499161" lon="12.955673909101174"><ele>293.3333333333333</ele><time>2026-04-18T08:15:59Z</time></trkpt><trkpt lat="43.49970227670193" lon="12.955948882340733"><ele>294.0</ele><time>2026-04-18T08:16:00Z</time></trkpt><trkpt lat="43.49980556366138" lon="12.956201107526674"><ele>294.0</ele><time>2026-04-18T08:16:01Z</time></trkpt><trkpt lat="43.49989146552311" lon="12.956467481450687"><ele>294.0</ele><time>2026-04-18T08:16:02Z</time></trkpt><trkpt lat="43.49997811371257" lon="12.956720694388832"><ele>294.0</ele><time>2026-04-18T08:16:03Z</time></trkpt><trkpt lat="43.50006497625526" lon="12.956969381914817"><ele>291.3333333333333</ele><time>2026-04-18T08:16:04Z</time></trkpt><trkpt lat="43.50015045174438" lon="12.957203943073761"><ele>288.66666666666663</ele><time>2026-04-18T08:16:05Z</time></trkpt><trkpt lat="43.5002035391516" lon="12.957413947378864"><ele>286.0</ele><time>2026-04-18T08:16:06Z</time></trkpt><trkpt lat="43.50022008653362" lon="12.957585970908443"><ele>284.5</ele><time>2026-04-18T08:16:07Z</time></trkpt><trkpt lat="43.50017643954289" lon="12.957741331250952"><ele>283.0</ele><time>2026-04-18T08:16:08Z</time></trkpt><trkpt lat="43.50011165158371" lon="12.957917627627188"><ele>281.5</ele><time>2026-04-18T08:16:09Z</time></trkpt><trkpt lat="43.500059117161996" lon="12.958098774648919"><ele>280.0</ele><time>2026-04-18T08:16:10Z</time></trkpt><trkpt lat="43.500046574754755" lon="12.95828408167805"><ele>279.0</ele><time>2026-04-18T08:16:11Z</time></trkpt><trkpt lat="43.500054639297176" lon="12.958468747385178"><ele>278.0</ele><time>2026-04-18T08:16:12Z</time></trkpt><trkpt lat="43.500108134288084" lon="12.958651391073412"><ele>277.0</ele><time>2026-04-18T08:16:13Z</time></trkpt><trkpt lat="43.50019971677316" lon="12.958838056464474"><ele>276.0</ele><time>2026-04-18T08:16:14Z</time></trkpt><trkpt lat="43.50025541868017" lon="12.9590380684354"><ele>275.0</ele><time>2026-04-18T08:16:15Z</time></trkpt><trkpt lat="43.50026871747436" lon="12.959272406535696"><ele>274.0</ele><time>2026-04-18T08:16:16Z</time></trkpt><trkpt lat="43.50027950663527" lon="12.95953374820151"><ele>273.0</ele><time>2026-04-18T08:16:17Z</time></trkpt><trkpt lat="43.50030829683387" lon="12.959795855646837"><ele>270.3333333333333</ele><time>2026-04-18T08:16:18Z</time></trkpt><trkpt lat="43.50031950413003" lon="12.960039759521893"><ele>267.66666666666663</ele><time>2026-04-18T08:16:19Z</time></trkpt><trkpt lat="43.50031289885466" lon="12.96027491305281"><ele>265.0</ele><time>2026-04-18T08:16:20Z</time></trkpt><trkpt lat="43.500322666528994" lon="12.960501958366637"><ele>265.0</ele><time>2026-04-18T08:16:21Z</time></trkpt><trkpt lat="43.50033225733012" lon="12.960724216695532"><ele>265.0</ele><time>2026-04-18T08:16:22Z</time></trkpt><trkpt lat="43.50035241355732" lon="12.960939339442348"><ele>265.0</ele><time>2026-04-18T08:16:23Z</time></trkpt><trkpt lat="43.5003587198718" lon="12.961146893851167"><ele>264.75</ele><time>2026-04-18T08:16:24Z</time></trkpt><trkpt lat="43.50036844316012" lon="12.961343778293559"><ele>264.5</ele><time>2026-04-18T08:16:25Z</time></trkpt><trkpt lat="43.50041606628179" lon="12.961519658226463"><ele>264.25</ele><time>2026-04-18T08:16:26Z</time></trkpt><trkpt lat="43.500452028446944" lon="12.961661665724524"><ele>264.0</ele><time>2026-04-18T08:16:27Z</time></trkpt><trkpt lat="43.50046715909491" lon="12.961754910498136"><ele>264.0</ele><time>2026-04-18T08:16:28Z</time></trkpt><trkpt lat="43.50042637145096" lon="12.961846108033432"><ele>264.0</ele><time>2026-04-18T08:16:29Z</time></trkpt><trkpt lat="43.500329715620445" lon="12.961881920251715"><ele>264.0</ele><time>2026-04-18T08:16:30Z</time></trkpt><trkpt lat="43.50024008660912" lon="12.961807056000389"><ele>264.0</ele><time>2026-04-18T08:16:31Z</time></trkpt><trkpt lat="43.50019791170076" lon="12.961662027428133"><ele>264.0</ele><time>2026-04-18T08:16:32Z</time></trkpt><trkpt lat="43.500173119617145" lon="12.961498908623051"><ele>263.59999999999997</ele><time>2026-04-18T08:16:33Z</time></trkpt><trkpt lat="43.50012572475269" lon="12.961380631026241"><ele>263.2</ele><time>2026-04-18T08:16:34Z</time></trkpt><trkpt lat="43.500029315251766" lon="12.961321806998555"><ele>262.79999999999995</ele><time>2026-04-18T08:16:35Z</time></trkpt><trkpt lat="43.49991700117625" lon="12.961357320763067"><ele>262.4</ele><time>2026-04-18T08:16:36Z</time></trkpt><trkpt lat="43.4998138753545" lon="12.961423768668645"><ele>262.0</ele><time>2026-04-18T08:16:37Z</time></trkpt><trkpt lat="43.49972857221749" lon="12.961496788883977"><ele>262.0</ele><time>2026-04-18T08:16:38Z</time></trkpt><trkpt lat="43.4996840875027" lon="12.961622955071613"><ele>262.0</ele><time>2026-04-18T08:16:39Z</time></trkpt><trkpt lat="43.49967826284609" lon="12.961788152404809"><ele>262.0</ele><time>2026-04-18T08:16:40Z</time></trkpt><trkpt lat="43.49969461190937" lon="12.961941960135338"><ele>262.0</ele><time>2026-04-18T08:16:41Z</time></trkpt><trkpt lat="43.499692600513946" lon="12.96209126573461"><ele>262.0</ele><time>2026-04-18T08:16:42Z</time></trkpt><trkpt lat="43.499675418021404" lon="12.962215094377187"><ele>261.75</ele><time>2026-04-18T08:16:43Z</time></trkpt><trkpt lat="43.49959633522624" lon="12.962330193841622"><ele>261.5</ele><time>2026-04-18T08:16:44Z</time></trkpt><trkpt lat="43.49947697222656" lon="12.962449547241079"><ele>261.25</ele><time>2026-04-18T08:16:45Z</time></trkpt><trkpt lat="43.49935188133552" lon="12.962553642487526"><ele>261.0</ele><time>2026-04-18T08:16:46Z</time></trkpt><trkpt lat="43.49923054826805" lon="12.962671589618392"><ele>256.6666666666667</ele><time>2026-04-18T08:16:47Z</time></trkpt><trkpt lat="43.49908999984445" lon="12.962763501484362"><ele>252.33333333333334</ele><time>2026-04-18T08:16:48Z</time></trkpt><trkpt lat="43.49895445311099" lon="12.962876967599524"><ele>248.0</ele><time>2026-04-18T08:16:49Z</time></trkpt><trkpt lat="43.49881869760217" lon="12.962997337846314"><ele>247.0</ele><time>2026-04-18T08:16:50Z</time></trkpt><trkpt lat="43.49868105549896" lon="12.963119847750127"><ele>246.0</ele><time>2026-04-18T08:16:51Z</time></trkpt><trkpt lat="43.49855716747198" lon="12.96325456761515"><ele>245.0</ele><time>2026-04-18T08:16:52Z</time></trkpt><trkpt lat="43.49842425417448" lon="12.963359637371571"><ele>247.75</ele><time>2026-04-18T08:16:53Z</time></trkpt><trkpt lat="43.498297874068484" lon="12.963463295072735"><ele>250.5</ele><time>2026-04-18T08:16:54Z</time></trkpt><trkpt lat="43.4981724346971" lon="12.963573970858228"><ele>253.25</ele><time>2026-04-18T08:16:55Z</time></trkpt><trkpt lat="43.4980518223472" lon="12.96367032486876"><ele>256.0</ele><time>2026-04-18T08:16:56Z</time></trkpt><trkpt lat="43.497927535071355" lon="12.963710124750516"><ele>257.0</ele><time>2026-04-18T08:16:57Z</time></trkpt><trkpt lat="43.49779939483935" lon="12.963628273841499"><ele>258.0</ele><time>2026-04-18T08:16:58Z</time></trkpt><trkpt lat="43.497668668512844" lon="12.96347725653188"><ele>259.0</ele><time>2026-04-18T08:16:59Z</time></trkpt><trkpt lat="43.49752859952966" lon="12.963315154561277"><ele>259.0</ele><time>2026-04-18T08:17:00Z</time></trkpt><trkpt lat="43.49739736954965" lon="12.96316631034476"><ele>259.0</ele><time>2026-04-18T08:17:01Z</time></trkpt><trkpt lat="43.49729796880053" lon="12.963009372967006"><ele>259.0</ele><time>2026-04-18T08:17:02Z</time></trkpt><trkpt lat="43.49721195036396" lon="12.962861953862403"><ele>259.0</ele><time>2026-04-18T08:17:03Z</time></trkpt><trkpt lat="43.4971318076995" lon="12.962762034053005"><ele>259.0</ele><time>2026-04-18T08:17:04Z</time></trkpt><trkpt lat="43.497044154889736" lon="12.962736042612258"><ele>259.0</ele><time>2026-04-18T08:17:05Z</time></trkpt><trkpt lat="43.49695560622155" lon="12.96279482501798"><ele>259.0</ele><time>2026-04-18T08:17:06Z</time></trkpt><trkpt lat="43.496905599224604" lon="12.962918350890966"><ele>259.0</ele><time>2026-04-18T08:17:07Z</time></trkpt><trkpt lat="43.49691436263859" lon="12.963051344231483"><ele>259.0</ele><time>2026-04-18T08:17:08Z</time></trkpt><trkpt lat="43.496998821209104" lon="12.963180500805445"><ele>259.0</ele><time>2026-04-18T08:17:09Z</time></trkpt><trkpt lat="43.497117487407124" lon="12.963281927534835"><ele>259.0</ele><time>2026-04-18T08:17:10Z</time></trkpt><trkpt lat="43.49722605090824" lon="12.963403498240025"><ele>259.0</ele><time>2026-04-18T08:17:11Z</time></trkpt><trkpt lat="43.497327326706646" lon="12.9635486440008"><ele>266.0</ele><time>2026-04-18T08:17:12Z</time></trkpt><trkpt lat="43.497427414719255" lon="12.963715812350932"><ele>273.0</ele><time>2026-04-18T08:17:13Z</time></trkpt><trkpt lat="43.49752837367164" lon="12.963889038106355"><ele>280.0</ele><time>2026-04-18T08:17:14Z</time></trkpt><trkpt lat="43.49763939884713" lon="12.964076281118176"><ele>278.0</ele><time>2026-04-18T08:17:15Z</time></trkpt><trkpt lat="43.497757093431204" lon="12.96426616240401"><ele>276.0</ele><time>2026-04-18T08:17:16Z</time></trkpt><trkpt lat="43.49787584593595" lon="12.964445318789418"><ele>274.0</ele><time>2026-04-18T08:17:17Z</time></trkpt><trkpt lat="43.49799055714819" lon="12.96462592456865"><ele>274.0</ele><time>2026-04-18T08:17:18Z</time></trkpt><trkpt lat="43.49810244390614" lon="12.964811976175827"><ele>274.0</ele><time>2026-04-18T08:17:19Z</time></trkpt><trkpt lat="43.498215951054995" lon="12.964990580964711"><ele>274.0</ele><time>2026-04-18T08:17:20Z</time></trkpt><trkpt lat="43.49832608380673" lon="12.965161850645362"><ele>278.0</ele><time>2026-04-18T08:17:21Z</time></trkpt><trkpt lat="43.49842380969002" lon="12.965323681872443"><ele>282.0</ele><time>2026-04-18T08:17:22Z</time></trkpt><trkpt lat="43.49849173107233" lon="12.965486806965199"><ele>286.0</ele><time>2026-04-18T08:17:23Z</time></trkpt><trkpt lat="43.49851193125304" lon="12.965667741362232"><ele>290.0</ele><time>2026-04-18T08:17:24Z</time></trkpt><trkpt lat="43.49852802838176" lon="12.965885433940624"><ele>292.0</ele><time>2026-04-18T08:17:25Z</time></trkpt><trkpt lat="43.49855841505972" lon="12.966121276129197"><ele>294.0</ele><time>2026-04-18T08:17:26Z</time></trkpt><trkpt lat="43.498604697122495" lon="12.966348582451952"><ele>296.0</ele><time>2026-04-18T08:17:27Z</time></trkpt><trkpt lat="43.498698464992394" lon="12.96654347378103"><ele>296.0</ele><time>2026-04-18T08:17:28Z</time></trkpt><trkpt lat="43.498830989895" lon="12.966700752167089"><ele>296.0</ele><time>2026-04-18T08:17:29Z</time></trkpt><trkpt lat="43.49897717381248" lon="12.96683257849153"><ele>296.0</ele><time>2026-04-18T08:17:30Z</time></trkpt><trkpt lat="43.499119490796566" lon="12.96694934852887"><ele>296.0</ele><time>2026-04-18T08:17:31Z</time></trkpt><trkpt lat="43.499256283351905" lon="12.967046293887938"><ele>296.0</ele><time>2026-04-18T08:17:32Z</time></trkpt><trkpt lat="43.4993658836489" lon="12.967151574179082"><ele>296.0</ele><time>2026-04-18T08:17:33Z</time></trkpt><trkpt lat="43.499450432013056" lon="12.96723083593099"><ele>296.0</ele><time>2026-04-18T08:17:34Z</time></trkpt><trkpt lat="43.49949279981458" lon="12.967309444382453"><ele>296.0</ele><time>2026-04-18T08:17:35Z</time></trkpt><trkpt lat="43.49946219772948" lon="12.967434421616824"><ele>296.0</ele><time>2026-04-18T08:17:36Z</time></trkpt><trkpt lat="43.49938065568601" lon="12.967539939221783"><ele>296.0</ele><time>2026-04-18T08:17:37Z</time></trkpt><trkpt lat="43.49923737651385" lon="12.967616005627926"><ele>296.0</ele><time>2026-04-18T08:17:38Z</time></trkpt><trkpt lat="43.499091972674904" lon="12.96771847414035"><ele>295.6666666666667</ele><time>2026-04-18T08:17:39Z</time></trkpt><trkpt lat="43.49896640169242" lon="12.967863570706971"><ele>295.3333333333333</ele><time>2026-04-18T08:17:40Z</time></trkpt><trkpt lat="43.49886067369337" lon="12.968059070959068"><ele>295.0</ele><time>2026-04-18T08:17:41Z</time></trkpt><trkpt lat="43.49875948765423" lon="12.968269379756322"><ele>301.0</ele><time>2026-04-18T08:17:42Z</time></trkpt><trkpt lat="43.49869445755212" lon="12.968492378184378"><ele>307.0</ele><time>2026-04-18T08:17:43Z</time></trkpt><trkpt lat="43.49865334889858" lon="12.968706224306233"><ele>313.0</ele><time>2026-04-18T08:17:44Z</time></trkpt><trkpt lat="43.498612429497705" lon="12.968915886176493"><ele>313.0</ele><time>2026-04-18T08:17:45Z</time></trkpt><trkpt lat="43.498586477802526" lon="12.969123615491915"><ele>313.0</ele><time>2026-04-18T08:17:46Z</time></trkpt><trkpt lat="43.49859580379662" lon="12.969349614112414"><ele>313.0</ele><time>2026-04-18T08:17:47Z</time></trkpt><trkpt lat="43.49864674919325" lon="12.969565112005045"><ele>313.66666666666663</ele><time>2026-04-18T08:17:48Z</time></trkpt><trkpt lat="43.49873403380267" lon="12.96977515037399"><ele>314.3333333333333</ele><time>2026-04-18T08:17:49Z</time></trkpt><trkpt lat="43.49885481369614" lon="12.969977312677964"><ele>315.0</ele><time>2026-04-18T08:17:50Z</time></trkpt><trkpt lat="43.498991879687466" lon="12.97019425571592"><ele>315.0</ele><time>2026-04-18T08:17:51Z</time></trkpt><trkpt lat="43.4991291170539" lon="12.970417028625697"><ele>315.0</ele><time>2026-04-18T08:17:52Z</time></trkpt><trkpt lat="43.49925829979911" lon="12.970634915909343"><ele>315.0</ele><time>2026-04-18T08:17:53Z</time></trkpt><trkpt lat="43.499392232683704" lon="12.970833086931517"><ele>315.3333333333333</ele><time>2026-04-18T08:17:54Z</time></trkpt><trkpt lat="43.49956318336208" lon="12.97100190896083"><ele>315.66666666666663</ele><time>2026-04-18T08:17:55Z</time></trkpt><trkpt lat="43.499768791228156" lon="12.971124522408633"><ele>316.0</ele><time>2026-04-18T08:17:56Z</time></trkpt><trkpt lat="43.49998885172329" lon="12.971204973372995"><ele>316.40000000000003</ele><time>2026-04-18T08:17:57Z</time></trkpt><trkpt lat="43.50015952562874" lon="12.971245540596348"><ele>316.8</ele><time>2026-04-18T08:17:58Z</time></trkpt><trkpt lat="43.50024988934077" lon="12.971307017996471"><ele>317.20000000000005</ele><time>2026-04-18T08:17:59Z</time></trkpt><trkpt lat="43.500319288668464" lon="12.971365219649867"><ele>317.6</ele><time>2026-04-18T08:18:00Z</time></trkpt><trkpt lat="43.500385410765" lon="12.971372535534387"><ele>318.0</ele><time>2026-04-18T08:18:01Z</time></trkpt><trkpt lat="43.500447677917926" lon="12.971386868455363"><ele>319.0</ele><time>2026-04-18T08:18:02Z</time></trkpt><trkpt lat="43.500528115788185" lon="12.971409933229626"><ele>320.0</ele><time>2026-04-18T08:18:04Z</time></trkpt><trkpt lat="43.5006086764255" lon="12.971445490388687"><ele>321.0</ele><time>2026-04-18T08:18:06Z</time></trkpt><trkpt lat="43.50067836352588" lon="12.971473759021238"><ele>322.0</ele><time>2026-04-18T08:18:07Z</time></trkpt><trkpt lat="43.50078717827547" lon="12.971520023948253"><ele>323.0</ele><time>2026-04-18T08:18:08Z</time></trkpt><trkpt lat="43.50087110814891" lon="12.97156008304606"><ele>324.0</ele><time>2026-04-18T08:18:09Z</time></trkpt><trkpt lat="43.500946980426235" lon="12.97158021181629"><ele>324.0</ele><time>2026-04-18T08:18:11Z</time></trkpt><trkpt lat="43.50087895551327" lon="12.971477318560522"><ele>324.0</ele><time>2026-04-18T08:18:15Z</time></trkpt><trkpt lat="43.50076096246701" lon="12.971492015138173"><ele>324.0</ele><time>2026-04-18T08:18:17Z</time></trkpt><trkpt lat="43.50068432877153" lon="12.971447438987697"><ele>324.0</ele><time>2026-04-18T08:18:18Z</time></trkpt><trkpt lat="43.50059370026654" lon="12.97139805890688"><ele>324.0</ele><time>2026-04-18T08:18:19Z</time></trkpt><trkpt lat="43.5004990156252" lon="12.971351387707129"><ele>323.0</ele><time>2026-04-18T08:18:20Z</time></trkpt><trkpt lat="43.500415439897814" lon="12.971315013635781"><ele>322.0</ele><time>2026-04-18T08:18:21Z</time></trkpt><trkpt lat="43.5003456535662" lon="12.971303390387824"><ele>321.0</ele><time>2026-04-18T08:18:22Z</time></trkpt><trkpt lat="43.50028502417006" lon="12.971339532429175"><ele>320.0</ele><time>2026-04-18T08:18:23Z</time></trkpt><trkpt lat="43.50023676838433" lon="12.971413269884989"><ele>319.0</ele><time>2026-04-18T08:18:24Z</time></trkpt><trkpt lat="43.50018968778015" lon="12.971517474013632"><ele>318.0</ele><time>2026-04-18T08:18:25Z</time></trkpt><trkpt lat="43.50013559530496" lon="12.9716058543768"><ele>318.0</ele><time>2026-04-18T08:18:26Z</time></trkpt><trkpt lat="43.500060941453" lon="12.971629897582769"><ele>318.0</ele><time>2026-04-18T08:18:27Z</time></trkpt><trkpt lat="43.49999921338937" lon="12.971612657126629"><ele>318.0</ele><time>2026-04-18T08:18:28Z</time></trkpt><trkpt lat="43.49993894867702" lon="12.971578281766117"><ele>318.0</ele><time>2026-04-18T08:18:30Z</time></trkpt><trkpt lat="43.499858602160025" lon="12.971543739114335"><ele>318.0</ele><time>2026-04-18T08:19:26Z</time></trkpt><trkpt lat="43.49978886154056" lon="12.971525207874748"><ele>318.0</ele><time>2026-04-18T08:19:27Z</time></trkpt><trkpt lat="43.49971558662191" lon="12.971502188377954"><ele>318.0</ele><time>2026-04-18T08:19:28Z</time></trkpt><trkpt lat="43.4996501911897" lon="12.971478229178945"><ele>317.6666666666667</ele><time>2026-04-18T08:19:29Z</time></trkpt><trkpt lat="43.499581706049966" lon="12.971450979331976"><ele>317.3333333333333</ele><time>2026-04-18T08:19:30Z</time></trkpt><trkpt lat="43.49950342955864" lon="12.971423204868401"><ele>317.0</ele><time>2026-04-18T08:19:31Z</time></trkpt><trkpt lat="43.49942368915368" lon="12.971402401600008"><ele>316.66666666666663</ele><time>2026-04-18T08:19:32Z</time></trkpt><trkpt lat="43.49929415974224" lon="12.971366552474162"><ele>316.3333333333333</ele><time>2026-04-18T08:19:34Z</time></trkpt><trkpt lat="43.499217119997255" lon="12.971339881806825"><ele>316.0</ele><time>2026-04-18T08:19:35Z</time></trkpt><trkpt lat="43.4991276938954" lon="12.971305337145338"><ele>316.0</ele><time>2026-04-18T08:19:36Z</time></trkpt><trkpt lat="43.499031396257266" lon="12.971264495817504"><ele>316.0</ele><time>2026-04-18T08:19:37Z</time></trkpt><trkpt lat="43.498925382029036" lon="12.971215027739273"><ele>316.0</ele><time>2026-04-18T08:19:38Z</time></trkpt><trkpt lat="43.498815076737756" lon="12.971166573937056"><ele>316.0</ele><time>2026-04-18T08:19:39Z</time></trkpt><trkpt lat="43.4986038095526" lon="12.971057830751908"><ele>316.3333333333333</ele><time>2026-04-18T08:19:40Z</time></trkpt><trkpt lat="43.498441893814224" lon="12.970978571275266"><ele>316.6666666666667</ele><time>2026-04-18T08:19:41Z</time></trkpt><trkpt lat="43.49828166475357" lon="12.970897092457234"><ele>317.0</ele><time>2026-04-18T08:19:42Z</time></trkpt><trkpt lat="43.49811893221637" lon="12.970801295609052"><ele>318.6666666666667</ele><time>2026-04-18T08:19:43Z</time></trkpt><trkpt lat="43.49795719969579" lon="12.970671850950158"><ele>320.3333333333333</ele><time>2026-04-18T08:19:44Z</time></trkpt><trkpt lat="43.49779979962905" lon="12.97055036579209"><ele>322.0</ele><time>2026-04-18T08:19:45Z</time></trkpt><trkpt lat="43.49765080606756" lon="12.970431225197341"><ele>325.0</ele><time>2026-04-18T08:19:46Z</time></trkpt><trkpt lat="43.49750726145094" lon="12.970318600130135"><ele>328.0</ele><time>2026-04-18T08:19:47Z</time></trkpt><trkpt lat="43.49736953996596" lon="12.970208207066014"><ele>331.0</ele><time>2026-04-18T08:19:48Z</time></trkpt><trkpt lat="43.497234629187574" lon="12.97010836214635"><ele>331.0</ele><time>2026-04-18T08:19:49Z</time></trkpt><trkpt lat="43.49710771343961" lon="12.970018524133925"><ele>331.0</ele><time>2026-04-18T08:19:50Z</time></trkpt><trkpt lat="43.49698884743699" lon="12.969931000176539"><ele>331.0</ele><time>2026-04-18T08:19:51Z</time></trkpt><trkpt lat="43.496868414383954" lon="12.969898910987855"><ele>331.0</ele><time>2026-04-18T08:19:52Z</time></trkpt><trkpt lat="43.49672681488804" lon="12.969931995883654"><ele>331.0</ele><time>2026-04-18T08:19:53Z</time></trkpt><trkpt lat="43.49657772103777" lon="12.970004565447939"><ele>331.0</ele><time>2026-04-18T08:19:54Z</time></trkpt><trkpt lat="43.49642301285607" lon="12.970100236739222"><ele>331.0</ele><time>2026-04-18T08:19:55Z</time></trkpt><trkpt lat="43.49626608707364" lon="12.97019602235776"><ele>334.0</ele><time>2026-04-18T08:19:56Z</time></trkpt><trkpt lat="43.496110623984165" lon="12.970282386573231"><ele>337.0</ele><time>2026-04-18T08:19:57Z</time></trkpt><trkpt lat="43.495956287053396" lon="12.970360639936704"><ele>340.0</ele><time>2026-04-18T08:19:58Z</time></trkpt><trkpt lat="43.49580232789897" lon="12.970444438766531"><ele>340.0</ele><time>2026-04-18T08:19:59Z</time></trkpt><trkpt lat="43.49565076684621" lon="12.970532034655113"><ele>340.0</ele><time>2026-04-18T08:20:00Z</time></trkpt><trkpt lat="43.49550026392027" lon="12.970612846441464"><ele>340.0</ele><time>2026-04-18T08:20:01Z</time></trkpt><trkpt lat="43.49534762123703" lon="12.970685593655883"><ele>340.0</ele><time>2026-04-18T08:20:02Z</time></trkpt><trkpt lat="43.495189278948565" lon="12.97076448158801"><ele>340.0</ele><time>2026-04-18T08:20:03Z</time></trkpt><trkpt lat="43.495035737507855" lon="12.970841264216235"><ele>340.0</ele><time>2026-04-18T08:20:04Z</time></trkpt><trkpt lat="43.49488588076808" lon="12.970918258677703"><ele>340.0</ele><time>2026-04-18T08:20:05Z</time></trkpt><trkpt lat="43.4947511413455" lon="12.970987781360623"><ele>340.0</ele><time>2026-04-18T08:20:06Z</time></trkpt><trkpt lat="43.49462404558643" lon="12.97103902140653"><ele>340.0</ele><time>2026-04-18T08:20:07Z</time></trkpt><trkpt lat="43.494480345527236" lon="12.970999356085853"><ele>340.0</ele><time>2026-04-18T08:20:08Z</time></trkpt><trkpt lat="43.494330760253405" lon="12.970976716597274"><ele>344.0</ele><time>2026-04-18T08:20:09Z</time></trkpt><trkpt lat="43.494183000077946" lon="12.97093597725013"><ele>348.0</ele><time>2026-04-18T08:20:10Z</time></trkpt><trkpt lat="43.49404095612195" lon="12.970934327702984"><ele>352.0</ele><time>2026-04-18T08:20:11Z</time></trkpt><trkpt lat="43.49389603355984" lon="12.971020602620229"><ele>352.0</ele><time>2026-04-18T08:20:12Z</time></trkpt><trkpt lat="43.493769974769336" lon="12.971154810399568"><ele>352.0</ele><time>2026-04-18T08:20:13Z</time></trkpt><trkpt lat="43.49365117751647" lon="12.971316164097802"><ele>352.0</ele><time>2026-04-18T08:20:14Z</time></trkpt><trkpt lat="43.493569079626916" lon="12.971501220576975"><ele>355.66666666666663</ele><time>2026-04-18T08:20:15Z</time></trkpt><trkpt lat="43.49353669808516" lon="12.97172326229023"><ele>359.3333333333333</ele><time>2026-04-18T08:20:16Z</time></trkpt><trkpt lat="43.49352903056709" lon="12.971939191070275"><ele>363.0</ele><time>2026-04-18T08:20:17Z</time></trkpt><trkpt lat="43.49347382035887" lon="12.972115844706389"><ele>363.0</ele><time>2026-04-18T08:20:18Z</time></trkpt><trkpt lat="43.493385705341495" lon="12.972292177386603"><ele>363.0</ele><time>2026-04-18T08:20:19Z</time></trkpt><trkpt lat="43.493272120866706" lon="12.972447488780785"><ele>363.0</ele><time>2026-04-18T08:20:20Z</time></trkpt><trkpt lat="43.49314379361301" lon="12.972594505776998"><ele>361.3333333333333</ele><time>2026-04-18T08:20:21Z</time></trkpt><trkpt lat="43.493026534860306" lon="12.972751612723249"><ele>359.66666666666663</ele><time>2026-04-18T08:20:22Z</time></trkpt><trkpt lat="43.49288913371618" lon="12.9728953712245"><ele>358.0</ele><time>2026-04-18T08:20:23Z</time></trkpt><trkpt lat="43.49275665525473" lon="12.973047828182128"><ele>360.3333333333333</ele><time>2026-04-18T08:20:24Z</time></trkpt><trkpt lat="43.49262697820241" lon="12.97320332995871"><ele>362.6666666666667</ele><time>2026-04-18T08:20:25Z</time></trkpt><trkpt lat="43.492498096836826" lon="12.973350700525655"><ele>365.0</ele><time>2026-04-18T08:20:26Z</time></trkpt><trkpt lat="43.4923687182976" lon="12.97349316727231"><ele>365.0</ele><time>2026-04-18T08:20:27Z</time></trkpt><trkpt lat="43.49225015747178" lon="12.973628785374526"><ele>365.0</ele><time>2026-04-18T08:20:28Z</time></trkpt><trkpt lat="43.492149714363556" lon="12.97376159700243"><ele>365.0</ele><time>2026-04-18T08:20:29Z</time></trkpt><trkpt lat="43.492084818995096" lon="12.973919848161051"><ele>365.0</ele><time>2026-04-18T08:20:30Z</time></trkpt><trkpt lat="43.49205941284288" lon="12.974098384205343"><ele>365.33333333333337</ele><time>2026-04-18T08:20:31Z</time></trkpt><trkpt lat="43.492124648505424" lon="12.974301511384567"><ele>365.6666666666667</ele><time>2026-04-18T08:20:32Z</time></trkpt><trkpt lat="43.4922099313278" lon="12.974500379135472"><ele>366.0</ele><time>2026-04-18T08:20:33Z</time></trkpt><trkpt lat="43.492313628664654" lon="12.974689154081748"><ele>366.0</ele><time>2026-04-18T08:20:34Z</time></trkpt><trkpt lat="43.49242580311947" lon="12.974841814426805"><ele>366.0</ele><time>2026-04-18T08:20:35Z</time></trkpt><trkpt lat="43.49251757635204" lon="12.974988436554174"><ele>366.0</ele><time>2026-04-18T08:20:36Z</time></trkpt><trkpt lat="43.49260566175551" lon="12.975109868865182"><ele>366.0</ele><time>2026-04-18T08:20:37Z</time></trkpt><trkpt lat="43.49268258202987" lon="12.975217496129456"><ele>365.6</ele><time>2026-04-18T08:20:38Z</time></trkpt><trkpt lat="43.492734499153705" lon="12.975317094387057"><ele>365.20000000000005</ele><time>2026-04-18T08:20:39Z</time></trkpt><trkpt lat="43.49277014241687" lon="12.975417369382907"><ele>364.79999999999995</ele><time>2026-04-18T08:20:40Z</time></trkpt><trkpt lat="43.49272402133782" lon="12.975535101496016"><ele>364.4</ele><time>2026-04-18T08:20:41Z</time></trkpt><trkpt lat="43.492641318049806" lon="12.9756165729867"><ele>364.0</ele><time>2026-04-18T08:20:42Z</time></trkpt><trkpt lat="43.492532266232146" lon="12.975655056241573"><ele>364.0</ele><time>2026-04-18T08:20:43Z</time></trkpt><trkpt lat="43.492406259858015" lon="12.97563679648898"><ele>364.0</ele><time>2026-04-18T08:20:44Z</time></trkpt><trkpt lat="43.49228376129013" lon="12.975608713603474"><ele>364.0</ele><time>2026-04-18T08:20:45Z</time></trkpt><trkpt lat="43.49215734966867" lon="12.975617576479083"><ele>364.0</ele><time>2026-04-18T08:20:46Z</time></trkpt><trkpt lat="43.49204153270128" lon="12.9756699178589"><ele>362.79999999999995</ele><time>2026-04-18T08:20:47Z</time></trkpt><trkpt lat="43.49193458849885" lon="12.975743036405314"><ele>361.59999999999997</ele><time>2026-04-18T08:20:48Z</time></trkpt><trkpt lat="43.49182999582558" lon="12.975816273435518"><ele>360.4</ele><time>2026-04-18T08:20:49Z</time></trkpt><trkpt lat="43.49173782593506" lon="12.975848027824483"><ele>359.2</ele><time>2026-04-18T08:20:50Z</time></trkpt><trkpt lat="43.49166219703654" lon="12.975832042352836"><ele>358.0</ele><time>2026-04-18T08:20:51Z</time></trkpt><trkpt lat="43.491605339948286" lon="12.975760739115445"><ele>358.00000000000006</ele><time>2026-04-18T08:20:52Z</time></trkpt><trkpt lat="43.49155805704271" lon="12.975676827567073"><ele>358.0</ele><time>2026-04-18T08:20:53Z</time></trkpt><trkpt lat="43.49152437592878" lon="12.97558241494095"><ele>358.0</ele><time>2026-04-18T08:20:54Z</time></trkpt><trkpt lat="43.49150739941532" lon="12.975479990289132"><ele>358.0</ele><time>2026-04-18T08:20:55Z</time></trkpt><trkpt lat="43.49148836836572" lon="12.975382443934235"><ele>358.0</ele><time>2026-04-18T08:20:56Z</time></trkpt><trkpt lat="43.491462047847854" lon="12.975292902982034"><ele>358.00000000000006</ele><time>2026-04-18T08:20:57Z</time></trkpt><trkpt lat="43.491425765121505" lon="12.975213463246241"><ele>358.0</ele><time>2026-04-18T08:20:58Z</time></trkpt><trkpt lat="43.49138027963153" lon="12.975140727108615"><ele>358.0</ele><time>2026-04-18T08:20:59Z</time></trkpt><trkpt lat="43.49133516798551" lon="12.9750679445236"><ele>358.0</ele><time>2026-04-18T08:21:00Z</time></trkpt><trkpt lat="43.49126799417012" lon="12.974967571528307"><ele>358.0</ele><time>2026-04-18T08:21:02Z</time></trkpt><trkpt lat="43.49120940572947" lon="12.974893581995769"><ele>358.0</ele><time>2026-04-18T08:21:04Z</time></trkpt><trkpt lat="43.49113823732265" lon="12.974822126883172"><ele>358.0</ele><time>2026-04-18T08:21:06Z</time></trkpt><trkpt lat="43.491063927609666" lon="12.974771086166456"><ele>358.0</ele><time>2026-04-18T08:21:08Z</time></trkpt><trkpt lat="43.49099582829626" lon="12.97474906868968"><ele>356.79999999999995</ele><time>2026-04-18T08:21:10Z</time></trkpt><trkpt lat="43.49092515554479" lon="12.974739602260893"><ele>355.6</ele><time>2026-04-18T08:21:34Z</time></trkpt><trkpt lat="43.49079819810004" lon="12.974734579097333"><ele>354.4</ele><time>2026-04-18T08:21:36Z</time></trkpt><trkpt lat="43.490715397600056" lon="12.974727352327214"><ele>353.20000000000005</ele><time>2026-04-18T08:21:37Z</time></trkpt><trkpt lat="43.49061742810101" lon="12.97473562347601"><ele>352.0</ele><time>2026-04-18T08:21:38Z</time></trkpt><trkpt lat="43.49051242972924" lon="12.974734369607239"><ele>350.25</ele><time>2026-04-18T08:21:39Z</time></trkpt><trkpt lat="43.49039114996419" lon="12.97472060351749"><ele>348.5</ele><time>2026-04-18T08:21:40Z</time></trkpt><trkpt lat="43.49027784655056" lon="12.97471798294351"><ele>346.75</ele><time>2026-04-18T08:21:41Z</time></trkpt><trkpt lat="43.4901642924733" lon="12.974736086364016"><ele>345.0</ele><time>2026-04-18T08:21:42Z</time></trkpt><trkpt lat="43.49003793572176" lon="12.974807526053908"><ele>345.0</ele><time>2026-04-18T08:21:43Z</time></trkpt><trkpt lat="43.489916409099024" lon="12.974953620479448"><ele>345.0</ele><time>2026-04-18T08:21:44Z</time></trkpt><trkpt lat="43.489791817321795" lon="12.97512083582986"><ele>345.0</ele><time>2026-04-18T08:21:45Z</time></trkpt><trkpt lat="43.48966463245278" lon="12.975261784004635"><ele>340.0</ele><time>2026-04-18T08:21:46Z</time></trkpt><trkpt lat="43.48953634999111" lon="12.975380798922746"><ele>335.0</ele><time>2026-04-18T08:21:47Z</time></trkpt><trkpt lat="43.48940134990376" lon="12.975487049219977"><ele>330.0</ele><time>2026-04-18T08:21:48Z</time></trkpt><trkpt lat="43.48926392454758" lon="12.97557786810303"><ele>330.0</ele><time>2026-04-18T08:21:49Z</time></trkpt><trkpt lat="43.48911464170882" lon="12.975637387439013"><ele>330.0</ele><time>2026-04-18T08:21:50Z</time></trkpt><trkpt lat="43.48895433962629" lon="12.975657382466157"><ele>330.0</ele><time>2026-04-18T08:21:51Z</time></trkpt><trkpt lat="43.488815433338694" lon="12.975653773587993"><ele>325.5</ele><time>2026-04-18T08:21:52Z</time></trkpt><trkpt lat="43.48870984472456" lon="12.975629015697924"><ele>321.0</ele><time>2026-04-18T08:21:53Z</time></trkpt><trkpt lat="43.48861062096993" lon="12.975541954092556"><ele>316.5</ele><time>2026-04-18T08:21:54Z</time></trkpt><trkpt lat="43.48854524192249" lon="12.9753957482772"><ele>312.0</ele><time>2026-04-18T08:21:55Z</time></trkpt><trkpt lat="43.48851174376116" lon="12.975226183268981"><ele>312.0</ele><time>2026-04-18T08:21:56Z</time></trkpt><trkpt lat="43.48847928188146" lon="12.975040374633178"><ele>312.0</ele><time>2026-04-18T08:21:57Z</time></trkpt><trkpt lat="43.48843225895519" lon="12.974849571986082"><ele>312.0</ele><time>2026-04-18T08:21:58Z</time></trkpt><trkpt lat="43.48836219072364" lon="12.974640787486516"><ele>315.6666666666667</ele><time>2026-04-18T08:21:59Z</time></trkpt><trkpt lat="43.488286544058695" lon="12.974425330263573"><ele>319.33333333333337</ele><time>2026-04-18T08:22:00Z</time></trkpt><trkpt lat="43.48820671694071" lon="12.974196092486622"><ele>323.0</ele><time>2026-04-18T08:22:01Z</time></trkpt><trkpt lat="43.488130946275845" lon="12.97397925013464"><ele>327.6666666666667</ele><time>2026-04-18T08:22:02Z</time></trkpt><trkpt lat="43.48805311627578" lon="12.973763734894714"><ele>332.3333333333333</ele><time>2026-04-18T08:22:03Z</time></trkpt><trkpt lat="43.4879727013516" lon="12.973554241244374"><ele>337.0</ele><time>2026-04-18T08:22:04Z</time></trkpt><trkpt lat="43.48788825975416" lon="12.97335869794938"><ele>329.66666666666663</ele><time>2026-04-18T08:22:05Z</time></trkpt><trkpt lat="43.48779419158968" lon="12.973175167415578"><ele>322.3333333333333</ele><time>2026-04-18T08:22:06Z</time></trkpt><trkpt lat="43.48770418484611" lon="12.97299705424513"><ele>315.0</ele><time>2026-04-18T08:22:07Z</time></trkpt><trkpt lat="43.48761444883391" lon="12.972818876011587"><ele>315.0</ele><time>2026-04-18T08:22:08Z</time></trkpt><trkpt lat="43.48753512870793" lon="12.972663925220573"><ele>315.0</ele><time>2026-04-18T08:22:09Z</time></trkpt><trkpt lat="43.48746305893189" lon="12.9725282085271"><ele>315.0</ele><time>2026-04-18T08:22:10Z</time></trkpt><trkpt lat="43.487394172068996" lon="12.972411193356189"><ele>315.0</ele><time>2026-04-18T08:22:11Z</time></trkpt><trkpt lat="43.48731163424338" lon="12.972334208005844"><ele>317.8</ele><time>2026-04-18T08:22:12Z</time></trkpt><trkpt lat="43.48721334540361" lon="12.972323309074135"><ele>320.6</ele><time>2026-04-18T08:22:13Z</time></trkpt><trkpt lat="43.487110750359875" lon="12.972406351006073"><ele>323.4</ele><time>2026-04-18T08:22:14Z</time></trkpt><trkpt lat="43.487023138399834" lon="12.972497777634056"><ele>326.2</ele><time>2026-04-18T08:22:15Z</time></trkpt><trkpt lat="43.4869569033204" lon="12.97258491550517"><ele>329.0</ele><time>2026-04-18T08:22:16Z</time></trkpt><trkpt lat="43.48692405577639" lon="12.972694559755993"><ele>330.0</ele><time>2026-04-18T08:22:17Z</time></trkpt><trkpt lat="43.486962225599356" lon="12.972850290680135"><ele>331.0</ele><time>2026-04-18T08:22:18Z</time></trkpt><trkpt lat="43.4870262210418" lon="12.973020349100409"><ele>332.0</ele><time>2026-04-18T08:22:19Z</time></trkpt><trkpt lat="43.48709435623182" lon="12.973217294599952"><ele>333.0</ele><time>2026-04-18T08:22:20Z</time></trkpt><trkpt lat="43.48716272232872" lon="12.973424322245426"><ele>328.2</ele><time>2026-04-18T08:22:21Z</time></trkpt><trkpt lat="43.4872257703662" lon="12.973610002639372"><ele>323.4</ele><time>2026-04-18T08:22:22Z</time></trkpt><trkpt lat="43.4872718821767" lon="12.973763222882074"><ele>318.59999999999997</ele><time>2026-04-18T08:22:23Z</time></trkpt><trkpt lat="43.487307622513875" lon="12.97387793264394"><ele>313.79999999999995</ele><time>2026-04-18T08:22:24Z</time></trkpt><trkpt lat="43.487262130770674" lon="12.973978616894604"><ele>309.0</ele><time>2026-04-18T08:22:25Z</time></trkpt><trkpt lat="43.487165741982814" lon="12.974014858866619"><ele>313.3333333333333</ele><time>2026-04-18T08:22:26Z</time></trkpt><trkpt lat="43.487029264745225" lon="12.97400888672055"><ele>317.66666666666663</ele><time>2026-04-18T08:22:27Z</time></trkpt><trkpt lat="43.486865137070154" lon="12.974009344945726"><ele>322.0</ele><time>2026-04-18T08:22:28Z</time></trkpt><trkpt lat="43.486687981215084" lon="12.974069824109998"><ele>322.0</ele><time>2026-04-18T08:22:29Z</time></trkpt><trkpt lat="43.48652756836139" lon="12.97418498368719"><ele>322.0</ele><time>2026-04-18T08:22:30Z</time></trkpt><trkpt lat="43.4863715149817" lon="12.974260435499948"><ele>322.0</ele><time>2026-04-18T08:22:31Z</time></trkpt><trkpt lat="43.48621167804922" lon="12.974239096431258"><ele>323.75</ele><time>2026-04-18T08:22:32Z</time></trkpt><trkpt lat="43.486066693496866" lon="12.97422570033374"><ele>325.5</ele><time>2026-04-18T08:22:33Z</time></trkpt><trkpt lat="43.48593861244945" lon="12.97422889936191"><ele>327.25</ele><time>2026-04-18T08:22:34Z</time></trkpt><trkpt lat="43.48583628163061" lon="12.974312459511902"><ele>329.0</ele><time>2026-04-18T08:22:35Z</time></trkpt><trkpt lat="43.485785444338816" lon="12.974483044616449"><ele>329.0</ele><time>2026-04-18T08:22:36Z</time></trkpt><trkpt lat="43.48578392486605" lon="12.974673320611718"><ele>329.0</ele><time>2026-04-18T08:22:37Z</time></trkpt><trkpt lat="43.48585754004732" lon="12.974879654009241"><ele>329.0</ele><time>2026-04-18T08:22:38Z</time></trkpt><trkpt lat="43.48597434564234" lon="12.975103601005518"><ele>330.6666666666667</ele><time>2026-04-18T08:22:39Z</time></trkpt><trkpt lat="43.48606130619799" lon="12.975362989419247"><ele>332.3333333333333</ele><time>2026-04-18T08:22:40Z</time></trkpt><trkpt lat="43.4861483256088" lon="12.975581202245479"><ele>334.0</ele><time>2026-04-18T08:22:41Z</time></trkpt><trkpt lat="43.486197655533104" lon="12.97573724160769"><ele>332.25</ele><time>2026-04-18T08:22:42Z</time></trkpt><trkpt lat="43.486206676528546" lon="12.975879613141487"><ele>330.5</ele><time>2026-04-18T08:22:43Z</time></trkpt><trkpt lat="43.48616924837453" lon="12.976019336916076"><ele>328.75</ele><time>2026-04-18T08:22:44Z</time></trkpt><trkpt lat="43.4860803960602" lon="12.976137668569466"><ele>327.0</ele><time>2026-04-18T08:22:45Z</time></trkpt><trkpt lat="43.48594578726899" lon="12.976185712490679"><ele>327.0</ele><time>2026-04-18T08:22:46Z</time></trkpt><trkpt lat="43.48577880818678" lon="12.976291892259363"><ele>327.0</ele><time>2026-04-18T08:22:47Z</time></trkpt><trkpt lat="43.485597502756" lon="12.976426787771915"><ele>327.0</ele><time>2026-04-18T08:22:48Z</time></trkpt><trkpt lat="43.48542718920598" lon="12.976579699584175"><ele>327.3333333333333</ele><time>2026-04-18T08:22:49Z</time></trkpt><trkpt lat="43.48526739959078" lon="12.976717366533492"><ele>327.66666666666663</ele><time>2026-04-18T08:22:50Z</time></trkpt><trkpt lat="43.485099368763315" lon="12.97679875826902"><ele>328.0</ele><time>2026-04-18T08:22:51Z</time></trkpt><trkpt lat="43.48491842388851" lon="12.976868900846473"><ele>328.0</ele><time>2026-04-18T08:22:52Z</time></trkpt><trkpt lat="43.48471682049019" lon="12.976946575645057"><ele>328.0</ele><time>2026-04-18T08:22:53Z</time></trkpt><trkpt lat="43.48453097334292" lon="12.977005191700535"><ele>328.0</ele><time>2026-04-18T08:22:54Z</time></trkpt><trkpt lat="43.4843766347866" lon="12.977075682480017"><ele>331.0</ele><time>2026-04-18T08:22:55Z</time></trkpt><trkpt lat="43.48425734283937" lon="12.977187491981638"><ele>334.0</ele><time>2026-04-18T08:22:56Z</time></trkpt><trkpt lat="43.484195133019355" lon="12.977385876238381"><ele>337.0</ele><time>2026-04-18T08:22:57Z</time></trkpt><trkpt lat="43.484181425763374" lon="12.97761350364588"><ele>337.0</ele><time>2026-04-18T08:22:58Z</time></trkpt><trkpt lat="43.484187817979056" lon="12.977830126075236"><ele>337.0</ele><time>2026-04-18T08:22:59Z</time></trkpt><trkpt lat="43.484140108738494" lon="12.977995743830528"><ele>337.0</ele><time>2026-04-18T08:23:00Z</time></trkpt><trkpt lat="43.48405804574426" lon="12.978098074776225"><ele>337.0</ele><time>2026-04-18T08:23:01Z</time></trkpt><trkpt lat="43.48394548593302" lon="12.978173179206813"><ele>337.0</ele><time>2026-04-18T08:23:02Z</time></trkpt><trkpt lat="43.483803454431154" lon="12.97812271225839"><ele>337.0</ele><time>2026-04-18T08:23:03Z</time></trkpt><trkpt lat="43.483625123036575" lon="12.978087424265713"><ele>337.0</ele><time>2026-04-18T08:23:04Z</time></trkpt><trkpt lat="43.48344133603589" lon="12.978056534312666"><ele>339.66666666666663</ele><time>2026-04-18T08:23:05Z</time></trkpt><trkpt lat="43.48326032515951" lon="12.978065621487548"><ele>342.3333333333333</ele><time>2026-04-18T08:23:06Z</time></trkpt><trkpt lat="43.48309107939523" lon="12.978110066001642"><ele>345.0</ele><time>2026-04-18T08:23:07Z</time></trkpt><trkpt lat="43.48292956948546" lon="12.978198592040606"><ele>347.0</ele><time>2026-04-18T08:23:08Z</time></trkpt><trkpt lat="43.48276937402322" lon="12.978275825988394"><ele>349.0</ele><time>2026-04-18T08:23:09Z</time></trkpt><trkpt lat="43.48260470802318" lon="12.978319028432642"><ele>351.0</ele><time>2026-04-18T08:23:10Z</time></trkpt><trkpt lat="43.482429264429435" lon="12.978329694788629"><ele>351.0</ele><time>2026-04-18T08:23:11Z</time></trkpt><trkpt lat="43.482240304451636" lon="12.978313126157685"><ele>351.0</ele><time>2026-04-18T08:23:12Z</time></trkpt><trkpt lat="43.48204990647714" lon="12.978301610449012"><ele>351.0</ele><time>2026-04-18T08:23:13Z</time></trkpt><trkpt lat="43.481865457501755" lon="12.97828534511067"><ele>351.6666666666667</ele><time>2026-04-18T08:23:14Z</time></trkpt><trkpt lat="43.48169713559531" lon="12.978281525452706"><ele>352.33333333333337</ele><time>2026-04-18T08:23:15Z</time></trkpt><trkpt lat="43.48153481465757" lon="12.9782856098536"><ele>353.0</ele><time>2026-04-18T08:23:16Z</time></trkpt><trkpt lat="43.48137353003782" lon="12.978277806770908"><ele>352.33333333333337</ele><time>2026-04-18T08:23:17Z</time></trkpt><trkpt lat="43.48121231606275" lon="12.978247117948682"><ele>351.6666666666667</ele><time>2026-04-18T08:23:18Z</time></trkpt><trkpt lat="43.48104576402977" lon="12.978178447845215"><ele>351.0</ele><time>2026-04-18T08:23:19Z</time></trkpt><trkpt lat="43.480876492738034" lon="12.978088809755773"><ele>351.0</ele><time>2026-04-18T08:23:20Z</time></trkpt><trkpt lat="43.480713501317105" lon="12.978010483106786"><ele>351.0</ele><time>2026-04-18T08:23:21Z</time></trkpt><trkpt lat="43.480571636787715" lon="12.977940523705488"><ele>351.0</ele><time>2026-04-18T08:23:22Z</time></trkpt><trkpt lat="43.48045450669095" lon="12.977845937569914"><ele>351.0</ele><time>2026-04-18T08:23:23Z</time></trkpt><trkpt lat="43.48038086437479" lon="12.977691499472629"><ele>351.0</ele><time>2026-04-18T08:23:24Z</time></trkpt><trkpt lat="43.48033397322383" lon="12.977497932736105"><ele>351.0</ele><time>2026-04-18T08:23:25Z</time></trkpt><trkpt lat="43.48029374997343" lon="12.977270316957604"><ele>351.0</ele><time>2026-04-18T08:23:26Z</time></trkpt><trkpt lat="43.480223400714436" lon="12.977060684529441"><ele>351.0</ele><time>2026-04-18T08:23:27Z</time></trkpt><trkpt lat="43.48013389691423" lon="12.976893951600067"><ele>351.0</ele><time>2026-04-18T08:23:28Z</time></trkpt><trkpt lat="43.48003360974256" lon="12.976766487515318"><ele>352.75</ele><time>2026-04-18T08:23:29Z</time></trkpt><trkpt lat="43.47993257992417" lon="12.976664324035532"><ele>354.5</ele><time>2026-04-18T08:23:30Z</time></trkpt><trkpt lat="43.47980629589559" lon="12.97658012086579"><ele>356.25</ele><time>2026-04-18T08:23:31Z</time></trkpt><trkpt lat="43.479670654099586" lon="12.976482167757846"><ele>358.0</ele><time>2026-04-18T08:23:32Z</time></trkpt><trkpt lat="43.47953472661457" lon="12.976387092671118"><ele>358.0</ele><time>2026-04-18T08:23:33Z</time></trkpt><trkpt lat="43.479391869476565" lon="12.976348175803766"><ele>358.0</ele><time>2026-04-18T08:23:34Z</time></trkpt><trkpt lat="43.47924214815871" lon="12.976383659879536"><ele>358.0</ele><time>2026-04-18T08:23:35Z</time></trkpt><trkpt lat="43.47909124244877" lon="12.976482766387473"><ele>358.0</ele><time>2026-04-18T08:23:36Z</time></trkpt><trkpt lat="43.4789477289875" lon="12.976580129980277"><ele>358.0</ele><time>2026-04-18T08:23:37Z</time></trkpt><trkpt lat="43.47880655731414" lon="12.97662374868278"><ele>358.0</ele><time>2026-04-18T08:23:38Z</time></trkpt><trkpt lat="43.4786644344216" lon="12.976621448688501"><ele>358.0</ele><time>2026-04-18T08:23:39Z</time></trkpt><trkpt lat="43.478520897481054" lon="12.97656255249134"><ele>356.0</ele><time>2026-04-18T08:23:40Z</time></trkpt><trkpt lat="43.478367177367765" lon="12.97646913602637"><ele>354.0</ele><time>2026-04-18T08:23:41Z</time></trkpt><trkpt lat="43.478205737794774" lon="12.976388837603004"><ele>352.0</ele><time>2026-04-18T08:23:42Z</time></trkpt><trkpt lat="43.47804887869921" lon="12.97632799974856"><ele>352.66666666666663</ele><time>2026-04-18T08:23:43Z</time></trkpt><trkpt lat="43.477905635823795" lon="12.976247041599436"><ele>353.3333333333333</ele><time>2026-04-18T08:23:44Z</time></trkpt><trkpt lat="43.47779043580111" lon="12.976107350342843"><ele>354.0</ele><time>2026-04-18T08:23:45Z</time></trkpt><trkpt lat="43.4777218168343" lon="12.975909462930243"><ele>355.2</ele><time>2026-04-18T08:23:46Z</time></trkpt><trkpt lat="43.47767324307977" lon="12.975741878948309"><ele>356.4</ele><time>2026-04-18T08:23:47Z</time></trkpt><trkpt lat="43.477608121182655" lon="12.975629857454916"><ele>357.6</ele><time>2026-04-18T08:23:48Z</time></trkpt><trkpt lat="43.47751134220616" lon="12.975591265949648"><ele>358.8</ele><time>2026-04-18T08:23:49Z</time></trkpt><trkpt lat="43.477408840150694" lon="12.97563583214594"><ele>360.0</ele><time>2026-04-18T08:23:50Z</time></trkpt><trkpt lat="43.477310250738" lon="12.975713938698107"><ele>360.0</ele><time>2026-04-18T08:23:51Z</time></trkpt><trkpt lat="43.47724130269356" lon="12.975816394751874"><ele>360.0</ele><time>2026-04-18T08:23:52Z</time></trkpt><trkpt lat="43.47726056781969" lon="12.975999968403528"><ele>360.0</ele><time>2026-04-18T08:23:53Z</time></trkpt><trkpt lat="43.477313445447756" lon="12.976213238716534"><ele>360.0</ele><time>2026-04-18T08:23:54Z</time></trkpt><trkpt lat="43.477383858428944" lon="12.976437672577438"><ele>359.0</ele><time>2026-04-18T08:23:55Z</time></trkpt><trkpt lat="43.47744360618511" lon="12.97670521109208"><ele>358.0</ele><time>2026-04-18T08:23:56Z</time></trkpt><trkpt lat="43.47751976317385" lon="12.97697785313453"><ele>357.0</ele><time>2026-04-18T08:23:57Z</time></trkpt><trkpt lat="43.477598243994755" lon="12.977257419272332"><ele>357.0</ele><time>2026-04-18T08:23:58Z</time></trkpt><trkpt lat="43.47767541021285" lon="12.977529356447482"><ele>357.0</ele><time>2026-04-18T08:23:59Z</time></trkpt><trkpt lat="43.47775013171046" lon="12.977784689036406"><ele>357.0</ele><time>2026-04-18T08:24:00Z</time></trkpt><trkpt lat="43.477821098494395" lon="12.978029753520325"><ele>357.0</ele><time>2026-04-18T08:24:01Z</time></trkpt><trkpt lat="43.47788719277676" lon="12.978267395742572"><ele>357.0</ele><time>2026-04-18T08:24:02Z</time></trkpt><trkpt lat="43.47794416115372" lon="12.978510736150763"><ele>357.0</ele><time>2026-04-18T08:24:03Z</time></trkpt><trkpt lat="43.4779642635154" lon="12.978761521846078"><ele>349.6666666666667</ele><time>2026-04-18T08:24:04Z</time></trkpt><trkpt lat="43.47796414561186" lon="12.97900719090731"><ele>342.33333333333337</ele><time>2026-04-18T08:24:05Z</time></trkpt><trkpt lat="43.477935191311495" lon="12.979233801704895"><ele>335.0</ele><time>2026-04-18T08:24:06Z</time></trkpt><trkpt lat="43.477875393455214" lon="12.97942773607725"><ele>335.0</ele><time>2026-04-18T08:24:07Z</time></trkpt><trkpt lat="43.47778871113507" lon="12.979607870766777"><ele>335.0</ele><time>2026-04-18T08:24:08Z</time></trkpt><trkpt lat="43.477687753489406" lon="12.97977568038234"><ele>335.0</ele><time>2026-04-18T08:24:09Z</time></trkpt><trkpt lat="43.477589588853135" lon="12.979909506298169"><ele>335.0</ele><time>2026-04-18T08:24:10Z</time></trkpt><trkpt lat="43.47745430433321" lon="12.979953676762884"><ele>335.0</ele><time>2026-04-18T08:24:11Z</time></trkpt><trkpt lat="43.477281076909236" lon="12.979939835479284"><ele>335.0</ele><time>2026-04-18T08:24:12Z</time></trkpt><trkpt lat="43.477096021904444" lon="12.979921959681974"><ele>335.33333333333337</ele><time>2026-04-18T08:24:13Z</time></trkpt><trkpt lat="43.476930773114454" lon="12.979916763237338"><ele>335.6666666666667</ele><time>2026-04-18T08:24:14Z</time></trkpt><trkpt lat="43.476787929551406" lon="12.979871589244281"><ele>336.0</ele><time>2026-04-18T08:24:15Z</time></trkpt><trkpt lat="43.476671267116195" lon="12.979748733950093"><ele>336.0</ele><time>2026-04-18T08:24:16Z</time></trkpt><trkpt lat="43.47656425709028" lon="12.979662892795357"><ele>336.0</ele><time>2026-04-18T08:24:17Z</time></trkpt><trkpt lat="43.47643846694981" lon="12.979694471237627"><ele>336.0</ele><time>2026-04-18T08:24:18Z</time></trkpt><trkpt lat="43.47633037059658" lon="12.979818833789563"><ele>336.0</ele><time>2026-04-18T08:24:19Z</time></trkpt><trkpt lat="43.47623651553665" lon="12.979975206234075"><ele>335.3333333333333</ele><time>2026-04-18T08:24:20Z</time></trkpt><trkpt lat="43.47611696262162" lon="12.98007078778949"><ele>334.66666666666663</ele><time>2026-04-18T08:24:21Z</time></trkpt><trkpt lat="43.47597086925591" lon="12.98003153906203"><ele>334.0</ele><time>2026-04-18T08:24:22Z</time></trkpt><trkpt lat="43.47578845528996" lon="12.979986909975963"><ele>334.0</ele><time>2026-04-18T08:24:23Z</time></trkpt><trkpt lat="43.475569931815905" lon="12.979934264062084"><ele>334.0</ele><time>2026-04-18T08:24:24Z</time></trkpt><trkpt lat="43.47535065062749" lon="12.97987419134019"><ele>334.0</ele><time>2026-04-18T08:24:25Z</time></trkpt><trkpt lat="43.47514106382925" lon="12.979824247838394"><ele>331.66666666666663</ele><time>2026-04-18T08:24:26Z</time></trkpt><trkpt lat="43.47494750016028" lon="12.979765377003437"><ele>329.3333333333333</ele><time>2026-04-18T08:24:27Z</time></trkpt><trkpt lat="43.474789584215436" lon="12.979693391854381"><ele>327.0</ele><time>2026-04-18T08:24:28Z</time></trkpt><trkpt lat="43.474660772318444" lon="12.979617018518931"><ele>327.5</ele><time>2026-04-18T08:24:29Z</time></trkpt><trkpt lat="43.474547673696954" lon="12.979565831328648"><ele>328.0</ele><time>2026-04-18T08:24:30Z</time></trkpt><trkpt lat="43.474444686012575" lon="12.979616117162475"><ele>328.5</ele><time>2026-04-18T08:24:31Z</time></trkpt><trkpt lat="43.47437591455061" lon="12.979764138309315"><ele>329.0</ele><time>2026-04-18T08:24:32Z</time></trkpt><trkpt lat="43.47434741080367" lon="12.979944614001605"><ele>329.0</ele><time>2026-04-18T08:24:33Z</time></trkpt><trkpt lat="43.47434461376676" lon="12.980134260771607"><ele>329.0</ele><time>2026-04-18T08:24:34Z</time></trkpt><trkpt lat="43.47439114954857" lon="12.980292167309116"><ele>329.0</ele><time>2026-04-18T08:24:35Z</time></trkpt><trkpt lat="43.47449138523291" lon="12.980437568073986"><ele>329.0</ele><time>2026-04-18T08:24:36Z</time></trkpt><trkpt lat="43.47465275473609" lon="12.980554361123373"><ele>329.0</ele><time>2026-04-18T08:24:37Z</time></trkpt><trkpt lat="43.474835772424754" lon="12.980679989765058"><ele>329.0</ele><time>2026-04-18T08:24:38Z</time></trkpt><trkpt lat="43.474993374720256" lon="12.980854335614124"><ele>329.0</ele><time>2026-04-18T08:24:39Z</time></trkpt><trkpt lat="43.47509375461725" lon="12.981028153048666"><ele>333.0</ele><time>2026-04-18T08:24:40Z</time></trkpt><trkpt lat="43.475165997055136" lon="12.981241357754621"><ele>337.0</ele><time>2026-04-18T08:24:41Z</time></trkpt><trkpt lat="43.475264919394796" lon="12.981438056187102"><ele>341.0</ele><time>2026-04-18T08:24:42Z</time></trkpt><trkpt lat="43.47542301696344" lon="12.981578735141797"><ele>342.0</ele><time>2026-04-18T08:24:43Z</time></trkpt><trkpt lat="43.475625628447766" lon="12.98169296266936"><ele>343.0</ele><time>2026-04-18T08:24:44Z</time></trkpt><trkpt lat="43.47575998388982" lon="12.981877903314848"><ele>344.0</ele><time>2026-04-18T08:24:45Z</time></trkpt><trkpt lat="43.475863047928975" lon="12.982091453284582"><ele>344.0</ele><time>2026-04-18T08:24:46Z</time></trkpt><trkpt lat="43.47593635522094" lon="12.982342994014605"><ele>344.0</ele><time>2026-04-18T08:24:47Z</time></trkpt><trkpt lat="43.47603639747559" lon="12.982632760207931"><ele>344.0</ele><time>2026-04-18T08:24:48Z</time></trkpt><trkpt lat="43.476173435838135" lon="12.98288124020444"><ele>344.0</ele><time>2026-04-18T08:24:49Z</time></trkpt><trkpt lat="43.47632237997169" lon="12.983046629914842"><ele>344.0</ele><time>2026-04-18T08:24:50Z</time></trkpt><trkpt lat="43.476483167813925" lon="12.983176052319049"><ele>344.0</ele><time>2026-04-18T08:24:51Z</time></trkpt><trkpt lat="43.47665596444246" lon="12.983276405723778"><ele>347.75</ele><time>2026-04-18T08:24:52Z</time></trkpt><trkpt lat="43.47674635771937" lon="12.98341947152547"><ele>351.5</ele><time>2026-04-18T08:24:53Z</time></trkpt><trkpt lat="43.476770419796885" lon="12.98355425255683"><ele>355.25</ele><time>2026-04-18T08:24:54Z</time></trkpt><trkpt lat="43.47675264954266" lon="12.9837418576275"><ele>359.0</ele><time>2026-04-18T08:24:55Z</time></trkpt><trkpt lat="43.4767535104255" lon="12.98395663955553"><ele>359.0</ele><time>2026-04-18T08:24:56Z</time></trkpt><trkpt lat="43.47681738209757" lon="12.984129456563442"><ele>359.0</ele><time>2026-04-18T08:24:57Z</time></trkpt><trkpt lat="43.47698776909993" lon="12.984181184396741"><ele>359.0</ele><time>2026-04-18T08:24:58Z</time></trkpt><trkpt lat="43.47717590747251" lon="12.984255067518749"><ele>359.5</ele><time>2026-04-18T08:24:59Z</time></trkpt><trkpt lat="43.47740208316813" lon="12.984335137688248"><ele>360.0</ele><time>2026-04-18T08:25:00Z</time></trkpt><trkpt lat="43.47760498608516" lon="12.984461793938692"><ele>360.0</ele><time>2026-04-18T08:25:01Z</time></trkpt><trkpt lat="43.47776541939423" lon="12.98457877433223"><ele>360.0</ele><time>2026-04-18T08:25:02Z</time></trkpt><trkpt lat="43.47789750214719" lon="12.984690532030942"><ele>360.0</ele><time>2026-04-18T08:25:03Z</time></trkpt><trkpt lat="43.477985343666866" lon="12.984791087426082"><ele>359.25</ele><time>2026-04-18T08:25:04Z</time></trkpt><trkpt lat="43.478039344993334" lon="12.984893070171033"><ele>358.5</ele><time>2026-04-18T08:25:05Z</time></trkpt><trkpt lat="43.478016049573036" lon="12.985052010050326"><ele>357.75</ele><time>2026-04-18T08:25:06Z</time></trkpt><trkpt lat="43.477961650503104" lon="12.985200554266651"><ele>357.0</ele><time>2026-04-18T08:25:07Z</time></trkpt><trkpt lat="43.47783821696626" lon="12.985295143461016"><ele>357.0</ele><time>2026-04-18T08:25:08Z</time></trkpt><trkpt lat="43.47766589381648" lon="12.985469446979652"><ele>357.0</ele><time>2026-04-18T08:25:09Z</time></trkpt><trkpt lat="43.47748850598934" lon="12.985634412975875"><ele>357.0</ele><time>2026-04-18T08:25:10Z</time></trkpt><trkpt lat="43.47733892154713" lon="12.985806723639092"><ele>356.6666666666667</ele><time>2026-04-18T08:25:11Z</time></trkpt><trkpt lat="43.477196333694856" lon="12.985962412322536"><ele>356.33333333333337</ele><time>2026-04-18T08:25:12Z</time></trkpt><trkpt lat="43.47707240003959" lon="12.986112632132313"><ele>356.0</ele><time>2026-04-18T08:25:13Z</time></trkpt><trkpt lat="43.476986089156696" lon="12.986300570686547"><ele>362.0</ele><time>2026-04-18T08:25:14Z</time></trkpt><trkpt lat="43.47693180567562" lon="12.986528883351756"><ele>368.0</ele><time>2026-04-18T08:25:15Z</time></trkpt><trkpt lat="43.47690116387936" lon="12.986770503486994"><ele>374.0</ele><time>2026-04-18T08:25:16Z</time></trkpt><trkpt lat="43.476905869814" lon="12.98699394566956"><ele>374.0</ele><time>2026-04-18T08:25:17Z</time></trkpt><trkpt lat="43.47697123946817" lon="12.987211639648663"><ele>374.0</ele><time>2026-04-18T08:25:18Z</time></trkpt><trkpt lat="43.477064791374104" lon="12.987419870472786"><ele>374.0</ele><time>2026-04-18T08:25:19Z</time></trkpt><trkpt lat="43.47715176699324" lon="12.987621418896083"><ele>373.33333333333337</ele><time>2026-04-18T08:25:20Z</time></trkpt><trkpt lat="43.477241157005146" lon="12.987806847449006"><ele>372.6666666666667</ele><time>2026-04-18T08:25:21Z</time></trkpt><trkpt lat="43.47734764113573" lon="12.987962778687264"><ele>372.0</ele><time>2026-04-18T08:25:22Z</time></trkpt><trkpt lat="43.477434161505165" lon="12.988119118210731"><ele>372.0</ele><time>2026-04-18T08:25:23Z</time></trkpt><trkpt lat="43.47750196696062" lon="12.988285044938667"><ele>372.0</ele><time>2026-04-18T08:25:24Z</time></trkpt><trkpt lat="43.4775713913268" lon="12.988447977370132"><ele>372.0</ele><time>2026-04-18T08:25:25Z</time></trkpt><trkpt lat="43.47761604029386" lon="12.988622528150717"><ele>372.0</ele><time>2026-04-18T08:25:26Z</time></trkpt><trkpt lat="43.477662249824085" lon="12.988791106203315"><ele>372.40000000000003</ele><time>2026-04-18T08:25:27Z</time></trkpt><trkpt lat="43.47770720085085" lon="12.988959809612586"><ele>372.8</ele><time>2026-04-18T08:25:28Z</time></trkpt><trkpt lat="43.47774453793904" lon="12.989107917960503"><ele>373.2</ele><time>2026-04-18T08:25:29Z</time></trkpt><trkpt lat="43.47776769546831" lon="12.989231026214398"><ele>373.6</ele><time>2026-04-18T08:25:30Z</time></trkpt><trkpt lat="43.47777968276589" lon="12.989326245291352"><ele>374.0</ele><time>2026-04-18T08:25:31Z</time></trkpt><trkpt lat="43.477766938457094" lon="12.98941785844431"><ele>374.33333333333337</ele><time>2026-04-18T08:25:32Z</time></trkpt><trkpt lat="43.47794177246026" lon="12.98963909446172"><ele>374.6666666666667</ele><time>2026-04-18T08:25:34Z</time></trkpt><trkpt lat="43.478022875514476" lon="12.989773991231191"><ele>375.0</ele><time>2026-04-18T08:25:35Z</time></trkpt><trkpt lat="43.47811616848189" lon="12.989907349332764"><ele>374.5</ele><time>2026-04-18T08:25:36Z</time></trkpt><trkpt lat="43.478198248908846" lon="12.990066789083986"><ele>374.0</ele><time>2026-04-18T08:25:37Z</time></trkpt><trkpt lat="43.47828921855828" lon="12.990226400947398"><ele>373.5</ele><time>2026-04-18T08:25:38Z</time></trkpt><trkpt lat="43.478398683745894" lon="12.99036632799987"><ele>373.0</ele><time>2026-04-18T08:25:39Z</time></trkpt><trkpt lat="43.47852934864647" lon="12.990487035519731"><ele>373.0</ele><time>2026-04-18T08:25:40Z</time></trkpt><trkpt lat="43.47868003928126" lon="12.990580309591653"><ele>373.0</ele><time>2026-04-18T08:25:41Z</time></trkpt><trkpt lat="43.478837247256735" lon="12.990652995838118"><ele>373.0</ele><time>2026-04-18T08:25:42Z</time></trkpt><trkpt lat="43.47900663058917" lon="12.990696323977712"><ele>372.5</ele><time>2026-04-18T08:25:43Z</time></trkpt><trkpt lat="43.47915803149834" lon="12.990778020906685"><ele>372.0</ele><time>2026-04-18T08:25:44Z</time></trkpt><trkpt lat="43.47928301215303" lon="12.990863371772832"><ele>371.5</ele><time>2026-04-18T08:25:45Z</time></trkpt><trkpt lat="43.479404410370705" lon="12.99097544722793"><ele>371.0</ele><time>2026-04-18T08:25:46Z</time></trkpt><trkpt lat="43.479536120255716" lon="12.991104057749412"><ele>373.33333333333337</ele><time>2026-04-18T08:25:47Z</time></trkpt><trkpt lat="43.47966817678225" lon="12.991239667532557"><ele>375.6666666666667</ele><time>2026-04-18T08:25:48Z</time></trkpt><trkpt lat="43.47979137473877" lon="12.99137145236545"><ele>378.0</ele><time>2026-04-18T08:25:49Z</time></trkpt><trkpt lat="43.47990284099465" lon="12.991498559158606"><ele>378.0</ele><time>2026-04-18T08:25:50Z</time></trkpt><trkpt lat="43.48000463384217" lon="12.991625757002096"><ele>378.0</ele><time>2026-04-18T08:25:51Z</time></trkpt><trkpt lat="43.480090016757536" lon="12.991755297520477"><ele>378.0</ele><time>2026-04-18T08:25:52Z</time></trkpt><trkpt lat="43.48007575082386" lon="12.991930065067274"><ele>378.0</ele><time>2026-04-18T08:25:53Z</time></trkpt><trkpt lat="43.480077863539066" lon="12.992109846516046"><ele>376.0</ele><time>2026-04-18T08:25:54Z</time></trkpt><trkpt lat="43.48007505687805" lon="12.992324724364606"><ele>374.0</ele><time>2026-04-18T08:25:55Z</time></trkpt><trkpt lat="43.48008484180535" lon="12.992552436948609"><ele>372.0</ele><time>2026-04-18T08:25:56Z</time></trkpt><trkpt lat="43.48006645397255" lon="12.992768325898153"><ele>369.6666666666667</ele><time>2026-04-18T08:25:57Z</time></trkpt><trkpt lat="43.480089245507585" lon="12.992981062252378"><ele>367.33333333333337</ele><time>2026-04-18T08:25:58Z</time></trkpt><trkpt lat="43.480125043011626" lon="12.993198106083417"><ele>365.0</ele><time>2026-04-18T08:25:59Z</time></trkpt><trkpt lat="43.48015745585217" lon="12.993426984763477"><ele>362.6666666666667</ele><time>2026-04-18T08:26:00Z</time></trkpt><trkpt lat="43.480204569925135" lon="12.993644459826125"><ele>360.3333333333333</ele><time>2026-04-18T08:26:01Z</time></trkpt><trkpt lat="43.480268840652435" lon="12.99384005509799"><ele>358.0</ele><time>2026-04-18T08:26:02Z</time></trkpt><trkpt lat="43.480328776605" lon="12.99402544496304"><ele>356.66666666666663</ele><time>2026-04-18T08:26:03Z</time></trkpt><trkpt lat="43.4804080712718" lon="12.99420450328107"><ele>355.3333333333333</ele><time>2026-04-18T08:26:04Z</time></trkpt><trkpt lat="43.4805316218931" lon="12.99436552763207"><ele>354.0</ele><time>2026-04-18T08:26:05Z</time></trkpt><trkpt lat="43.48067967285238" lon="12.994534522530405"><ele>354.0</ele><time>2026-04-18T08:26:06Z</time></trkpt><trkpt lat="43.480834682386934" lon="12.994710870295933"><ele>354.0</ele><time>2026-04-18T08:26:07Z</time></trkpt><trkpt lat="43.480988999975416" lon="12.994889092973743"><ele>354.0</ele><time>2026-04-18T08:26:08Z</time></trkpt><trkpt lat="43.481141716208136" lon="12.99506651119334"><ele>350.3333333333333</ele><time>2026-04-18T08:26:09Z</time></trkpt><trkpt lat="43.48129629415231" lon="12.99524158476388"><ele>346.66666666666663</ele><time>2026-04-18T08:26:10Z</time></trkpt><trkpt lat="43.48144818199734" lon="12.99541492741208"><ele>343.0</ele><time>2026-04-18T08:26:11Z</time></trkpt><trkpt lat="43.48159169574533" lon="12.995604352516512"><ele>343.0</ele><time>2026-04-18T08:26:12Z</time></trkpt><trkpt lat="43.481738999681625" lon="12.995813404408834"><ele>343.0</ele><time>2026-04-18T08:26:13Z</time></trkpt><trkpt lat="43.48188836706435" lon="12.996034740422319"><ele>343.0</ele><time>2026-04-18T08:26:14Z</time></trkpt><trkpt lat="43.48204367512702" lon="12.996275387348058"><ele>338.0</ele><time>2026-04-18T08:26:15Z</time></trkpt><trkpt lat="43.482198370538356" lon="12.996524945424774"><ele>333.0</ele><time>2026-04-18T08:26:16Z</time></trkpt><trkpt lat="43.48234554654833" lon="12.996765414674893"><ele>332.0</ele><time>2026-04-18T08:26:17Z</time></trkpt><trkpt lat="43.48248570422233" lon="12.997000841787917"><ele>331.0</ele><time>2026-04-18T08:26:18Z</time></trkpt><trkpt lat="43.482625146105775" lon="12.99723819883902"><ele>330.0</ele><time>2026-04-18T08:26:19Z</time></trkpt><trkpt lat="43.48277929689577" lon="12.997456401093597"><ele>327.6666666666667</ele><time>2026-04-18T08:26:20Z</time></trkpt><trkpt lat="43.48290390502422" lon="12.997687024938209"><ele>325.33333333333337</ele><time>2026-04-18T08:26:21Z</time></trkpt><trkpt lat="43.48301881656782" lon="12.997902636070153"><ele>323.0</ele><time>2026-04-18T08:26:22Z</time></trkpt><trkpt lat="43.48312668818627" lon="12.998106443069165"><ele>323.0</ele><time>2026-04-18T08:26:23Z</time></trkpt><trkpt lat="43.48320533468228" lon="12.998305079010422"><ele>323.0</ele><time>2026-04-18T08:26:24Z</time></trkpt><trkpt lat="43.48329272016198" lon="12.99847115554281"><ele>323.0</ele><time>2026-04-18T08:26:25Z</time></trkpt><trkpt lat="43.48337170660676" lon="12.998618452528277"><ele>323.0</ele><time>2026-04-18T08:26:26Z</time></trkpt><trkpt lat="43.4834462406639" lon="12.998750540136097"><ele>322.5</ele><time>2026-04-18T08:26:27Z</time></trkpt><trkpt lat="43.48352105702264" lon="12.998878476888724"><ele>322.0</ele><time>2026-04-18T08:26:28Z</time></trkpt><trkpt lat="43.483612240531514" lon="12.99898001604514"><ele>321.5</ele><time>2026-04-18T08:26:29Z</time></trkpt><trkpt lat="43.483753278730646" lon="12.998994101825668"><ele>321.0</ele><time>2026-04-18T08:26:30Z</time></trkpt><trkpt lat="43.48390724859471" lon="12.999009392024496"><ele>320.0</ele><time>2026-04-18T08:26:31Z</time></trkpt><trkpt lat="43.48407712045743" lon="12.999035121026024"><ele>319.0</ele><time>2026-04-18T08:26:32Z</time></trkpt><trkpt lat="43.48425681975324" lon="12.999043000813565"><ele>318.0</ele><time>2026-04-18T08:26:33Z</time></trkpt><trkpt lat="43.48444534055676" lon="12.999053824980932"><ele>314.0</ele><time>2026-04-18T08:26:34Z</time></trkpt><trkpt lat="43.4846379793038" lon="12.999064470756917"><ele>310.0</ele><time>2026-04-18T08:26:35Z</time></trkpt><trkpt lat="43.48483104212523" lon="12.999072275328412"><ele>306.0</ele><time>2026-04-18T08:26:36Z</time></trkpt><trkpt lat="43.485021788911396" lon="12.99905864678664"><ele>306.0</ele><time>2026-04-18T08:26:37Z</time></trkpt><trkpt lat="43.48520372381079" lon="12.999091034948068"><ele>306.0</ele><time>2026-04-18T08:26:38Z</time></trkpt><trkpt lat="43.48539292613538" lon="12.999109114542012"><ele>306.0</ele><time>2026-04-18T08:26:39Z</time></trkpt><trkpt lat="43.485583380426085" lon="12.999139609288646"><ele>304.3333333333333</ele><time>2026-04-18T08:26:40Z</time></trkpt><trkpt lat="43.48577995965955" lon="12.999186999935397"><ele>302.66666666666663</ele><time>2026-04-18T08:26:41Z</time></trkpt><trkpt lat="43.48597663322433" lon="12.99925282202664"><ele>301.0</ele><time>2026-04-18T08:26:42Z</time></trkpt><trkpt lat="43.486176949676626" lon="12.999336707288316"><ele>297.3333333333333</ele><time>2026-04-18T08:26:43Z</time></trkpt><trkpt lat="43.48638281002527" lon="12.999425196392982"><ele>293.6666666666667</ele><time>2026-04-18T08:26:44Z</time></trkpt><trkpt lat="43.486599006602155" lon="12.999510339299079"><ele>290.0</ele><time>2026-04-18T08:26:45Z</time></trkpt><trkpt lat="43.486809893730005" lon="12.99958879582415"><ele>290.0</ele><time>2026-04-18T08:26:46Z</time></trkpt><trkpt lat="43.48701587454918" lon="12.999657116477508"><ele>290.0</ele><time>2026-04-18T08:26:47Z</time></trkpt><trkpt lat="43.48723319547564" lon="12.999731933598143"><ele>290.0</ele><time>2026-04-18T08:26:48Z</time></trkpt><trkpt lat="43.487439060091944" lon="12.999810887108962"><ele>286.6666666666667</ele><time>2026-04-18T08:26:49Z</time></trkpt><trkpt lat="43.48764036194626" lon="12.999899467623713"><ele>283.3333333333333</ele><time>2026-04-18T08:26:50Z</time></trkpt><trkpt lat="43.48784123935829" lon="12.999988632789952"><ele>280.0</ele><time>2026-04-18T08:26:51Z</time></trkpt><trkpt lat="43.4880371077364" lon="13.00007351941406"><ele>277.0</ele><time>2026-04-18T08:26:52Z</time></trkpt><trkpt lat="43.48822778673982" lon="13.000153175125275"><ele>274.0</ele><time>2026-04-18T08:26:53Z</time></trkpt><trkpt lat="43.48841772955542" lon="13.000226617760225"><ele>271.0</ele><time>2026-04-18T08:26:54Z</time></trkpt><trkpt lat="43.488606552536645" lon="13.0002846940886"><ele>267.66666666666663</ele><time>2026-04-18T08:26:55Z</time></trkpt><trkpt lat="43.48878520033165" lon="13.000333835019562"><ele>264.3333333333333</ele><time>2026-04-18T08:26:56Z</time></trkpt><trkpt lat="43.4889627462072" lon="13.000380598874841"><ele>261.0</ele><time>2026-04-18T08:26:57Z</time></trkpt><trkpt lat="43.48912270004884" lon="13.000433121024962"><ele>261.0</ele><time>2026-04-18T08:26:58Z</time></trkpt><trkpt lat="43.48925547759016" lon="13.000506060776711"><ele>261.0</ele><time>2026-04-18T08:26:59Z</time></trkpt><trkpt lat="43.489377047195" lon="13.000601829645523"><ele>261.0</ele><time>2026-04-18T08:27:00Z</time></trkpt><trkpt lat="43.48950385401203" lon="13.000708521085741"><ele>261.0</ele><time>2026-04-18T08:27:01Z</time></trkpt><trkpt lat="43.489653047018066" lon="13.000839755875923"><ele>258.6666666666667</ele><time>2026-04-18T08:27:02Z</time></trkpt><trkpt lat="43.48981366247179" lon="13.000977613087585"><ele>256.33333333333337</ele><time>2026-04-18T08:27:03Z</time></trkpt><trkpt lat="43.48997424491061" lon="13.00109825890195"><ele>254.0</ele><time>2026-04-18T08:27:04Z</time></trkpt><trkpt lat="43.49012279807131" lon="13.001203195215044"><ele>254.0</ele><time>2026-04-18T08:27:05Z</time></trkpt><trkpt lat="43.49026413521528" lon="13.001301732964057"><ele>254.0</ele><time>2026-04-18T08:27:06Z</time></trkpt><trkpt lat="43.490399085367876" lon="13.001391036188446"><ele>254.0</ele><time>2026-04-18T08:27:07Z</time></trkpt><trkpt lat="43.49052665945773" lon="13.001491021212624"><ele>252.33333333333334</ele><time>2026-04-18T08:27:08Z</time></trkpt><trkpt lat="43.490620569467296" lon="13.00165774761932"><ele>250.66666666666669</ele><time>2026-04-18T08:27:09Z</time></trkpt><trkpt lat="43.49071740735391" lon="13.001836283633642"><ele>249.0</ele><time>2026-04-18T08:27:10Z</time></trkpt><trkpt lat="43.490823388544285" lon="13.00201668156705"><ele>249.0</ele><time>2026-04-18T08:27:11Z</time></trkpt><trkpt lat="43.49093120855641" lon="13.002198390806575"><ele>249.0</ele><time>2026-04-18T08:27:12Z</time></trkpt><trkpt lat="43.49105333234887" lon="13.002380066940232"><ele>249.0</ele><time>2026-04-18T08:27:13Z</time></trkpt><trkpt lat="43.49120919792419" lon="13.00251074885785"><ele>246.0</ele><time>2026-04-18T08:27:14Z</time></trkpt><trkpt lat="43.49133136245755" lon="13.0026639760101"><ele>243.0</ele><time>2026-04-18T08:27:15Z</time></trkpt><trkpt lat="43.49151047137978" lon="13.002845219969217"><ele>240.0</ele><time>2026-04-18T08:27:16Z</time></trkpt><trkpt lat="43.49166485199006" lon="13.00299730547693"><ele>240.0</ele><time>2026-04-18T08:27:17Z</time></trkpt><trkpt lat="43.49182142696794" lon="13.00315009619345"><ele>240.0</ele><time>2026-04-18T08:27:18Z</time></trkpt><trkpt lat="43.49199067508956" lon="13.003286980951048"><ele>240.0</ele><time>2026-04-18T08:27:19Z</time></trkpt><trkpt lat="43.49214202833818" lon="13.003459529892842"><ele>238.33333333333331</ele><time>2026-04-18T08:27:20Z</time></trkpt><trkpt lat="43.49231150731972" lon="13.003593610104955"><ele>236.66666666666666</ele><time>2026-04-18T08:27:21Z</time></trkpt><trkpt lat="43.492462929284905" lon="13.003763287256998"><ele>235.0</ele><time>2026-04-18T08:27:22Z</time></trkpt><trkpt lat="43.49262338705002" lon="13.003913458728212"><ele>235.0</ele><time>2026-04-18T08:27:23Z</time></trkpt><trkpt lat="43.49278651161497" lon="13.00404141506328"><ele>235.0</ele><time>2026-04-18T08:27:24Z</time></trkpt><trkpt lat="43.49293212048056" lon="13.004184916862755"><ele>235.0</ele><time>2026-04-18T08:27:25Z</time></trkpt><trkpt lat="43.49307868916287" lon="13.004320452991239"><ele>233.0</ele><time>2026-04-18T08:27:26Z</time></trkpt><trkpt lat="43.493224309919626" lon="13.004440273172694"><ele>231.0</ele><time>2026-04-18T08:27:27Z</time></trkpt><trkpt lat="43.49336426967389" lon="13.004590127200006"><ele>229.0</ele><time>2026-04-18T08:27:28Z</time></trkpt><trkpt lat="43.49351010219158" lon="13.004729211562138"><ele>229.0</ele><time>2026-04-18T08:27:29Z</time></trkpt><trkpt lat="43.49365329502511" lon="13.004865752700802"><ele>229.0</ele><time>2026-04-18T08:27:30Z</time></trkpt><trkpt lat="43.49380304114063" lon="13.0049790240215"><ele>229.0</ele><time>2026-04-18T08:27:31Z</time></trkpt><trkpt lat="43.493930166723416" lon="13.005099162825434"><ele>227.5</ele><time>2026-04-18T08:27:32Z</time></trkpt><trkpt lat="43.494051042494924" lon="13.005209812157455"><ele>226.0</ele><time>2026-04-18T08:27:33Z</time></trkpt><trkpt lat="43.49417416722163" lon="13.005307112951536"><ele>224.5</ele><time>2026-04-18T08:27:34Z</time></trkpt><trkpt lat="43.494296416311556" lon="13.005365834922214"><ele>223.0</ele><time>2026-04-18T08:27:35Z</time></trkpt><trkpt lat="43.49442240708693" lon="13.005396317254098"><ele>223.0</ele><time>2026-04-18T08:27:36Z</time></trkpt><trkpt lat="43.49453784355759" lon="13.00544702896772"><ele>223.0</ele><time>2026-04-18T08:27:37Z</time></trkpt><trkpt lat="43.49462608980746" lon="13.00551819647823"><ele>223.0</ele><time>2026-04-18T08:27:38Z</time></trkpt><trkpt lat="43.49468576956691" lon="13.005645640736521"><ele>223.0</ele><time>2026-04-18T08:27:39Z</time></trkpt><trkpt lat="43.494745673308486" lon="13.00581479595711"><ele>220.0</ele><time>2026-04-18T08:27:40Z</time></trkpt><trkpt lat="43.49480785413182" lon="13.005996689334202"><ele>217.0</ele><time>2026-04-18T08:27:41Z</time></trkpt><trkpt lat="43.4948740814429" lon="13.006167931352044"><ele>214.0</ele><time>2026-04-18T08:27:42Z</time></trkpt><trkpt lat="43.49496594152423" lon="13.006335473152312"><ele>211.0</ele><time>2026-04-18T08:27:43Z</time></trkpt><trkpt lat="43.495093137291875" lon="13.00645822337972"><ele>211.0</ele><time>2026-04-18T08:27:44Z</time></trkpt><trkpt lat="43.49521443222615" lon="13.006583658646914"><ele>211.0</ele><time>2026-04-18T08:27:45Z</time></trkpt><trkpt lat="43.49534679735735" lon="13.006681794648882"><ele>211.0</ele><time>2026-04-18T08:27:46Z</time></trkpt><trkpt lat="43.49545654067649" lon="13.006787631588502"><ele>211.0</ele><time>2026-04-18T08:27:47Z</time></trkpt><trkpt lat="43.49554210843922" lon="13.006917039172126"><ele>210.25</ele><time>2026-04-18T08:27:48Z</time></trkpt><trkpt lat="43.495600465362635" lon="13.007076372949593"><ele>209.5</ele><time>2026-04-18T08:27:49Z</time></trkpt><trkpt lat="43.49562743191687" lon="13.007245071268882"><ele>208.75</ele><time>2026-04-18T08:27:50Z</time></trkpt><trkpt lat="43.49567106834936" lon="13.007389298377195"><ele>208.0</ele><time>2026-04-18T08:27:51Z</time></trkpt><trkpt lat="43.49570170953401" lon="13.00751917094648"><ele>208.0</ele><time>2026-04-18T08:27:52Z</time></trkpt><trkpt lat="43.49576766324382" lon="13.00761335973435"><ele>208.0</ele><time>2026-04-18T08:27:53Z</time></trkpt><trkpt lat="43.49585647155711" lon="13.007680089750608"><ele>208.0</ele><time>2026-04-18T08:27:54Z</time></trkpt><trkpt lat="43.49597872943287" lon="13.00763660308559"><ele>208.0</ele><time>2026-04-18T08:27:55Z</time></trkpt><trkpt lat="43.49610259243645" lon="13.007563860588926"><ele>208.0</ele><time>2026-04-18T08:27:56Z</time></trkpt><trkpt lat="43.49623931599618" lon="13.007510202536801"><ele>208.0</ele><time>2026-04-18T08:27:57Z</time></trkpt><trkpt lat="43.49636738823478" lon="13.007452998891411"><ele>208.0</ele><time>2026-04-18T08:27:58Z</time></trkpt><trkpt lat="43.49649498314278" lon="13.007407138870258"><ele>208.0</ele><time>2026-04-18T08:27:59Z</time></trkpt><trkpt lat="43.49661496164006" lon="13.007411179368168"><ele>208.0</ele><time>2026-04-18T08:28:00Z</time></trkpt><trkpt lat="43.49672015168234" lon="13.007485409766321"><ele>208.0</ele><time>2026-04-18T08:28:01Z</time></trkpt><trkpt lat="43.49681768829008" lon="13.00761984567636"><ele>208.0</ele><time>2026-04-18T08:28:02Z</time></trkpt><trkpt lat="43.496940190493824" lon="13.007772714618046"><ele>208.0</ele><time>2026-04-18T08:28:03Z</time></trkpt><trkpt lat="43.497077683030035" lon="13.007930661946457"><ele>208.0</ele><time>2026-04-18T08:28:04Z</time></trkpt><trkpt lat="43.49721430911698" lon="13.008104195931546"><ele>208.0</ele><time>2026-04-18T08:28:05Z</time></trkpt><trkpt lat="43.49736790819299" lon="13.008272442551256"><ele>208.0</ele><time>2026-04-18T08:28:06Z</time></trkpt><trkpt lat="43.49750861255316" lon="13.008461532154403"><ele>208.0</ele><time>2026-04-18T08:28:07Z</time></trkpt><trkpt lat="43.497660828332016" lon="13.008630989677645"><ele>208.0</ele><time>2026-04-18T08:28:08Z</time></trkpt><trkpt lat="43.49781738906193" lon="13.008806367363265"><ele>208.0</ele><time>2026-04-18T08:28:09Z</time></trkpt><trkpt lat="43.49796520487518" lon="13.008969851327526"><ele>207.33333333333331</ele><time>2026-04-18T08:28:10Z</time></trkpt><trkpt lat="43.498126391295344" lon="13.00910661441054"><ele>206.66666666666669</ele><time>2026-04-18T08:28:11Z</time></trkpt><trkpt lat="43.49828387735193" lon="13.00923515331684"><ele>206.0</ele><time>2026-04-18T08:28:12Z</time></trkpt><trkpt lat="43.49844620829082" lon="13.009338698241685"><ele>206.0</ele><time>2026-04-18T08:28:13Z</time></trkpt><trkpt lat="43.498626581496254" lon="13.009419490100655"><ele>206.0</ele><time>2026-04-18T08:28:14Z</time></trkpt><trkpt lat="43.49880857128035" lon="13.009506636438541"><ele>206.0</ele><time>2026-04-18T08:28:15Z</time></trkpt><trkpt lat="43.49898502418788" lon="13.00958340834829"><ele>207.66666666666669</ele><time>2026-04-18T08:28:16Z</time></trkpt><trkpt lat="43.49913549707354" lon="13.009702140639568"><ele>209.33333333333331</ele><time>2026-04-18T08:28:17Z</time></trkpt><trkpt lat="43.49928838127716" lon="13.009787387944659"><ele>211.0</ele><time>2026-04-18T08:28:18Z</time></trkpt><trkpt lat="43.49941862481101" lon="13.009845898626942"><ele>211.0</ele><time>2026-04-18T08:28:19Z</time></trkpt><trkpt lat="43.49954375538829" lon="13.009833648947396"><ele>211.0</ele><time>2026-04-18T08:28:20Z</time></trkpt><trkpt lat="43.49964736570164" lon="13.009744783415144"><ele>211.0</ele><time>2026-04-18T08:28:21Z</time></trkpt><trkpt lat="43.49972663045241" lon="13.009617212957654"><ele>211.0</ele><time>2026-04-18T08:28:22Z</time></trkpt><trkpt lat="43.49977763216386" lon="13.009443381620038"><ele>211.0</ele><time>2026-04-18T08:28:23Z</time></trkpt><trkpt lat="43.499834305062286" lon="13.009257195901052"><ele>211.0</ele><time>2026-04-18T08:28:24Z</time></trkpt><trkpt lat="43.49991788200247" lon="13.009098652756432"><ele>211.0</ele><time>2026-04-18T08:28:25Z</time></trkpt><trkpt lat="43.50000358210959" lon="13.008968384954837"><ele>211.0</ele><time>2026-04-18T08:28:26Z</time></trkpt><trkpt lat="43.500108762393744" lon="13.008900022976695"><ele>213.0</ele><time>2026-04-18T08:28:27Z</time></trkpt><trkpt lat="43.500244279513865" lon="13.008827323934153"><ele>215.0</ele><time>2026-04-18T08:28:28Z</time></trkpt><trkpt lat="43.50039348265838" lon="13.008739027671858"><ele>217.0</ele><time>2026-04-18T08:28:29Z</time></trkpt><trkpt lat="43.50055429159999" lon="13.008659086703974"><ele>218.0</ele><time>2026-04-18T08:28:30Z</time></trkpt><trkpt lat="43.50072274979406" lon="13.00857171402908"><ele>219.0</ele><time>2026-04-18T08:28:31Z</time></trkpt><trkpt lat="43.50088467017015" lon="13.008485027516306"><ele>220.0</ele><time>2026-04-18T08:28:32Z</time></trkpt><trkpt lat="43.50104198423607" lon="13.008401543147261"><ele>222.75</ele><time>2026-04-18T08:28:33Z</time></trkpt><trkpt lat="43.50119269097905" lon="13.008321689994068"><ele>225.5</ele><time>2026-04-18T08:28:34Z</time></trkpt><trkpt lat="43.501325412008015" lon="13.00824229380384"><ele>228.25</ele><time>2026-04-18T08:28:35Z</time></trkpt><trkpt lat="43.50144496354605" lon="13.008186483356614"><ele>231.0</ele><time>2026-04-18T08:28:36Z</time></trkpt><trkpt lat="43.50155471028135" lon="13.008111326497229"><ele>231.20000000000002</ele><time>2026-04-18T08:28:37Z</time></trkpt><trkpt lat="43.50165739900517" lon="13.008041003340152"><ele>231.40000000000003</ele><time>2026-04-18T08:28:38Z</time></trkpt><trkpt lat="43.501760142805885" lon="13.00797064239849"><ele>231.6</ele><time>2026-04-18T08:28:39Z</time></trkpt><trkpt lat="43.50185638461046" lon="13.007904853325018"><ele>231.8</ele><time>2026-04-18T08:28:40Z</time></trkpt><trkpt lat="43.50195406804092" lon="13.00783873694689"><ele>232.0</ele><time>2026-04-18T08:28:41Z</time></trkpt><trkpt lat="43.50205389829189" lon="13.007769066495214"><ele>231.5</ele><time>2026-04-18T08:28:42Z</time></trkpt><trkpt lat="43.502185294361155" lon="13.007675071576527"><ele>231.0</ele><time>2026-04-18T08:28:43Z</time></trkpt><trkpt lat="43.50231813409707" lon="13.007589449961186"><ele>230.5</ele><time>2026-04-18T08:28:44Z</time></trkpt><trkpt lat="43.502456377103826" lon="13.007518211852355"><ele>230.0</ele><time>2026-04-18T08:28:45Z</time></trkpt><trkpt lat="43.502600410713136" lon="13.007466183516403"><ele>233.0</ele><time>2026-04-18T08:28:46Z</time></trkpt><trkpt lat="43.50274488808231" lon="13.007434742079404"><ele>236.0</ele><time>2026-04-18T08:28:47Z</time></trkpt><trkpt lat="43.502882679797764" lon="13.007378902994747"><ele>239.0</ele><time>2026-04-18T08:28:48Z</time></trkpt><trkpt lat="43.503004866007785" lon="13.007282826676716"><ele>242.0</ele><time>2026-04-18T08:28:49Z</time></trkpt><trkpt lat="43.50311851336368" lon="13.007192292635594"><ele>242.5</ele><time>2026-04-18T08:28:50Z</time></trkpt><trkpt lat="43.50325482778151" lon="13.007146159035564"><ele>243.0</ele><time>2026-04-18T08:28:51Z</time></trkpt><trkpt lat="43.503402330694435" lon="13.00712463834462"><ele>243.5</ele><time>2026-04-18T08:28:52Z</time></trkpt><trkpt lat="43.50354701858601" lon="13.007112140434565"><ele>244.0</ele><time>2026-04-18T08:28:53Z</time></trkpt><trkpt lat="43.50368387968766" lon="13.007091475487409"><ele>244.25</ele><time>2026-04-18T08:28:54Z</time></trkpt><trkpt lat="43.503819912016944" lon="13.007078916792617"><ele>244.5</ele><time>2026-04-18T08:28:55Z</time></trkpt><trkpt lat="43.50396657989701" lon="13.007094196552714"><ele>244.75</ele><time>2026-04-18T08:28:56Z</time></trkpt><trkpt lat="43.5041194631119" lon="13.007118371958843"><ele>245.0</ele><time>2026-04-18T08:28:57Z</time></trkpt><trkpt lat="43.50426910690915" lon="13.0071380481627"><ele>245.0</ele><time>2026-04-18T08:28:58Z</time></trkpt><trkpt lat="43.50441143319894" lon="13.007152040009904"><ele>245.0</ele><time>2026-04-18T08:28:59Z</time></trkpt><trkpt lat="43.50454624644087" lon="13.007164900570181"><ele>245.0</ele><time>2026-04-18T08:29:00Z</time></trkpt><trkpt lat="43.504666960342405" lon="13.007176715796216"><ele>245.0</ele><time>2026-04-18T08:29:01Z</time></trkpt><trkpt lat="43.50478764208952" lon="13.007190342913008"><ele>244.5</ele><time>2026-04-18T08:29:02Z</time></trkpt><trkpt lat="43.504908915389954" lon="13.007239417677503"><ele>244.0</ele><time>2026-04-18T08:29:03Z</time></trkpt><trkpt lat="43.50502089699429" lon="13.007362254313644"><ele>243.5</ele><time>2026-04-18T08:29:04Z</time></trkpt><trkpt lat="43.50515648118334" lon="13.00745973577583"><ele>243.0</ele><time>2026-04-18T08:29:05Z</time></trkpt><trkpt lat="43.50528260202777" lon="13.007578309071258"><ele>242.66666666666669</ele><time>2026-04-18T08:29:06Z</time></trkpt><trkpt lat="43.505403672028315" lon="13.0076915817588"><ele>242.33333333333334</ele><time>2026-04-18T08:29:07Z</time></trkpt><trkpt lat="43.50552986847861" lon="13.007808494281525"><ele>242.0</ele><time>2026-04-18T08:29:08Z</time></trkpt><trkpt lat="43.505657669593084" lon="13.007920520084877"><ele>241.25</ele><time>2026-04-18T08:29:09Z</time></trkpt><trkpt lat="43.505781814937244" lon="13.008031265162174"><ele>240.5</ele><time>2026-04-18T08:29:10Z</time></trkpt><trkpt lat="43.505904616775325" lon="13.00814016168861"><ele>239.75</ele><time>2026-04-18T08:29:11Z</time></trkpt><trkpt lat="43.50603469088963" lon="13.008256818602147"><ele>239.0</ele><time>2026-04-18T08:29:12Z</time></trkpt><trkpt lat="43.50616550846101" lon="13.008372889790582"><ele>237.33333333333334</ele><time>2026-04-18T08:29:13Z</time></trkpt><trkpt lat="43.50629594421932" lon="13.008486745635674"><ele>235.66666666666669</ele><time>2026-04-18T08:29:14Z</time></trkpt><trkpt lat="43.50642574821388" lon="13.008601644984601"><ele>234.0</ele><time>2026-04-18T08:29:15Z</time></trkpt><trkpt lat="43.506563095524534" lon="13.008708831973467"><ele>234.0</ele><time>2026-04-18T08:29:16Z</time></trkpt><trkpt lat="43.506708651971245" lon="13.00880903449857"><ele>234.0</ele><time>2026-04-18T08:29:17Z</time></trkpt><trkpt lat="43.50685875447867" lon="13.008895807281025"><ele>234.0</ele><time>2026-04-18T08:29:18Z</time></trkpt><trkpt lat="43.50701187370532" lon="13.008971231230108"><ele>233.25</ele><time>2026-04-18T08:29:19Z</time></trkpt><trkpt lat="43.50716687570848" lon="13.009033171618357"><ele>232.5</ele><time>2026-04-18T08:29:20Z</time></trkpt><trkpt lat="43.50730788700764" lon="13.00907106076473"><ele>231.75</ele><time>2026-04-18T08:29:21Z</time></trkpt><trkpt lat="43.50744024195124" lon="13.009138356341245"><ele>231.0</ele><time>2026-04-18T08:29:22Z</time></trkpt><trkpt lat="43.507558659728716" lon="13.00923205663745"><ele>231.0</ele><time>2026-04-18T08:29:23Z</time></trkpt><trkpt lat="43.50768498646044" lon="13.00928842522302"><ele>231.0</ele><time>2026-04-18T08:29:24Z</time></trkpt><trkpt lat="43.5078170855052" lon="13.00933853737228"><ele>231.0</ele><time>2026-04-18T08:29:25Z</time></trkpt><trkpt lat="43.50794866186966" lon="13.009380885071643"><ele>231.0</ele><time>2026-04-18T08:29:26Z</time></trkpt><trkpt lat="43.5080708313226" lon="13.00944880460929"><ele>227.5</ele><time>2026-04-18T08:29:27Z</time></trkpt><trkpt lat="43.50818413473763" lon="13.009552010346484"><ele>224.0</ele><time>2026-04-18T08:29:28Z</time></trkpt><trkpt lat="43.50829403574914" lon="13.00967663598104"><ele>220.5</ele><time>2026-04-18T08:29:29Z</time></trkpt><trkpt lat="43.508400616131595" lon="13.009821805624904"><ele>217.0</ele><time>2026-04-18T08:29:30Z</time></trkpt><trkpt lat="43.50851624182613" lon="13.009967827415407"><ele>213.66666666666666</ele><time>2026-04-18T08:29:31Z</time></trkpt><trkpt lat="43.50861078747995" lon="13.010135362533834"><ele>210.33333333333331</ele><time>2026-04-18T08:29:32Z</time></trkpt><trkpt lat="43.50871408968984" lon="13.010287212376177"><ele>207.0</ele><time>2026-04-18T08:29:33Z</time></trkpt><trkpt lat="43.508829250964396" lon="13.010415762116367"><ele>207.0</ele><time>2026-04-18T08:29:34Z</time></trkpt><trkpt lat="43.50895112534939" lon="13.010532018053425"><ele>207.0</ele><time>2026-04-18T08:29:35Z</time></trkpt><trkpt lat="43.50907335950479" lon="13.010649264069318"><ele>207.0</ele><time>2026-04-18T08:29:36Z</time></trkpt><trkpt lat="43.50919164022812" lon="13.010768111264348"><ele>207.0</ele><time>2026-04-18T08:29:37Z</time></trkpt><trkpt lat="43.509304734106124" lon="13.01090713614999"><ele>208.25</ele><time>2026-04-18T08:29:38Z</time></trkpt><trkpt lat="43.50942596133826" lon="13.011026309600345"><ele>209.5</ele><time>2026-04-18T08:29:39Z</time></trkpt><trkpt lat="43.509560770135174" lon="13.011122732352648"><ele>210.75</ele><time>2026-04-18T08:29:40Z</time></trkpt><trkpt lat="43.509686462250095" lon="13.011228989773505"><ele>212.0</ele><time>2026-04-18T08:29:41Z</time></trkpt><trkpt lat="43.50982457099323" lon="13.011312445352912"><ele>209.5</ele><time>2026-04-18T08:29:42Z</time></trkpt><trkpt lat="43.50996384094695" lon="13.011374502009962"><ele>207.0</ele><time>2026-04-18T08:29:43Z</time></trkpt><trkpt lat="43.510087090188414" lon="13.011448814099182"><ele>204.5</ele><time>2026-04-18T08:29:44Z</time></trkpt><trkpt lat="43.510203569932955" lon="13.011514434044344"><ele>202.0</ele><time>2026-04-18T08:29:45Z</time></trkpt><trkpt lat="43.51029626843741" lon="13.011600100226532"><ele>202.0</ele><time>2026-04-18T08:29:46Z</time></trkpt><trkpt lat="43.5103875093906" lon="13.01169641415328"><ele>202.0</ele><time>2026-04-18T08:29:47Z</time></trkpt><trkpt lat="43.51049428959628" lon="13.011753837915554"><ele>202.0</ele><time>2026-04-18T08:29:48Z</time></trkpt><trkpt lat="43.510602306991835" lon="13.011814944277091"><ele>202.0</ele><time>2026-04-18T08:29:49Z</time></trkpt><trkpt lat="43.51072341760147" lon="13.011861558858657"><ele>200.75</ele><time>2026-04-18T08:29:50Z</time></trkpt><trkpt lat="43.51084790935683" lon="13.011910956357816"><ele>199.5</ele><time>2026-04-18T08:29:51Z</time></trkpt><trkpt lat="43.510973396549886" lon="13.012002503448125"><ele>198.25</ele><time>2026-04-18T08:29:52Z</time></trkpt><trkpt lat="43.51110574109355" lon="13.012060883859059"><ele>197.0</ele><time>2026-04-18T08:29:53Z</time></trkpt><trkpt lat="43.511220814973065" lon="13.012118660935961"><ele>193.5</ele><time>2026-04-18T08:29:54Z</time></trkpt><trkpt lat="43.51132090329627" lon="13.012167835799886"><ele>190.0</ele><time>2026-04-18T08:29:55Z</time></trkpt><trkpt lat="43.511428798671815" lon="13.012211792619519"><ele>186.5</ele><time>2026-04-18T08:29:56Z</time></trkpt><trkpt lat="43.511542917543714" lon="13.012252813752037"><ele>183.0</ele><time>2026-04-18T08:29:57Z</time></trkpt><trkpt lat="43.511680021058716" lon="13.012279532109043"><ele>183.0</ele><time>2026-04-18T08:29:58Z</time></trkpt><trkpt lat="43.51182060830547" lon="13.012261932168732"><ele>183.0</ele><time>2026-04-18T08:29:59Z</time></trkpt><trkpt lat="43.51196039242688" lon="13.012250882192543"><ele>183.0</ele><time>2026-04-18T08:30:00Z</time></trkpt><trkpt lat="43.512097155019305" lon="13.012224103268"><ele>183.0</ele><time>2026-04-18T08:30:01Z</time></trkpt><trkpt lat="43.51223308182184" lon="13.012201520783174"><ele>180.25</ele><time>2026-04-18T08:30:02Z</time></trkpt><trkpt lat="43.512371714493426" lon="13.012173173375627"><ele>177.5</ele><time>2026-04-18T08:30:03Z</time></trkpt><trkpt lat="43.51251739575621" lon="13.012130484787988"><ele>174.75</ele><time>2026-04-18T08:30:04Z</time></trkpt><trkpt lat="43.51266961728754" lon="13.012061982541299"><ele>172.0</ele><time>2026-04-18T08:30:05Z</time></trkpt><trkpt lat="43.51282428599772" lon="13.0119844999265"><ele>170.0</ele><time>2026-04-18T08:30:06Z</time></trkpt><trkpt lat="43.51297322571203" lon="13.011909437536117"><ele>168.0</ele><time>2026-04-18T08:30:07Z</time></trkpt><trkpt lat="43.513128729122116" lon="13.01187916779244"><ele>166.0</ele><time>2026-04-18T08:30:08Z</time></trkpt><trkpt lat="43.513281982537364" lon="13.0118474831728"><ele>166.0</ele><time>2026-04-18T08:30:09Z</time></trkpt><trkpt lat="43.513432957345316" lon="13.011848184926281"><ele>166.0</ele><time>2026-04-18T08:30:10Z</time></trkpt><trkpt lat="43.5135839697467" lon="13.011871374038638"><ele>166.0</ele><time>2026-04-18T08:30:11Z</time></trkpt><trkpt lat="43.51372807854492" lon="13.011926793369225"><ele>167.25</ele><time>2026-04-18T08:30:12Z</time></trkpt><trkpt lat="43.51385765555641" lon="13.012007832359531"><ele>168.5</ele><time>2026-04-18T08:30:13Z</time></trkpt><trkpt lat="43.5139921183814" lon="13.012101611732861"><ele>169.75</ele><time>2026-04-18T08:30:14Z</time></trkpt><trkpt lat="43.51412163340099" lon="13.012196005716973"><ele>171.0</ele><time>2026-04-18T08:30:15Z</time></trkpt><trkpt lat="43.5142411046372" lon="13.012283079531285"><ele>171.0</ele><time>2026-04-18T08:30:16Z</time></trkpt><trkpt lat="43.51435158813385" lon="13.012363171103978"><ele>171.0</ele><time>2026-04-18T08:30:17Z</time></trkpt><trkpt lat="43.51445245372866" lon="13.012435738984681"><ele>171.0</ele><time>2026-04-18T08:30:18Z</time></trkpt><trkpt lat="43.514575701415566" lon="13.012524409751347"><ele>171.0</ele><time>2026-04-18T08:30:19Z</time></trkpt><trkpt lat="43.51472728041175" lon="13.012633475605448"><ele>171.0</ele><time>2026-04-18T08:30:20Z</time></trkpt><trkpt lat="43.51489404492289" lon="13.012752051840016"><ele>171.0</ele><time>2026-04-18T08:30:21Z</time></trkpt><trkpt lat="43.51505276119399" lon="13.012853529729302"><ele>171.0</ele><time>2026-04-18T08:30:22Z</time></trkpt><trkpt lat="43.5151995103096" lon="13.012961973840401"><ele>171.0</ele><time>2026-04-18T08:30:23Z</time></trkpt><trkpt lat="43.51533325772746" lon="13.013077308780506"><ele>171.0</ele><time>2026-04-18T08:30:24Z</time></trkpt><trkpt lat="43.515480226215175" lon="13.013176181180548"><ele>171.0</ele><time>2026-04-18T08:30:25Z</time></trkpt><trkpt lat="43.51564172660284" lon="13.013239208130184"><ele>170.33333333333334</ele><time>2026-04-18T08:30:26Z</time></trkpt><trkpt lat="43.51581304350368" lon="13.013314057103718"><ele>169.66666666666669</ele><time>2026-04-18T08:30:27Z</time></trkpt><trkpt lat="43.515980546904764" lon="13.013399844098817"><ele>169.0</ele><time>2026-04-18T08:30:28Z</time></trkpt><trkpt lat="43.516161232888294" lon="13.013476352481716"><ele>170.33333333333334</ele><time>2026-04-18T08:30:29Z</time></trkpt><trkpt lat="43.51634143141523" lon="13.013552654115431"><ele>171.66666666666666</ele><time>2026-04-18T08:30:30Z</time></trkpt><trkpt lat="43.51652225546172" lon="13.013629025203667"><ele>173.0</ele><time>2026-04-18T08:30:31Z</time></trkpt><trkpt lat="43.516702680062515" lon="13.013698527344467"><ele>173.0</ele><time>2026-04-18T08:30:32Z</time></trkpt><trkpt lat="43.516877788832026" lon="13.013743432544294"><ele>173.0</ele><time>2026-04-18T08:30:33Z</time></trkpt><trkpt lat="43.51704886943394" lon="13.013816925436643"><ele>173.0</ele><time>2026-04-18T08:30:34Z</time></trkpt><trkpt lat="43.51722173663476" lon="13.013895883191571"><ele>175.66666666666666</ele><time>2026-04-18T08:30:35Z</time></trkpt><trkpt lat="43.51738833533718" lon="13.013990137440917"><ele>178.33333333333334</ele><time>2026-04-18T08:30:36Z</time></trkpt><trkpt lat="43.5175608852034" lon="13.014055418771315"><ele>181.0</ele><time>2026-04-18T08:30:37Z</time></trkpt><trkpt lat="43.51773720832967" lon="13.014105260342989"><ele>176.0</ele><time>2026-04-18T08:30:38Z</time></trkpt><trkpt lat="43.517917277753" lon="13.014188898527696"><ele>171.0</ele><time>2026-04-18T08:30:39Z</time></trkpt><trkpt lat="43.5180528895787" lon="13.014225694590593"><ele>166.0</ele><time>2026-04-18T08:30:40Z</time></trkpt><trkpt lat="43.51820661890767" lon="13.014287888489863"><ele>166.0</ele><time>2026-04-18T08:30:41Z</time></trkpt><trkpt lat="43.51836716666854" lon="13.014376655532145"><ele>166.0</ele><time>2026-04-18T08:30:42Z</time></trkpt><trkpt lat="43.518551814277046" lon="13.014463808656952"><ele>166.0</ele><time>2026-04-18T08:30:43Z</time></trkpt><trkpt lat="43.51874313251962" lon="13.014557490091454"><ele>164.33333333333334</ele><time>2026-04-18T08:30:44Z</time></trkpt><trkpt lat="43.51893915551228" lon="13.014653475290658"><ele>162.66666666666666</ele><time>2026-04-18T08:30:45Z</time></trkpt><trkpt lat="43.51913637442563" lon="13.01474898694917"><ele>161.0</ele><time>2026-04-18T08:30:46Z</time></trkpt><trkpt lat="43.51933202094214" lon="13.014841677721261"><ele>161.0</ele><time>2026-04-18T08:30:47Z</time></trkpt><trkpt lat="43.519521100375115" lon="13.014933235166614"><ele>161.0</ele><time>2026-04-18T08:30:48Z</time></trkpt><trkpt lat="43.519708703468545" lon="13.015027354654414"><ele>161.0</ele><time>2026-04-18T08:30:49Z</time></trkpt><trkpt lat="43.51989016515839" lon="13.015128718506718"><ele>159.33333333333331</ele><time>2026-04-18T08:30:50Z</time></trkpt><trkpt lat="43.52006444972941" lon="13.015262299096323"><ele>157.66666666666666</ele><time>2026-04-18T08:30:51Z</time></trkpt><trkpt lat="43.520214215679474" lon="13.015422279418795"><ele>156.0</ele><time>2026-04-18T08:30:52Z</time></trkpt><trkpt lat="43.52034811596144" lon="13.015592851210773"><ele>156.0</ele><time>2026-04-18T08:30:53Z</time></trkpt><trkpt lat="43.52045696761835" lon="13.015770243536648"><ele>156.0</ele><time>2026-04-18T08:30:54Z</time></trkpt><trkpt lat="43.52055139502711" lon="13.015963329567935"><ele>156.0</ele><time>2026-04-18T08:30:55Z</time></trkpt><trkpt lat="43.52063500781403" lon="13.016152419026634"><ele>156.0</ele><time>2026-04-18T08:30:56Z</time></trkpt><trkpt lat="43.5207152139953" lon="13.016348384416972"><ele>156.0</ele><time>2026-04-18T08:30:57Z</time></trkpt><trkpt lat="43.52080119233183" lon="13.01655167427843"><ele>156.0</ele><time>2026-04-18T08:30:58Z</time></trkpt><trkpt lat="43.52089669681931" lon="13.01674841644877"><ele>155.33333333333334</ele><time>2026-04-18T08:30:59Z</time></trkpt><trkpt lat="43.521012012250615" lon="13.01691283560722"><ele>154.66666666666669</ele><time>2026-04-18T08:31:00Z</time></trkpt><trkpt lat="43.521149566279156" lon="13.017058292278275"><ele>154.0</ele><time>2026-04-18T08:31:01Z</time></trkpt><trkpt lat="43.52132200360466" lon="13.01716001475884"><ele>154.0</ele><time>2026-04-18T08:31:02Z</time></trkpt><trkpt lat="43.521504572003366" lon="13.017237141913068"><ele>154.0</ele><time>2026-04-18T08:31:03Z</time></trkpt><trkpt lat="43.52169142293838" lon="13.017295007116894"><ele>154.0</ele><time>2026-04-18T08:31:04Z</time></trkpt><trkpt lat="43.52188326060278" lon="13.017336172014872"><ele>154.66666666666669</ele><time>2026-04-18T08:31:05Z</time></trkpt><trkpt lat="43.52207560616608" lon="13.017375193568464"><ele>155.33333333333334</ele><time>2026-04-18T08:31:06Z</time></trkpt><trkpt lat="43.52226583876233" lon="13.017437316975982"><ele>156.0</ele><time>2026-04-18T08:31:07Z</time></trkpt><trkpt lat="43.52245838715157" lon="13.017482092679817"><ele>155.66666666666666</ele><time>2026-04-18T08:31:08Z</time></trkpt><trkpt lat="43.52264401786764" lon="13.017527349559751"><ele>155.33333333333331</ele><time>2026-04-18T08:31:09Z</time></trkpt><trkpt lat="43.52282592975541" lon="13.01757559086542"><ele>155.0</ele><time>2026-04-18T08:31:10Z</time></trkpt><trkpt lat="43.52300462153833" lon="13.017620415135335"><ele>156.0</ele><time>2026-04-18T08:31:11Z</time></trkpt><trkpt lat="43.52317269478633" lon="13.017651834146672"><ele>157.0</ele><time>2026-04-18T08:31:12Z</time></trkpt><trkpt lat="43.52333424955683" lon="13.017675195101436"><ele>158.0</ele><time>2026-04-18T08:31:13Z</time></trkpt><trkpt lat="43.52349415860776" lon="13.017695752038106"><ele>158.0</ele><time>2026-04-18T08:31:14Z</time></trkpt><trkpt lat="43.52364926761649" lon="13.017715008922062"><ele>158.0</ele><time>2026-04-18T08:31:15Z</time></trkpt><trkpt lat="43.52380944510583" lon="13.01773220331668"><ele>158.0</ele><time>2026-04-18T08:31:16Z</time></trkpt><trkpt lat="43.523962835646444" lon="13.017741021217988"><ele>158.0</ele><time>2026-04-18T08:31:17Z</time></trkpt><trkpt lat="43.52412198003456" lon="13.01772109313062"><ele>158.0</ele><time>2026-04-18T08:31:18Z</time></trkpt><trkpt lat="43.524288438225405" lon="13.017714569392554"><ele>158.0</ele><time>2026-04-18T08:31:19Z</time></trkpt><trkpt lat="43.52447007928095" lon="13.017695360143492"><ele>157.33333333333331</ele><time>2026-04-18T08:31:20Z</time></trkpt><trkpt lat="43.5246579351874" lon="13.017701568762261"><ele>156.66666666666666</ele><time>2026-04-18T08:31:21Z</time></trkpt><trkpt lat="43.524854778066214" lon="13.017671745122376"><ele>156.0</ele><time>2026-04-18T08:31:22Z</time></trkpt><trkpt lat="43.52505527216344" lon="13.017637240825199"><ele>156.0</ele><time>2026-04-18T08:31:23Z</time></trkpt><trkpt lat="43.5252550964397" lon="13.017601925443717"><ele>156.0</ele><time>2026-04-18T08:31:24Z</time></trkpt><trkpt lat="43.52545257411678" lon="13.017567024761798"><ele>156.0</ele><time>2026-04-18T08:31:25Z</time></trkpt><trkpt lat="43.52564758409636" lon="13.017529774308121"><ele>156.0</ele><time>2026-04-18T08:31:26Z</time></trkpt><trkpt lat="43.525835587759644" lon="13.017489042350686"><ele>156.0</ele><time>2026-04-18T08:31:27Z</time></trkpt><trkpt lat="43.52601593322225" lon="13.017429959864568"><ele>156.0</ele><time>2026-04-18T08:31:28Z</time></trkpt><trkpt lat="43.52619730833375" lon="13.017385057542413"><ele>156.33333333333334</ele><time>2026-04-18T08:31:29Z</time></trkpt><trkpt lat="43.52637377972709" lon="13.017363202988786"><ele>156.66666666666669</ele><time>2026-04-18T08:31:30Z</time></trkpt><trkpt lat="43.52654001108955" lon="13.017322828425247"><ele>157.0</ele><time>2026-04-18T08:31:31Z</time></trkpt><trkpt lat="43.52668775124307" lon="13.01730738356508"><ele>157.0</ele><time>2026-04-18T08:31:32Z</time></trkpt><trkpt lat="43.52681808136713" lon="13.017354491597175"><ele>157.0</ele><time>2026-04-18T08:31:33Z</time></trkpt><trkpt lat="43.52693983595092" lon="13.017434846945806"><ele>157.0</ele><time>2026-04-18T08:31:34Z</time></trkpt><trkpt lat="43.52708611657533" lon="13.017524398739338"><ele>157.0</ele><time>2026-04-18T08:31:35Z</time></trkpt><trkpt lat="43.52723649509231" lon="13.017644458840559"><ele>156.66666666666669</ele><time>2026-04-18T08:31:36Z</time></trkpt><trkpt lat="43.527404994896166" lon="13.01775027339784"><ele>156.33333333333334</ele><time>2026-04-18T08:31:37Z</time></trkpt><trkpt lat="43.52756952515285" lon="13.017852831077413"><ele>156.0</ele><time>2026-04-18T08:31:38Z</time></trkpt><trkpt lat="43.52774140086147" lon="13.017958581669248"><ele>153.66666666666666</ele><time>2026-04-18T08:31:39Z</time></trkpt><trkpt lat="43.52790756220687" lon="13.01805954563633"><ele>151.33333333333331</ele><time>2026-04-18T08:31:40Z</time></trkpt><trkpt lat="43.528084805182715" lon="13.01814241850727"><ele>149.0</ele><time>2026-04-18T08:31:41Z</time></trkpt><trkpt lat="43.528241440299944" lon="13.018262418566914"><ele>150.0</ele><time>2026-04-18T08:31:42Z</time></trkpt><trkpt lat="43.52840489485004" lon="13.018367052874286"><ele>151.0</ele><time>2026-04-18T08:31:43Z</time></trkpt><trkpt lat="43.52856377153682" lon="13.018482128188692"><ele>152.0</ele><time>2026-04-18T08:31:44Z</time></trkpt><trkpt lat="43.528719943690966" lon="13.018624744394018"><ele>151.66666666666666</ele><time>2026-04-18T08:31:45Z</time></trkpt><trkpt lat="43.52885829234573" lon="13.018791684889296"><ele>151.33333333333334</ele><time>2026-04-18T08:31:46Z</time></trkpt><trkpt lat="43.528984672318735" lon="13.018987149490982"><ele>151.0</ele><time>2026-04-18T08:31:47Z</time></trkpt><trkpt lat="43.52910677230694" lon="13.019197008990114"><ele>151.0</ele><time>2026-04-18T08:31:48Z</time></trkpt><trkpt lat="43.52922672717254" lon="13.019404203007102"><ele>151.0</ele><time>2026-04-18T08:31:49Z</time></trkpt><trkpt lat="43.52936754366895" lon="13.019587520421535"><ele>151.0</ele><time>2026-04-18T08:31:50Z</time></trkpt><trkpt lat="43.52949258670079" lon="13.019781412616307"><ele>150.66666666666669</ele><time>2026-04-18T08:31:51Z</time></trkpt><trkpt lat="43.52963684591255" lon="13.01995831638646"><ele>150.33333333333334</ele><time>2026-04-18T08:31:52Z</time></trkpt><trkpt lat="43.529784471822715" lon="13.020116631266522"><ele>150.0</ele><time>2026-04-18T08:31:53Z</time></trkpt><trkpt lat="43.52994287276846" lon="13.02024443034208"><ele>150.0</ele><time>2026-04-18T08:31:54Z</time></trkpt><trkpt lat="43.53009226246365" lon="13.020367644857492"><ele>150.0</ele><time>2026-04-18T08:31:55Z</time></trkpt><trkpt lat="43.53026983037507" lon="13.020455466589718"><ele>150.0</ele><time>2026-04-18T08:31:56Z</time></trkpt><trkpt lat="43.53048365717299" lon="13.020502659679902"><ele>149.5</ele><time>2026-04-18T08:31:57Z</time></trkpt><trkpt lat="43.530711047275155" lon="13.020518109850068"><ele>149.0</ele><time>2026-04-18T08:31:58Z</time></trkpt><trkpt lat="43.53093716680417" lon="13.020538798321207"><ele>149.0</ele><time>2026-04-18T08:31:59Z</time></trkpt><trkpt lat="43.53115565521792" lon="13.020542415635774"><ele>149.0</ele><time>2026-04-18T08:32:00Z</time></trkpt><trkpt lat="43.5313742852323" lon="13.02054105618705"><ele>149.0</ele><time>2026-04-18T08:32:01Z</time></trkpt><trkpt lat="43.53158751235853" lon="13.020539492652778"><ele>149.0</ele><time>2026-04-18T08:32:02Z</time></trkpt><trkpt lat="43.53179535338209" lon="13.020538029896061"><ele>149.0</ele><time>2026-04-18T08:32:03Z</time></trkpt><trkpt lat="43.53200038120643" lon="13.020537843063389"><ele>149.0</ele><time>2026-04-18T08:32:04Z</time></trkpt><trkpt lat="43.53220267235573" lon="13.020542605725552"><ele>148.5</ele><time>2026-04-18T08:32:05Z</time></trkpt><trkpt lat="43.5325947006913" lon="13.020614850923977"><ele>148.0</ele><time>2026-04-18T08:32:07Z</time></trkpt><trkpt lat="43.53278100681614" lon="13.020686079323925"><ele>146.33333333333334</ele><time>2026-04-18T08:32:08Z</time></trkpt><trkpt lat="43.53296425952294" lon="13.020778959323382"><ele>144.66666666666666</ele><time>2026-04-18T08:32:09Z</time></trkpt><trkpt lat="43.53314113611664" lon="13.020878537851608"><ele>143.0</ele><time>2026-04-18T08:32:10Z</time></trkpt><trkpt lat="43.53331453454363" lon="13.020984025090794"><ele>143.0</ele><time>2026-04-18T08:32:11Z</time></trkpt><trkpt lat="43.53348917354766" lon="13.02109381884962"><ele>143.0</ele><time>2026-04-18T08:32:12Z</time></trkpt><trkpt lat="43.533662153648685" lon="13.021201919675844"><ele>143.0</ele><time>2026-04-18T08:32:13Z</time></trkpt><trkpt lat="43.53382950259188" lon="13.02129979849361"><ele>142.33333333333331</ele><time>2026-04-18T08:32:14Z</time></trkpt><trkpt lat="43.53398934473016" lon="13.021391672378257"><ele>141.66666666666666</ele><time>2026-04-18T08:32:15Z</time></trkpt><trkpt lat="43.53415038782272" lon="13.021458664938304"><ele>141.0</ele><time>2026-04-18T08:32:16Z</time></trkpt><trkpt lat="43.53429545832644" lon="13.021536455168956"><ele>141.0</ele><time>2026-04-18T08:32:17Z</time></trkpt><trkpt lat="43.53443174207875" lon="13.021627242689483"><ele>141.0</ele><time>2026-04-18T08:32:18Z</time></trkpt><trkpt lat="43.53455700988143" lon="13.02168787482054"><ele>141.0</ele><time>2026-04-18T08:32:19Z</time></trkpt><trkpt lat="43.53466598373273" lon="13.021740465225493"><ele>141.0</ele><time>2026-04-18T08:32:20Z</time></trkpt><trkpt lat="43.53475747795271" lon="13.021783108920705"><ele>141.0</ele><time>2026-04-18T08:32:21Z</time></trkpt><trkpt lat="43.53484147042916" lon="13.021814625383225"><ele>141.0</ele><time>2026-04-18T08:32:22Z</time></trkpt><trkpt lat="43.53491594764289" lon="13.021864144642384"><ele>141.0</ele><time>2026-04-18T08:32:23Z</time></trkpt><trkpt lat="43.53497455628673" lon="13.021938349090151"><ele>141.0</ele><time>2026-04-18T08:32:24Z</time></trkpt><trkpt lat="43.53502749832048" lon="13.022050733606322"><ele>141.0</ele><time>2026-04-18T08:32:25Z</time></trkpt><trkpt lat="43.5350516492924" lon="13.022205762727777"><ele>141.0</ele><time>2026-04-18T08:32:26Z</time></trkpt><trkpt lat="43.53508911357536" lon="13.022376394546624"><ele>141.0</ele><time>2026-04-18T08:32:27Z</time></trkpt><trkpt lat="43.53512655503289" lon="13.022546922294662"><ele>141.0</ele><time>2026-04-18T08:32:28Z</time></trkpt><trkpt lat="43.53516704193502" lon="13.022733192347898"><ele>141.0</ele><time>2026-04-18T08:32:29Z</time></trkpt><trkpt lat="43.53522309161913" lon="13.022935474405369"><ele>141.0</ele><time>2026-04-18T08:32:30Z</time></trkpt><trkpt lat="43.53526620793663" lon="13.023140447218108"><ele>141.0</ele><time>2026-04-18T08:32:31Z</time></trkpt><trkpt lat="43.535312940879315" lon="13.023360230239783"><ele>141.0</ele><time>2026-04-18T08:32:32Z</time></trkpt><trkpt lat="43.53536241978381" lon="13.023589172497745"><ele>141.0</ele><time>2026-04-18T08:32:33Z</time></trkpt><trkpt lat="43.535410101253525" lon="13.023818497591737"><ele>141.0</ele><time>2026-04-18T08:32:34Z</time></trkpt><trkpt lat="43.53545472791377" lon="13.024036112016844"><ele>141.0</ele><time>2026-04-18T08:32:35Z</time></trkpt><trkpt lat="43.53549537823919" lon="13.02424231373179"><ele>140.5</ele><time>2026-04-18T08:32:36Z</time></trkpt><trkpt lat="43.53553387013396" lon="13.024438054109213"><ele>140.0</ele><time>2026-04-18T08:32:37Z</time></trkpt><trkpt lat="43.53557116696875" lon="13.024623170245064"><ele>139.5</ele><time>2026-04-18T08:32:38Z</time></trkpt><trkpt lat="43.53560581971916" lon="13.024796807609627"><ele>139.0</ele><time>2026-04-18T08:32:39Z</time></trkpt><trkpt lat="43.53563970572592" lon="13.024966609344856"><ele>138.5</ele><time>2026-04-18T08:32:40Z</time></trkpt><trkpt lat="43.535682133175094" lon="13.025136164242271"><ele>138.0</ele><time>2026-04-18T08:32:41Z</time></trkpt><trkpt lat="43.53576092819324" lon="13.025302591298695"><ele>137.5</ele><time>2026-04-18T08:32:42Z</time></trkpt><trkpt lat="43.53587986575411" lon="13.025464351677735"><ele>137.0</ele><time>2026-04-18T08:32:43Z</time></trkpt><trkpt lat="43.536007154479975" lon="13.025619494207092"><ele>137.0</ele><time>2026-04-18T08:32:44Z</time></trkpt><trkpt lat="43.53611212542236" lon="13.025810838584999"><ele>137.0</ele><time>2026-04-18T08:32:45Z</time></trkpt><trkpt lat="43.5362374087353" lon="13.025965690832917"><ele>137.0</ele><time>2026-04-18T08:32:46Z</time></trkpt><trkpt lat="43.536366272937926" lon="13.026126332682864"><ele>135.66666666666666</ele><time>2026-04-18T08:32:47Z</time></trkpt><trkpt lat="43.53651882588553" lon="13.026260077940277"><ele>134.33333333333334</ele><time>2026-04-18T08:32:48Z</time></trkpt><trkpt lat="43.536704024291055" lon="13.026403610975587"><ele>133.0</ele><time>2026-04-18T08:32:49Z</time></trkpt><trkpt lat="43.536893364160484" lon="13.026539610311318"><ele>130.0</ele><time>2026-04-18T08:32:50Z</time></trkpt><trkpt lat="43.53709299004175" lon="13.026659392997919"><ele>127.0</ele><time>2026-04-18T08:32:51Z</time></trkpt><trkpt lat="43.53727710007508" lon="13.026802199532838"><ele>124.0</ele><time>2026-04-18T08:32:52Z</time></trkpt><trkpt lat="43.537453828034295" lon="13.02695339254343"><ele>124.0</ele><time>2026-04-18T08:32:53Z</time></trkpt><trkpt lat="43.53762679624469" lon="13.027112429859168"><ele>124.0</ele><time>2026-04-18T08:32:54Z</time></trkpt><trkpt lat="43.53779818392318" lon="13.02727439408886"><ele>124.0</ele><time>2026-04-18T08:32:55Z</time></trkpt><trkpt lat="43.53794778404165" lon="13.027462688757767"><ele>125.33333333333334</ele><time>2026-04-18T08:32:56Z</time></trkpt><trkpt lat="43.538072996471136" lon="13.027642445259236"><ele>126.66666666666666</ele><time>2026-04-18T08:32:57Z</time></trkpt><trkpt lat="43.53819690042059" lon="13.027819604049531"><ele>128.0</ele><time>2026-04-18T08:32:58Z</time></trkpt><trkpt lat="43.53834998314482" lon="13.0279727952954"><ele>128.0</ele><time>2026-04-18T08:32:59Z</time></trkpt><trkpt lat="43.538500258666154" lon="13.028085195830837"><ele>128.0</ele><time>2026-04-18T08:33:00Z</time></trkpt><trkpt lat="43.538669801228856" lon="13.028158872014806"><ele>128.0</ele><time>2026-04-18T08:33:01Z</time></trkpt><trkpt lat="43.53883930577096" lon="13.028215935761304"><ele>128.33333333333331</ele><time>2026-04-18T08:33:02Z</time></trkpt><trkpt lat="43.53900263570086" lon="13.028304652131776"><ele>128.66666666666666</ele><time>2026-04-18T08:33:03Z</time></trkpt><trkpt lat="43.539169487384335" lon="13.02841085799432"><ele>129.0</ele><time>2026-04-18T08:33:04Z</time></trkpt><trkpt lat="43.53931290870673" lon="13.02852942319583"><ele>129.75</ele><time>2026-04-18T08:33:05Z</time></trkpt><trkpt lat="43.539425474090265" lon="13.028670355024762"><ele>130.5</ele><time>2026-04-18T08:33:06Z</time></trkpt><trkpt lat="43.5395005140171" lon="13.028831426923999"><ele>131.25</ele><time>2026-04-18T08:33:07Z</time></trkpt><trkpt lat="43.539544794655434" lon="13.0290137360999"><ele>132.0</ele><time>2026-04-18T08:33:08Z</time></trkpt><trkpt lat="43.53955922722489" lon="13.029184312991877"><ele>132.0</ele><time>2026-04-18T08:33:09Z</time></trkpt><trkpt lat="43.53957010439056" lon="13.029365073553944"><ele>132.0</ele><time>2026-04-18T08:33:10Z</time></trkpt><trkpt lat="43.53957796413643" lon="13.029559830745717"><ele>132.0</ele><time>2026-04-18T08:33:11Z</time></trkpt><trkpt lat="43.539582028503496" lon="13.02976582536017"><ele>132.0</ele><time>2026-04-18T08:33:12Z</time></trkpt><trkpt lat="43.539585026151954" lon="13.029991356927843"><ele>134.66666666666666</ele><time>2026-04-18T08:33:13Z</time></trkpt><trkpt lat="43.539587975014314" lon="13.030210049299216"><ele>137.33333333333331</ele><time>2026-04-18T08:33:14Z</time></trkpt><trkpt lat="43.53958803383128" lon="13.030439880928865"><ele>140.0</ele><time>2026-04-18T08:33:15Z</time></trkpt><trkpt lat="43.539587677624226" lon="13.030681441326744"><ele>141.66666666666666</ele><time>2026-04-18T08:33:16Z</time></trkpt><trkpt lat="43.53959443657294" lon="13.030899806900745"><ele>143.33333333333334</ele><time>2026-04-18T08:33:17Z</time></trkpt><trkpt lat="43.539625462152955" lon="13.031108861473744"><ele>145.0</ele><time>2026-04-18T08:33:18Z</time></trkpt><trkpt lat="43.539652839774014" lon="13.031318868381994"><ele>145.0</ele><time>2026-04-18T08:33:19Z</time></trkpt><trkpt lat="43.539687619178075" lon="13.03152623430023"><ele>145.0</ele><time>2026-04-18T08:33:20Z</time></trkpt><trkpt lat="43.539741198627986" lon="13.031720278879057"><ele>145.0</ele><time>2026-04-18T08:33:21Z</time></trkpt><trkpt lat="43.53981637946003" lon="13.031898087971543"><ele>146.33333333333334</ele><time>2026-04-18T08:33:22Z</time></trkpt><trkpt lat="43.53994565147263" lon="13.032034839576347"><ele>147.66666666666666</ele><time>2026-04-18T08:33:23Z</time></trkpt><trkpt lat="43.54007267775149" lon="13.032193400678151"><ele>149.0</ele><time>2026-04-18T08:33:24Z</time></trkpt><trkpt lat="43.54020627586898" lon="13.032345743882322"><ele>150.5</ele><time>2026-04-18T08:33:25Z</time></trkpt><trkpt lat="43.5403352706521" lon="13.032490128849169"><ele>152.0</ele><time>2026-04-18T08:33:26Z</time></trkpt><trkpt lat="43.540455890828966" lon="13.032610994805943"><ele>153.5</ele><time>2026-04-18T08:33:27Z</time></trkpt><trkpt lat="43.54056286157749" lon="13.032714556501892"><ele>155.0</ele><time>2026-04-18T08:33:28Z</time></trkpt><trkpt lat="43.540666312924834" lon="13.032815356347138"><ele>155.0</ele><time>2026-04-18T08:33:29Z</time></trkpt><trkpt lat="43.540760644401615" lon="13.03290847505782"><ele>155.0</ele><time>2026-04-18T08:33:30Z</time></trkpt><trkpt lat="43.54084821464133" lon="13.033002304093225"><ele>155.0</ele><time>2026-04-18T08:33:31Z</time></trkpt><trkpt lat="43.54092664120789" lon="13.03310305854266"><ele>155.0</ele><time>2026-04-18T08:33:32Z</time></trkpt><trkpt lat="43.54100331124039" lon="13.03321039703308"><ele>155.0</ele><time>2026-04-18T08:33:33Z</time></trkpt><trkpt lat="43.5410801481074" lon="13.033317882671795"><ele>154.8</ele><time>2026-04-18T08:33:34Z</time></trkpt><trkpt lat="43.541156088177516" lon="13.033420263479353"><ele>154.6</ele><time>2026-04-18T08:33:35Z</time></trkpt><trkpt lat="43.54122959448715" lon="13.03351111966458"><ele>154.4</ele><time>2026-04-18T08:33:36Z</time></trkpt><trkpt lat="43.54130250451962" lon="13.033592066423232"><ele>154.2</ele><time>2026-04-18T08:33:37Z</time></trkpt><trkpt lat="43.54137607026623" lon="13.033669244251946"><ele>154.0</ele><time>2026-04-18T08:33:38Z</time></trkpt><trkpt lat="43.541453443947454" lon="13.03371303095047"><ele>154.0</ele><time>2026-04-18T08:33:39Z</time></trkpt><trkpt lat="43.54159969304824" lon="13.033935236609988"><ele>154.0</ele><time>2026-04-18T08:33:41Z</time></trkpt><trkpt lat="43.541702038249866" lon="13.034019306455876"><ele>154.0</ele><time>2026-04-18T08:33:42Z</time></trkpt><trkpt lat="43.541776632398374" lon="13.034104393735694"><ele>154.0</ele><time>2026-04-18T08:33:43Z</time></trkpt><trkpt lat="43.54183722269353" lon="13.034151163876025"><ele>154.0</ele><time>2026-04-18T08:33:44Z</time></trkpt><trkpt lat="43.541926061723885" lon="13.034160875374058"><ele>154.0</ele><time>2026-04-18T08:33:46Z</time></trkpt><trkpt lat="43.542004940438034" lon="13.034180783276028"><ele>154.0</ele><time>2026-04-18T08:34:19Z</time></trkpt><trkpt lat="43.541925513680525" lon="13.034161861248526"><ele>154.0</ele><time>2026-04-18T08:34:22Z</time></trkpt><trkpt lat="43.54184740330386" lon="13.034077198852556"><ele>154.0</ele><time>2026-04-18T08:34:23Z</time></trkpt><trkpt lat="43.541748409362526" lon="13.034029825749556"><ele>154.0</ele><time>2026-04-18T08:34:24Z</time></trkpt><trkpt lat="43.54166494098873" lon="13.033936527928187"><ele>154.0</ele><time>2026-04-18T08:34:25Z</time></trkpt><trkpt lat="43.54160472542215" lon="13.033844917320684"><ele>154.0</ele><time>2026-04-18T08:34:26Z</time></trkpt><trkpt lat="43.541549839968724" lon="13.033748760770202"><ele>154.0</ele><time>2026-04-18T08:34:27Z</time></trkpt><trkpt lat="43.541522081704365" lon="13.033640816432538"><ele>154.0</ele><time>2026-04-18T08:34:28Z</time></trkpt><trkpt lat="43.5415398183883" lon="13.033515607382109"><ele>154.0</ele><time>2026-04-18T08:34:29Z</time></trkpt><trkpt lat="43.54162094011401" lon="13.033394852708607"><ele>154.0</ele><time>2026-04-18T08:34:30Z</time></trkpt><trkpt lat="43.54175208574352" lon="13.033297188936626"><ele>154.0</ele><time>2026-04-18T08:34:31Z</time></trkpt><trkpt lat="43.541925753636846" lon="13.033179341019434"><ele>151.0</ele><time>2026-04-18T08:34:32Z</time></trkpt><trkpt lat="43.54210123789257" lon="13.033047163086882"><ele>148.0</ele><time>2026-04-18T08:34:33Z</time></trkpt><trkpt lat="43.54226076403271" lon="13.032925311741666"><ele>145.0</ele><time>2026-04-18T08:34:34Z</time></trkpt><trkpt lat="43.54240673750904" lon="13.032811895718178"><ele>145.0</ele><time>2026-04-18T08:34:35Z</time></trkpt><trkpt lat="43.54254772166077" lon="13.032701000988265"><ele>145.0</ele><time>2026-04-18T08:34:36Z</time></trkpt><trkpt lat="43.542679445129366" lon="13.032600524246046"><ele>145.0</ele><time>2026-04-18T08:34:37Z</time></trkpt><trkpt lat="43.54288966916891" lon="13.032341152891874"><ele>142.0</ele><time>2026-04-18T08:34:39Z</time></trkpt><trkpt lat="43.542947261868015" lon="13.032140239003777"><ele>139.0</ele><time>2026-04-18T08:34:40Z</time></trkpt><trkpt lat="43.542973676370835" lon="13.031924129989333"><ele>136.0</ele><time>2026-04-18T08:34:41Z</time></trkpt><trkpt lat="43.54299344387216" lon="13.031715729804493"><ele>136.0</ele><time>2026-04-18T08:34:42Z</time></trkpt><trkpt lat="43.543021717177695" lon="13.031516927689573"><ele>133.0</ele><time>2026-04-18T08:34:43Z</time></trkpt><trkpt lat="43.54306230176037" lon="13.031337662387697"><ele>133.0</ele><time>2026-04-18T08:34:44Z</time></trkpt></trkseg></trk></gpx>